<?xml version='1.0' encoding='UTF-8'?><gpx version="1.1" creator="JPX - https://github.com/jenetics/jpx" xmlns="http://www.topografix.com/GPX/1/1"><trk><trkseg><trkpt lat="47.849566578006254" lon="1.1301048874535806"><ele>84.0</ele><time>2026-04-25T11:19:12.001Z</time></trkpt><trkpt lat="47.84951600004441" lon="1.1300054725711022"><ele>84.0</ele><time>2026-04-25T11:19:13.001Z</time></trkpt><trkpt lat="47.849465097702684" lon="1.12990017147777"><ele>84.0</ele><time>2026-04-25T11:19:14.001Z</time></trkpt><trkpt lat="47.8494081509151" lon="1.1298082097342077"><ele>84.0</ele><time>2026-04-25T11:19:15.001Z</time></trkpt><trkpt lat="47.849347904837295" lon="1.1297314173663977"><ele>84.0</ele><time>2026-04-25T11:19:16.001Z</time></trkpt><trkpt lat="47.849288030227534" lon="1.129673943092683"><ele>84.0</ele><time>2026-04-25T11:19:17.001Z</time></trkpt><trkpt lat="47.84923964590386" lon="1.1295927486678738"><ele>84.0</ele><time>2026-04-25T11:19:18.001Z</time></trkpt><trkpt lat="47.84917598729007" lon="1.1295150444343403"><ele>84.0</ele><time>2026-04-25T11:19:19.001Z</time></trkpt><trkpt lat="47.84911490731511" lon="1.129435197594575"><ele>84.0</ele><time>2026-04-25T11:19:20.001Z</time></trkpt><trkpt lat="47.84906417516426" lon="1.129378968161197"><ele>84.0</ele><time>2026-04-25T11:19:21.001Z</time></trkpt><trkpt lat="47.849012286352696" lon="1.129303782644567"><ele>84.0</ele><time>2026-04-25T11:19:22.001Z</time></trkpt><trkpt lat="47.84895720839968" lon="1.1292349064559521"><ele>84.0</ele><time>2026-04-25T11:19:23.001Z</time></trkpt><trkpt lat="47.84885435630577" lon="1.129123303428788"><ele>84.2</ele><time>2026-04-25T11:19:25.001Z</time></trkpt><trkpt lat="47.84876617100935" lon="1.1290529590434928"><ele>84.4</ele><time>2026-04-25T11:19:27.001Z</time></trkpt><trkpt lat="47.84871501223482" lon="1.1289835801820167"><ele>84.6</ele><time>2026-04-25T11:19:28.001Z</time></trkpt><trkpt lat="47.84862587936536" lon="1.128910421906806"><ele>84.8</ele><time>2026-04-25T11:19:29.001Z</time></trkpt><trkpt lat="47.84852876899011" lon="1.1288438202218862"><ele>85.0</ele><time>2026-04-25T11:19:30.001Z</time></trkpt><trkpt lat="47.848426734706884" lon="1.1287680542968361"><ele>85.0</ele><time>2026-04-25T11:19:31.001Z</time></trkpt><trkpt lat="47.848315502357174" lon="1.1286638403463756"><ele>85.0</ele><time>2026-04-25T11:19:32.001Z</time></trkpt><trkpt lat="47.84821789996949" lon="1.128562737485981"><ele>85.0</ele><time>2026-04-25T11:19:33.001Z</time></trkpt><trkpt lat="47.84814444322384" lon="1.1284381220702522"><ele>85.0</ele><time>2026-04-25T11:19:34.001Z</time></trkpt><trkpt lat="47.84804110425596" lon="1.1282643993307542"><ele>84.5</ele><time>2026-04-25T11:19:35.001Z</time></trkpt><trkpt lat="47.847938282259996" lon="1.1280824061663377"><ele>84.0</ele><time>2026-04-25T11:19:36.001Z</time></trkpt><trkpt lat="47.847871524024214" lon="1.127981598026095"><ele>83.5</ele><time>2026-04-25T11:19:37.001Z</time></trkpt><trkpt lat="47.84779819656379" lon="1.127873907285114"><ele>83.0</ele><time>2026-04-25T11:19:39.001Z</time></trkpt><trkpt lat="47.84773378625997" lon="1.127775963787813"><ele>83.0</ele><time>2026-04-25T11:19:41.001Z</time></trkpt><trkpt lat="47.84766736377038" lon="1.1277102139518724"><ele>83.0</ele><time>2026-04-25T11:20:10Z</time></trkpt><trkpt lat="47.84756773748876" lon="1.1275779203415008"><ele>83.0</ele><time>2026-04-25T11:20:12Z</time></trkpt><trkpt lat="47.847485587141385" lon="1.1274789500778406"><ele>83.0</ele><time>2026-04-25T11:20:13Z</time></trkpt><trkpt lat="47.84738609133033" lon="1.1273358628576424"><ele>83.0</ele><time>2026-04-25T11:20:14Z</time></trkpt><trkpt lat="47.84730373254369" lon="1.127203037510988"><ele>83.0</ele><time>2026-04-25T11:20:15Z</time></trkpt><trkpt lat="47.84722489599149" lon="1.1270860894215562"><ele>83.0</ele><time>2026-04-25T11:20:16Z</time></trkpt><trkpt lat="47.847129541683614" lon="1.1269387452692219"><ele>83.0</ele><time>2026-04-25T11:20:17Z</time></trkpt><trkpt lat="47.8470066136468" lon="1.1267535479573922"><ele>83.0</ele><time>2026-04-25T11:20:18Z</time></trkpt><trkpt lat="47.84686998404866" lon="1.1265418432455105"><ele>83.0</ele><time>2026-04-25T11:20:19Z</time></trkpt><trkpt lat="47.84671925024959" lon="1.1263179778321561"><ele>83.0</ele><time>2026-04-25T11:20:20Z</time></trkpt><trkpt lat="47.84658033166543" lon="1.1261007780403574"><ele>83.0</ele><time>2026-04-25T11:20:21Z</time></trkpt><trkpt lat="47.84645590496032" lon="1.1259144825274934"><ele>83.0</ele><time>2026-04-25T11:20:22Z</time></trkpt><trkpt lat="47.846344740139955" lon="1.1257542898575825"><ele>83.0</ele><time>2026-04-25T11:20:23Z</time></trkpt><trkpt lat="47.846234822605275" lon="1.1256076872962761"><ele>83.0</ele><time>2026-04-25T11:20:24Z</time></trkpt><trkpt lat="47.8461167463961" lon="1.1254492442464494"><ele>83.0</ele><time>2026-04-25T11:20:25Z</time></trkpt><trkpt lat="47.84599609657442" lon="1.1253060075632444"><ele>83.0</ele><time>2026-04-25T11:20:26Z</time></trkpt><trkpt lat="47.84587820559064" lon="1.1251759297411688"><ele>83.0</ele><time>2026-04-25T11:20:27Z</time></trkpt><trkpt lat="47.84573898257204" lon="1.1250296429742717"><ele>83.0</ele><time>2026-04-25T11:20:28Z</time></trkpt><trkpt lat="47.84559256342707" lon="1.124881168017619"><ele>83.0</ele><time>2026-04-25T11:20:29Z</time></trkpt><trkpt lat="47.84546276208568" lon="1.124751143274994"><ele>82.75</ele><time>2026-04-25T11:20:30Z</time></trkpt><trkpt lat="47.84533966938894" lon="1.1246338694372136"><ele>82.5</ele><time>2026-04-25T11:20:31Z</time></trkpt><trkpt lat="47.84523385086055" lon="1.1245296719939377"><ele>82.25</ele><time>2026-04-25T11:20:32Z</time></trkpt><trkpt lat="47.8451281186441" lon="1.124424294209656"><ele>82.0</ele><time>2026-04-25T11:20:33Z</time></trkpt><trkpt lat="47.84503065445791" lon="1.124329789661901"><ele>82.39999999999999</ele><time>2026-04-25T11:20:34Z</time></trkpt><trkpt lat="47.844939881237536" lon="1.1242453928817715"><ele>82.8</ele><time>2026-04-25T11:20:35Z</time></trkpt><trkpt lat="47.84485896966962" lon="1.1241687595339682"><ele>83.2</ele><time>2026-04-25T11:20:36Z</time></trkpt><trkpt lat="47.84479124060163" lon="1.124105463942705"><ele>83.6</ele><time>2026-04-25T11:20:37Z</time></trkpt><trkpt lat="47.84473212968064" lon="1.1240514829376635"><ele>84.0</ele><time>2026-04-25T11:20:38Z</time></trkpt><trkpt lat="47.84464102439239" lon="1.123928888388502"><ele>84.0</ele><time>2026-04-25T11:20:40Z</time></trkpt><trkpt lat="47.84457733645782" lon="1.123867315056581"><ele>84.0</ele><time>2026-04-25T11:20:42Z</time></trkpt><trkpt lat="47.8445074740903" lon="1.1239181662914188"><ele>84.0</ele><time>2026-04-25T11:20:45Z</time></trkpt><trkpt lat="47.84444181087107" lon="1.124041773631713"><ele>84.0</ele><time>2026-04-25T11:20:47Z</time></trkpt><trkpt lat="47.84436834245729" lon="1.1241519361835839"><ele>84.0</ele><time>2026-04-25T11:20:48Z</time></trkpt><trkpt lat="47.84428120340496" lon="1.1242854837594607"><ele>84.4</ele><time>2026-04-25T11:20:49Z</time></trkpt><trkpt lat="47.84421203611964" lon="1.1243981902455102"><ele>84.80000000000001</ele><time>2026-04-25T11:20:50Z</time></trkpt><trkpt lat="47.84417215525319" lon="1.1244733667658677"><ele>85.19999999999999</ele><time>2026-04-25T11:20:51Z</time></trkpt><trkpt lat="47.84407879900339" lon="1.1246009046664285"><ele>85.6</ele><time>2026-04-25T11:20:53Z</time></trkpt><trkpt lat="47.84401950899756" lon="1.1247070179466276"><ele>86.0</ele><time>2026-04-25T11:20:54Z</time></trkpt><trkpt lat="47.84395772219133" lon="1.1248659599555435"><ele>86.0</ele><time>2026-04-25T11:20:55Z</time></trkpt><trkpt lat="47.843876373503456" lon="1.1250318149731116"><ele>86.0</ele><time>2026-04-25T11:20:56Z</time></trkpt><trkpt lat="47.843793354788914" lon="1.1252326452060735"><ele>86.0</ele><time>2026-04-25T11:20:57Z</time></trkpt><trkpt lat="47.84371487054535" lon="1.125497767769406"><ele>86.0</ele><time>2026-04-25T11:20:58Z</time></trkpt><trkpt lat="47.84364588384662" lon="1.1257771785464836"><ele>86.0</ele><time>2026-04-25T11:20:59Z</time></trkpt><trkpt lat="47.843565639320346" lon="1.126045053449371"><ele>86.0</ele><time>2026-04-25T11:21:00Z</time></trkpt><trkpt lat="47.84350850575308" lon="1.1262738894143796"><ele>86.4</ele><time>2026-04-25T11:21:01Z</time></trkpt><trkpt lat="47.84346289809397" lon="1.1264609896034563"><ele>86.8</ele><time>2026-04-25T11:21:02Z</time></trkpt><trkpt lat="47.84342099976906" lon="1.1266312096328595"><ele>87.2</ele><time>2026-04-25T11:21:03Z</time></trkpt><trkpt lat="47.84338588036289" lon="1.12676951308545"><ele>87.60000000000001</ele><time>2026-04-25T11:21:04Z</time></trkpt><trkpt lat="47.84335301214459" lon="1.1268914267572576"><ele>88.0</ele><time>2026-04-25T11:21:05Z</time></trkpt><trkpt lat="47.84332343246271" lon="1.126990761566955"><ele>88.16666666666666</ele><time>2026-04-25T11:21:06Z</time></trkpt><trkpt lat="47.843280640581895" lon="1.1271279846409754"><ele>88.33333333333333</ele><time>2026-04-25T11:21:08.001Z</time></trkpt><trkpt lat="47.84325109624353" lon="1.127230727521146"><ele>88.5</ele><time>2026-04-25T11:21:11.001Z</time></trkpt><trkpt lat="47.843243917542814" lon="1.1273294506546467"><ele>88.66666666666667</ele><time>2026-04-25T11:21:37.001Z</time></trkpt><trkpt lat="47.84322090529536" lon="1.1274324915980203"><ele>88.83333333333334</ele><time>2026-04-25T11:21:38.001Z</time></trkpt><trkpt lat="47.843193989169485" lon="1.1275529800092599"><ele>89.0</ele><time>2026-04-25T11:21:39.001Z</time></trkpt><trkpt lat="47.84318061018496" lon="1.1277085546306078"><ele>89.25</ele><time>2026-04-25T11:21:40.001Z</time></trkpt><trkpt lat="47.84317258694039" lon="1.1278708123176517"><ele>89.5</ele><time>2026-04-25T11:21:41.001Z</time></trkpt><trkpt lat="47.84316771718622" lon="1.128058947767345"><ele>89.75</ele><time>2026-04-25T11:21:42.001Z</time></trkpt><trkpt lat="47.84316338721035" lon="1.1282500290289252"><ele>90.0</ele><time>2026-04-25T11:21:43.001Z</time></trkpt><trkpt lat="47.84315780731845" lon="1.1284050838327437"><ele>90.4</ele><time>2026-04-25T11:21:44.001Z</time></trkpt><trkpt lat="47.84314561606224" lon="1.128529251140559"><ele>90.8</ele><time>2026-04-25T11:21:45.001Z</time></trkpt><trkpt lat="47.843124538057246" lon="1.128658137388437"><ele>91.19999999999999</ele><time>2026-04-25T11:21:46.001Z</time></trkpt><trkpt lat="47.843091396943144" lon="1.128832998540262"><ele>91.6</ele><time>2026-04-25T11:21:47.001Z</time></trkpt><trkpt lat="47.843052224494656" lon="1.1290509281617374"><ele>92.0</ele><time>2026-04-25T11:21:48.001Z</time></trkpt><trkpt lat="47.84300725169234" lon="1.1293174369327408"><ele>93.25</ele><time>2026-04-25T11:21:49.001Z</time></trkpt><trkpt lat="47.84296670428176" lon="1.1295505214607313"><ele>94.5</ele><time>2026-04-25T11:21:50.001Z</time></trkpt><trkpt lat="47.842937716178604" lon="1.1297279800113071"><ele>95.75</ele><time>2026-04-25T11:21:51.001Z</time></trkpt><trkpt lat="47.8429240682192" lon="1.1298861434905267"><ele>97.0</ele><time>2026-04-25T11:21:52.001Z</time></trkpt><trkpt lat="47.842941612541665" lon="1.1300369089616285"><ele>98.19999999999999</ele><time>2026-04-25T11:21:53.001Z</time></trkpt><trkpt lat="47.84299067648907" lon="1.1301732713016002"><ele>99.4</ele><time>2026-04-25T11:21:54.001Z</time></trkpt><trkpt lat="47.84305322870937" lon="1.1303092668433803"><ele>100.6</ele><time>2026-04-25T11:21:55.001Z</time></trkpt><trkpt lat="47.843111625115284" lon="1.130438919394908"><ele>101.80000000000001</ele><time>2026-04-25T11:21:56.001Z</time></trkpt><trkpt lat="47.84315472039739" lon="1.1305887317427712"><ele>103.0</ele><time>2026-04-25T11:21:57.001Z</time></trkpt><trkpt lat="47.843184745974064" lon="1.1307660379742033"><ele>104.33333333333334</ele><time>2026-04-25T11:21:58.001Z</time></trkpt><trkpt lat="47.84320792678835" lon="1.1309966287329742"><ele>105.66666666666666</ele><time>2026-04-25T11:21:59.001Z</time></trkpt><trkpt lat="47.84321590320222" lon="1.1312753762624388"><ele>107.0</ele><time>2026-04-25T11:22:00.001Z</time></trkpt><trkpt lat="47.843219792699855" lon="1.1315738212292448"><ele>107.39999999999999</ele><time>2026-04-25T11:22:01.001Z</time></trkpt><trkpt lat="47.843218142620145" lon="1.131788002224074"><ele>107.79999999999998</ele><time>2026-04-25T11:22:02.001Z</time></trkpt><trkpt lat="47.84323666935009" lon="1.1319377778620656"><ele>108.2</ele><time>2026-04-25T11:22:03.001Z</time></trkpt><trkpt lat="47.843260234197054" lon="1.1320535770480649"><ele>108.6</ele><time>2026-04-25T11:22:04.001Z</time></trkpt><trkpt lat="47.8432820399823" lon="1.1321562117562172"><ele>109.0</ele><time>2026-04-25T11:22:05.001Z</time></trkpt><trkpt lat="47.843312977065516" lon="1.1323031845114668"><ele>109.80000000000001</ele><time>2026-04-25T11:22:07.001Z</time></trkpt><trkpt lat="47.84333546987215" lon="1.1324082939606224"><ele>110.60000000000001</ele><time>2026-04-25T11:22:09.001Z</time></trkpt><trkpt lat="47.843244009259486" lon="1.1324117751358005"><ele>111.4</ele><time>2026-04-25T11:22:14.001Z</time></trkpt><trkpt lat="47.843148997049326" lon="1.1324193337185955"><ele>112.2</ele><time>2026-04-25T11:22:15.001Z</time></trkpt><trkpt lat="47.84301971515483" lon="1.1324868448089604"><ele>113.0</ele><time>2026-04-25T11:22:16.001Z</time></trkpt><trkpt lat="47.84287414208026" lon="1.1325811536758323"><ele>113.0</ele><time>2026-04-25T11:22:17.001Z</time></trkpt><trkpt lat="47.842697093683825" lon="1.1325666701378807"><ele>113.0</ele><time>2026-04-25T11:22:18.001Z</time></trkpt><trkpt lat="47.8425344716524" lon="1.1325225345386551"><ele>113.0</ele><time>2026-04-25T11:22:19.001Z</time></trkpt><trkpt lat="47.84238811505432" lon="1.1324798610066935"><ele>113.0</ele><time>2026-04-25T11:22:20.001Z</time></trkpt><trkpt lat="47.84225916869366" lon="1.1324942507059177"><ele>113.00000000000001</ele><time>2026-04-25T11:22:21.001Z</time></trkpt><trkpt lat="47.842155225430375" lon="1.1324658735501487"><ele>113.00000000000001</ele><time>2026-04-25T11:22:22.001Z</time></trkpt><trkpt lat="47.84207517123144" lon="1.1324672682840118"><ele>113.0</ele><time>2026-04-25T11:22:23.001Z</time></trkpt><trkpt lat="47.84200606200582" lon="1.132471107681572"><ele>113.0</ele><time>2026-04-25T11:22:24.001Z</time></trkpt><trkpt lat="47.84201378189326" lon="1.132304492454649"><ele>113.0</ele><time>2026-04-25T11:22:27.001Z</time></trkpt><trkpt lat="47.842026979115715" lon="1.1321658879966625"><ele>113.00000000000001</ele><time>2026-04-25T11:22:28.001Z</time></trkpt><trkpt lat="47.84204585207358" lon="1.1320495173711573"><ele>113.00000000000001</ele><time>2026-04-25T11:22:29.001Z</time></trkpt><trkpt lat="47.84206905873603" lon="1.1319457637045092"><ele>113.0</ele><time>2026-04-25T11:22:30.001Z</time></trkpt><trkpt lat="47.84211324113835" lon="1.1317482325507398"><ele>113.0</ele><time>2026-04-25T11:22:32.001Z</time></trkpt><trkpt lat="47.84214513436749" lon="1.1316056439424174"><ele>113.0</ele><time>2026-04-25T11:22:34.001Z</time></trkpt><trkpt lat="47.84207653367765" lon="1.1315326670057724"><ele>113.00000000000001</ele><time>2026-04-25T11:22:35.001Z</time></trkpt><trkpt lat="47.84203029956138" lon="1.1314374740714312"><ele>113.00000000000001</ele><time>2026-04-25T11:22:37.001Z</time></trkpt><trkpt lat="47.841970943344776" lon="1.1313581102409431"><ele>113.0</ele><time>2026-04-25T11:22:38.001Z</time></trkpt><trkpt lat="47.841880206539" lon="1.131289417926949"><ele>113.0</ele><time>2026-04-25T11:22:39.001Z</time></trkpt><trkpt lat="47.841752962851864" lon="1.1312201769603032"><ele>112.66666666666666</ele><time>2026-04-25T11:22:40.001Z</time></trkpt><trkpt lat="47.84160377875757" lon="1.1311378997793047"><ele>112.33333333333334</ele><time>2026-04-25T11:22:41.001Z</time></trkpt><trkpt lat="47.84143287716547" lon="1.1310403823799866"><ele>112.0</ele><time>2026-04-25T11:22:42.001Z</time></trkpt><trkpt lat="47.841249962795104" lon="1.1309217467846544"><ele>112.0</ele><time>2026-04-25T11:22:43.001Z</time></trkpt><trkpt lat="47.841053021321905" lon="1.1307724462254078"><ele>112.0</ele><time>2026-04-25T11:22:44.001Z</time></trkpt><trkpt lat="47.840841930442046" lon="1.1306222504688486"><ele>113.33333333333334</ele><time>2026-04-25T11:22:45.001Z</time></trkpt><trkpt lat="47.8406290464569" lon="1.1304692784897272"><ele>114.66666666666666</ele><time>2026-04-25T11:22:46.001Z</time></trkpt><trkpt lat="47.84045551329542" lon="1.130350808020633"><ele>116.0</ele><time>2026-04-25T11:22:47.001Z</time></trkpt><trkpt lat="47.840297911863125" lon="1.130235756475399"><ele>115.66666666666666</ele><time>2026-04-25T11:22:48.001Z</time></trkpt><trkpt lat="47.84012395718166" lon="1.1300837356190994"><ele>115.33333333333334</ele><time>2026-04-25T11:22:49.001Z</time></trkpt><trkpt lat="47.83997429144851" lon="1.1299414616606414"><ele>115.0</ele><time>2026-04-25T11:22:50.001Z</time></trkpt><trkpt lat="47.83985022427027" lon="1.129841245003194"><ele>115.0</ele><time>2026-04-25T11:22:51.001Z</time></trkpt><trkpt lat="47.839751901340264" lon="1.129764744010629"><ele>115.0</ele><time>2026-04-25T11:22:52.001Z</time></trkpt><trkpt lat="47.839681849025766" lon="1.1297206885619813"><ele>115.0</ele><time>2026-04-25T11:22:53.001Z</time></trkpt><trkpt lat="47.839618446916354" lon="1.1296180261739495"><ele>115.0</ele><time>2026-04-25T11:23:23.001Z</time></trkpt><trkpt lat="47.83954556077552" lon="1.129545730793691"><ele>115.0</ele><time>2026-04-25T11:23:24.001Z</time></trkpt><trkpt lat="47.8394601811767" lon="1.1294331335419203"><ele>115.0</ele><time>2026-04-25T11:23:25.001Z</time></trkpt><trkpt lat="47.83936712329605" lon="1.1293040729255872"><ele>115.0</ele><time>2026-04-25T11:23:26.001Z</time></trkpt><trkpt lat="47.83930155413038" lon="1.1291977344905426"><ele>115.0</ele><time>2026-04-25T11:23:27.001Z</time></trkpt><trkpt lat="47.83925845275356" lon="1.129116437214811"><ele>115.0</ele><time>2026-04-25T11:23:28.001Z</time></trkpt><trkpt lat="47.83919525607251" lon="1.1290510050876201"><ele>115.0</ele><time>2026-04-25T11:23:30.001Z</time></trkpt><trkpt lat="47.83910351693515" lon="1.1291301836037477"><ele>116.25</ele><time>2026-04-25T11:23:32.001Z</time></trkpt><trkpt lat="47.83903647714567" lon="1.129233170693469"><ele>117.5</ele><time>2026-04-25T11:23:33.001Z</time></trkpt><trkpt lat="47.838954895149016" lon="1.129352557306576"><ele>118.75</ele><time>2026-04-25T11:23:34.001Z</time></trkpt><trkpt lat="47.838853195868566" lon="1.1294851312384693"><ele>120.0</ele><time>2026-04-25T11:23:35.001Z</time></trkpt><trkpt lat="47.83875314345887" lon="1.1295939373500603"><ele>120.0</ele><time>2026-04-25T11:23:36.001Z</time></trkpt><trkpt lat="47.83865576513526" lon="1.1297156947672315"><ele>120.0</ele><time>2026-04-25T11:23:37.001Z</time></trkpt><trkpt lat="47.83854684765427" lon="1.1298407534756911"><ele>120.0</ele><time>2026-04-25T11:23:38.001Z</time></trkpt><trkpt lat="47.83843439798813" lon="1.1299751495920531"><ele>120.0</ele><time>2026-04-25T11:23:39.001Z</time></trkpt><trkpt lat="47.83835087419216" lon="1.1301012481851287"><ele>120.75</ele><time>2026-04-25T11:23:40.001Z</time></trkpt><trkpt lat="47.838278762702025" lon="1.1302156167462631"><ele>121.5</ele><time>2026-04-25T11:23:41.001Z</time></trkpt><trkpt lat="47.838209081748126" lon="1.1303227862151597"><ele>122.25</ele><time>2026-04-25T11:23:42.001Z</time></trkpt><trkpt lat="47.83812124607469" lon="1.1304662414909603"><ele>123.0</ele><time>2026-04-25T11:23:43.001Z</time></trkpt><trkpt lat="47.83800048926383" lon="1.1306497252591599"><ele>123.0</ele><time>2026-04-25T11:23:44.001Z</time></trkpt><trkpt lat="47.837860831073506" lon="1.13086166356659"><ele>123.0</ele><time>2026-04-25T11:23:45.001Z</time></trkpt><trkpt lat="47.83771228908491" lon="1.1310870121700984"><ele>123.0</ele><time>2026-04-25T11:23:46.001Z</time></trkpt><trkpt lat="47.83755704870229" lon="1.131307737757186"><ele>122.66666666666666</ele><time>2026-04-25T11:23:47.001Z</time></trkpt><trkpt lat="47.83740972774701" lon="1.131504968263793"><ele>122.33333333333333</ele><time>2026-04-25T11:23:48.001Z</time></trkpt><trkpt lat="47.8372888887985" lon="1.1316629905976074"><ele>122.0</ele><time>2026-04-25T11:23:49.001Z</time></trkpt><trkpt lat="47.83719781730236" lon="1.131791629130245"><ele>122.0</ele><time>2026-04-25T11:23:50.001Z</time></trkpt><trkpt lat="47.837127390509444" lon="1.1318918215743403"><ele>121.99999999999999</ele><time>2026-04-25T11:23:51.001Z</time></trkpt><trkpt lat="47.83707610838737" lon="1.1319633752294573"><ele>121.99999999999999</ele><time>2026-04-25T11:23:52.001Z</time></trkpt><trkpt lat="47.83701686227044" lon="1.1320263003965891"><ele>122.0</ele><time>2026-04-25T11:23:54.001Z</time></trkpt><trkpt lat="47.8369469964959" lon="1.1321396922952545"><ele>122.0</ele><time>2026-04-25T11:24:31.001Z</time></trkpt><trkpt lat="47.836867041397454" lon="1.13228612640269"><ele>121.66666666666666</ele><time>2026-04-25T11:24:32.001Z</time></trkpt><trkpt lat="47.836773645103825" lon="1.1324625407006446"><ele>121.33333333333334</ele><time>2026-04-25T11:24:33.001Z</time></trkpt><trkpt lat="47.836670505682896" lon="1.132642026008971"><ele>121.0</ele><time>2026-04-25T11:24:34.001Z</time></trkpt><trkpt lat="47.8365651312783" lon="1.1328076038159123"><ele>121.0</ele><time>2026-04-25T11:24:35.001Z</time></trkpt><trkpt lat="47.83643999651217" lon="1.1329394024031585"><ele>121.0</ele><time>2026-04-25T11:24:36.001Z</time></trkpt><trkpt lat="47.83629159206589" lon="1.1330610815684254"><ele>121.0</ele><time>2026-04-25T11:24:37.001Z</time></trkpt><trkpt lat="47.8361265264661" lon="1.1331821640473176"><ele>120.33333333333334</ele><time>2026-04-25T11:24:38.001Z</time></trkpt><trkpt lat="47.83594405435359" lon="1.1333193368957608"><ele>119.66666666666666</ele><time>2026-04-25T11:24:39.001Z</time></trkpt><trkpt lat="47.83577358718297" lon="1.1334256897657142"><ele>119.0</ele><time>2026-04-25T11:24:40.001Z</time></trkpt><trkpt lat="47.835629679334474" lon="1.1335198733748972"><ele>119.0</ele><time>2026-04-25T11:24:41.001Z</time></trkpt><trkpt lat="47.83549742797846" lon="1.1336115007653762"><ele>119.0</ele><time>2026-04-25T11:24:42.001Z</time></trkpt><trkpt lat="47.83536572941057" lon="1.1336990255374535"><ele>119.0</ele><time>2026-04-25T11:24:43.001Z</time></trkpt><trkpt lat="47.83525349104472" lon="1.1337686797144342"><ele>119.0</ele><time>2026-04-25T11:24:44.001Z</time></trkpt><trkpt lat="47.83513975550528" lon="1.1338297685324197"><ele>118.80000000000001</ele><time>2026-04-25T11:24:45.001Z</time></trkpt><trkpt lat="47.83503358221315" lon="1.133891138591378"><ele>118.60000000000001</ele><time>2026-04-25T11:24:46.001Z</time></trkpt><trkpt lat="47.83492736024039" lon="1.1339418713865017"><ele>118.4</ele><time>2026-04-25T11:24:47.001Z</time></trkpt><trkpt lat="47.834835443579266" lon="1.1339838800997906"><ele>118.2</ele><time>2026-04-25T11:24:48.001Z</time></trkpt><trkpt lat="47.83474906466347" lon="1.1340290550141594"><ele>118.0</ele><time>2026-04-25T11:24:49.001Z</time></trkpt><trkpt lat="47.83467279798926" lon="1.1340699522806583"><ele>118.0</ele><time>2026-04-25T11:24:50.001Z</time></trkpt><trkpt lat="47.83459538966012" lon="1.1341039010023362"><ele>118.00000000000001</ele><time>2026-04-25T11:24:51.001Z</time></trkpt><trkpt lat="47.83450385896073" lon="1.1341538041972743"><ele>118.00000000000001</ele><time>2026-04-25T11:24:52.001Z</time></trkpt><trkpt lat="47.83441964228648" lon="1.134206602616411"><ele>118.0</ele><time>2026-04-25T11:24:53.001Z</time></trkpt><trkpt lat="47.83434371176943" lon="1.1342546990100357"><ele>118.0</ele><time>2026-04-25T11:24:54.001Z</time></trkpt><trkpt lat="47.83422816978014" lon="1.134319938938244"><ele>118.0</ele><time>2026-04-25T11:24:55.001Z</time></trkpt><trkpt lat="47.83407589284252" lon="1.134409427808328"><ele>118.0</ele><time>2026-04-25T11:24:56.001Z</time></trkpt><trkpt lat="47.833937803337506" lon="1.1345078459765197"><ele>118.0</ele><time>2026-04-25T11:24:57.001Z</time></trkpt><trkpt lat="47.833815627235545" lon="1.1345860288708778"><ele>118.00000000000001</ele><time>2026-04-25T11:24:58.001Z</time></trkpt><trkpt lat="47.833716672381954" lon="1.1346494723154361"><ele>118.0</ele><time>2026-04-25T11:24:59.001Z</time></trkpt><trkpt lat="47.83363239418669" lon="1.1347051450468562"><ele>118.0</ele><time>2026-04-25T11:25:00.001Z</time></trkpt><trkpt lat="47.83355491117317" lon="1.1347640793297031"><ele>118.0</ele><time>2026-04-25T11:25:01.001Z</time></trkpt><trkpt lat="47.83348740025282" lon="1.1348100626997253"><ele>118.00000000000001</ele><time>2026-04-25T11:25:02.001Z</time></trkpt><trkpt lat="47.83342702841771" lon="1.1348509916448424"><ele>118.0</ele><time>2026-04-25T11:25:03.001Z</time></trkpt><trkpt lat="47.83334555280862" lon="1.1348956130298902"><ele>117.60000000000001</ele><time>2026-04-25T11:25:05.001Z</time></trkpt><trkpt lat="47.83332861175943" lon="1.1350171812754946"><ele>117.20000000000002</ele><time>2026-04-25T11:25:09.001Z</time></trkpt><trkpt lat="47.833306347655515" lon="1.1351727129804137"><ele>116.8</ele><time>2026-04-25T11:26:00.001Z</time></trkpt><trkpt lat="47.83328411614973" lon="1.1353044663422176"><ele>116.4</ele><time>2026-04-25T11:26:01.001Z</time></trkpt><trkpt lat="47.83325282370147" lon="1.1354598604742445"><ele>116.0</ele><time>2026-04-25T11:26:02.001Z</time></trkpt><trkpt lat="47.83321242666636" lon="1.1356403287991255"><ele>116.19999999999999</ele><time>2026-04-25T11:26:03.001Z</time></trkpt><trkpt lat="47.8331870580447" lon="1.1358280298591028"><ele>116.39999999999999</ele><time>2026-04-25T11:26:04.001Z</time></trkpt><trkpt lat="47.833190583573014" lon="1.1359710709880622"><ele>116.6</ele><time>2026-04-25T11:26:05.001Z</time></trkpt><trkpt lat="47.83320823842854" lon="1.13611337016762"><ele>116.8</ele><time>2026-04-25T11:26:06.001Z</time></trkpt><trkpt lat="47.833255076864745" lon="1.1362834103501331"><ele>117.0</ele><time>2026-04-25T11:26:07.001Z</time></trkpt><trkpt lat="47.833310712261756" lon="1.1364851378611027"><ele>117.33333333333334</ele><time>2026-04-25T11:26:08.001Z</time></trkpt><trkpt lat="47.83335870904327" lon="1.1367163123987283"><ele>117.66666666666667</ele><time>2026-04-25T11:26:09.001Z</time></trkpt><trkpt lat="47.83340262200274" lon="1.1369712568099146"><ele>118.0</ele><time>2026-04-25T11:26:10.001Z</time></trkpt><trkpt lat="47.83344857596923" lon="1.1372257733799822"><ele>118.0</ele><time>2026-04-25T11:26:11.001Z</time></trkpt><trkpt lat="47.833482697312164" lon="1.1374339291860396"><ele>118.00000000000001</ele><time>2026-04-25T11:26:12.001Z</time></trkpt><trkpt lat="47.83349547664409" lon="1.1375790024524794"><ele>118.00000000000001</ele><time>2026-04-25T11:26:13.001Z</time></trkpt><trkpt lat="47.833497863492155" lon="1.137694403985913"><ele>118.0</ele><time>2026-04-25T11:26:14.001Z</time></trkpt><trkpt lat="47.83346525653461" lon="1.1375072763513399"><ele>118.0</ele><time>2026-04-25T11:26:19.001Z</time></trkpt><trkpt lat="47.83344615164253" lon="1.137323517455956"><ele>118.0</ele><time>2026-04-25T11:26:20.001Z</time></trkpt><trkpt lat="47.833421935292144" lon="1.137128022994843"><ele>118.0</ele><time>2026-04-25T11:26:21.001Z</time></trkpt><trkpt lat="47.833380719030906" lon="1.1368909897686306"><ele>118.0</ele><time>2026-04-25T11:26:22.001Z</time></trkpt><trkpt lat="47.833336674790345" lon="1.136625038676704"><ele>117.75</ele><time>2026-04-25T11:26:23.001Z</time></trkpt><trkpt lat="47.833295501141905" lon="1.1364112006860863"><ele>117.5</ele><time>2026-04-25T11:26:24.001Z</time></trkpt><trkpt lat="47.8332580774372" lon="1.136231005389699"><ele>117.25</ele><time>2026-04-25T11:26:25.001Z</time></trkpt><trkpt lat="47.83322385594212" lon="1.136077511751312"><ele>117.0</ele><time>2026-04-25T11:26:26.001Z</time></trkpt><trkpt lat="47.83319739462481" lon="1.1359246179099654"><ele>117.0</ele><time>2026-04-25T11:26:27.001Z</time></trkpt><trkpt lat="47.83319000134035" lon="1.1357743171792578"><ele>116.99999999999999</ele><time>2026-04-25T11:26:28.001Z</time></trkpt><trkpt lat="47.83320958101779" lon="1.135643758203094"><ele>116.99999999999999</ele><time>2026-04-25T11:26:29.001Z</time></trkpt><trkpt lat="47.833240052789584" lon="1.1355140445755885"><ele>117.0</ele><time>2026-04-25T11:26:30.001Z</time></trkpt><trkpt lat="47.83326902333362" lon="1.1354204040050027"><ele>117.0</ele><time>2026-04-25T11:26:31.001Z</time></trkpt><trkpt lat="47.83330523207592" lon="1.1352635676787117"><ele>117.0</ele><time>2026-04-25T11:26:33.001Z</time></trkpt><trkpt lat="47.83332993613717" lon="1.135164300027596"><ele>116.99999999999999</ele><time>2026-04-25T11:26:36.001Z</time></trkpt><trkpt lat="47.833342757002455" lon="1.1350240102926266"><ele>116.99999999999999</ele><time>2026-04-25T11:29:53.001Z</time></trkpt><trkpt lat="47.83339486966049" lon="1.1348716533349374"><ele>117.0</ele><time>2026-04-25T11:29:55.001Z</time></trkpt><trkpt lat="47.83346509996385" lon="1.1348169805081556"><ele>117.0</ele><time>2026-04-25T11:29:56.001Z</time></trkpt><trkpt lat="47.83357018223309" lon="1.1347590315529508"><ele>117.33333333333334</ele><time>2026-04-25T11:29:57.001Z</time></trkpt><trkpt lat="47.83370126581206" lon="1.1346720897178146"><ele>117.66666666666667</ele><time>2026-04-25T11:29:58.001Z</time></trkpt><trkpt lat="47.83384998037028" lon="1.1345612104662215"><ele>118.0</ele><time>2026-04-25T11:29:59.001Z</time></trkpt><trkpt lat="47.834008910403035" lon="1.1344607774522557"><ele>118.0</ele><time>2026-04-25T11:30:00.001Z</time></trkpt><trkpt lat="47.83415848270974" lon="1.1343715730076"><ele>118.0</ele><time>2026-04-25T11:30:01.001Z</time></trkpt><trkpt lat="47.83431591564986" lon="1.1342674072415746"><ele>118.0</ele><time>2026-04-25T11:30:02.001Z</time></trkpt><trkpt lat="47.83450803079868" lon="1.134147865673355"><ele>118.0</ele><time>2026-04-25T11:30:03.001Z</time></trkpt><trkpt lat="47.83470299313052" lon="1.1340413365995"><ele>118.0</ele><time>2026-04-25T11:30:04.001Z</time></trkpt><trkpt lat="47.834865635581345" lon="1.1339653803761238"><ele>118.0</ele><time>2026-04-25T11:30:05.001Z</time></trkpt><trkpt lat="47.83502711645002" lon="1.133890047622376"><ele>118.33333333333334</ele><time>2026-04-25T11:30:06.001Z</time></trkpt><trkpt lat="47.83519793332059" lon="1.1337956869663264"><ele>118.66666666666666</ele><time>2026-04-25T11:30:07.001Z</time></trkpt><trkpt lat="47.835360184261084" lon="1.1336975982024218"><ele>119.0</ele><time>2026-04-25T11:30:08.001Z</time></trkpt><trkpt lat="47.835515560167956" lon="1.133596034693936"><ele>119.0</ele><time>2026-04-25T11:30:09.001Z</time></trkpt><trkpt lat="47.83568176821631" lon="1.1334842365045203"><ele>119.0</ele><time>2026-04-25T11:30:10.001Z</time></trkpt><trkpt lat="47.83584612023138" lon="1.1333728641654337"><ele>119.0</ele><time>2026-04-25T11:30:11.001Z</time></trkpt><trkpt lat="47.835999891377774" lon="1.1332681798494906"><ele>119.66666666666666</ele><time>2026-04-25T11:30:12.001Z</time></trkpt><trkpt lat="47.83615911890674" lon="1.133163854449861"><ele>120.33333333333334</ele><time>2026-04-25T11:30:13.001Z</time></trkpt><trkpt lat="47.836311381108366" lon="1.1330367216495032"><ele>121.0</ele><time>2026-04-25T11:30:14.001Z</time></trkpt><trkpt lat="47.83643610365281" lon="1.1329243687115753"><ele>121.0</ele><time>2026-04-25T11:30:15.001Z</time></trkpt><trkpt lat="47.836550310578005" lon="1.1328132228547572"><ele>121.0</ele><time>2026-04-25T11:30:16.001Z</time></trkpt><trkpt lat="47.8366452924234" lon="1.1326888604182408"><ele>121.0</ele><time>2026-04-25T11:30:17.001Z</time></trkpt><trkpt lat="47.83672514802373" lon="1.132562645295896"><ele>121.0</ele><time>2026-04-25T11:30:18.001Z</time></trkpt><trkpt lat="47.836789319224366" lon="1.1324469323237631"><ele>121.16666666666667</ele><time>2026-04-25T11:30:19.001Z</time></trkpt><trkpt lat="47.836839869215986" lon="1.1323571349981554"><ele>121.33333333333334</ele><time>2026-04-25T11:30:20.001Z</time></trkpt><trkpt lat="47.83688292876965" lon="1.132274015277885"><ele>121.5</ele><time>2026-04-25T11:30:21.001Z</time></trkpt><trkpt lat="47.83694695959855" lon="1.1321525177539111"><ele>121.66666666666666</ele><time>2026-04-25T11:30:23.001Z</time></trkpt><trkpt lat="47.8370017715465" lon="1.1320555060236495"><ele>121.83333333333333</ele><time>2026-04-25T11:30:25.001Z</time></trkpt><trkpt lat="47.83706774887107" lon="1.1319738133563897"><ele>122.0</ele><time>2026-04-25T11:30:27.001Z</time></trkpt><trkpt lat="47.83718803827276" lon="1.131812744689756"><ele>122.0</ele><time>2026-04-25T11:30:29.001Z</time></trkpt><trkpt lat="47.83728650957412" lon="1.13167957902422"><ele>122.0</ele><time>2026-04-25T11:30:30.001Z</time></trkpt><trkpt lat="47.837385554024955" lon="1.1315450594336558"><ele>122.0</ele><time>2026-04-25T11:30:31.001Z</time></trkpt><trkpt lat="47.837467721732544" lon="1.1314342999966822"><ele>122.0</ele><time>2026-04-25T11:30:32.001Z</time></trkpt><trkpt lat="47.83755069562837" lon="1.1313324188887248"><ele>122.25</ele><time>2026-04-25T11:30:33.001Z</time></trkpt><trkpt lat="47.83763778346538" lon="1.13121271354957"><ele>122.5</ele><time>2026-04-25T11:30:34.001Z</time></trkpt><trkpt lat="47.837727560505094" lon="1.1310835960902148"><ele>122.75</ele><time>2026-04-25T11:30:35.001Z</time></trkpt><trkpt lat="47.837809661223226" lon="1.130962551361486"><ele>123.0</ele><time>2026-04-25T11:30:36.001Z</time></trkpt><trkpt lat="47.83789811727944" lon="1.1308261837936164"><ele>123.0</ele><time>2026-04-25T11:30:37.001Z</time></trkpt><trkpt lat="47.83801165923101" lon="1.1306561237480333"><ele>123.0</ele><time>2026-04-25T11:30:38.001Z</time></trkpt><trkpt lat="47.838136739371535" lon="1.130458366322138"><ele>123.0</ele><time>2026-04-25T11:30:39.001Z</time></trkpt><trkpt lat="47.838257910243485" lon="1.1302659113572278"><ele>123.0</ele><time>2026-04-25T11:30:40.001Z</time></trkpt><trkpt lat="47.83836300267697" lon="1.1300962052701569"><ele>123.0</ele><time>2026-04-25T11:30:41.001Z</time></trkpt><trkpt lat="47.838455017581076" lon="1.1299568846473202"><ele>123.0</ele><time>2026-04-25T11:30:42.001Z</time></trkpt><trkpt lat="47.838544067024195" lon="1.1298245297653924"><ele>123.0</ele><time>2026-04-25T11:30:43.001Z</time></trkpt><trkpt lat="47.83863947332303" lon="1.12970516575063"><ele>122.4</ele><time>2026-04-25T11:30:44.001Z</time></trkpt><trkpt lat="47.83873612570562" lon="1.1296198797994188"><ele>121.80000000000001</ele><time>2026-04-25T11:30:45.001Z</time></trkpt><trkpt lat="47.8388195027637" lon="1.129531457455192"><ele>121.2</ele><time>2026-04-25T11:30:46.001Z</time></trkpt><trkpt lat="47.83888018282272" lon="1.1294370572895143"><ele>120.6</ele><time>2026-04-25T11:30:47.001Z</time></trkpt><trkpt lat="47.83893131714373" lon="1.1293671621434684"><ele>120.0</ele><time>2026-04-25T11:30:48.001Z</time></trkpt><trkpt lat="47.83899722641162" lon="1.1292948541025047"><ele>120.0</ele><time>2026-04-25T11:30:49.001Z</time></trkpt><trkpt lat="47.83905695228475" lon="1.129221007849007"><ele>120.0</ele><time>2026-04-25T11:30:50.001Z</time></trkpt><trkpt lat="47.83910358626501" lon="1.1291539091901714"><ele>120.0</ele><time>2026-04-25T11:30:51.001Z</time></trkpt><trkpt lat="47.83918274382014" lon="1.1290641763309195"><ele>120.0</ele><time>2026-04-25T11:30:53.001Z</time></trkpt><trkpt lat="47.83926866605161" lon="1.129080429537051"><ele>120.0</ele><time>2026-04-25T11:30:55.001Z</time></trkpt><trkpt lat="47.839346215059734" lon="1.1292643642744238"><ele>118.75</ele><time>2026-04-25T11:30:57.001Z</time></trkpt><trkpt lat="47.83941572568937" lon="1.1293887441896724"><ele>117.5</ele><time>2026-04-25T11:30:58.001Z</time></trkpt><trkpt lat="47.839519878233205" lon="1.1295103361056336"><ele>116.25</ele><time>2026-04-25T11:30:59.001Z</time></trkpt><trkpt lat="47.83963401458248" lon="1.1296429356767552"><ele>115.0</ele><time>2026-04-25T11:31:00.001Z</time></trkpt><trkpt lat="47.839733819560536" lon="1.1297433357899451"><ele>115.0</ele><time>2026-04-25T11:31:01.001Z</time></trkpt><trkpt lat="47.83982461026362" lon="1.1298226092578771"><ele>115.0</ele><time>2026-04-25T11:31:02.001Z</time></trkpt><trkpt lat="47.83992478136107" lon="1.1298953313981888"><ele>115.0</ele><time>2026-04-25T11:31:03.001Z</time></trkpt><trkpt lat="47.840047890565316" lon="1.130003008142204"><ele>115.0</ele><time>2026-04-25T11:31:04.001Z</time></trkpt><trkpt lat="47.84018308946632" lon="1.130130697428269"><ele>115.25</ele><time>2026-04-25T11:31:05.001Z</time></trkpt><trkpt lat="47.84031176410766" lon="1.1302489120863366"><ele>115.5</ele><time>2026-04-25T11:31:06.001Z</time></trkpt><trkpt lat="47.84042263416786" lon="1.130351457865651"><ele>115.75</ele><time>2026-04-25T11:31:07.001Z</time></trkpt><trkpt lat="47.840526428512376" lon="1.130441022063176"><ele>116.0</ele><time>2026-04-25T11:31:08.001Z</time></trkpt><trkpt lat="47.84063736034791" lon="1.1305200148724794"><ele>116.0</ele><time>2026-04-25T11:31:09.001Z</time></trkpt><trkpt lat="47.84076518427227" lon="1.1305993353391046"><ele>116.0</ele><time>2026-04-25T11:31:10.001Z</time></trkpt><trkpt lat="47.8409237237864" lon="1.1307020405088657"><ele>116.0</ele><time>2026-04-25T11:31:11.001Z</time></trkpt><trkpt lat="47.84106897796363" lon="1.1308051004984068"><ele>115.0</ele><time>2026-04-25T11:31:12.001Z</time></trkpt><trkpt lat="47.84118754053886" lon="1.1308860660720859"><ele>114.0</ele><time>2026-04-25T11:31:13.001Z</time></trkpt><trkpt lat="47.841297986198114" lon="1.1309630950918572"><ele>113.0</ele><time>2026-04-25T11:31:14.001Z</time></trkpt><trkpt lat="47.8414035454175" lon="1.131038164216698"><ele>112.0</ele><time>2026-04-25T11:31:15.001Z</time></trkpt><trkpt lat="47.84150507338591" lon="1.1311127293493215"><ele>112.0</ele><time>2026-04-25T11:31:16.001Z</time></trkpt><trkpt lat="47.84160221450651" lon="1.1311678472755207"><ele>111.99999999999999</ele><time>2026-04-25T11:31:17.001Z</time></trkpt><trkpt lat="47.84170119429432" lon="1.1312154320910066"><ele>111.99999999999999</ele><time>2026-04-25T11:31:18.001Z</time></trkpt><trkpt lat="47.841786636008585" lon="1.1312589549838172"><ele>112.0</ele><time>2026-04-25T11:31:19.001Z</time></trkpt><trkpt lat="47.84187186757196" lon="1.1313113047853562"><ele>112.0</ele><time>2026-04-25T11:31:20.001Z</time></trkpt><trkpt lat="47.84195203164938" lon="1.1313694829355547"><ele>112.16666666666667</ele><time>2026-04-25T11:31:21.001Z</time></trkpt><trkpt lat="47.84201159020027" lon="1.1314194564048088"><ele>112.33333333333334</ele><time>2026-04-25T11:31:22.001Z</time></trkpt><trkpt lat="47.84206776888483" lon="1.131526536051281"><ele>112.5</ele><time>2026-04-25T11:31:24.001Z</time></trkpt><trkpt lat="47.84206411616125" lon="1.1316713161642564"><ele>112.66666666666666</ele><time>2026-04-25T11:31:26.001Z</time></trkpt><trkpt lat="47.842049471893745" lon="1.131773446053222"><ele>112.83333333333333</ele><time>2026-04-25T11:31:27.001Z</time></trkpt><trkpt lat="47.84202996596608" lon="1.1318673342895844"><ele>113.0</ele><time>2026-04-25T11:31:28.001Z</time></trkpt><trkpt lat="47.842015872826245" lon="1.1319593182720165"><ele>113.0</ele><time>2026-04-25T11:31:29.001Z</time></trkpt><trkpt lat="47.84199063943436" lon="1.1321082806328675"><ele>113.00000000000001</ele><time>2026-04-25T11:31:31.001Z</time></trkpt><trkpt lat="47.84196421912099" lon="1.1322754642641903"><ele>113.00000000000001</ele><time>2026-04-25T11:31:33.001Z</time></trkpt><trkpt lat="47.84196089620693" lon="1.1323996660422144"><ele>113.0</ele><time>2026-04-25T11:31:35.001Z</time></trkpt><trkpt lat="47.84198136127194" lon="1.132505892034045"><ele>113.0</ele><time>2026-04-25T11:31:56Z</time></trkpt><trkpt lat="47.842060525359464" lon="1.1325060260299018"><ele>113.75</ele><time>2026-04-25T11:31:58Z</time></trkpt><trkpt lat="47.84215494691177" lon="1.1324829777426078"><ele>114.5</ele><time>2026-04-25T11:31:59Z</time></trkpt><trkpt lat="47.842268494071966" lon="1.1324999494397137"><ele>115.25</ele><time>2026-04-25T11:32:00Z</time></trkpt><trkpt lat="47.842398339222626" lon="1.1325238342719541"><ele>116.0</ele><time>2026-04-25T11:32:01Z</time></trkpt><trkpt lat="47.84255020487439" lon="1.1325657728555572"><ele>115.25</ele><time>2026-04-25T11:32:02Z</time></trkpt><trkpt lat="47.8426812571526" lon="1.1326126458697061"><ele>114.5</ele><time>2026-04-25T11:32:03Z</time></trkpt><trkpt lat="47.842796558052925" lon="1.132619920977162"><ele>113.75</ele><time>2026-04-25T11:32:04Z</time></trkpt><trkpt lat="47.84290367097654" lon="1.132596221829199"><ele>113.0</ele><time>2026-04-25T11:32:05Z</time></trkpt><trkpt lat="47.84300120036758" lon="1.1325293982924947"><ele>113.0</ele><time>2026-04-25T11:32:06Z</time></trkpt><trkpt lat="47.84308408274559" lon="1.1324730764669249"><ele>113.00000000000001</ele><time>2026-04-25T11:32:07Z</time></trkpt><trkpt lat="47.84316229817303" lon="1.1324307533693359"><ele>113.00000000000001</ele><time>2026-04-25T11:32:08Z</time></trkpt><trkpt lat="47.843232265285565" lon="1.1324105516852176"><ele>113.0</ele><time>2026-04-25T11:32:09Z</time></trkpt><trkpt lat="47.843310904890565" lon="1.1323859787660022"><ele>113.0</ele><time>2026-04-25T11:32:11Z</time></trkpt><trkpt lat="47.84331193731273" lon="1.1321756101754055"><ele>112.0</ele><time>2026-04-25T11:32:14Z</time></trkpt><trkpt lat="47.84329116119992" lon="1.131985113774732"><ele>111.0</ele><time>2026-04-25T11:32:15Z</time></trkpt><trkpt lat="47.84325797199873" lon="1.1317716440781298"><ele>110.0</ele><time>2026-04-25T11:32:16Z</time></trkpt><trkpt lat="47.84324649486956" lon="1.131521321833673"><ele>109.0</ele><time>2026-04-25T11:32:17Z</time></trkpt><trkpt lat="47.843245271350625" lon="1.1312310803113348"><ele>108.33333333333334</ele><time>2026-04-25T11:32:18Z</time></trkpt><trkpt lat="47.8432334137295" lon="1.1309555729994396"><ele>107.66666666666666</ele><time>2026-04-25T11:32:19Z</time></trkpt><trkpt lat="47.843208610708764" lon="1.130721938593941"><ele>107.0</ele><time>2026-04-25T11:32:20Z</time></trkpt><trkpt lat="47.84316917323851" lon="1.1305126813788968"><ele>106.0</ele><time>2026-04-25T11:32:21Z</time></trkpt><trkpt lat="47.84310780211169" lon="1.1303184677968787"><ele>105.0</ele><time>2026-04-25T11:32:22Z</time></trkpt><trkpt lat="47.843039899224664" lon="1.13014914570689"><ele>104.0</ele><time>2026-04-25T11:32:23Z</time></trkpt><trkpt lat="47.84298987980122" lon="1.1299994593492138"><ele>103.0</ele><time>2026-04-25T11:32:24Z</time></trkpt><trkpt lat="47.84296482108204" lon="1.1298550558616605"><ele>101.5</ele><time>2026-04-25T11:32:25Z</time></trkpt><trkpt lat="47.842973785739" lon="1.1297036950597426"><ele>100.0</ele><time>2026-04-25T11:32:26Z</time></trkpt><trkpt lat="47.84300458992068" lon="1.1295537470135977"><ele>98.5</ele><time>2026-04-25T11:32:27Z</time></trkpt><trkpt lat="47.84303418872895" lon="1.1293769698246496"><ele>97.0</ele><time>2026-04-25T11:32:28Z</time></trkpt><trkpt lat="47.84307484061066" lon="1.1291607155211203"><ele>95.33333333333334</ele><time>2026-04-25T11:32:29Z</time></trkpt><trkpt lat="47.84312520897219" lon="1.1288855069079844"><ele>93.66666666666667</ele><time>2026-04-25T11:32:30Z</time></trkpt><trkpt lat="47.84317073781623" lon="1.1285740338224952"><ele>92.0</ele><time>2026-04-25T11:32:31Z</time></trkpt><trkpt lat="47.843194145185095" lon="1.1282942174095738"><ele>91.5</ele><time>2026-04-25T11:32:32Z</time></trkpt><trkpt lat="47.843201633737046" lon="1.1280526757543043"><ele>91.0</ele><time>2026-04-25T11:32:33Z</time></trkpt><trkpt lat="47.843204635772416" lon="1.1278450681470982"><ele>90.5</ele><time>2026-04-25T11:32:34Z</time></trkpt><trkpt lat="47.84321152777847" lon="1.1276479660385186"><ele>90.0</ele><time>2026-04-25T11:32:35Z</time></trkpt><trkpt lat="47.84322972211318" lon="1.1274625836860535"><ele>89.66666666666667</ele><time>2026-04-25T11:32:36Z</time></trkpt><trkpt lat="47.84328018850072" lon="1.1272421146058433"><ele>89.33333333333334</ele><time>2026-04-25T11:32:37Z</time></trkpt><trkpt lat="47.843360165415056" lon="1.1269905716998576"><ele>89.0</ele><time>2026-04-25T11:32:38Z</time></trkpt><trkpt lat="47.843442382600934" lon="1.1266870616869102"><ele>88.0</ele><time>2026-04-25T11:32:39Z</time></trkpt><trkpt lat="47.84352183886438" lon="1.1263637768738943"><ele>87.0</ele><time>2026-04-25T11:32:40.001Z</time></trkpt><trkpt lat="47.84359393278502" lon="1.126073693372267"><ele>86.0</ele><time>2026-04-25T11:32:41.001Z</time></trkpt><trkpt lat="47.843660761771545" lon="1.1258104586525168"><ele>86.0</ele><time>2026-04-25T11:32:42.001Z</time></trkpt><trkpt lat="47.843721641936284" lon="1.1255706561629628"><ele>86.0</ele><time>2026-04-25T11:32:43.001Z</time></trkpt><trkpt lat="47.84378285876043" lon="1.1253495665244277"><ele>86.0</ele><time>2026-04-25T11:32:44.001Z</time></trkpt><trkpt lat="47.84385581144142" lon="1.1251419202340174"><ele>86.0</ele><time>2026-04-25T11:32:45.001Z</time></trkpt><trkpt lat="47.843936347841456" lon="1.1249519195025313"><ele>86.0</ele><time>2026-04-25T11:32:46.001Z</time></trkpt><trkpt lat="47.84402200972257" lon="1.1247815446998435"><ele>86.0</ele><time>2026-04-25T11:32:47.001Z</time></trkpt><trkpt lat="47.84411543138534" lon="1.124613670180869"><ele>86.0</ele><time>2026-04-25T11:32:48.001Z</time></trkpt><trkpt lat="47.844210428289145" lon="1.1244573581667467"><ele>85.75</ele><time>2026-04-25T11:32:49.001Z</time></trkpt><trkpt lat="47.84431950591245" lon="1.1242821895298292"><ele>85.5</ele><time>2026-04-25T11:32:50.001Z</time></trkpt><trkpt lat="47.84442848090528" lon="1.1241145652129316"><ele>85.25</ele><time>2026-04-25T11:32:51.001Z</time></trkpt><trkpt lat="47.84450025434893" lon="1.1240002934014444"><ele>85.0</ele><time>2026-04-25T11:32:52.001Z</time></trkpt><trkpt lat="47.84454451204207" lon="1.1239292212413934"><ele>85.0</ele><time>2026-04-25T11:32:53.001Z</time></trkpt><trkpt lat="47.84459594061106" lon="1.1238451994503589"><ele>85.0</ele><time>2026-04-25T11:32:55.001Z</time></trkpt><trkpt lat="47.84462200693217" lon="1.1239501462149084"><ele>85.0</ele><time>2026-04-25T11:33:02Z</time></trkpt><trkpt lat="47.84458049161407" lon="1.1238794812352875"><ele>85.0</ele><time>2026-04-25T11:33:03Z</time></trkpt><trkpt lat="47.844772783408565" lon="1.1241126148445046"><ele>85.0</ele><time>2026-04-25T11:33:04Z</time></trkpt><trkpt lat="47.84489219233828" lon="1.124228904887683"><ele>85.0</ele><time>2026-04-25T11:33:05Z</time></trkpt><trkpt lat="47.845026779495306" lon="1.1243621355254352"><ele>85.0</ele><time>2026-04-25T11:33:06Z</time></trkpt><trkpt lat="47.84518219434751" lon="1.124502969239156"><ele>84.33333333333333</ele><time>2026-04-25T11:33:07Z</time></trkpt><trkpt lat="47.84534979218644" lon="1.1246691832671405"><ele>83.66666666666667</ele><time>2026-04-25T11:33:08Z</time></trkpt><trkpt lat="47.84551987942568" lon="1.1248425301187361"><ele>83.0</ele><time>2026-04-25T11:33:09Z</time></trkpt><trkpt lat="47.845681855470836" lon="1.1250005047763516"><ele>83.0</ele><time>2026-04-25T11:33:10Z</time></trkpt><trkpt lat="47.845811149423064" lon="1.1251355211324687"><ele>83.0</ele><time>2026-04-25T11:33:11Z</time></trkpt><trkpt lat="47.84593801136358" lon="1.125278450504903"><ele>83.0</ele><time>2026-04-25T11:33:12Z</time></trkpt><trkpt lat="47.846081600888496" lon="1.1254474869570574"><ele>83.0</ele><time>2026-04-25T11:33:13Z</time></trkpt><trkpt lat="47.846221074940615" lon="1.1256201139878022"><ele>83.0</ele><time>2026-04-25T11:33:14Z</time></trkpt><trkpt lat="47.846355474275434" lon="1.1257997339460777"><ele>83.0</ele><time>2026-04-25T11:33:15Z</time></trkpt><trkpt lat="47.84649778482828" lon="1.1260127164995684"><ele>83.0</ele><time>2026-04-25T11:33:16Z</time></trkpt><trkpt lat="47.846639064318204" lon="1.1262262159124075"><ele>83.0</ele><time>2026-04-25T11:33:17Z</time></trkpt><trkpt lat="47.84677415519788" lon="1.1264369978315862"><ele>83.0</ele><time>2026-04-25T11:33:18Z</time></trkpt><trkpt lat="47.8468954990564" lon="1.1266209785215189"><ele>83.0</ele><time>2026-04-25T11:33:19Z</time></trkpt><trkpt lat="47.84700054175532" lon="1.1267804454875239"><ele>83.0</ele><time>2026-04-25T11:33:20Z</time></trkpt><trkpt lat="47.84710452624166" lon="1.1269456332941952"><ele>83.0</ele><time>2026-04-25T11:33:21Z</time></trkpt><trkpt lat="47.84721748598524" lon="1.1271183460137209"><ele>83.0</ele><time>2026-04-25T11:33:22Z</time></trkpt><trkpt lat="47.84735550470791" lon="1.1273224970312732"><ele>83.0</ele><time>2026-04-25T11:33:23Z</time></trkpt><trkpt lat="47.84748047005724" lon="1.127504776103578"><ele>83.0</ele><time>2026-04-25T11:33:24Z</time></trkpt><trkpt lat="47.84758646642705" lon="1.1276583234183224"><ele>83.0</ele><time>2026-04-25T11:33:25Z</time></trkpt><trkpt lat="47.84770857853156" lon="1.1277934216447683"><ele>83.0</ele><time>2026-04-25T11:33:26Z</time></trkpt><trkpt lat="47.84782908349495" lon="1.1279639700292616"><ele>83.0</ele><time>2026-04-25T11:33:27Z</time></trkpt><trkpt lat="47.847935500270026" lon="1.1281315120081663"><ele>83.5</ele><time>2026-04-25T11:33:28Z</time></trkpt><trkpt lat="47.84801224260444" lon="1.1282608602670952"><ele>84.0</ele><time>2026-04-25T11:33:29Z</time></trkpt><trkpt lat="47.84808924778536" lon="1.1283994006042477"><ele>84.5</ele><time>2026-04-25T11:33:30Z</time></trkpt><trkpt lat="47.8481696692154" lon="1.1285309920530353"><ele>85.0</ele><time>2026-04-25T11:33:31Z</time></trkpt><trkpt lat="47.848261185813364" lon="1.128639897170251"><ele>85.0</ele><time>2026-04-25T11:33:32Z</time></trkpt><trkpt lat="47.84835039698285" lon="1.1287329386355804"><ele>85.0</ele><time>2026-04-25T11:33:33Z</time></trkpt><trkpt lat="47.84843837760973" lon="1.1288124669987134"><ele>85.0</ele><time>2026-04-25T11:33:34Z</time></trkpt><trkpt lat="47.848569262419964" lon="1.1288976296304267"><ele>85.0</ele><time>2026-04-25T11:33:35Z</time></trkpt><trkpt lat="47.84870426676594" lon="1.128987665537763"><ele>84.8</ele><time>2026-04-25T11:33:36Z</time></trkpt><trkpt lat="47.848797212616724" lon="1.1290703019482846"><ele>84.6</ele><time>2026-04-25T11:33:37Z</time></trkpt><trkpt lat="47.84887990083982" lon="1.129164333744831"><ele>84.4</ele><time>2026-04-25T11:33:38Z</time></trkpt><trkpt lat="47.84895108613709" lon="1.129258094541633"><ele>84.2</ele><time>2026-04-25T11:33:39Z</time></trkpt><trkpt lat="47.849035416591825" lon="1.1293554076421772"><ele>84.0</ele><time>2026-04-25T11:33:40Z</time></trkpt><trkpt lat="47.84913056212312" lon="1.1294789448118574"><ele>84.0</ele><time>2026-04-25T11:33:41Z</time></trkpt><trkpt lat="47.84924523703496" lon="1.1296139412763269"><ele>84.0</ele><time>2026-04-25T11:33:42Z</time></trkpt><trkpt lat="47.84935710857223" lon="1.1297662700135296"><ele>84.0</ele><time>2026-04-25T11:33:43Z</time></trkpt><trkpt lat="47.84945865906337" lon="1.1299051630962627"><ele>84.0</ele><time>2026-04-25T11:33:44Z</time></trkpt><trkpt lat="47.84956285140501" lon="1.1300721547012365"><ele>84.0</ele><time>2026-04-25T11:33:45Z</time></trkpt><trkpt lat="47.84965566904457" lon="1.1302202628754394"><ele>84.0</ele><time>2026-04-25T11:33:46Z</time></trkpt><trkpt lat="47.84975785756543" lon="1.1303851979294914"><ele>84.0</ele><time>2026-04-25T11:33:47Z</time></trkpt><trkpt lat="47.849886706436706" lon="1.1305879135753993"><ele>84.0</ele><time>2026-04-25T11:33:48Z</time></trkpt><trkpt lat="47.85003760365795" lon="1.130824476731373"><ele>84.0</ele><time>2026-04-25T11:33:49Z</time></trkpt><trkpt lat="47.85016697628435" lon="1.1310774037621492"><ele>84.0</ele><time>2026-04-25T11:33:50Z</time></trkpt><trkpt lat="47.85026552312663" lon="1.1313043176843456"><ele>84.0</ele><time>2026-04-25T11:33:51Z</time></trkpt><trkpt lat="47.850364424074286" lon="1.1314908445617307"><ele>84.0</ele><time>2026-04-25T11:33:52Z</time></trkpt><trkpt lat="47.850445904494904" lon="1.13170133022672"><ele>84.0</ele><time>2026-04-25T11:33:53Z</time></trkpt><trkpt lat="47.85052301182107" lon="1.131914037843932"><ele>84.0</ele><time>2026-04-25T11:33:54Z</time></trkpt><trkpt lat="47.85061744050056" lon="1.1321085762625074"><ele>84.0</ele><time>2026-04-25T11:33:55Z</time></trkpt><trkpt lat="47.850694351054244" lon="1.1322660085945913"><ele>84.0</ele><time>2026-04-25T11:33:56Z</time></trkpt><trkpt lat="47.85078449261904" lon="1.1324306777465196"><ele>84.0</ele><time>2026-04-25T11:33:57Z</time></trkpt><trkpt lat="47.8508874563515" lon="1.1326103528778513"><ele>82.66666666666667</ele><time>2026-04-25T11:33:58Z</time></trkpt><trkpt lat="47.85102894578432" lon="1.1327963280555973"><ele>81.33333333333334</ele><time>2026-04-25T11:33:59Z</time></trkpt><trkpt lat="47.85117772241509" lon="1.1330060692993218"><ele>80.0</ele><time>2026-04-25T11:34:00Z</time></trkpt><trkpt lat="47.851303690082005" lon="1.1332002072722642"><ele>80.6</ele><time>2026-04-25T11:34:01Z</time></trkpt><trkpt lat="47.85140238353607" lon="1.13336228920072"><ele>81.2</ele><time>2026-04-25T11:34:02Z</time></trkpt><trkpt lat="47.851470927460696" lon="1.1334869784527832"><ele>81.80000000000001</ele><time>2026-04-25T11:34:03Z</time></trkpt><trkpt lat="47.85152773571963" lon="1.1335969451861223"><ele>82.4</ele><time>2026-04-25T11:34:04Z</time></trkpt><trkpt lat="47.85156583369899" lon="1.133679875026023"><ele>83.0</ele><time>2026-04-25T11:34:05Z</time></trkpt><trkpt lat="47.8516243104942" lon="1.1337983955761168"><ele>83.0</ele><time>2026-04-25T11:34:07Z</time></trkpt><trkpt lat="47.85174204302664" lon="1.1337982274274192"><ele>83.0</ele><time>2026-04-25T11:34:09Z</time></trkpt><trkpt lat="47.8518476183131" lon="1.1337506198874976"><ele>83.0</ele><time>2026-04-25T11:34:10Z</time></trkpt><trkpt lat="47.85199902311727" lon="1.1337621603107355"><ele>83.0</ele><time>2026-04-25T11:34:11Z</time></trkpt><trkpt lat="47.85215076272416" lon="1.1337601906148589"><ele>83.0</ele><time>2026-04-25T11:34:12Z</time></trkpt><trkpt lat="47.852313343167815" lon="1.1337595162656704"><ele>83.0</ele><time>2026-04-25T11:34:13Z</time></trkpt><trkpt lat="47.852449318463115" lon="1.1337592088982762"><ele>83.0</ele><time>2026-04-25T11:34:14Z</time></trkpt><trkpt lat="47.85257582325752" lon="1.1337589229382745"><ele>83.0</ele><time>2026-04-25T11:34:15Z</time></trkpt><trkpt lat="47.85268894953957" lon="1.1337586672206046"><ele>83.0</ele><time>2026-04-25T11:34:16Z</time></trkpt><trkpt lat="47.852792151881935" lon="1.1337586806761895"><ele>83.0</ele><time>2026-04-25T11:34:17Z</time></trkpt><trkpt lat="47.85289043502776" lon="1.133759100690701"><ele>83.0</ele><time>2026-04-25T11:34:18Z</time></trkpt><trkpt lat="47.852990525275466" lon="1.1337376874275606"><ele>83.0</ele><time>2026-04-25T11:34:19Z</time></trkpt><trkpt lat="47.85308567743576" lon="1.1337507575040464"><ele>83.0</ele><time>2026-04-25T11:34:20Z</time></trkpt><trkpt lat="47.8531751221568" lon="1.1337425611147354"><ele>83.0</ele><time>2026-04-25T11:34:21Z</time></trkpt><trkpt lat="47.85325955637394" lon="1.1336955577432144"><ele>83.0</ele><time>2026-04-25T11:34:22Z</time></trkpt><trkpt lat="47.85334188621322" lon="1.133621652773243"><ele>83.0</ele><time>2026-04-25T11:34:23Z</time></trkpt><trkpt lat="47.85341018922818" lon="1.133503676747377"><ele>83.0</ele><time>2026-04-25T11:34:24Z</time></trkpt><trkpt lat="47.85348630009443" lon="1.1333616173817165"><ele>83.0</ele><time>2026-04-25T11:34:25Z</time></trkpt><trkpt lat="47.85358215092138" lon="1.1331882581397597"><ele>83.0</ele><time>2026-04-25T11:34:26Z</time></trkpt><trkpt lat="47.853683615446414" lon="1.1329411273407732"><ele>83.0</ele><time>2026-04-25T11:34:27Z</time></trkpt><trkpt lat="47.85378616061571" lon="1.1326820224769674"><ele>83.0</ele><time>2026-04-25T11:34:28Z</time></trkpt><trkpt lat="47.85389383230291" lon="1.1323993765805758"><ele>83.0</ele><time>2026-04-25T11:34:29Z</time></trkpt><trkpt lat="47.854001276724745" lon="1.132121946027764"><ele>83.0</ele><time>2026-04-25T11:34:30Z</time></trkpt><trkpt lat="47.85410042482438" lon="1.1318745977720768"><ele>83.0</ele><time>2026-04-25T11:34:31Z</time></trkpt><trkpt lat="47.85418741677055" lon="1.1316438518278078"><ele>82.80000000000001</ele><time>2026-04-25T11:34:32Z</time></trkpt><trkpt lat="47.85424929904297" lon="1.1314772192892193"><ele>82.6</ele><time>2026-04-25T11:34:33Z</time></trkpt><trkpt lat="47.85430713844176" lon="1.1313374441003725"><ele>82.4</ele><time>2026-04-25T11:34:34Z</time></trkpt><trkpt lat="47.85437458534697" lon="1.131222870212738"><ele>82.19999999999999</ele><time>2026-04-25T11:34:35Z</time></trkpt><trkpt lat="47.854462999382925" lon="1.1311386743829186"><ele>82.0</ele><time>2026-04-25T11:34:36Z</time></trkpt><trkpt lat="47.85458929461377" lon="1.131020601492676"><ele>82.0</ele><time>2026-04-25T11:34:37Z</time></trkpt><trkpt lat="47.85474562778939" lon="1.1308689378347516"><ele>82.0</ele><time>2026-04-25T11:34:38Z</time></trkpt><trkpt lat="47.85491483964454" lon="1.1307042097243865"><ele>82.0</ele><time>2026-04-25T11:34:39Z</time></trkpt><trkpt lat="47.85510347447671" lon="1.1305199021597852"><ele>82.66666666666666</ele><time>2026-04-25T11:34:40Z</time></trkpt><trkpt lat="47.855270401916954" lon="1.1303542773147364"><ele>83.33333333333333</ele><time>2026-04-25T11:34:41Z</time></trkpt><trkpt lat="47.85541546665482" lon="1.130210902315037"><ele>84.0</ele><time>2026-04-25T11:34:42Z</time></trkpt><trkpt lat="47.85553864250904" lon="1.1300911869259445"><ele>84.0</ele><time>2026-04-25T11:34:43Z</time></trkpt><trkpt lat="47.85565157912932" lon="1.1299814232779768"><ele>84.0</ele><time>2026-04-25T11:34:44Z</time></trkpt><trkpt lat="47.85575606585537" lon="1.1298798721031926"><ele>84.0</ele><time>2026-04-25T11:34:45Z</time></trkpt><trkpt lat="47.85584496386406" lon="1.129793471605351"><ele>84.0</ele><time>2026-04-25T11:34:46Z</time></trkpt><trkpt lat="47.85593097059101" lon="1.1297109827574927"><ele>84.16666666666667</ele><time>2026-04-25T11:34:47Z</time></trkpt><trkpt lat="47.855988362652646" lon="1.129658640420021"><ele>84.33333333333333</ele><time>2026-04-25T11:34:48Z</time></trkpt><trkpt lat="47.85605290971654" lon="1.1296048741652078"><ele>84.5</ele><time>2026-04-25T11:34:50Z</time></trkpt><trkpt lat="47.85611663953439" lon="1.1296693950723609"><ele>84.66666666666666</ele><time>2026-04-25T11:34:53Z</time></trkpt><trkpt lat="47.856147848082806" lon="1.1297912186366024"><ele>84.83333333333333</ele><time>2026-04-25T11:34:54Z</time></trkpt><trkpt lat="47.856206103007395" lon="1.1299552629224674"><ele>85.0</ele><time>2026-04-25T11:34:55Z</time></trkpt><trkpt lat="47.85627118688852" lon="1.1301421752115524"><ele>85.0</ele><time>2026-04-25T11:34:56Z</time></trkpt><trkpt lat="47.85634813862749" lon="1.1303672211734221"><ele>85.0</ele><time>2026-04-25T11:34:57Z</time></trkpt><trkpt lat="47.85643524563168" lon="1.1306058889563668"><ele>85.0</ele><time>2026-04-25T11:34:58Z</time></trkpt><trkpt lat="47.856533795048264" lon="1.1308724478190855"><ele>85.0</ele><time>2026-04-25T11:34:59Z</time></trkpt><trkpt lat="47.856637611685" lon="1.1311634176530956"><ele>85.0</ele><time>2026-04-25T11:35:00Z</time></trkpt><trkpt lat="47.85674116652704" lon="1.131454156028633"><ele>85.0</ele><time>2026-04-25T11:35:01Z</time></trkpt><trkpt lat="47.85683781485161" lon="1.131701190910109"><ele>85.66666666666666</ele><time>2026-04-25T11:35:02Z</time></trkpt><trkpt lat="47.85692363682222" lon="1.131914553240003"><ele>86.33333333333333</ele><time>2026-04-25T11:35:03Z</time></trkpt><trkpt lat="47.857014319658006" lon="1.1321571556416645"><ele>87.0</ele><time>2026-04-25T11:35:04Z</time></trkpt><trkpt lat="47.857112143955206" lon="1.1323866411398482"><ele>86.33333333333333</ele><time>2026-04-25T11:35:05Z</time></trkpt><trkpt lat="47.85722440797963" lon="1.132634083234859"><ele>85.66666666666666</ele><time>2026-04-25T11:35:06Z</time></trkpt><trkpt lat="47.85734829349944" lon="1.1328950865956589"><ele>85.0</ele><time>2026-04-25T11:35:07Z</time></trkpt><trkpt lat="47.85748250159634" lon="1.1331921549822035"><ele>86.0</ele><time>2026-04-25T11:35:08Z</time></trkpt><trkpt lat="47.85764160620675" lon="1.1335001857093905"><ele>87.0</ele><time>2026-04-25T11:35:09Z</time></trkpt><trkpt lat="47.85779940334236" lon="1.1338165514136276"><ele>86.0</ele><time>2026-04-25T11:35:10Z</time></trkpt><trkpt lat="47.85795235785395" lon="1.1341348127144155"><ele>85.0</ele><time>2026-04-25T11:35:11Z</time></trkpt><trkpt lat="47.85810321072795" lon="1.1344433241597347"><ele>85.0</ele><time>2026-04-25T11:35:12Z</time></trkpt><trkpt lat="47.858226876538176" lon="1.1347198932729297"><ele>85.0</ele><time>2026-04-25T11:35:13Z</time></trkpt><trkpt lat="47.8583536839919" lon="1.1349491171050736"><ele>85.0</ele><time>2026-04-25T11:35:14Z</time></trkpt><trkpt lat="47.858468282729355" lon="1.1351792288991749"><ele>85.0</ele><time>2026-04-25T11:35:15Z</time></trkpt><trkpt lat="47.858562903182005" lon="1.1353882029643856"><ele>85.0</ele><time>2026-04-25T11:35:16Z</time></trkpt><trkpt lat="47.85864555448785" lon="1.1355906773772986"><ele>85.0</ele><time>2026-04-25T11:35:17Z</time></trkpt><trkpt lat="47.85871545181492" lon="1.1357933009036585"><ele>85.0</ele><time>2026-04-25T11:35:18Z</time></trkpt><trkpt lat="47.85877025065772" lon="1.1360091264126442"><ele>85.0</ele><time>2026-04-25T11:35:19Z</time></trkpt><trkpt lat="47.858807683250674" lon="1.1361845654302456"><ele>85.0</ele><time>2026-04-25T11:35:20Z</time></trkpt><trkpt lat="47.85883067530945" lon="1.1363225057309367"><ele>85.0</ele><time>2026-04-25T11:35:21Z</time></trkpt><trkpt lat="47.858848124475976" lon="1.1364484301517683"><ele>85.33333333333333</ele><time>2026-04-25T11:35:22Z</time></trkpt><trkpt lat="47.858863568327024" lon="1.1365578829328145"><ele>85.66666666666666</ele><time>2026-04-25T11:35:23Z</time></trkpt><trkpt lat="47.85888872033676" lon="1.1366453149000728"><ele>86.0</ele><time>2026-04-25T11:35:24Z</time></trkpt><trkpt lat="47.85891038265927" lon="1.136771625231067"><ele>86.33333333333333</ele><time>2026-04-25T11:35:26Z</time></trkpt><trkpt lat="47.85892843620513" lon="1.1368783586632925"><ele>86.66666666666667</ele><time>2026-04-25T11:35:29Z</time></trkpt><trkpt lat="47.859002601755535" lon="1.1368699675378415"><ele>87.0</ele><time>2026-04-25T11:35:36Z</time></trkpt><trkpt lat="47.859100260616145" lon="1.1367936877837208"><ele>87.0</ele><time>2026-04-25T11:43:13Z</time></trkpt><trkpt lat="47.85903691235268" lon="1.1368317825610266"><ele>87.0</ele><time>2026-04-25T11:51:25.001Z</time></trkpt><trkpt lat="47.85895599272758" lon="1.136867221421703"><ele>87.0</ele><time>2026-04-25T11:55:07.001Z</time></trkpt><trkpt lat="47.85894856874324" lon="1.137019925115177"><ele>87.0</ele><time>2026-04-25T11:55:10.001Z</time></trkpt><trkpt lat="47.858982789453634" lon="1.137170219883081"><ele>87.0</ele><time>2026-04-25T11:55:11.001Z</time></trkpt><trkpt lat="47.859016255182745" lon="1.1373492855916827"><ele>87.33333333333333</ele><time>2026-04-25T11:55:12.001Z</time></trkpt><trkpt lat="47.85904275283718" lon="1.1374830406640233"><ele>87.66666666666667</ele><time>2026-04-25T11:55:13.001Z</time></trkpt><trkpt lat="47.85907740205354" lon="1.137580786570916"><ele>88.0</ele><time>2026-04-25T11:55:14.001Z</time></trkpt><trkpt lat="47.859103648703034" lon="1.1376689490036704"><ele>88.33333333333334</ele><time>2026-04-25T11:55:15.001Z</time></trkpt><trkpt lat="47.859130566684215" lon="1.1377570341112575"><ele>88.66666666666667</ele><time>2026-04-25T11:55:16.001Z</time></trkpt><trkpt lat="47.85916510943863" lon="1.137877565361417"><ele>89.0</ele><time>2026-04-25T11:55:17.001Z</time></trkpt><trkpt lat="47.85921522626513" lon="1.1380324199680243"><ele>88.33333333333334</ele><time>2026-04-25T11:55:18.001Z</time></trkpt><trkpt lat="47.85929265152322" lon="1.1382360348982372"><ele>87.66666666666667</ele><time>2026-04-25T11:55:19.001Z</time></trkpt><trkpt lat="47.859375265049934" lon="1.1384422947323138"><ele>87.0</ele><time>2026-04-25T11:55:20.001Z</time></trkpt><trkpt lat="47.8594644335918" lon="1.138674063983025"><ele>87.0</ele><time>2026-04-25T11:55:21.001Z</time></trkpt><trkpt lat="47.85956676358412" lon="1.138923906826413"><ele>87.0</ele><time>2026-04-25T11:55:22.001Z</time></trkpt><trkpt lat="47.85966150472062" lon="1.139154434070067"><ele>87.0</ele><time>2026-04-25T11:55:23.001Z</time></trkpt><trkpt lat="47.85973592856034" lon="1.139349665054269"><ele>87.0</ele><time>2026-04-25T11:55:24.001Z</time></trkpt><trkpt lat="47.85980606644256" lon="1.1395305077502398"><ele>87.0</ele><time>2026-04-25T11:55:25.001Z</time></trkpt><trkpt lat="47.8598710969907" lon="1.1396962748563473"><ele>87.0</ele><time>2026-04-25T11:55:26.001Z</time></trkpt><trkpt lat="47.85993271024889" lon="1.1398463789457431"><ele>87.0</ele><time>2026-04-25T11:55:27.001Z</time></trkpt><trkpt lat="47.85999297127903" lon="1.139990529106275"><ele>86.8</ele><time>2026-04-25T11:55:28.001Z</time></trkpt><trkpt lat="47.8600436501405" lon="1.140116595564282"><ele>86.6</ele><time>2026-04-25T11:55:29.001Z</time></trkpt><trkpt lat="47.860094173911705" lon="1.140248850409951"><ele>86.39999999999999</ele><time>2026-04-25T11:55:30.001Z</time></trkpt><trkpt lat="47.8601448275324" lon="1.140381864284851"><ele>86.19999999999999</ele><time>2026-04-25T11:55:31.001Z</time></trkpt><trkpt lat="47.86019653690842" lon="1.140513696954939"><ele>86.0</ele><time>2026-04-25T11:55:32.001Z</time></trkpt><trkpt lat="47.86024799398818" lon="1.1406435296329112"><ele>86.4</ele><time>2026-04-25T11:55:33.001Z</time></trkpt><trkpt lat="47.86030317212544" lon="1.1407680723206335"><ele>86.8</ele><time>2026-04-25T11:55:34.001Z</time></trkpt><trkpt lat="47.86035096988065" lon="1.1408975291254089"><ele>87.2</ele><time>2026-04-25T11:55:35.001Z</time></trkpt><trkpt lat="47.86038934942167" lon="1.1410147425732518"><ele>87.60000000000001</ele><time>2026-04-25T11:55:36.001Z</time></trkpt><trkpt lat="47.86043765572455" lon="1.1411313165642576"><ele>88.0</ele><time>2026-04-25T11:55:37.001Z</time></trkpt><trkpt lat="47.860487598301155" lon="1.1412591683365647"><ele>88.0</ele><time>2026-04-25T11:55:38.001Z</time></trkpt><trkpt lat="47.86053990452071" lon="1.1413815592577827"><ele>88.0</ele><time>2026-04-25T11:55:39.001Z</time></trkpt><trkpt lat="47.86058559310338" lon="1.1415045419917658"><ele>88.0</ele><time>2026-04-25T11:55:40.001Z</time></trkpt><trkpt lat="47.86064079929332" lon="1.1416348811198207"><ele>88.0</ele><time>2026-04-25T11:55:41.001Z</time></trkpt><trkpt lat="47.86071222705093" lon="1.1417919879867549"><ele>88.0</ele><time>2026-04-25T11:55:42.001Z</time></trkpt><trkpt lat="47.860785743161685" lon="1.1419721726402285"><ele>87.5</ele><time>2026-04-25T11:55:43.001Z</time></trkpt><trkpt lat="47.86086617373162" lon="1.1421737327266526"><ele>87.0</ele><time>2026-04-25T11:55:44.001Z</time></trkpt><trkpt lat="47.86090644470066" lon="1.1422868855990642"><ele>86.5</ele><time>2026-04-25T11:55:45.001Z</time></trkpt><trkpt lat="47.86099719897765" lon="1.1425115584232848"><ele>86.0</ele><time>2026-04-25T11:55:46.001Z</time></trkpt><trkpt lat="47.86107137788301" lon="1.1426890961954363"><ele>86.8</ele><time>2026-04-25T11:55:47.001Z</time></trkpt><trkpt lat="47.861132018809506" lon="1.1428307615076867"><ele>87.6</ele><time>2026-04-25T11:55:48.001Z</time></trkpt><trkpt lat="47.86121226830361" lon="1.1430171584908362"><ele>88.4</ele><time>2026-04-25T11:55:49.001Z</time></trkpt><trkpt lat="47.86126167591533" lon="1.1431411633701933"><ele>89.2</ele><time>2026-04-25T11:55:51.001Z</time></trkpt><trkpt lat="47.8613187680818" lon="1.143235649263857"><ele>90.0</ele><time>2026-04-25T11:55:53.001Z</time></trkpt><trkpt lat="47.86138377125595" lon="1.1433498165229807"><ele>90.0</ele><time>2026-04-25T11:56:09Z</time></trkpt><trkpt lat="47.861499673576816" lon="1.1433937039752924"><ele>90.0</ele><time>2026-04-25T11:56:11Z</time></trkpt><trkpt lat="47.86156175922997" lon="1.1434383267524213"><ele>90.0</ele><time>2026-04-25T11:56:12Z</time></trkpt><trkpt lat="47.86165979856387" lon="1.1435292602613962"><ele>90.0</ele><time>2026-04-25T11:56:14Z</time></trkpt><trkpt lat="47.861751646866544" lon="1.1436382922129407"><ele>90.0</ele><time>2026-04-25T11:56:16Z</time></trkpt><trkpt lat="47.86184200441405" lon="1.143752423755941"><ele>89.33333333333333</ele><time>2026-04-25T11:56:18Z</time></trkpt><trkpt lat="47.86189616916277" lon="1.1438127951240722"><ele>88.66666666666667</ele><time>2026-04-25T11:56:19Z</time></trkpt><trkpt lat="47.86194548869876" lon="1.1438749293939756"><ele>88.0</ele><time>2026-04-25T11:56:20Z</time></trkpt><trkpt lat="47.86199754808737" lon="1.143936271263297"><ele>87.33333333333334</ele><time>2026-04-25T11:56:21Z</time></trkpt><trkpt lat="47.862086099231455" lon="1.1440541530582697"><ele>86.66666666666667</ele><time>2026-04-25T11:56:23Z</time></trkpt><trkpt lat="47.86217299432328" lon="1.1441702230049016"><ele>86.0</ele><time>2026-04-25T11:56:25Z</time></trkpt><trkpt lat="47.86222049600573" lon="1.1442332507083206"><ele>86.0</ele><time>2026-04-25T11:56:26.001Z</time></trkpt><trkpt lat="47.86232512091381" lon="1.1443518835384623"><ele>86.0</ele><time>2026-04-25T11:56:28.001Z</time></trkpt><trkpt lat="47.862369993519366" lon="1.144420728205688"><ele>86.0</ele><time>2026-04-25T11:56:29.001Z</time></trkpt><trkpt lat="47.86242002558571" lon="1.1444800194614762"><ele>86.0</ele><time>2026-04-25T11:56:30.001Z</time></trkpt><trkpt lat="47.86247213766487" lon="1.1445450989896742"><ele>86.0</ele><time>2026-04-25T11:56:31.001Z</time></trkpt><trkpt lat="47.862524014289455" lon="1.1446125216933065"><ele>86.0</ele><time>2026-04-25T11:56:32.001Z</time></trkpt><trkpt lat="47.86257985966804" lon="1.1446728515358406"><ele>86.0</ele><time>2026-04-25T11:56:33.001Z</time></trkpt><trkpt lat="47.86268847557826" lon="1.1447865371318025"><ele>86.0</ele><time>2026-04-25T11:56:35.001Z</time></trkpt><trkpt lat="47.86274248077431" lon="1.1448520657314811"><ele>86.0</ele><time>2026-04-25T11:56:36.001Z</time></trkpt><trkpt lat="47.86279618649054" lon="1.1449032469823184"><ele>86.0</ele><time>2026-04-25T11:56:37.001Z</time></trkpt><trkpt lat="47.86284773528758" lon="1.1449659704409068"><ele>86.0</ele><time>2026-04-25T11:56:38.001Z</time></trkpt><trkpt lat="47.8629334430454" lon="1.145056118284831"><ele>86.0</ele><time>2026-04-25T11:56:40.001Z</time></trkpt><trkpt lat="47.862985523901436" lon="1.1451129282157975"><ele>86.0</ele><time>2026-04-25T11:56:42.001Z</time></trkpt><trkpt lat="47.86305831691838" lon="1.1451199419065157"><ele>86.0</ele><time>2026-04-25T11:56:46.001Z</time></trkpt><trkpt lat="47.863106089308275" lon="1.1450522643144068"><ele>86.0</ele><time>2026-04-25T11:56:47.001Z</time></trkpt><trkpt lat="47.86314804200956" lon="1.1449442695754763"><ele>86.0</ele><time>2026-04-25T11:56:48.001Z</time></trkpt><trkpt lat="47.86320297789058" lon="1.1448235217141238"><ele>86.0</ele><time>2026-04-25T11:56:49.001Z</time></trkpt><trkpt lat="47.8632713338833" lon="1.1447011168796188"><ele>86.0</ele><time>2026-04-25T11:56:50.001Z</time></trkpt><trkpt lat="47.863337173395195" lon="1.1445929994263404"><ele>86.0</ele><time>2026-04-25T11:56:51.001Z</time></trkpt><trkpt lat="47.86340089902547" lon="1.1444925475521002"><ele>86.0</ele><time>2026-04-25T11:56:52.001Z</time></trkpt><trkpt lat="47.86346347202513" lon="1.1443995762984807"><ele>86.0</ele><time>2026-04-25T11:56:53.001Z</time></trkpt><trkpt lat="47.86352177368502" lon="1.1443081959093582"><ele>86.0</ele><time>2026-04-25T11:56:54.001Z</time></trkpt><trkpt lat="47.86356915738457" lon="1.1442354758895663"><ele>86.0</ele><time>2026-04-25T11:56:55.001Z</time></trkpt><trkpt lat="47.863618247997394" lon="1.1441578282778648"><ele>86.0</ele><time>2026-04-25T11:56:56.001Z</time></trkpt><trkpt lat="47.86367243558881" lon="1.1440726329639046"><ele>85.83333333333334</ele><time>2026-04-25T11:56:57.001Z</time></trkpt><trkpt lat="47.86372803534385" lon="1.143983447429467"><ele>85.66666666666667</ele><time>2026-04-25T11:56:58.001Z</time></trkpt><trkpt lat="47.86378690224746" lon="1.143886096769225"><ele>85.5</ele><time>2026-04-25T11:56:59.001Z</time></trkpt><trkpt lat="47.86384560384877" lon="1.1437967255449404"><ele>85.33333333333333</ele><time>2026-04-25T11:57:00.001Z</time></trkpt><trkpt lat="47.86390613604495" lon="1.143696976360376"><ele>85.16666666666666</ele><time>2026-04-25T11:57:01.001Z</time></trkpt><trkpt lat="47.86396434006697" lon="1.1436018376340717"><ele>85.0</ele><time>2026-04-25T11:57:02.001Z</time></trkpt><trkpt lat="47.86402465160866" lon="1.1435064559021952"><ele>85.0</ele><time>2026-04-25T11:57:03.001Z</time></trkpt><trkpt lat="47.86408157582021" lon="1.1434151762923002"><ele>85.0</ele><time>2026-04-25T11:57:04.001Z</time></trkpt><trkpt lat="47.864138428611476" lon="1.1433235441622087"><ele>85.0</ele><time>2026-04-25T11:57:05.001Z</time></trkpt><trkpt lat="47.86419494625912" lon="1.1432292155624566"><ele>85.0</ele><time>2026-04-25T11:57:06.001Z</time></trkpt><trkpt lat="47.864248838925924" lon="1.143142196868083"><ele>85.0</ele><time>2026-04-25T11:57:07.001Z</time></trkpt><trkpt lat="47.86429957933135" lon="1.1430667001921648"><ele>85.0</ele><time>2026-04-25T11:57:08.001Z</time></trkpt><trkpt lat="47.86434536310272" lon="1.1429952689557272"><ele>85.0</ele><time>2026-04-25T11:57:09.001Z</time></trkpt><trkpt lat="47.86442222340142" lon="1.142882997176787"><ele>85.0</ele><time>2026-04-25T11:57:11.001Z</time></trkpt><trkpt lat="47.86432970296847" lon="1.1427227212124837"><ele>85.0</ele><time>2026-04-25T11:57:13.001Z</time></trkpt><trkpt lat="47.86425718082667" lon="1.142645923650348"><ele>85.0</ele><time>2026-04-25T11:57:14.001Z</time></trkpt><trkpt lat="47.86419111724581" lon="1.1425546281604442"><ele>85.0</ele><time>2026-04-25T11:57:15.001Z</time></trkpt><trkpt lat="47.864115906877245" lon="1.1424503646869828"><ele>85.0</ele><time>2026-04-25T11:57:16.001Z</time></trkpt><trkpt lat="47.86404379140181" lon="1.1423454337672694"><ele>85.0</ele><time>2026-04-25T11:57:17.001Z</time></trkpt><trkpt lat="47.863972894420925" lon="1.142224028869435"><ele>85.0</ele><time>2026-04-25T11:57:18.001Z</time></trkpt><trkpt lat="47.86388978008014" lon="1.1420823014716308"><ele>85.0</ele><time>2026-04-25T11:57:19.001Z</time></trkpt><trkpt lat="47.86378514084177" lon="1.1419190485825463"><ele>85.0</ele><time>2026-04-25T11:57:20.001Z</time></trkpt><trkpt lat="47.86367587005742" lon="1.1417643060002807"><ele>85.0</ele><time>2026-04-25T11:57:21.001Z</time></trkpt><trkpt lat="47.86358463435745" lon="1.1416326198993143"><ele>85.0</ele><time>2026-04-25T11:57:22.001Z</time></trkpt><trkpt lat="47.863502699873465" lon="1.1415063077734862"><ele>85.0</ele><time>2026-04-25T11:57:23.001Z</time></trkpt><trkpt lat="47.86342780898815" lon="1.1413905409758227"><ele>85.2</ele><time>2026-04-25T11:57:24.001Z</time></trkpt><trkpt lat="47.86337645609324" lon="1.1412667419402867"><ele>85.4</ele><time>2026-04-25T11:57:25.001Z</time></trkpt><trkpt lat="47.86334114772688" lon="1.1411276886285742"><ele>85.6</ele><time>2026-04-25T11:57:26.001Z</time></trkpt><trkpt lat="47.863301512034866" lon="1.1409725326967757"><ele>85.8</ele><time>2026-04-25T11:57:27.001Z</time></trkpt><trkpt lat="47.86324930402392" lon="1.1407927687681902"><ele>86.0</ele><time>2026-04-25T11:57:28.001Z</time></trkpt><trkpt lat="47.86316995907612" lon="1.140591825067681"><ele>87.0</ele><time>2026-04-25T11:57:29.001Z</time></trkpt><trkpt lat="47.86307138885063" lon="1.1403537560039054"><ele>88.0</ele><time>2026-04-25T11:57:30.001Z</time></trkpt><trkpt lat="47.86296102223416" lon="1.1400982739525336"><ele>89.0</ele><time>2026-04-25T11:57:31.001Z</time></trkpt><trkpt lat="47.86285230580559" lon="1.1398415347933926"><ele>90.0</ele><time>2026-04-25T11:57:32.001Z</time></trkpt><trkpt lat="47.86276138947881" lon="1.1396112935833742"><ele>91.0</ele><time>2026-04-25T11:57:33.001Z</time></trkpt><trkpt lat="47.862677064335934" lon="1.1394131020581024"><ele>92.0</ele><time>2026-04-25T11:57:34.001Z</time></trkpt><trkpt lat="47.86260579772522" lon="1.1392500309957871"><ele>91.0</ele><time>2026-04-25T11:57:35.001Z</time></trkpt><trkpt lat="47.862562463323634" lon="1.1391408373923082"><ele>90.0</ele><time>2026-04-25T11:57:36.001Z</time></trkpt><trkpt lat="47.86253203866824" lon="1.1390383868098217"><ele>89.0</ele><time>2026-04-25T11:57:37.001Z</time></trkpt><trkpt lat="47.862512202437614" lon="1.1389476394312315"><ele>88.0</ele><time>2026-04-25T11:57:38.001Z</time></trkpt><trkpt lat="47.86245257498561" lon="1.1388498973111612"><ele>87.0</ele><time>2026-04-25T11:57:39.001Z</time></trkpt><trkpt lat="47.862409078353586" lon="1.1387546646414848"><ele>86.0</ele><time>2026-04-25T11:57:40.001Z</time></trkpt><trkpt lat="47.86236026726641" lon="1.1386354084744386"><ele>86.0</ele><time>2026-04-25T11:57:41.001Z</time></trkpt><trkpt lat="47.862309928688184" lon="1.1385124205954784"><ele>86.0</ele><time>2026-04-25T11:57:42.001Z</time></trkpt><trkpt lat="47.86225338963082" lon="1.1384048960779203"><ele>86.0</ele><time>2026-04-25T11:57:43.001Z</time></trkpt><trkpt lat="47.86221447249285" lon="1.138274781510604"><ele>86.0</ele><time>2026-04-25T11:57:44.001Z</time></trkpt><trkpt lat="47.86217717270034" lon="1.1381815739506882"><ele>86.0</ele><time>2026-04-25T11:57:45.001Z</time></trkpt><trkpt lat="47.86213595049322" lon="1.1380785646808966"><ele>86.0</ele><time>2026-04-25T11:57:46.001Z</time></trkpt><trkpt lat="47.862096588983306" lon="1.1379818343778985"><ele>86.0</ele><time>2026-04-25T11:57:47.001Z</time></trkpt><trkpt lat="47.862035821699074" lon="1.1378834668640494"><ele>86.0</ele><time>2026-04-25T11:57:48.001Z</time></trkpt><trkpt lat="47.86198601836166" lon="1.1377716675598137"><ele>86.0</ele><time>2026-04-25T11:57:49.001Z</time></trkpt><trkpt lat="47.86194195974014" lon="1.137668188450585"><ele>86.0</ele><time>2026-04-25T11:57:50.001Z</time></trkpt><trkpt lat="47.86190527343593" lon="1.137569168831344"><ele>86.0</ele><time>2026-04-25T11:57:51.001Z</time></trkpt><trkpt lat="47.8618554682954" lon="1.1374726179300303"><ele>86.0</ele><time>2026-04-25T11:57:52Z</time></trkpt><trkpt lat="47.86179387662405" lon="1.1373857089562618"><ele>85.83333333333334</ele><time>2026-04-25T11:57:53Z</time></trkpt><trkpt lat="47.861757160461316" lon="1.13727266821502"><ele>85.66666666666667</ele><time>2026-04-25T11:57:54Z</time></trkpt><trkpt lat="47.86171011583166" lon="1.1371702986820158"><ele>85.5</ele><time>2026-04-25T11:57:55Z</time></trkpt><trkpt lat="47.86166317718118" lon="1.1370623612355368"><ele>85.33333333333333</ele><time>2026-04-25T11:57:56Z</time></trkpt><trkpt lat="47.86161734039697" lon="1.1369541885139556"><ele>85.16666666666666</ele><time>2026-04-25T11:57:57Z</time></trkpt><trkpt lat="47.86157076627698" lon="1.1368409646333864"><ele>85.0</ele><time>2026-04-25T11:57:58Z</time></trkpt><trkpt lat="47.861508192369804" lon="1.1367339448765876"><ele>85.0</ele><time>2026-04-25T11:57:59Z</time></trkpt><trkpt lat="47.86146374552087" lon="1.136623464652384"><ele>85.0</ele><time>2026-04-25T11:58:00Z</time></trkpt><trkpt lat="47.86142181407349" lon="1.1364904366118047"><ele>85.0</ele><time>2026-04-25T11:58:01Z</time></trkpt><trkpt lat="47.861360254641845" lon="1.1363520186842535"><ele>85.0</ele><time>2026-04-25T11:58:02Z</time></trkpt><trkpt lat="47.8612836498243" lon="1.136224461629707"><ele>85.0</ele><time>2026-04-25T11:58:03Z</time></trkpt><trkpt lat="47.86123022887268" lon="1.1361021805932316"><ele>84.83333333333333</ele><time>2026-04-25T11:58:04Z</time></trkpt><trkpt lat="47.861181477251755" lon="1.1359867704512658"><ele>84.66666666666666</ele><time>2026-04-25T11:58:05Z</time></trkpt><trkpt lat="47.861145263910885" lon="1.135861604838764"><ele>84.5</ele><time>2026-04-25T11:58:06Z</time></trkpt><trkpt lat="47.861096901029924" lon="1.1357465890151868"><ele>84.33333333333333</ele><time>2026-04-25T11:58:07Z</time></trkpt><trkpt lat="47.86104695759069" lon="1.135659999466509"><ele>84.16666666666667</ele><time>2026-04-25T11:58:08Z</time></trkpt><trkpt lat="47.86101198957817" lon="1.1355528496484832"><ele>84.0</ele><time>2026-04-25T11:58:09Z</time></trkpt><trkpt lat="47.860958966735204" lon="1.1354650716104497"><ele>84.0</ele><time>2026-04-25T11:58:10Z</time></trkpt><trkpt lat="47.8609292562127" lon="1.1353582388295416"><ele>84.0</ele><time>2026-04-25T11:58:11Z</time></trkpt><trkpt lat="47.86090120999793" lon="1.1352558884590493"><ele>84.0</ele><time>2026-04-25T11:58:12Z</time></trkpt><trkpt lat="47.86088364777308" lon="1.1351545551540692"><ele>84.0</ele><time>2026-04-25T11:58:13Z</time></trkpt><trkpt lat="47.86085834128824" lon="1.1350557932017449"><ele>84.0</ele><time>2026-04-25T11:58:14Z</time></trkpt><trkpt lat="47.86083129127543" lon="1.1349502270543301"><ele>84.0</ele><time>2026-04-25T11:58:15Z</time></trkpt><trkpt lat="47.860891772445946" lon="1.1348659422643577"><ele>84.0</ele><time>2026-04-25T11:58:16Z</time></trkpt><trkpt lat="47.86066942388117" lon="1.1348020796361422"><ele>84.0</ele><time>2026-04-25T11:58:17Z</time></trkpt><trkpt lat="47.86062772930986" lon="1.134698922323872"><ele>84.0</ele><time>2026-04-25T11:58:18Z</time></trkpt><trkpt lat="47.86057316786119" lon="1.1345738486824817"><ele>84.0</ele><time>2026-04-25T11:58:19Z</time></trkpt><trkpt lat="47.860504653907434" lon="1.1344196378551021"><ele>84.0</ele><time>2026-04-25T11:58:20Z</time></trkpt><trkpt lat="47.86044253064696" lon="1.1342720999124776"><ele>84.0</ele><time>2026-04-25T11:58:21Z</time></trkpt><trkpt lat="47.8603881012992" lon="1.1341448772077056"><ele>84.0</ele><time>2026-04-25T11:58:22Z</time></trkpt><trkpt lat="47.86033869171315" lon="1.1340319892267519"><ele>84.0</ele><time>2026-04-25T11:58:23Z</time></trkpt><trkpt lat="47.86028427566928" lon="1.1339092830702084"><ele>84.0</ele><time>2026-04-25T11:58:24Z</time></trkpt><trkpt lat="47.86023238017015" lon="1.1337780463071518"><ele>84.0</ele><time>2026-04-25T11:58:25Z</time></trkpt><trkpt lat="47.860175939822376" lon="1.133636545012239"><ele>84.0</ele><time>2026-04-25T11:58:26Z</time></trkpt><trkpt lat="47.860103599111774" lon="1.1334608580252217"><ele>84.0</ele><time>2026-04-25T11:58:27Z</time></trkpt><trkpt lat="47.8600093207063" lon="1.1332451868427886"><ele>84.0</ele><time>2026-04-25T11:58:28Z</time></trkpt><trkpt lat="47.85991193529349" lon="1.1330151791114378"><ele>84.0</ele><time>2026-04-25T11:58:29Z</time></trkpt><trkpt lat="47.85979265587565" lon="1.132744375543999"><ele>84.0</ele><time>2026-04-25T11:58:30Z</time></trkpt><trkpt lat="47.85968448138326" lon="1.1324831032318718"><ele>84.0</ele><time>2026-04-25T11:58:31Z</time></trkpt><trkpt lat="47.859586380134914" lon="1.1322658715057494"><ele>84.0</ele><time>2026-04-25T11:58:32Z</time></trkpt><trkpt lat="47.85949791096628" lon="1.132063118577632"><ele>84.0</ele><time>2026-04-25T11:58:33Z</time></trkpt><trkpt lat="47.85940836453653" lon="1.131843119895321"><ele>84.0</ele><time>2026-04-25T11:58:34Z</time></trkpt><trkpt lat="47.859341938779465" lon="1.1317249024861875"><ele>84.0</ele><time>2026-04-25T11:58:35Z</time></trkpt><trkpt lat="47.85925495610086" lon="1.131575171089176"><ele>84.0</ele><time>2026-04-25T11:58:36Z</time></trkpt><trkpt lat="47.8591274841321" lon="1.1314186851677346"><ele>84.0</ele><time>2026-04-25T11:58:37Z</time></trkpt><trkpt lat="47.858991783049184" lon="1.1312515683512994"><ele>84.0</ele><time>2026-04-25T11:58:38Z</time></trkpt><trkpt lat="47.85885180148059" lon="1.1310611836315718"><ele>84.0</ele><time>2026-04-25T11:58:39Z</time></trkpt><trkpt lat="47.85872427922777" lon="1.1308876829439687"><ele>84.0</ele><time>2026-04-25T11:58:40Z</time></trkpt><trkpt lat="47.85861295629278" lon="1.1307332987722096"><ele>84.0</ele><time>2026-04-25T11:58:41Z</time></trkpt><trkpt lat="47.85850980160757" lon="1.130595873954794"><ele>84.25</ele><time>2026-04-25T11:58:42Z</time></trkpt><trkpt lat="47.85841026661553" lon="1.1304701555158954"><ele>84.5</ele><time>2026-04-25T11:58:43Z</time></trkpt><trkpt lat="47.858312452318714" lon="1.1303530550854703"><ele>84.75</ele><time>2026-04-25T11:58:44Z</time></trkpt><trkpt lat="47.8582268341803" lon="1.130241816263977"><ele>85.0</ele><time>2026-04-25T11:58:45Z</time></trkpt><trkpt lat="47.85815393692702" lon="1.1301117636767168"><ele>85.0</ele><time>2026-04-25T11:58:46Z</time></trkpt><trkpt lat="47.85809520605354" lon="1.1299499611459825"><ele>85.0</ele><time>2026-04-25T11:58:47Z</time></trkpt><trkpt lat="47.85804494084956" lon="1.1297584731386734"><ele>85.0</ele><time>2026-04-25T11:58:48Z</time></trkpt><trkpt lat="47.85796965073142" lon="1.1295537055380176"><ele>85.0</ele><time>2026-04-25T11:58:49Z</time></trkpt><trkpt lat="47.85789319244888" lon="1.129371124569176"><ele>84.75</ele><time>2026-04-25T11:58:50Z</time></trkpt><trkpt lat="47.85782275328637" lon="1.129197749494824"><ele>84.5</ele><time>2026-04-25T11:58:51Z</time></trkpt><trkpt lat="47.85775833573054" lon="1.129026840108003"><ele>84.25</ele><time>2026-04-25T11:58:52Z</time></trkpt><trkpt lat="47.85770387076688" lon="1.1288529609480749"><ele>84.0</ele><time>2026-04-25T11:58:53Z</time></trkpt><trkpt lat="47.8576622853882" lon="1.128652874406285"><ele>84.0</ele><time>2026-04-25T11:58:54Z</time></trkpt><trkpt lat="47.85764373876454" lon="1.1284486721551876"><ele>84.0</ele><time>2026-04-25T11:58:55Z</time></trkpt><trkpt lat="47.85762284337809" lon="1.1282800121712215"><ele>84.0</ele><time>2026-04-25T11:58:56Z</time></trkpt><trkpt lat="47.85759284713622" lon="1.1281147261732678"><ele>84.0</ele><time>2026-04-25T11:58:57Z</time></trkpt><trkpt lat="47.857565549220865" lon="1.1279495795937784"><ele>84.33333333333333</ele><time>2026-04-25T11:58:58Z</time></trkpt><trkpt lat="47.85754596703505" lon="1.1278116341079705"><ele>84.66666666666667</ele><time>2026-04-25T11:58:59Z</time></trkpt><trkpt lat="47.85752497276976" lon="1.127683799951105"><ele>85.0</ele><time>2026-04-25T11:59:00.001Z</time></trkpt><trkpt lat="47.85750963055257" lon="1.127575697618375"><ele>85.33333333333334</ele><time>2026-04-25T11:59:01.001Z</time></trkpt><trkpt lat="47.85749639788077" lon="1.1274775993240753"><ele>85.66666666666667</ele><time>2026-04-25T11:59:02.001Z</time></trkpt><trkpt lat="47.85747710954416" lon="1.1273683565478683"><ele>86.0</ele><time>2026-04-25T11:59:03.001Z</time></trkpt><trkpt lat="47.85745927190424" lon="1.1272758198322645"><ele>86.0</ele><time>2026-04-25T11:59:04.001Z</time></trkpt><trkpt lat="47.85743874437703" lon="1.1271472304143562"><ele>86.0</ele><time>2026-04-25T11:59:06.001Z</time></trkpt><trkpt lat="47.85744665295219" lon="1.1270494109556903"><ele>86.0</ele><time>2026-04-25T11:59:52.001Z</time></trkpt><trkpt lat="47.857513645375676" lon="1.1269809687504382"><ele>86.0</ele><time>2026-04-25T11:59:54.001Z</time></trkpt><trkpt lat="47.85757258532503" lon="1.1269446192867885"><ele>86.0</ele><time>2026-04-25T11:59:55.001Z</time></trkpt><trkpt lat="47.85764232958748" lon="1.1268861750029242"><ele>86.0</ele><time>2026-04-25T11:59:56.001Z</time></trkpt><trkpt lat="47.85770560849987" lon="1.1268240650807195"><ele>86.33333333333334</ele><time>2026-04-25T11:59:57.001Z</time></trkpt><trkpt lat="47.85777018185717" lon="1.1267590344190854"><ele>86.66666666666667</ele><time>2026-04-25T11:59:58Z</time></trkpt><trkpt lat="47.857838719204025" lon="1.1266862378291365"><ele>87.0</ele><time>2026-04-25T11:59:59Z</time></trkpt><trkpt lat="47.85790350729863" lon="1.126621881620519"><ele>87.33333333333333</ele><time>2026-04-25T12:00:00Z</time></trkpt><trkpt lat="47.857970311847204" lon="1.1265621877046113"><ele>87.66666666666666</ele><time>2026-04-25T12:00:01Z</time></trkpt><trkpt lat="47.85804517561757" lon="1.1264994763269518"><ele>88.0</ele><time>2026-04-25T12:00:02Z</time></trkpt><trkpt lat="47.85810903656252" lon="1.1264356084130307"><ele>88.16666666666666</ele><time>2026-04-25T12:00:03Z</time></trkpt><trkpt lat="47.858168628100294" lon="1.1263736571899958"><ele>88.33333333333333</ele><time>2026-04-25T12:00:04Z</time></trkpt><trkpt lat="47.85823768817969" lon="1.1263052916797303"><ele>88.5</ele><time>2026-04-25T12:00:05Z</time></trkpt><trkpt lat="47.858303631831745" lon="1.1262323914130596"><ele>88.66666666666667</ele><time>2026-04-25T12:00:06Z</time></trkpt><trkpt lat="47.85836448070074" lon="1.1261642590060854"><ele>88.83333333333334</ele><time>2026-04-25T12:00:07Z</time></trkpt><trkpt lat="47.858428169967375" lon="1.1260865045149098"><ele>89.0</ele><time>2026-04-25T12:00:08Z</time></trkpt><trkpt lat="47.85849808039987" lon="1.1260001792528649"><ele>89.33333333333334</ele><time>2026-04-25T12:00:09Z</time></trkpt><trkpt lat="47.858564550430344" lon="1.125924870926498"><ele>89.66666666666667</ele><time>2026-04-25T12:00:10Z</time></trkpt><trkpt lat="47.85863594842728" lon="1.1258350081032378"><ele>90.0</ele><time>2026-04-25T12:00:11Z</time></trkpt><trkpt lat="47.85869866324202" lon="1.1257643545219507"><ele>90.33333333333333</ele><time>2026-04-25T12:00:12Z</time></trkpt><trkpt lat="47.85878558984171" lon="1.1256791558519395"><ele>90.66666666666666</ele><time>2026-04-25T12:00:14Z</time></trkpt><trkpt lat="47.858838570096204" lon="1.125618173166901"><ele>91.0</ele><time>2026-04-25T12:00:16Z</time></trkpt><trkpt lat="47.85891280662524" lon="1.1255682616983336"><ele>91.19999999999999</ele><time>2026-04-25T12:00:18Z</time></trkpt><trkpt lat="47.85897371742344" lon="1.125534344498456"><ele>91.39999999999999</ele><time>2026-04-25T12:00:19Z</time></trkpt><trkpt lat="47.85906182375944" lon="1.1255340189626544"><ele>91.6</ele><time>2026-04-25T12:00:20Z</time></trkpt><trkpt lat="47.8591180602134" lon="1.1254813464560296"><ele>91.8</ele><time>2026-04-25T12:00:21Z</time></trkpt><trkpt lat="47.859253429116215" lon="1.1253828487402817"><ele>92.0</ele><time>2026-04-25T12:00:23Z</time></trkpt><trkpt lat="47.85934698075109" lon="1.125318716808921"><ele>92.33333333333334</ele><time>2026-04-25T12:00:24Z</time></trkpt><trkpt lat="47.85942756884688" lon="1.1252631669074544"><ele>92.66666666666667</ele><time>2026-04-25T12:00:25Z</time></trkpt><trkpt lat="47.85949454974198" lon="1.1252119460678243"><ele>93.0</ele><time>2026-04-25T12:00:26Z</time></trkpt><trkpt lat="47.85955181072342" lon="1.1251515105907484"><ele>93.33333333333333</ele><time>2026-04-25T12:00:27Z</time></trkpt><trkpt lat="47.85960313724134" lon="1.1250591156070655"><ele>93.66666666666666</ele><time>2026-04-25T12:00:28Z</time></trkpt><trkpt lat="47.85966330837007" lon="1.1249535197614917"><ele>94.0</ele><time>2026-04-25T12:00:29Z</time></trkpt><trkpt lat="47.85973479235364" lon="1.124853608174042"><ele>95.2</ele><time>2026-04-25T12:00:30Z</time></trkpt><trkpt lat="47.85982146529862" lon="1.1247808604640546"><ele>96.4</ele><time>2026-04-25T12:00:31Z</time></trkpt><trkpt lat="47.85991005625683" lon="1.1247394457168092"><ele>97.6</ele><time>2026-04-25T12:00:32Z</time></trkpt><trkpt lat="47.85999585322929" lon="1.1246889821431785"><ele>98.8</ele><time>2026-04-25T12:00:33Z</time></trkpt><trkpt lat="47.860085403414985" lon="1.1246366974534154"><ele>100.0</ele><time>2026-04-25T12:00:34Z</time></trkpt><trkpt lat="47.86019600411373" lon="1.1245735502411884"><ele>101.0</ele><time>2026-04-25T12:00:35Z</time></trkpt><trkpt lat="47.86032107560189" lon="1.1245031364355849"><ele>102.0</ele><time>2026-04-25T12:00:36Z</time></trkpt><trkpt lat="47.86046189415053" lon="1.1244252749612156"><ele>103.0</ele><time>2026-04-25T12:00:37Z</time></trkpt><trkpt lat="47.86062021033589" lon="1.1243395761735702"><ele>103.0</ele><time>2026-04-25T12:00:38Z</time></trkpt><trkpt lat="47.86074788695908" lon="1.1242810335463427"><ele>103.0</ele><time>2026-04-25T12:00:39Z</time></trkpt><trkpt lat="47.86085385446272" lon="1.1242137222164132"><ele>103.0</ele><time>2026-04-25T12:00:40Z</time></trkpt><trkpt lat="47.86094518657995" lon="1.1241244316969075"><ele>103.0</ele><time>2026-04-25T12:00:41Z</time></trkpt><trkpt lat="47.861044843229365" lon="1.1240563110114326"><ele>104.25</ele><time>2026-04-25T12:00:42Z</time></trkpt><trkpt lat="47.86116175329788" lon="1.123955462976798"><ele>105.5</ele><time>2026-04-25T12:00:43Z</time></trkpt><trkpt lat="47.86129426881324" lon="1.1238757681579228"><ele>106.75</ele><time>2026-04-25T12:00:44Z</time></trkpt><trkpt lat="47.861422287066524" lon="1.1237746301495564"><ele>108.0</ele><time>2026-04-25T12:00:45Z</time></trkpt><trkpt lat="47.861546188185464" lon="1.1236813880949632"><ele>108.0</ele><time>2026-04-25T12:00:46Z</time></trkpt><trkpt lat="47.86165521918748" lon="1.1236036966656215"><ele>108.00000000000001</ele><time>2026-04-25T12:00:47Z</time></trkpt><trkpt lat="47.86174441745147" lon="1.123546997119183"><ele>108.00000000000001</ele><time>2026-04-25T12:00:48Z</time></trkpt><trkpt lat="47.86183960730061" lon="1.1234985324638853"><ele>108.0</ele><time>2026-04-25T12:00:49Z</time></trkpt><trkpt lat="47.86194640240825" lon="1.1234608892624227"><ele>108.0</ele><time>2026-04-25T12:00:50Z</time></trkpt><trkpt lat="47.86206738475931" lon="1.1234358218875866"><ele>109.33333333333334</ele><time>2026-04-25T12:00:51Z</time></trkpt><trkpt lat="47.86221466540556" lon="1.1234155549746438"><ele>110.66666666666667</ele><time>2026-04-25T12:00:52Z</time></trkpt><trkpt lat="47.86237563380022" lon="1.1233800889992809"><ele>112.0</ele><time>2026-04-25T12:00:53Z</time></trkpt><trkpt lat="47.86253871886291" lon="1.1233215295908465"><ele>113.0</ele><time>2026-04-25T12:00:54Z</time></trkpt><trkpt lat="47.86268738531829" lon="1.1233323741041203"><ele>114.0</ele><time>2026-04-25T12:00:55Z</time></trkpt><trkpt lat="47.86281076453078" lon="1.1233463283179537"><ele>115.0</ele><time>2026-04-25T12:00:56Z</time></trkpt><trkpt lat="47.86293398211407" lon="1.1233458345578502"><ele>116.0</ele><time>2026-04-25T12:00:57Z</time></trkpt><trkpt lat="47.86305203333283" lon="1.123381602136469"><ele>116.0</ele><time>2026-04-25T12:00:58Z</time></trkpt><trkpt lat="47.86315679187054" lon="1.123410145394376"><ele>116.0</ele><time>2026-04-25T12:00:59Z</time></trkpt><trkpt lat="47.863259079695624" lon="1.1234368398127237"><ele>116.0</ele><time>2026-04-25T12:01:00Z</time></trkpt><trkpt lat="47.86335679320688" lon="1.1234622102280227"><ele>116.0</ele><time>2026-04-25T12:01:01Z</time></trkpt><trkpt lat="47.863460893129336" lon="1.1235132212925358"><ele>116.0</ele><time>2026-04-25T12:01:02Z</time></trkpt><trkpt lat="47.863571616757895" lon="1.12357865840537"><ele>116.25</ele><time>2026-04-25T12:01:03Z</time></trkpt><trkpt lat="47.8636825636256" lon="1.1236658688794208"><ele>116.5</ele><time>2026-04-25T12:01:04Z</time></trkpt><trkpt lat="47.86379091189938" lon="1.1238195870500105"><ele>116.75</ele><time>2026-04-25T12:01:05Z</time></trkpt><trkpt lat="47.86389614278283" lon="1.1239621515751137"><ele>117.0</ele><time>2026-04-25T12:01:06Z</time></trkpt><trkpt lat="47.86400825572627" lon="1.1240623543179158"><ele>117.0</ele><time>2026-04-25T12:01:07Z</time></trkpt><trkpt lat="47.86412834586356" lon="1.1241655465004285"><ele>117.0</ele><time>2026-04-25T12:01:08Z</time></trkpt><trkpt lat="47.86426964709943" lon="1.1242776934227436"><ele>117.0</ele><time>2026-04-25T12:01:09.001Z</time></trkpt><trkpt lat="47.86443142338859" lon="1.1243701115125384"><ele>117.33333333333334</ele><time>2026-04-25T12:01:10.001Z</time></trkpt><trkpt lat="47.864607236010876" lon="1.1244627585284113"><ele>117.66666666666667</ele><time>2026-04-25T12:01:11.001Z</time></trkpt><trkpt lat="47.8648054989952" lon="1.1245480727313135"><ele>118.0</ele><time>2026-04-25T12:01:12.001Z</time></trkpt><trkpt lat="47.86499807479595" lon="1.1246005540781365"><ele>118.75</ele><time>2026-04-25T12:01:13.001Z</time></trkpt><trkpt lat="47.86516462233243" lon="1.1246443530854178"><ele>119.5</ele><time>2026-04-25T12:01:14.001Z</time></trkpt><trkpt lat="47.86529039633168" lon="1.1247142111722537"><ele>120.25</ele><time>2026-04-25T12:01:15.001Z</time></trkpt><trkpt lat="47.865410339416485" lon="1.1247521145548063"><ele>121.0</ele><time>2026-04-25T12:01:16.001Z</time></trkpt><trkpt lat="47.8654928732758" lon="1.1247705256202125"><ele>121.0</ele><time>2026-04-25T12:01:17.001Z</time></trkpt><trkpt lat="47.865576536389234" lon="1.124779994872772"><ele>121.0</ele><time>2026-04-25T12:01:19.001Z</time></trkpt><trkpt lat="47.86560078505506" lon="1.1244711612318534"><ele>121.0</ele><time>2026-04-25T12:01:22.001Z</time></trkpt><trkpt lat="47.865547973389354" lon="1.1243935744889029"><ele>121.0</ele><time>2026-04-25T12:01:23.001Z</time></trkpt><trkpt lat="47.8654980907669" lon="1.1243154317341233"><ele>121.0</ele><time>2026-04-25T12:01:24.001Z</time></trkpt><trkpt lat="47.8654514831398" lon="1.124245825222801"><ele>121.00000000000001</ele><time>2026-04-25T12:01:25.001Z</time></trkpt><trkpt lat="47.865398821530135" lon="1.124182317304695"><ele>121.0</ele><time>2026-04-25T12:01:26.001Z</time></trkpt><trkpt lat="47.86532641964311" lon="1.1240806020419478"><ele>121.0</ele><time>2026-04-25T12:01:28.001Z</time></trkpt><trkpt lat="47.865277139585345" lon="1.1239905399853243"><ele>121.0</ele><time>2026-04-25T12:01:30.001Z</time></trkpt><trkpt lat="47.865223427617785" lon="1.1238938224971047"><ele>121.00000000000001</ele><time>2026-04-25T12:01:32.001Z</time></trkpt><trkpt lat="47.86517299101255" lon="1.1237910216607534"><ele>121.0</ele><time>2026-04-25T12:01:34.001Z</time></trkpt><trkpt lat="47.86511704732276" lon="1.1236063356970354"><ele>121.6</ele><time>2026-04-25T12:01:36.001Z</time></trkpt><trkpt lat="47.865089913243224" lon="1.12348744079604"><ele>122.19999999999999</ele><time>2026-04-25T12:01:37.001Z</time></trkpt><trkpt lat="47.86505391629729" lon="1.12333676832892"><ele>122.80000000000001</ele><time>2026-04-25T12:01:38.001Z</time></trkpt><trkpt lat="47.865007650433064" lon="1.1231586391755757"><ele>123.4</ele><time>2026-04-25T12:01:39.001Z</time></trkpt><trkpt lat="47.86496551169851" lon="1.1230040914321688"><ele>124.0</ele><time>2026-04-25T12:01:40.001Z</time></trkpt><trkpt lat="47.86494851676268" lon="1.1228664804353596"><ele>124.5</ele><time>2026-04-25T12:01:41.001Z</time></trkpt><trkpt lat="47.864948938193145" lon="1.122715278249215"><ele>125.0</ele><time>2026-04-25T12:01:42.001Z</time></trkpt><trkpt lat="47.86496408220331" lon="1.1225469129349028"><ele>125.5</ele><time>2026-04-25T12:01:43.001Z</time></trkpt><trkpt lat="47.86498822969951" lon="1.1223449806776515"><ele>126.0</ele><time>2026-04-25T12:01:44.001Z</time></trkpt><trkpt lat="47.86500164767814" lon="1.1221683793506234"><ele>126.4</ele><time>2026-04-25T12:01:45.001Z</time></trkpt><trkpt lat="47.86500949072385" lon="1.1220183418895253"><ele>126.8</ele><time>2026-04-25T12:01:46.001Z</time></trkpt><trkpt lat="47.86501665723059" lon="1.1218741204060068"><ele>127.20000000000002</ele><time>2026-04-25T12:01:47.001Z</time></trkpt><trkpt lat="47.86498814514301" lon="1.1217203272051914"><ele>127.60000000000001</ele><time>2026-04-25T12:01:48.001Z</time></trkpt><trkpt lat="47.864960663217026" lon="1.121568077408098"><ele>128.0</ele><time>2026-04-25T12:01:49.001Z</time></trkpt><trkpt lat="47.864941054131315" lon="1.1213999990133405"><ele>128.25</ele><time>2026-04-25T12:01:50.001Z</time></trkpt><trkpt lat="47.864902310682474" lon="1.1212242987492202"><ele>128.5</ele><time>2026-04-25T12:01:51.001Z</time></trkpt><trkpt lat="47.86485910791203" lon="1.1210254511404192"><ele>128.75</ele><time>2026-04-25T12:01:52.001Z</time></trkpt><trkpt lat="47.86480791264352" lon="1.1207908322264502"><ele>129.0</ele><time>2026-04-25T12:01:53.001Z</time></trkpt><trkpt lat="47.86475251707519" lon="1.1205462285395427"><ele>129.0</ele><time>2026-04-25T12:01:54.001Z</time></trkpt><trkpt lat="47.864705184240684" lon="1.1203281630126298"><ele>129.0</ele><time>2026-04-25T12:01:55.001Z</time></trkpt><trkpt lat="47.86466042093687" lon="1.1201220928544877"><ele>129.0</ele><time>2026-04-25T12:01:56.001Z</time></trkpt><trkpt lat="47.86461740050309" lon="1.1199254693618728"><ele>129.0</ele><time>2026-04-25T12:01:57.001Z</time></trkpt><trkpt lat="47.864575465954154" lon="1.119733808646258"><ele>128.75</ele><time>2026-04-25T12:01:58.001Z</time></trkpt><trkpt lat="47.86453509679414" lon="1.1195493026062164"><ele>128.5</ele><time>2026-04-25T12:01:59.001Z</time></trkpt><trkpt lat="47.86449869999347" lon="1.119377216023554"><ele>128.25</ele><time>2026-04-25T12:02:00.001Z</time></trkpt><trkpt lat="47.86446193320634" lon="1.1192025736664808"><ele>128.0</ele><time>2026-04-25T12:02:01.001Z</time></trkpt><trkpt lat="47.86442447795922" lon="1.119033005618378"><ele>128.0</ele><time>2026-04-25T12:02:02.001Z</time></trkpt><trkpt lat="47.86438952191901" lon="1.1188755026350465"><ele>128.0</ele><time>2026-04-25T12:02:03.001Z</time></trkpt><trkpt lat="47.86435737717987" lon="1.118732244689906"><ele>128.0</ele><time>2026-04-25T12:02:04Z</time></trkpt><trkpt lat="47.864330711764026" lon="1.1186071432130809"><ele>128.0</ele><time>2026-04-25T12:02:05Z</time></trkpt><trkpt lat="47.8643134639099" lon="1.1185012923638635"><ele>128.0</ele><time>2026-04-25T12:02:06Z</time></trkpt><trkpt lat="47.864302591383456" lon="1.1183587792780711"><ele>128.25</ele><time>2026-04-25T12:02:08Z</time></trkpt><trkpt lat="47.864113412844105" lon="1.1183922742818175"><ele>128.5</ele><time>2026-04-25T12:02:10Z</time></trkpt><trkpt lat="47.86402677082053" lon="1.118432989632794"><ele>128.75</ele><time>2026-04-25T12:02:11Z</time></trkpt><trkpt lat="47.86391826580694" lon="1.1184840615203582"><ele>129.0</ele><time>2026-04-25T12:02:12Z</time></trkpt><trkpt lat="47.86380029215404" lon="1.1185285001336736"><ele>129.0</ele><time>2026-04-25T12:02:13Z</time></trkpt><trkpt lat="47.863666752698954" lon="1.1185664250082523"><ele>129.0</ele><time>2026-04-25T12:02:14Z</time></trkpt><trkpt lat="47.863524353171066" lon="1.118587140010937"><ele>129.0</ele><time>2026-04-25T12:02:15Z</time></trkpt><trkpt lat="47.86335195042217" lon="1.1185881791079582"><ele>128.66666666666666</ele><time>2026-04-25T12:02:16Z</time></trkpt><trkpt lat="47.863165474113806" lon="1.1185831555233694"><ele>128.33333333333331</ele><time>2026-04-25T12:02:17Z</time></trkpt><trkpt lat="47.862997791047995" lon="1.118575424249049"><ele>128.0</ele><time>2026-04-25T12:02:18Z</time></trkpt><trkpt lat="47.862846848269555" lon="1.1185595987600367"><ele>128.0</ele><time>2026-04-25T12:02:19Z</time></trkpt><trkpt lat="47.86272296402421" lon="1.118542777010938"><ele>128.0</ele><time>2026-04-25T12:02:20Z</time></trkpt><trkpt lat="47.862617943154056" lon="1.1185372011406454"><ele>128.0</ele><time>2026-04-25T12:02:21Z</time></trkpt><trkpt lat="47.86252818496384" lon="1.118551548392814"><ele>128.0</ele><time>2026-04-25T12:02:22Z</time></trkpt><trkpt lat="47.86245240906503" lon="1.1185584580759913"><ele>128.0</ele><time>2026-04-25T12:02:23Z</time></trkpt><trkpt lat="47.86237861815715" lon="1.1185658881998217"><ele>127.75</ele><time>2026-04-25T12:02:24Z</time></trkpt><trkpt lat="47.86231159878736" lon="1.1185652889440953"><ele>127.5</ele><time>2026-04-25T12:02:25Z</time></trkpt><trkpt lat="47.86219702634554" lon="1.1185182824806699"><ele>127.25</ele><time>2026-04-25T12:02:27Z</time></trkpt><trkpt lat="47.86210946489413" lon="1.1183839362120562"><ele>127.0</ele><time>2026-04-25T12:02:29Z</time></trkpt><trkpt lat="47.86193646717719" lon="1.1184171512550305"><ele>127.0</ele><time>2026-04-25T12:02:30Z</time></trkpt><trkpt lat="47.86186535057126" lon="1.1182823854681743"><ele>126.99999999999999</ele><time>2026-04-25T12:02:31Z</time></trkpt><trkpt lat="47.861801080940076" lon="1.1181605944225799"><ele>126.99999999999999</ele><time>2026-04-25T12:02:32Z</time></trkpt><trkpt lat="47.861742353150625" lon="1.1180493055685232"><ele>127.0</ele><time>2026-04-25T12:02:33Z</time></trkpt><trkpt lat="47.8616851166213" lon="1.1179392525516987"><ele>127.0</ele><time>2026-04-25T12:02:34Z</time></trkpt><trkpt lat="47.861629306220074" lon="1.1178306770604989"><ele>125.8</ele><time>2026-04-25T12:02:35Z</time></trkpt><trkpt lat="47.861569669867265" lon="1.1177147872566031"><ele>124.6</ele><time>2026-04-25T12:02:36Z</time></trkpt><trkpt lat="47.86150809691458" lon="1.1175987754400247"><ele>123.39999999999999</ele><time>2026-04-25T12:02:37Z</time></trkpt><trkpt lat="47.86144700569819" lon="1.1174836716030159"><ele>122.19999999999999</ele><time>2026-04-25T12:02:38Z</time></trkpt><trkpt lat="47.861388053623905" lon="1.1173710327152624"><ele>121.0</ele><time>2026-04-25T12:02:39Z</time></trkpt><trkpt lat="47.86132673368072" lon="1.1172534501449638"><ele>120.25</ele><time>2026-04-25T12:02:40Z</time></trkpt><trkpt lat="47.861260452498975" lon="1.117131219673404"><ele>119.5</ele><time>2026-04-25T12:02:41Z</time></trkpt><trkpt lat="47.86117212958605" lon="1.1169667161534165"><ele>118.75</ele><time>2026-04-25T12:02:42Z</time></trkpt><trkpt lat="47.86107027902961" lon="1.1167719828710727"><ele>118.0</ele><time>2026-04-25T12:02:43Z</time></trkpt><trkpt lat="47.860960483836564" lon="1.1165620599960828"><ele>116.0</ele><time>2026-04-25T12:02:44Z</time></trkpt><trkpt lat="47.86085521030753" lon="1.116365211866223"><ele>114.0</ele><time>2026-04-25T12:02:45Z</time></trkpt><trkpt lat="47.86075049228362" lon="1.1161679211521014"><ele>112.0</ele><time>2026-04-25T12:02:46Z</time></trkpt><trkpt lat="47.860644902538944" lon="1.1159655664846657"><ele>112.0</ele><time>2026-04-25T12:02:47Z</time></trkpt><trkpt lat="47.86054518596651" lon="1.1157744672170637"><ele>112.0</ele><time>2026-04-25T12:02:48Z</time></trkpt><trkpt lat="47.86045154900674" lon="1.1155950189923265"><ele>112.0</ele><time>2026-04-25T12:02:49Z</time></trkpt><trkpt lat="47.860370590624875" lon="1.1154398685721758"><ele>112.0</ele><time>2026-04-25T12:02:50Z</time></trkpt><trkpt lat="47.86029484579407" lon="1.115294709505126"><ele>112.00000000000001</ele><time>2026-04-25T12:02:51Z</time></trkpt><trkpt lat="47.86023394277914" lon="1.1151780678844978"><ele>112.0</ele><time>2026-04-25T12:02:52Z</time></trkpt><trkpt lat="47.8601766513362" lon="1.1150702348128072"><ele>112.0</ele><time>2026-04-25T12:02:53Z</time></trkpt><trkpt lat="47.860126635465136" lon="1.1149760955484378"><ele>112.0</ele><time>2026-04-25T12:02:54Z</time></trkpt><trkpt lat="47.86008546584172" lon="1.114898606926328"><ele>112.00000000000001</ele><time>2026-04-25T12:02:55Z</time></trkpt><trkpt lat="47.86003990997899" lon="1.1148128624479228"><ele>112.0</ele><time>2026-04-25T12:02:57Z</time></trkpt><trkpt lat="47.8601078541746" lon="1.1147247502157875"><ele>111.0</ele><time>2026-04-25T12:02:58Z</time></trkpt><trkpt lat="47.86005567762998" lon="1.1147901047029278"><ele>109.99999999999999</ele><time>2026-04-25T12:03:07.001Z</time></trkpt><trkpt lat="47.85997116952574" lon="1.1148505010123095"><ele>108.99999999999999</ele><time>2026-04-25T12:03:10.001Z</time></trkpt><trkpt lat="47.85990655285893" lon="1.1148615158620232"><ele>108.0</ele><time>2026-04-25T12:03:12.001Z</time></trkpt><trkpt lat="47.85979449904647" lon="1.1149562658505576"><ele>107.0</ele><time>2026-04-25T12:03:14.001Z</time></trkpt><trkpt lat="47.85967489419464" lon="1.1149877254019587"><ele>107.0</ele><time>2026-04-25T12:03:16.001Z</time></trkpt><trkpt lat="47.85956298269579" lon="1.114967345829634"><ele>106.99999999999999</ele><time>2026-04-25T12:03:17.001Z</time></trkpt><trkpt lat="47.85947027696832" lon="1.1149276190680304"><ele>106.99999999999999</ele><time>2026-04-25T12:03:18.001Z</time></trkpt><trkpt lat="47.85940185865427" lon="1.114890143599301"><ele>107.0</ele><time>2026-04-25T12:03:19.001Z</time></trkpt><trkpt lat="47.8592816573605" lon="1.114839476121836"><ele>107.0</ele><time>2026-04-25T12:03:21.001Z</time></trkpt><trkpt lat="47.85918854729575" lon="1.1147853859463663"><ele>106.75</ele><time>2026-04-25T12:03:23.001Z</time></trkpt><trkpt lat="47.85908031025818" lon="1.1147576559883623"><ele>106.5</ele><time>2026-04-25T12:03:25.001Z</time></trkpt><trkpt lat="47.8589572853702" lon="1.1146859730417253"><ele>106.25</ele><time>2026-04-25T12:03:29.001Z</time></trkpt><trkpt lat="47.85886758995785" lon="1.1146150296548982"><ele>106.0</ele><time>2026-04-25T12:03:30.001Z</time></trkpt><trkpt lat="47.85875388991605" lon="1.1145154757655422"><ele>106.0</ele><time>2026-04-25T12:03:31.001Z</time></trkpt><trkpt lat="47.85865644086325" lon="1.1144435974031166"><ele>106.0</ele><time>2026-04-25T12:03:32.001Z</time></trkpt><trkpt lat="47.858565088951416" lon="1.1143752167045315"><ele>106.0</ele><time>2026-04-25T12:03:33.001Z</time></trkpt><trkpt lat="47.85849051142618" lon="1.1143073867752795"><ele>106.0</ele><time>2026-04-25T12:03:34.001Z</time></trkpt><trkpt lat="47.858418332450775" lon="1.1142579256020313"><ele>106.0</ele><time>2026-04-25T12:03:35.001Z</time></trkpt><trkpt lat="47.858331915402346" lon="1.1142218100271117"><ele>107.6</ele><time>2026-04-25T12:03:36.001Z</time></trkpt><trkpt lat="47.85823589616448" lon="1.1141933210819197"><ele>109.19999999999999</ele><time>2026-04-25T12:03:37.001Z</time></trkpt><trkpt lat="47.85814510486637" lon="1.1141619412631207"><ele>110.80000000000001</ele><time>2026-04-25T12:03:38.001Z</time></trkpt><trkpt lat="47.85806053199511" lon="1.1141174539980199"><ele>112.4</ele><time>2026-04-25T12:03:39.001Z</time></trkpt><trkpt lat="47.85796600077169" lon="1.1140613717804633"><ele>114.0</ele><time>2026-04-25T12:03:40.001Z</time></trkpt><trkpt lat="47.857889929012536" lon="1.113998882165957"><ele>114.0</ele><time>2026-04-25T12:03:41.001Z</time></trkpt><trkpt lat="47.857822101504475" lon="1.1139597666048104"><ele>114.0</ele><time>2026-04-25T12:03:42.001Z</time></trkpt><trkpt lat="47.8577520003631" lon="1.113887879307935"><ele>114.0</ele><time>2026-04-25T12:03:44.001Z</time></trkpt><trkpt lat="47.85769736127256" lon="1.1137634892494463"><ele>114.0</ele><time>2026-04-25T12:03:46.001Z</time></trkpt><trkpt lat="47.85764440530262" lon="1.1137124122354092"><ele>114.0</ele><time>2026-04-25T12:03:47.001Z</time></trkpt><trkpt lat="47.85759316037522" lon="1.1136173015451019"><ele>114.0</ele><time>2026-04-25T12:03:49.001Z</time></trkpt><trkpt lat="47.85753806235235" lon="1.1134946012749836"><ele>114.33333333333333</ele><time>2026-04-25T12:03:51.001Z</time></trkpt><trkpt lat="47.85746433115712" lon="1.1133663787170938"><ele>114.66666666666666</ele><time>2026-04-25T12:03:53.001Z</time></trkpt><trkpt lat="47.857421210554705" lon="1.113265113509191"><ele>115.0</ele><time>2026-04-25T12:03:55.001Z</time></trkpt><trkpt lat="47.85737630115825" lon="1.1131843314235421"><ele>115.33333333333333</ele><time>2026-04-25T12:03:57.001Z</time></trkpt><trkpt lat="47.857334201310024" lon="1.113103302049352"><ele>115.66666666666666</ele><time>2026-04-25T12:03:59.001Z</time></trkpt><trkpt lat="47.85728734637804" lon="1.1129722007517748"><ele>116.0</ele><time>2026-04-25T12:04:01.001Z</time></trkpt><trkpt lat="47.85725227688428" lon="1.1128770110115696"><ele>114.0</ele><time>2026-04-25T12:04:02.001Z</time></trkpt><trkpt lat="47.85719202988825" lon="1.1127015057069616"><ele>112.0</ele><time>2026-04-25T12:04:04.001Z</time></trkpt><trkpt lat="47.85711828455254" lon="1.1125568916542834"><ele>110.0</ele><time>2026-04-25T12:04:05.001Z</time></trkpt><trkpt lat="47.857033512909524" lon="1.1124305490800386"><ele>108.0</ele><time>2026-04-25T12:04:06.001Z</time></trkpt><trkpt lat="47.85693290251949" lon="1.1122720002911883"><ele>107.60000000000001</ele><time>2026-04-25T12:04:07.001Z</time></trkpt><trkpt lat="47.85683770561059" lon="1.1121367785364926"><ele>107.20000000000002</ele><time>2026-04-25T12:04:08.001Z</time></trkpt><trkpt lat="47.85676538866056" lon="1.112011958363079"><ele>106.8</ele><time>2026-04-25T12:04:09.001Z</time></trkpt><trkpt lat="47.85669321027679" lon="1.1118971755611504"><ele>106.4</ele><time>2026-04-25T12:04:10Z</time></trkpt><trkpt lat="47.8566338099719" lon="1.1118066715679078"><ele>106.0</ele><time>2026-04-25T12:04:11Z</time></trkpt><trkpt lat="47.85658758367003" lon="1.111705756815898"><ele>106.00000000000001</ele><time>2026-04-25T12:04:12Z</time></trkpt><trkpt lat="47.856560847381786" lon="1.111599188981811"><ele>106.0</ele><time>2026-04-25T12:04:13Z</time></trkpt><trkpt lat="47.85654521340789" lon="1.1114464255652012"><ele>106.0</ele><time>2026-04-25T12:04:14Z</time></trkpt><trkpt lat="47.85653147406873" lon="1.1113052871651736"><ele>106.0</ele><time>2026-04-25T12:04:15Z</time></trkpt><trkpt lat="47.85652803330787" lon="1.1111768260762849"><ele>106.00000000000001</ele><time>2026-04-25T12:04:16Z</time></trkpt><trkpt lat="47.856532276383746" lon="1.1110725388951916"><ele>106.0</ele><time>2026-04-25T12:04:17Z</time></trkpt><trkpt lat="47.85652926383421" lon="1.1108948563931673"><ele>104.6</ele><time>2026-04-25T12:04:19Z</time></trkpt><trkpt lat="47.856481911990144" lon="1.1107358691784877"><ele>103.19999999999999</ele><time>2026-04-25T12:04:21Z</time></trkpt><trkpt lat="47.856443213108165" lon="1.1106229029667927"><ele>101.80000000000001</ele><time>2026-04-25T12:04:22Z</time></trkpt><trkpt lat="47.856370039966805" lon="1.1105250947895826"><ele>100.4</ele><time>2026-04-25T12:04:23Z</time></trkpt><trkpt lat="47.85632624118543" lon="1.1104322103846798"><ele>99.0</ele><time>2026-04-25T12:04:24Z</time></trkpt><trkpt lat="47.856278809921044" lon="1.1103300432680676"><ele>99.0</ele><time>2026-04-25T12:04:25Z</time></trkpt><trkpt lat="47.85624465386302" lon="1.1102343975901503"><ele>99.0</ele><time>2026-04-25T12:04:26Z</time></trkpt><trkpt lat="47.856164454659634" lon="1.1100953525474206"><ele>99.0</ele><time>2026-04-25T12:04:28Z</time></trkpt><trkpt lat="47.856082711418125" lon="1.1100086544978667"><ele>99.0</ele><time>2026-04-25T12:04:29Z</time></trkpt><trkpt lat="47.85602321964316" lon="1.1099335313193581"><ele>99.0</ele><time>2026-04-25T12:04:30Z</time></trkpt><trkpt lat="47.855955219505255" lon="1.109898484212339"><ele>99.0</ele><time>2026-04-25T12:04:31Z</time></trkpt><trkpt lat="47.85587825278116" lon="1.1098687092175972"><ele>98.0</ele><time>2026-04-25T12:04:33Z</time></trkpt><trkpt lat="47.855830535448256" lon="1.1097826184542656"><ele>97.0</ele><time>2026-04-25T12:04:36Z</time></trkpt><trkpt lat="47.85574816620516" lon="1.1097577855156253"><ele>96.0</ele><time>2026-04-25T12:04:39Z</time></trkpt><trkpt lat="47.855713335911375" lon="1.1096696158696535"><ele>95.0</ele><time>2026-04-25T12:04:58Z</time></trkpt><trkpt lat="47.85573470376483" lon="1.1095037523946516"><ele>94.0</ele><time>2026-04-25T12:05:00Z</time></trkpt><trkpt lat="47.85574213015634" lon="1.109398682865716"><ele>93.0</ele><time>2026-04-25T12:05:01Z</time></trkpt><trkpt lat="47.85572114924337" lon="1.1092965287937233"><ele>93.0</ele><time>2026-04-25T12:05:02Z</time></trkpt><trkpt lat="47.85564166143493" lon="1.1091424930410563"><ele>93.0</ele><time>2026-04-25T12:05:04Z</time></trkpt><trkpt lat="47.85559039567329" lon="1.1090310333878508"><ele>93.0</ele><time>2026-04-25T12:05:06Z</time></trkpt><trkpt lat="47.85557893846239" lon="1.108923047145647"><ele>93.0</ele><time>2026-04-25T12:05:08Z</time></trkpt><trkpt lat="47.855666759030996" lon="1.1088371120361913"><ele>93.0</ele><time>2026-04-25T12:05:10Z</time></trkpt><trkpt lat="47.855749297730746" lon="1.1088125548077534"><ele>93.16666666666667</ele><time>2026-04-25T12:05:11Z</time></trkpt><trkpt lat="47.855834803935544" lon="1.108806678307524"><ele>93.33333333333333</ele><time>2026-04-25T12:05:12Z</time></trkpt><trkpt lat="47.85590512847386" lon="1.108793788511564"><ele>93.5</ele><time>2026-04-25T12:05:13Z</time></trkpt><trkpt lat="47.85597466484203" lon="1.1087618669634312"><ele>93.66666666666666</ele><time>2026-04-25T12:05:14Z</time></trkpt><trkpt lat="47.85604647261394" lon="1.1087505927711898"><ele>93.83333333333333</ele><time>2026-04-25T12:05:15Z</time></trkpt><trkpt lat="47.856149877028805" lon="1.108697608963914"><ele>94.0</ele><time>2026-04-25T12:05:17Z</time></trkpt><trkpt lat="47.85625138064101" lon="1.1086754737803273"><ele>94.0</ele><time>2026-04-25T12:05:19Z</time></trkpt><trkpt lat="47.856317982669054" lon="1.1086237857113255"><ele>94.0</ele><time>2026-04-25T12:05:21Z</time></trkpt><trkpt lat="47.85631240482672" lon="1.1085031261798226"><ele>94.0</ele><time>2026-04-25T12:05:23Z</time></trkpt><trkpt lat="47.85624863099682" lon="1.1084037293631586"><ele>94.0</ele><time>2026-04-25T12:05:25Z</time></trkpt><trkpt lat="47.856188520510976" lon="1.1083319381406436"><ele>94.0</ele><time>2026-04-25T12:05:26Z</time></trkpt><trkpt lat="47.856122559193615" lon="1.1082686146768206"><ele>94.0</ele><time>2026-04-25T12:05:27Z</time></trkpt><trkpt lat="47.856040054007295" lon="1.108225426783104"><ele>94.0</ele><time>2026-04-25T12:05:28Z</time></trkpt><trkpt lat="47.85596299497992" lon="1.108197066284717"><ele>94.0</ele><time>2026-04-25T12:05:29.001Z</time></trkpt><trkpt lat="47.85588915791984" lon="1.1081753787329907"><ele>94.0</ele><time>2026-04-25T12:05:30.001Z</time></trkpt><trkpt lat="47.85581497034646" lon="1.1081517307136752"><ele>94.0</ele><time>2026-04-25T12:05:31.001Z</time></trkpt><trkpt lat="47.85574567855744" lon="1.1081195883234392"><ele>94.0</ele><time>2026-04-25T12:05:32.001Z</time></trkpt><trkpt lat="47.855677922287775" lon="1.1080804158387942"><ele>94.0</ele><time>2026-04-25T12:05:33.001Z</time></trkpt><trkpt lat="47.8556064993283" lon="1.1080470069125279"><ele>95.2</ele><time>2026-04-25T12:05:34.001Z</time></trkpt><trkpt lat="47.855539319030655" lon="1.1080133374365329"><ele>96.4</ele><time>2026-04-25T12:05:35.001Z</time></trkpt><trkpt lat="47.855467303450176" lon="1.1079723562486432"><ele>97.6</ele><time>2026-04-25T12:05:36.001Z</time></trkpt><trkpt lat="47.85538006762622" lon="1.1079181463403613"><ele>98.8</ele><time>2026-04-25T12:05:37.001Z</time></trkpt><trkpt lat="47.85527123877374" lon="1.1078510888822577"><ele>100.0</ele><time>2026-04-25T12:05:38.001Z</time></trkpt><trkpt lat="47.855141285951994" lon="1.1077555861488204"><ele>100.0</ele><time>2026-04-25T12:05:39.001Z</time></trkpt><trkpt lat="47.855006612344155" lon="1.1076518173507046"><ele>100.0</ele><time>2026-04-25T12:05:40.001Z</time></trkpt><trkpt lat="47.85489066271815" lon="1.107562481453887"><ele>100.0</ele><time>2026-04-25T12:05:41.001Z</time></trkpt><trkpt lat="47.85478209940011" lon="1.107483454918275"><ele>100.0</ele><time>2026-04-25T12:05:42.001Z</time></trkpt><trkpt lat="47.85467766263316" lon="1.1074071426424255"><ele>100.8</ele><time>2026-04-25T12:05:43.001Z</time></trkpt><trkpt lat="47.854578965979925" lon="1.1073386152852251"><ele>101.6</ele><time>2026-04-25T12:05:44.001Z</time></trkpt><trkpt lat="47.85449415327891" lon="1.1072748810257123"><ele>102.4</ele><time>2026-04-25T12:05:45.001Z</time></trkpt><trkpt lat="47.854416920489804" lon="1.1072138451345628"><ele>103.2</ele><time>2026-04-25T12:05:46.001Z</time></trkpt><trkpt lat="47.85435203176187" lon="1.1071439637733176"><ele>104.0</ele><time>2026-04-25T12:05:47.001Z</time></trkpt><trkpt lat="47.85429466091905" lon="1.1070359946878512"><ele>103.75</ele><time>2026-04-25T12:05:48.001Z</time></trkpt><trkpt lat="47.85425872274103" lon="1.106895981876432"><ele>103.5</ele><time>2026-04-25T12:05:49.001Z</time></trkpt><trkpt lat="47.85422203369801" lon="1.1067176651258523"><ele>103.25</ele><time>2026-04-25T12:05:50.001Z</time></trkpt><trkpt lat="47.85416860613265" lon="1.1065130318909238"><ele>103.0</ele><time>2026-04-25T12:05:51.001Z</time></trkpt><trkpt lat="47.85410009905581" lon="1.1062870033494607"><ele>103.75</ele><time>2026-04-25T12:05:52.001Z</time></trkpt><trkpt lat="47.85403311768199" lon="1.1060964368956774"><ele>104.5</ele><time>2026-04-25T12:05:53.001Z</time></trkpt><trkpt lat="47.853988123934805" lon="1.105959543571363"><ele>105.25</ele><time>2026-04-25T12:05:54.001Z</time></trkpt><trkpt lat="47.85396904856354" lon="1.1058233097725871"><ele>106.0</ele><time>2026-04-25T12:05:55.001Z</time></trkpt><trkpt lat="47.85398817883316" lon="1.1056462704140477"><ele>107.0</ele><time>2026-04-25T12:05:56.001Z</time></trkpt><trkpt lat="47.85404655822054" lon="1.105440543914063"><ele>108.0</ele><time>2026-04-25T12:05:57.001Z</time></trkpt><trkpt lat="47.85412887985431" lon="1.1051944118878938"><ele>109.0</ele><time>2026-04-25T12:05:58.001Z</time></trkpt><trkpt lat="47.85422997587102" lon="1.1049477341736587"><ele>109.33333333333334</ele><time>2026-04-25T12:05:59.001Z</time></trkpt><trkpt lat="47.85431783648367" lon="1.1047191026235335"><ele>109.66666666666666</ele><time>2026-04-25T12:06:00.001Z</time></trkpt><trkpt lat="47.85439434311244" lon="1.1045396136086696"><ele>110.0</ele><time>2026-04-25T12:06:01.001Z</time></trkpt><trkpt lat="47.85448716033696" lon="1.1043374780931068"><ele>110.0</ele><time>2026-04-25T12:06:02.001Z</time></trkpt><trkpt lat="47.85459710771022" lon="1.1041357929105002"><ele>110.0</ele><time>2026-04-25T12:06:03.001Z</time></trkpt><trkpt lat="47.854690876432144" lon="1.1039682327160127"><ele>110.0</ele><time>2026-04-25T12:06:04.001Z</time></trkpt><trkpt lat="47.85478123569025" lon="1.103830762919242"><ele>109.33333333333333</ele><time>2026-04-25T12:06:05.001Z</time></trkpt><trkpt lat="47.85487623176436" lon="1.1036891005198137"><ele>108.66666666666666</ele><time>2026-04-25T12:06:06.001Z</time></trkpt><trkpt lat="47.854997193084124" lon="1.1035101916041898"><ele>108.0</ele><time>2026-04-25T12:06:07.001Z</time></trkpt><trkpt lat="47.855115051381844" lon="1.1033352477933933"><ele>109.25</ele><time>2026-04-25T12:06:08.001Z</time></trkpt><trkpt lat="47.85522317630901" lon="1.103194800865141"><ele>110.5</ele><time>2026-04-25T12:06:09.001Z</time></trkpt><trkpt lat="47.855312653903184" lon="1.103066642335424"><ele>111.75</ele><time>2026-04-25T12:06:10.001Z</time></trkpt><trkpt lat="47.8553981270646" lon="1.1029477556064635"><ele>113.0</ele><time>2026-04-25T12:06:11.001Z</time></trkpt><trkpt lat="47.855474656890486" lon="1.1028454050195156"><ele>113.0</ele><time>2026-04-25T12:06:12.001Z</time></trkpt><trkpt lat="47.85555462946522" lon="1.1027356129861465"><ele>113.0</ele><time>2026-04-25T12:06:13.001Z</time></trkpt><trkpt lat="47.85564179614393" lon="1.10261902598628"><ele>113.0</ele><time>2026-04-25T12:06:14.001Z</time></trkpt><trkpt lat="47.855739762840486" lon="1.1024935690315045"><ele>113.0</ele><time>2026-04-25T12:06:15.001Z</time></trkpt><trkpt lat="47.85583167782267" lon="1.1023725287970414"><ele>113.16666666666666</ele><time>2026-04-25T12:06:16Z</time></trkpt><trkpt lat="47.85590516274179" lon="1.1022680912132852"><ele>113.33333333333333</ele><time>2026-04-25T12:06:17Z</time></trkpt><trkpt lat="47.855964425140826" lon="1.1021721025202431"><ele>113.5</ele><time>2026-04-25T12:06:18Z</time></trkpt><trkpt lat="47.85601926048518" lon="1.1020803103259997"><ele>113.66666666666666</ele><time>2026-04-25T12:06:19Z</time></trkpt><trkpt lat="47.85607281632524" lon="1.101995616831493"><ele>113.83333333333333</ele><time>2026-04-25T12:06:20Z</time></trkpt><trkpt lat="47.85612096175091" lon="1.101912289053935"><ele>114.0</ele><time>2026-04-25T12:06:21Z</time></trkpt><trkpt lat="47.856101826381696" lon="1.1017173026867926"><ele>114.16666666666667</ele><time>2026-04-25T12:06:23Z</time></trkpt><trkpt lat="47.85605510131389" lon="1.1015672181880165"><ele>114.33333333333334</ele><time>2026-04-25T12:06:24Z</time></trkpt><trkpt lat="47.85601964945619" lon="1.1014345208845548"><ele>114.5</ele><time>2026-04-25T12:06:25Z</time></trkpt><trkpt lat="47.856001674440925" lon="1.1013199824845592"><ele>114.66666666666667</ele><time>2026-04-25T12:06:26Z</time></trkpt><trkpt lat="47.85598486134828" lon="1.1012116465535358"><ele>114.83333333333334</ele><time>2026-04-25T12:06:27Z</time></trkpt><trkpt lat="47.85598967339477" lon="1.1011089045835218"><ele>115.0</ele><time>2026-04-25T12:06:28Z</time></trkpt><trkpt lat="47.85599743329335" lon="1.1010059609833025"><ele>114.99999999999999</ele><time>2026-04-25T12:06:29Z</time></trkpt><trkpt lat="47.85601435267597" lon="1.100897560464128"><ele>115.0</ele><time>2026-04-25T12:06:30Z</time></trkpt><trkpt lat="47.85603920526403" lon="1.1007945179668175"><ele>114.99999999999999</ele><time>2026-04-25T12:06:31Z</time></trkpt><trkpt lat="47.856072923654544" lon="1.1007039400013492"><ele>114.99999999999999</ele><time>2026-04-25T12:06:32Z</time></trkpt><trkpt lat="47.856117581661" lon="1.100629537028608"><ele>115.0</ele><time>2026-04-25T12:06:33Z</time></trkpt><trkpt lat="47.85615718055576" lon="1.1005547060694874"><ele>114.99999999999999</ele><time>2026-04-25T12:06:34Z</time></trkpt><trkpt lat="47.85621421757345" lon="1.1004811695463421"><ele>114.99999999999999</ele><time>2026-04-25T12:06:35Z</time></trkpt><trkpt lat="47.85628115876725" lon="1.100402124969053"><ele>114.66666666666667</ele><time>2026-04-25T12:06:36Z</time></trkpt><trkpt lat="47.85634383435126" lon="1.1003219017063022"><ele>114.33333333333334</ele><time>2026-04-25T12:06:37Z</time></trkpt><trkpt lat="47.85641253950144" lon="1.100244552347911"><ele>114.0</ele><time>2026-04-25T12:06:38Z</time></trkpt><trkpt lat="47.85647526816746" lon="1.1001757279725852"><ele>113.66666666666666</ele><time>2026-04-25T12:06:39Z</time></trkpt><trkpt lat="47.85654002556394" lon="1.100107982105854"><ele>113.33333333333333</ele><time>2026-04-25T12:06:40Z</time></trkpt><trkpt lat="47.85659771271151" lon="1.100047672921738"><ele>113.0</ele><time>2026-04-25T12:06:41Z</time></trkpt><trkpt lat="47.856664732368785" lon="1.0999981142242958"><ele>112.99999999999999</ele><time>2026-04-25T12:06:42Z</time></trkpt><trkpt lat="47.85672522171241" lon="1.099946094625993"><ele>113.0</ele><time>2026-04-25T12:06:43Z</time></trkpt><trkpt lat="47.85678583179226" lon="1.099887637148184"><ele>113.0</ele><time>2026-04-25T12:06:44Z</time></trkpt><trkpt lat="47.856844721748224" lon="1.0998245376372964"><ele>113.0</ele><time>2026-04-25T12:06:45Z</time></trkpt><trkpt lat="47.85690455399774" lon="1.0997541304600296"><ele>112.99999999999999</ele><time>2026-04-25T12:06:46Z</time></trkpt><trkpt lat="47.85698555922402" lon="1.0996552482284345"><ele>113.0</ele><time>2026-04-25T12:06:47Z</time></trkpt><trkpt lat="47.8570610594381" lon="1.0995444773704683"><ele>113.83333333333333</ele><time>2026-04-25T12:06:48Z</time></trkpt><trkpt lat="47.85711827344818" lon="1.099438529849376"><ele>114.66666666666666</ele><time>2026-04-25T12:06:49Z</time></trkpt><trkpt lat="47.85715998326577" lon="1.0993439681443267"><ele>115.5</ele><time>2026-04-25T12:06:50Z</time></trkpt><trkpt lat="47.85719716009656" lon="1.099245823742313"><ele>116.33333333333334</ele><time>2026-04-25T12:06:51Z</time></trkpt><trkpt lat="47.857231467849914" lon="1.0991407833034594"><ele>117.16666666666667</ele><time>2026-04-25T12:06:52Z</time></trkpt><trkpt lat="47.857268894105026" lon="1.0990020389179913"><ele>118.0</ele><time>2026-04-25T12:06:53Z</time></trkpt><trkpt lat="47.85729907266528" lon="1.0988557740708367"><ele>118.00000000000001</ele><time>2026-04-25T12:06:54Z</time></trkpt><trkpt lat="47.85732709016226" lon="1.098734575083033"><ele>118.0</ele><time>2026-04-25T12:06:55Z</time></trkpt><trkpt lat="47.85734351517722" lon="1.098618141955328"><ele>118.0</ele><time>2026-04-25T12:06:56Z</time></trkpt><trkpt lat="47.857358950713106" lon="1.098501663104674"><ele>118.0</ele><time>2026-04-25T12:06:57Z</time></trkpt><trkpt lat="47.85736676899748" lon="1.0983842246640751"><ele>118.00000000000001</ele><time>2026-04-25T12:06:58Z</time></trkpt><trkpt lat="47.85737083536097" lon="1.0982669048335876"><ele>118.0</ele><time>2026-04-25T12:06:59Z</time></trkpt><trkpt lat="47.85737905373186" lon="1.0981624801954846"><ele>117.83333333333334</ele><time>2026-04-25T12:07:00Z</time></trkpt><trkpt lat="47.857383727823375" lon="1.0980365905999048"><ele>117.66666666666667</ele><time>2026-04-25T12:07:01Z</time></trkpt><trkpt lat="47.85739636369079" lon="1.097923355504315"><ele>117.5</ele><time>2026-04-25T12:07:02Z</time></trkpt><trkpt lat="47.85742482443581" lon="1.0978233107870417"><ele>117.33333333333334</ele><time>2026-04-25T12:07:03Z</time></trkpt><trkpt lat="47.857461984946056" lon="1.0977276972424068"><ele>117.16666666666667</ele><time>2026-04-25T12:07:04Z</time></trkpt><trkpt lat="47.85751417093272" lon="1.0976426644744393"><ele>117.0</ele><time>2026-04-25T12:07:05Z</time></trkpt><trkpt lat="47.857571984984574" lon="1.0975751174063875"><ele>117.33333333333333</ele><time>2026-04-25T12:07:06Z</time></trkpt><trkpt lat="47.85764013463248" lon="1.097504819839353"><ele>117.66666666666666</ele><time>2026-04-25T12:07:07Z</time></trkpt><trkpt lat="47.85770656319571" lon="1.0974343965732116"><ele>118.0</ele><time>2026-04-25T12:07:08Z</time></trkpt><trkpt lat="47.85775889840068" lon="1.097378447352418"><ele>118.33333333333333</ele><time>2026-04-25T12:07:09Z</time></trkpt><trkpt lat="47.8578437236534" lon="1.0972692762035778"><ele>118.66666666666666</ele><time>2026-04-25T12:07:11Z</time></trkpt><trkpt lat="47.85791595780244" lon="1.097282711761315"><ele>119.0</ele><time>2026-04-25T12:07:32Z</time></trkpt><trkpt lat="47.8579974673048" lon="1.0973985447177643"><ele>118.99999999999999</ele><time>2026-04-25T12:07:34Z</time></trkpt><trkpt lat="47.85806484977558" lon="1.0974274353356053"><ele>119.0</ele><time>2026-04-25T12:07:35Z</time></trkpt><trkpt lat="47.858154138111765" lon="1.097466287444941"><ele>119.0</ele><time>2026-04-25T12:07:36.001Z</time></trkpt><trkpt lat="47.85821478731112" lon="1.0974981035880624"><ele>119.0</ele><time>2026-04-25T12:07:37.001Z</time></trkpt><trkpt lat="47.85828561119495" lon="1.0975366774853121"><ele>118.99999999999999</ele><time>2026-04-25T12:07:39.001Z</time></trkpt><trkpt lat="47.858378150960824" lon="1.0975624312206236"><ele>119.0</ele><time>2026-04-25T12:07:42.001Z</time></trkpt><trkpt lat="47.85844237855043" lon="1.0975806999328934"><ele>118.16666666666666</ele><time>2026-04-25T12:08:26Z</time></trkpt><trkpt lat="47.858482252109994" lon="1.097663206470614"><ele>117.33333333333333</ele><time>2026-04-25T12:08:28Z</time></trkpt><trkpt lat="47.85854825165595" lon="1.0976869957673732"><ele>116.5</ele><time>2026-04-25T12:08:33Z</time></trkpt><trkpt lat="47.85860475652392" lon="1.0977503269762214"><ele>115.66666666666666</ele><time>2026-04-25T12:08:39Z</time></trkpt><trkpt lat="47.8586776275687" lon="1.097921098849249"><ele>114.83333333333333</ele><time>2026-04-25T12:08:41Z</time></trkpt><trkpt lat="47.85870445989824" lon="1.0980178214589689"><ele>114.0</ele><time>2026-04-25T12:08:42Z</time></trkpt><trkpt lat="47.85874026648605" lon="1.0981004361617508"><ele>114.0</ele><time>2026-04-25T12:08:43Z</time></trkpt><trkpt lat="47.85876741356894" lon="1.0982081012901237"><ele>114.0</ele><time>2026-04-25T12:08:44Z</time></trkpt><trkpt lat="47.85879274150168" lon="1.0983232862237629"><ele>114.0</ele><time>2026-04-25T12:08:45Z</time></trkpt><trkpt lat="47.858801447622575" lon="1.0984624042892375"><ele>114.0</ele><time>2026-04-25T12:08:46Z</time></trkpt><trkpt lat="47.858794074610685" lon="1.0985987272585367"><ele>114.0</ele><time>2026-04-25T12:08:47Z</time></trkpt><trkpt lat="47.85878781911238" lon="1.0987540116860746"><ele>114.0</ele><time>2026-04-25T12:08:48Z</time></trkpt><trkpt lat="47.8587928711811" lon="1.0989058279887916"><ele>113.4</ele><time>2026-04-25T12:08:49Z</time></trkpt><trkpt lat="47.858796393351234" lon="1.0990419416023443"><ele>112.80000000000001</ele><time>2026-04-25T12:08:50Z</time></trkpt><trkpt lat="47.85884543039835" lon="1.099112516604467"><ele>112.19999999999999</ele><time>2026-04-25T12:08:52Z</time></trkpt><trkpt lat="47.85894859713978" lon="1.098914309157444"><ele>111.6</ele><time>2026-04-25T12:08:56Z</time></trkpt><trkpt lat="47.85903531786631" lon="1.0988152886828624"><ele>111.0</ele><time>2026-04-25T12:08:57Z</time></trkpt><trkpt lat="47.85911766152546" lon="1.0986905333101193"><ele>111.0</ele><time>2026-04-25T12:08:58Z</time></trkpt><trkpt lat="47.85917995214316" lon="1.0986023907223046"><ele>111.0</ele><time>2026-04-25T12:08:59Z</time></trkpt><trkpt lat="47.85923221797156" lon="1.098532741061004"><ele>111.0</ele><time>2026-04-25T12:09:00Z</time></trkpt><trkpt lat="47.8592961665174" lon="1.0984559447476032"><ele>111.0</ele><time>2026-04-25T12:09:02Z</time></trkpt><trkpt lat="47.859349365728086" lon="1.0983881054389228"><ele>111.0</ele><time>2026-04-25T12:09:13Z</time></trkpt><trkpt lat="47.85945810981917" lon="1.098315976791034"><ele>111.0</ele><time>2026-04-25T12:09:15Z</time></trkpt><trkpt lat="47.85952404106052" lon="1.0982175334236972"><ele>111.4</ele><time>2026-04-25T12:09:17Z</time></trkpt><trkpt lat="47.859565171761446" lon="1.0981434478985874"><ele>111.8</ele><time>2026-04-25T12:09:18Z</time></trkpt><trkpt lat="47.85963544928511" lon="1.097998031433305"><ele>112.20000000000002</ele><time>2026-04-25T12:09:20Z</time></trkpt><trkpt lat="47.85968187205097" lon="1.0979259382886648"><ele>112.60000000000001</ele><time>2026-04-25T12:09:21Z</time></trkpt><trkpt lat="47.85975193537722" lon="1.0977151137233787"><ele>113.0</ele><time>2026-04-25T12:09:23Z</time></trkpt><trkpt lat="47.85979764037613" lon="1.097631171529195"><ele>112.99999999999999</ele><time>2026-04-25T12:09:24Z</time></trkpt><trkpt lat="47.85986640516118" lon="1.0974871267747774"><ele>113.0</ele><time>2026-04-25T12:09:26Z</time></trkpt><trkpt lat="47.85990217560968" lon="1.0974028195296737"><ele>113.0</ele><time>2026-04-25T12:09:27Z</time></trkpt><trkpt lat="47.859929714906045" lon="1.0973031820544579"><ele>113.0</ele><time>2026-04-25T12:09:28Z</time></trkpt><trkpt lat="47.85996488732551" lon="1.097218511610755"><ele>112.99999999999999</ele><time>2026-04-25T12:09:29Z</time></trkpt><trkpt lat="47.86000484338303" lon="1.097133534242163"><ele>113.0</ele><time>2026-04-25T12:09:30Z</time></trkpt><trkpt lat="47.86006611463851" lon="1.0970280829684793"><ele>113.49999999999999</ele><time>2026-04-25T12:09:31Z</time></trkpt><trkpt lat="47.86013885073922" lon="1.096954433187494"><ele>114.0</ele><time>2026-04-25T12:09:32Z</time></trkpt><trkpt lat="47.86019815925232" lon="1.0968649403930475"><ele>114.5</ele><time>2026-04-25T12:09:33Z</time></trkpt><trkpt lat="47.86025093666212" lon="1.096771509089762"><ele>115.0</ele><time>2026-04-25T12:09:34Z</time></trkpt><trkpt lat="47.86031271693638" lon="1.0966735767481988"><ele>115.49999999999999</ele><time>2026-04-25T12:09:35Z</time></trkpt><trkpt lat="47.860357251402704" lon="1.0965706630574"><ele>116.0</ele><time>2026-04-25T12:09:36Z</time></trkpt><trkpt lat="47.860407244304845" lon="1.0964736799528914"><ele>116.19999999999999</ele><time>2026-04-25T12:09:37Z</time></trkpt><trkpt lat="47.86045945874509" lon="1.0963624168526211"><ele>116.39999999999999</ele><time>2026-04-25T12:09:38Z</time></trkpt><trkpt lat="47.8605261252851" lon="1.0962200741983072"><ele>116.6</ele><time>2026-04-25T12:09:39Z</time></trkpt><trkpt lat="47.8605837988358" lon="1.0961100712861547"><ele>116.8</ele><time>2026-04-25T12:09:40Z</time></trkpt><trkpt lat="47.86066885596549" lon="1.0960064226967345"><ele>117.0</ele><time>2026-04-25T12:09:42Z</time></trkpt><trkpt lat="47.86072419377116" lon="1.0959539385405448"><ele>117.0</ele><time>2026-04-25T12:09:44.001Z</time></trkpt><trkpt lat="47.860661143229194" lon="1.0958949331322583"><ele>117.0</ele><time>2026-04-25T12:09:50.001Z</time></trkpt><trkpt lat="47.860647467399225" lon="1.0957730614721484"><ele>117.0</ele><time>2026-04-25T12:09:52.001Z</time></trkpt><trkpt lat="47.860610119251255" lon="1.09565835569643"><ele>117.0</ele><time>2026-04-25T12:09:53.001Z</time></trkpt><trkpt lat="47.86058748500698" lon="1.0955621639084552"><ele>117.0</ele><time>2026-04-25T12:09:54.001Z</time></trkpt><trkpt lat="47.86055582985857" lon="1.095429938128581"><ele>117.0</ele><time>2026-04-25T12:09:55.001Z</time></trkpt><trkpt lat="47.8605322569315" lon="1.095319370832143"><ele>118.0</ele><time>2026-04-25T12:09:56.001Z</time></trkpt><trkpt lat="47.86041060165445" lon="1.0950009713012565"><ele>119.0</ele><time>2026-04-25T12:10:05.001Z</time></trkpt><trkpt lat="47.86035105483695" lon="1.0948661602533227"><ele>120.0</ele><time>2026-04-25T12:10:06.001Z</time></trkpt><trkpt lat="47.86027771853098" lon="1.0946698356486975"><ele>120.0</ele><time>2026-04-25T12:10:07.001Z</time></trkpt><trkpt lat="47.860227398689524" lon="1.0944566030729739"><ele>120.0</ele><time>2026-04-25T12:10:08.001Z</time></trkpt><trkpt lat="47.86016982758494" lon="1.0942376995455594"><ele>120.0</ele><time>2026-04-25T12:10:09.001Z</time></trkpt><trkpt lat="47.86011852682991" lon="1.0940659692748158"><ele>120.0</ele><time>2026-04-25T12:10:10.001Z</time></trkpt><trkpt lat="47.86006619600063" lon="1.0939217404013315"><ele>121.6</ele><time>2026-04-25T12:10:11.001Z</time></trkpt><trkpt lat="47.8600177239924" lon="1.0937941304880603"><ele>123.2</ele><time>2026-04-25T12:10:12.001Z</time></trkpt><trkpt lat="47.85997368756733" lon="1.0936429706944526"><ele>124.80000000000001</ele><time>2026-04-25T12:10:13.001Z</time></trkpt><trkpt lat="47.859938532175015" lon="1.0934763149998459"><ele>126.4</ele><time>2026-04-25T12:10:14.001Z</time></trkpt><trkpt lat="47.85989091143621" lon="1.09334542671761"><ele>128.0</ele><time>2026-04-25T12:10:15.001Z</time></trkpt><trkpt lat="47.8598473033079" lon="1.0932240546999954"><ele>129.25</ele><time>2026-04-25T12:10:16.001Z</time></trkpt><trkpt lat="47.85978577654605" lon="1.0930871346921867"><ele>130.5</ele><time>2026-04-25T12:10:17.001Z</time></trkpt><trkpt lat="47.85972115882837" lon="1.0929725418567382"><ele>131.75</ele><time>2026-04-25T12:10:18.001Z</time></trkpt><trkpt lat="47.85964003975425" lon="1.0928456055949127"><ele>133.0</ele><time>2026-04-25T12:10:19.001Z</time></trkpt><trkpt lat="47.85958392204653" lon="1.0926691882017534"><ele>133.0</ele><time>2026-04-25T12:10:20.001Z</time></trkpt><trkpt lat="47.85952160701207" lon="1.0924742952496111"><ele>133.0</ele><time>2026-04-25T12:10:21.001Z</time></trkpt><trkpt lat="47.85945938054651" lon="1.0923188059818087"><ele>133.0</ele><time>2026-04-25T12:10:22.001Z</time></trkpt><trkpt lat="47.85941099953006" lon="1.0921756657979955"><ele>133.0</ele><time>2026-04-25T12:10:23.001Z</time></trkpt><trkpt lat="47.8593675850769" lon="1.09202918133302"><ele>133.4</ele><time>2026-04-25T12:10:24.001Z</time></trkpt><trkpt lat="47.85931135671988" lon="1.091863114476919"><ele>133.8</ele><time>2026-04-25T12:10:25.001Z</time></trkpt><trkpt lat="47.85925494332944" lon="1.0917090739141035"><ele>134.2</ele><time>2026-04-25T12:10:26.001Z</time></trkpt><trkpt lat="47.85921548765806" lon="1.0915814131032733"><ele>134.6</ele><time>2026-04-25T12:10:27.001Z</time></trkpt><trkpt lat="47.85918686776035" lon="1.0914459359331952"><ele>135.0</ele><time>2026-04-25T12:10:28Z</time></trkpt><trkpt lat="47.859170463556545" lon="1.0912799504510422"><ele>134.0</ele><time>2026-04-25T12:10:29Z</time></trkpt><trkpt lat="47.859151415492796" lon="1.0910627233830263"><ele>133.0</ele><time>2026-04-25T12:10:30Z</time></trkpt><trkpt lat="47.85912867880441" lon="1.0908481978471776"><ele>132.0</ele><time>2026-04-25T12:10:31Z</time></trkpt><trkpt lat="47.859094829684025" lon="1.0906789133849912"><ele>131.0</ele><time>2026-04-25T12:10:32Z</time></trkpt><trkpt lat="47.859042295643796" lon="1.0905202072651263"><ele>130.8</ele><time>2026-04-25T12:10:33Z</time></trkpt><trkpt lat="47.85899297209766" lon="1.090390814983703"><ele>130.6</ele><time>2026-04-25T12:10:34Z</time></trkpt><trkpt lat="47.85897552348572" lon="1.0902881760293202"><ele>130.4</ele><time>2026-04-25T12:10:36Z</time></trkpt><trkpt lat="47.85904296185649" lon="1.0901646891234897"><ele>130.2</ele><time>2026-04-25T12:10:38Z</time></trkpt><trkpt lat="47.85913765826054" lon="1.0900600717699147"><ele>130.0</ele><time>2026-04-25T12:10:39Z</time></trkpt><trkpt lat="47.85923555871309" lon="1.0899578798739638"><ele>130.33333333333334</ele><time>2026-04-25T12:10:40Z</time></trkpt><trkpt lat="47.8593066266783" lon="1.089891204035241"><ele>130.66666666666669</ele><time>2026-04-25T12:10:41Z</time></trkpt><trkpt lat="47.85932743422267" lon="1.0897741610747105"><ele>131.0</ele><time>2026-04-25T12:10:46Z</time></trkpt><trkpt lat="47.85934558905063" lon="1.0896763985516058"><ele>131.33333333333334</ele><time>2026-04-25T12:11:06Z</time></trkpt><trkpt lat="47.85942635133974" lon="1.0896111394380186"><ele>131.66666666666666</ele><time>2026-04-25T12:11:09Z</time></trkpt><trkpt lat="47.8595117616944" lon="1.0896237921421599"><ele>132.0</ele><time>2026-04-25T12:11:10Z</time></trkpt><trkpt lat="47.85961781278219" lon="1.0896120422681392"><ele>132.0</ele><time>2026-04-25T12:11:11Z</time></trkpt><trkpt lat="47.859734949670845" lon="1.0896032748808113"><ele>132.0</ele><time>2026-04-25T12:11:12Z</time></trkpt><trkpt lat="47.85984003783776" lon="1.0896137390118732"><ele>132.0</ele><time>2026-04-25T12:11:13Z</time></trkpt><trkpt lat="47.85993456893014" lon="1.0896222954912635"><ele>132.0</ele><time>2026-04-25T12:11:14Z</time></trkpt><trkpt lat="47.86003976690429" lon="1.0896296760754707"><ele>132.0</ele><time>2026-04-25T12:11:15Z</time></trkpt><trkpt lat="47.86018644007918" lon="1.0896531508257123"><ele>132.5</ele><time>2026-04-25T12:11:16Z</time></trkpt><trkpt lat="47.86034867858056" lon="1.0896739838997176"><ele>133.0</ele><time>2026-04-25T12:11:17Z</time></trkpt><trkpt lat="47.86047816263835" lon="1.0896718226297903"><ele>133.5</ele><time>2026-04-25T12:11:18Z</time></trkpt><trkpt lat="47.860600521531914" lon="1.0896653382284756"><ele>134.0</ele><time>2026-04-25T12:11:19Z</time></trkpt><trkpt lat="47.86070942506746" lon="1.089642289002216"><ele>134.0</ele><time>2026-04-25T12:11:20Z</time></trkpt><trkpt lat="47.860807991549606" lon="1.0896231167461405"><ele>134.0</ele><time>2026-04-25T12:11:21Z</time></trkpt><trkpt lat="47.86089743536659" lon="1.089605163719068"><ele>134.0</ele><time>2026-04-25T12:11:22Z</time></trkpt><trkpt lat="47.86098551876855" lon="1.0895975860867155"><ele>134.0</ele><time>2026-04-25T12:11:23Z</time></trkpt><trkpt lat="47.861084910438144" lon="1.089598459376158"><ele>134.0</ele><time>2026-04-25T12:11:24Z</time></trkpt><trkpt lat="47.86121106815551" lon="1.0896072132482402"><ele>134.0</ele><time>2026-04-25T12:11:25Z</time></trkpt><trkpt lat="47.861335645290815" lon="1.0896037406239678"><ele>134.0</ele><time>2026-04-25T12:11:26Z</time></trkpt><trkpt lat="47.861453554487895" lon="1.0895749849412995"><ele>134.0</ele><time>2026-04-25T12:11:27Z</time></trkpt><trkpt lat="47.861535597631324" lon="1.0895386607594573"><ele>134.0</ele><time>2026-04-25T12:11:28Z</time></trkpt><trkpt lat="47.86161290474439" lon="1.0894959845387926"><ele>134.0</ele><time>2026-04-25T12:11:29Z</time></trkpt><trkpt lat="47.86170588977627" lon="1.089389396107191"><ele>134.0</ele><time>2026-04-25T12:11:30Z</time></trkpt><trkpt lat="47.86178383991947" lon="1.0893063236185239"><ele>134.0</ele><time>2026-04-25T12:11:31Z</time></trkpt><trkpt lat="47.86186482337152" lon="1.0892661202788274"><ele>134.0</ele><time>2026-04-25T12:11:33Z</time></trkpt><trkpt lat="47.861948659319005" lon="1.089231525366662"><ele>134.0</ele><time>2026-04-25T12:11:35Z</time></trkpt><trkpt lat="47.86201049432383" lon="1.0892124365557267"><ele>134.0</ele><time>2026-04-25T12:11:36Z</time></trkpt><trkpt lat="47.86208465441435" lon="1.0891726765875682"><ele>134.0</ele><time>2026-04-25T12:11:38Z</time></trkpt><trkpt lat="47.862145511216596" lon="1.089125732920804"><ele>134.2</ele><time>2026-04-25T12:11:40Z</time></trkpt><trkpt lat="47.86223859623905" lon="1.0890823975616277"><ele>134.4</ele><time>2026-04-25T12:11:42.001Z</time></trkpt><trkpt lat="47.86235119424248" lon="1.0890462396601208"><ele>134.6</ele><time>2026-04-25T12:11:44.001Z</time></trkpt><trkpt lat="47.86241614256634" lon="1.089036074459512"><ele>134.8</ele><time>2026-04-25T12:11:45.001Z</time></trkpt><trkpt lat="47.86249648713407" lon="1.089013545006751"><ele>135.0</ele><time>2026-04-25T12:11:46.001Z</time></trkpt><trkpt lat="47.862595926982515" lon="1.0889730864357834"><ele>135.4</ele><time>2026-04-25T12:11:48.001Z</time></trkpt><trkpt lat="47.86269564656054" lon="1.0888880281697708"><ele>135.8</ele><time>2026-04-25T12:11:50.001Z</time></trkpt><trkpt lat="47.862755698958594" lon="1.0888428307855915"><ele>136.2</ele><time>2026-04-25T12:11:51.001Z</time></trkpt><trkpt lat="47.86282527647752" lon="1.0888114785489702"><ele>136.6</ele><time>2026-04-25T12:11:52.001Z</time></trkpt><trkpt lat="47.862918946262575" lon="1.0887460740459467"><ele>137.0</ele><time>2026-04-25T12:11:53.001Z</time></trkpt><trkpt lat="47.86300378450577" lon="1.0886751654467908"><ele>137.0</ele><time>2026-04-25T12:11:54.001Z</time></trkpt><trkpt lat="47.86309058060633" lon="1.0886064743852868"><ele>137.0</ele><time>2026-04-25T12:11:55.001Z</time></trkpt><trkpt lat="47.86318762165129" lon="1.0884789188384787"><ele>137.0</ele><time>2026-04-25T12:11:56.001Z</time></trkpt><trkpt lat="47.86327360138451" lon="1.0883870921922663"><ele>137.0</ele><time>2026-04-25T12:11:57.001Z</time></trkpt><trkpt lat="47.86336388070929" lon="1.0883264336490064"><ele>137.0</ele><time>2026-04-25T12:11:58.001Z</time></trkpt><trkpt lat="47.86345806751996" lon="1.0882703567706336"><ele>137.6</ele><time>2026-04-25T12:11:59.001Z</time></trkpt><trkpt lat="47.86354200340081" lon="1.0882282660578317"><ele>138.2</ele><time>2026-04-25T12:12:00.001Z</time></trkpt><trkpt lat="47.8636363404185" lon="1.088202820724487"><ele>138.8</ele><time>2026-04-25T12:12:01.001Z</time></trkpt><trkpt lat="47.86376049041473" lon="1.0881732006598601"><ele>139.4</ele><time>2026-04-25T12:12:02.001Z</time></trkpt><trkpt lat="47.863888584791084" lon="1.0881284687042099"><ele>140.0</ele><time>2026-04-25T12:12:03.001Z</time></trkpt><trkpt lat="47.86399451512741" lon="1.088104258525385"><ele>140.0</ele><time>2026-04-25T12:12:04.001Z</time></trkpt><trkpt lat="47.86409324350634" lon="1.0880679251456078"><ele>140.0</ele><time>2026-04-25T12:12:05.001Z</time></trkpt><trkpt lat="47.86417480212924" lon="1.0879988287347364"><ele>140.0</ele><time>2026-04-25T12:12:06.001Z</time></trkpt><trkpt lat="47.86426659697821" lon="1.0878905043290907"><ele>140.0</ele><time>2026-04-25T12:12:07.001Z</time></trkpt><trkpt lat="47.86437144389918" lon="1.0877583096978884"><ele>139.66666666666666</ele><time>2026-04-25T12:12:08.001Z</time></trkpt><trkpt lat="47.86449870726116" lon="1.0876179639899206"><ele>139.33333333333334</ele><time>2026-04-25T12:12:09.001Z</time></trkpt><trkpt lat="47.86464871057973" lon="1.0875036832170955"><ele>139.0</ele><time>2026-04-25T12:12:10.001Z</time></trkpt><trkpt lat="47.86476322254882" lon="1.0874134597483587"><ele>139.0</ele><time>2026-04-25T12:12:11.001Z</time></trkpt><trkpt lat="47.864858290139225" lon="1.087329411301358"><ele>139.0</ele><time>2026-04-25T12:12:12.001Z</time></trkpt><trkpt lat="47.86496562889917" lon="1.0872169421192044"><ele>139.0</ele><time>2026-04-25T12:12:13.001Z</time></trkpt><trkpt lat="47.865064672426996" lon="1.08712057517161"><ele>139.0</ele><time>2026-04-25T12:12:14.001Z</time></trkpt><trkpt lat="47.865152175888376" lon="1.0870439759446262"><ele>139.4</ele><time>2026-04-25T12:12:15.001Z</time></trkpt><trkpt lat="47.86523918697638" lon="1.08699487792589"><ele>139.8</ele><time>2026-04-25T12:12:16.001Z</time></trkpt><trkpt lat="47.865327360416515" lon="1.0869551839856988"><ele>140.2</ele><time>2026-04-25T12:12:17.001Z</time></trkpt><trkpt lat="47.86543496032148" lon="1.0869326878081353"><ele>140.6</ele><time>2026-04-25T12:12:18.001Z</time></trkpt><trkpt lat="47.86554642724303" lon="1.0869224120989853"><ele>141.0</ele><time>2026-04-25T12:12:19.001Z</time></trkpt><trkpt lat="47.86563695063543" lon="1.086928906915321"><ele>141.0</ele><time>2026-04-25T12:12:20.001Z</time></trkpt><trkpt lat="47.86571912130885" lon="1.0869345266760944"><ele>141.0</ele><time>2026-04-25T12:12:21.001Z</time></trkpt><trkpt lat="47.8657931755022" lon="1.0869459031130433"><ele>141.0</ele><time>2026-04-25T12:12:22.001Z</time></trkpt><trkpt lat="47.86588231150836" lon="1.0869570989953432"><ele>141.0</ele><time>2026-04-25T12:12:23.001Z</time></trkpt><trkpt lat="47.865969637967616" lon="1.086974126722024"><ele>141.0</ele><time>2026-04-25T12:12:25.001Z</time></trkpt><trkpt lat="47.86597436195167" lon="1.0867831152542504"><ele>140.8</ele><time>2026-04-25T12:12:41Z</time></trkpt><trkpt lat="47.86595807007561" lon="1.0866911418240763"><ele>140.6</ele><time>2026-04-25T12:12:42Z</time></trkpt><trkpt lat="47.86591689220817" lon="1.0865477813062479"><ele>140.4</ele><time>2026-04-25T12:12:44Z</time></trkpt><trkpt lat="47.86588495588391" lon="1.086438578452321"><ele>140.2</ele><time>2026-04-25T12:12:45Z</time></trkpt><trkpt lat="47.865821570257474" lon="1.08623756756313"><ele>140.0</ele><time>2026-04-25T12:12:47Z</time></trkpt><trkpt lat="47.86579307343214" lon="1.0861177751569078"><ele>139.8</ele><time>2026-04-25T12:12:48Z</time></trkpt><trkpt lat="47.865770885520064" lon="1.086012849289197"><ele>139.6</ele><time>2026-04-25T12:12:49Z</time></trkpt><trkpt lat="47.86574565478695" lon="1.0858714375209564"><ele>139.4</ele><time>2026-04-25T12:12:50Z</time></trkpt><trkpt lat="47.86571764024854" lon="1.085680156683088"><ele>139.2</ele><time>2026-04-25T12:12:51Z</time></trkpt><trkpt lat="47.86567691069915" lon="1.085514837760429"><ele>139.0</ele><time>2026-04-25T12:12:52Z</time></trkpt><trkpt lat="47.86564393232804" lon="1.0853073576393468"><ele>139.0</ele><time>2026-04-25T12:12:53Z</time></trkpt><trkpt lat="47.86560243782305" lon="1.085129993820365"><ele>139.0</ele><time>2026-04-25T12:12:54Z</time></trkpt><trkpt lat="47.86556513620351" lon="1.0849727312878101"><ele>139.0</ele><time>2026-04-25T12:12:55Z</time></trkpt><trkpt lat="47.865535111162934" lon="1.0848322303915232"><ele>139.0</ele><time>2026-04-25T12:12:56Z</time></trkpt><trkpt lat="47.86551328918737" lon="1.0846784158827714"><ele>139.0</ele><time>2026-04-25T12:12:57Z</time></trkpt><trkpt lat="47.865504689208244" lon="1.0845186563311138"><ele>138.33333333333334</ele><time>2026-04-25T12:12:58Z</time></trkpt><trkpt lat="47.86547686635631" lon="1.0842906329514252"><ele>137.66666666666666</ele><time>2026-04-25T12:12:59Z</time></trkpt><trkpt lat="47.86544220596665" lon="1.0840298166842424"><ele>137.0</ele><time>2026-04-25T12:13:00Z</time></trkpt><trkpt lat="47.865414313025134" lon="1.0838361741258975"><ele>136.4</ele><time>2026-04-25T12:13:01Z</time></trkpt><trkpt lat="47.865380093342836" lon="1.0836777364433974"><ele>135.79999999999998</ele><time>2026-04-25T12:13:02Z</time></trkpt><trkpt lat="47.86535399996516" lon="1.0835255628593303"><ele>135.2</ele><time>2026-04-25T12:13:03Z</time></trkpt><trkpt lat="47.865324358606244" lon="1.0833838312801134"><ele>134.6</ele><time>2026-04-25T12:13:04Z</time></trkpt><trkpt lat="47.86528980012412" lon="1.0832171414885314"><ele>134.0</ele><time>2026-04-25T12:13:05Z</time></trkpt><trkpt lat="47.86525255272294" lon="1.0830643940655595"><ele>133.4</ele><time>2026-04-25T12:13:06Z</time></trkpt><trkpt lat="47.86521931394391" lon="1.0829007375481623"><ele>132.8</ele><time>2026-04-25T12:13:07Z</time></trkpt><trkpt lat="47.865192172023036" lon="1.0827449044663515"><ele>132.2</ele><time>2026-04-25T12:13:08Z</time></trkpt><trkpt lat="47.86516441793444" lon="1.0826002244045416"><ele>131.6</ele><time>2026-04-25T12:13:09Z</time></trkpt><trkpt lat="47.86513977194604" lon="1.0824659206747702"><ele>131.0</ele><time>2026-04-25T12:13:10Z</time></trkpt><trkpt lat="47.86512524411499" lon="1.0823396449451927"><ele>131.8</ele><time>2026-04-25T12:13:11Z</time></trkpt><trkpt lat="47.86510812242537" lon="1.0822158686036323"><ele>132.6</ele><time>2026-04-25T12:13:12Z</time></trkpt><trkpt lat="47.86508195357986" lon="1.0820921985962961"><ele>133.4</ele><time>2026-04-25T12:13:13Z</time></trkpt><trkpt lat="47.86505882085521" lon="1.0819674966717976"><ele>134.2</ele><time>2026-04-25T12:13:14Z</time></trkpt><trkpt lat="47.86502584904184" lon="1.0818369088708208"><ele>135.0</ele><time>2026-04-25T12:13:15Z</time></trkpt><trkpt lat="47.86499376548805" lon="1.0816770879433457"><ele>135.33333333333334</ele><time>2026-04-25T12:13:16Z</time></trkpt><trkpt lat="47.8649582141081" lon="1.0815434935513015"><ele>135.66666666666666</ele><time>2026-04-25T12:13:17Z</time></trkpt><trkpt lat="47.86492224472918" lon="1.0813819223863215"><ele>136.0</ele><time>2026-04-25T12:13:19Z</time></trkpt><trkpt lat="47.864886341667244" lon="1.0812907844735644"><ele>136.33333333333331</ele><time>2026-04-25T12:13:21Z</time></trkpt><trkpt lat="47.864862466811594" lon="1.0811777721929756"><ele>136.66666666666666</ele><time>2026-04-25T12:13:24Z</time></trkpt><trkpt lat="47.86483873247392" lon="1.0810770157176302"><ele>137.0</ele><time>2026-04-25T12:13:26Z</time></trkpt><trkpt lat="47.86481761572377" lon="1.0809582258239252"><ele>137.0</ele><time>2026-04-25T12:13:28Z</time></trkpt><trkpt lat="47.8647865768401" lon="1.0808248920246217"><ele>137.0</ele><time>2026-04-25T12:13:30Z</time></trkpt><trkpt lat="47.864769533649586" lon="1.080728616884134"><ele>137.0</ele><time>2026-04-25T12:13:31Z</time></trkpt><trkpt lat="47.864739923495996" lon="1.0805833922869108"><ele>137.0</ele><time>2026-04-25T12:13:32Z</time></trkpt><trkpt lat="47.86472319906801" lon="1.0804484783888473"><ele>137.0</ele><time>2026-04-25T12:13:33Z</time></trkpt><trkpt lat="47.86471217866891" lon="1.0803427683343794"><ele>137.0</ele><time>2026-04-25T12:13:34Z</time></trkpt><trkpt lat="47.86469283192938" lon="1.0802323328217982"><ele>137.16666666666666</ele><time>2026-04-25T12:13:35Z</time></trkpt><trkpt lat="47.864675763839834" lon="1.0801308271902592"><ele>137.33333333333331</ele><time>2026-04-25T12:13:36Z</time></trkpt><trkpt lat="47.86463176186109" lon="1.079970075016032"><ele>137.5</ele><time>2026-04-25T12:13:38Z</time></trkpt><trkpt lat="47.8646048054927" lon="1.0798274196917828"><ele>137.66666666666666</ele><time>2026-04-25T12:13:40Z</time></trkpt><trkpt lat="47.86457887204004" lon="1.079687855500314"><ele>137.83333333333334</ele><time>2026-04-25T12:13:42Z</time></trkpt><trkpt lat="47.86456539499882" lon="1.0795934472241184"><ele>138.0</ele><time>2026-04-25T12:13:44.001Z</time></trkpt><trkpt lat="47.86454672995852" lon="1.07945716483576"><ele>138.5</ele><time>2026-04-25T12:13:50.001Z</time></trkpt><trkpt lat="47.864529805569646" lon="1.0793372681067193"><ele>139.0</ele><time>2026-04-25T12:13:51.001Z</time></trkpt><trkpt lat="47.8644970540274" lon="1.0791320451550954"><ele>139.5</ele><time>2026-04-25T12:13:52.001Z</time></trkpt><trkpt lat="47.86446687837028" lon="1.0789301440903234"><ele>140.0</ele><time>2026-04-25T12:13:53.001Z</time></trkpt><trkpt lat="47.86441937673189" lon="1.0787183715963047"><ele>140.0</ele><time>2026-04-25T12:13:54.001Z</time></trkpt><trkpt lat="47.86439193695076" lon="1.0785241162571104"><ele>140.0</ele><time>2026-04-25T12:13:55.001Z</time></trkpt><trkpt lat="47.8643325728268" lon="1.0782827775854735"><ele>140.0</ele><time>2026-04-25T12:13:57.001Z</time></trkpt><trkpt lat="47.8643036917251" lon="1.078111554699095"><ele>140.0</ele><time>2026-04-25T12:13:58.001Z</time></trkpt><trkpt lat="47.864287118394515" lon="1.0780097148141352"><ele>138.83333333333331</ele><time>2026-04-25T12:13:59.001Z</time></trkpt><trkpt lat="47.864264724709216" lon="1.07791669389763"><ele>137.66666666666666</ele><time>2026-04-25T12:14:00.001Z</time></trkpt><trkpt lat="47.86423353730114" lon="1.0777042352398571"><ele>136.5</ele><time>2026-04-25T12:14:02.001Z</time></trkpt><trkpt lat="47.864211866274374" lon="1.077586606080795"><ele>135.33333333333334</ele><time>2026-04-25T12:14:03.001Z</time></trkpt><trkpt lat="47.86418996217632" lon="1.0774813703207837"><ele>134.16666666666669</ele><time>2026-04-25T12:14:04.001Z</time></trkpt><trkpt lat="47.864173875824875" lon="1.0773844248844258"><ele>133.0</ele><time>2026-04-25T12:14:05.001Z</time></trkpt><trkpt lat="47.86414350519804" lon="1.0772832510786936"><ele>132.20000000000002</ele><time>2026-04-25T12:14:06.001Z</time></trkpt><trkpt lat="47.86412399286478" lon="1.077185058970106"><ele>131.4</ele><time>2026-04-25T12:14:07.001Z</time></trkpt><trkpt lat="47.8640972530544" lon="1.0770539721756704"><ele>130.60000000000002</ele><time>2026-04-25T12:14:09.001Z</time></trkpt><trkpt lat="47.86407498206801" lon="1.0769590759634193"><ele>129.8</ele><time>2026-04-25T12:14:10.001Z</time></trkpt><trkpt lat="47.864037835640666" lon="1.076765208223793"><ele>129.0</ele><time>2026-04-25T12:14:12.001Z</time></trkpt><trkpt lat="47.86400543230605" lon="1.0766237452203176"><ele>128.4</ele><time>2026-04-25T12:14:13.001Z</time></trkpt><trkpt lat="47.863978084774054" lon="1.0764577476214712"><ele>127.80000000000001</ele><time>2026-04-25T12:14:14.001Z</time></trkpt><trkpt lat="47.86395305811418" lon="1.0762831378803968"><ele>127.19999999999999</ele><time>2026-04-25T12:14:15.001Z</time></trkpt><trkpt lat="47.86391891573511" lon="1.07615573267823"><ele>126.6</ele><time>2026-04-25T12:14:16.001Z</time></trkpt><trkpt lat="47.86390968518288" lon="1.076039913118982"><ele>126.0</ele><time>2026-04-25T12:14:17.001Z</time></trkpt><trkpt lat="47.86389905011786" lon="1.0759435599602487"><ele>126.0</ele><time>2026-04-25T12:14:18.001Z</time></trkpt><trkpt lat="47.86387848580974" lon="1.0757794337175186"><ele>126.0</ele><time>2026-04-25T12:14:20.001Z</time></trkpt><trkpt lat="47.863855711173876" lon="1.0756425531586862"><ele>126.0</ele><time>2026-04-25T12:14:22.001Z</time></trkpt><trkpt lat="47.863815719295" lon="1.0755577012083677"><ele>126.0</ele><time>2026-04-25T12:14:25.001Z</time></trkpt><trkpt lat="47.863835594453434" lon="1.0754161699029687"><ele>126.0</ele><time>2026-04-25T12:14:32.001Z</time></trkpt><trkpt lat="47.863766647147585" lon="1.0751912206064764"><ele>125.16666666666667</ele><time>2026-04-25T12:14:34.001Z</time></trkpt><trkpt lat="47.86378449322268" lon="1.075095796962598"><ele>124.33333333333334</ele><time>2026-04-25T12:14:35.001Z</time></trkpt><trkpt lat="47.8637553846569" lon="1.0749679076998564"><ele>123.5</ele><time>2026-04-25T12:14:38.001Z</time></trkpt><trkpt lat="47.863680735161" lon="1.0749566996693116"><ele>122.66666666666667</ele><time>2026-04-25T12:14:40.001Z</time></trkpt><trkpt lat="47.86372958950925" lon="1.0748521551003871"><ele>121.83333333333334</ele><time>2026-04-25T12:14:42.001Z</time></trkpt><trkpt lat="47.86382794892379" lon="1.0747705190755652"><ele>121.0</ele><time>2026-04-25T12:14:56Z</time></trkpt><trkpt lat="47.8639193462559" lon="1.0747102750268034"><ele>120.66666666666667</ele><time>2026-04-25T12:14:57Z</time></trkpt><trkpt lat="47.86403726903424" lon="1.0746281705860425"><ele>120.33333333333334</ele><time>2026-04-25T12:14:58Z</time></trkpt><trkpt lat="47.86418074315715" lon="1.0745337153253076"><ele>120.0</ele><time>2026-04-25T12:14:59Z</time></trkpt><trkpt lat="47.86433904863712" lon="1.0744235104728461"><ele>119.66666666666666</ele><time>2026-04-25T12:15:00Z</time></trkpt><trkpt lat="47.864516096072435" lon="1.0743047289290641"><ele>119.33333333333333</ele><time>2026-04-25T12:15:01Z</time></trkpt><trkpt lat="47.8646872042049" lon="1.074190621130074"><ele>119.0</ele><time>2026-04-25T12:15:02Z</time></trkpt><trkpt lat="47.86481082050151" lon="1.0741183144545206"><ele>119.6</ele><time>2026-04-25T12:15:03Z</time></trkpt><trkpt lat="47.864879377846634" lon="1.0740911175168744"><ele>120.2</ele><time>2026-04-25T12:15:04Z</time></trkpt><trkpt lat="47.86498727997129" lon="1.0740520463672336"><ele>120.79999999999998</ele><time>2026-04-25T12:15:06Z</time></trkpt><trkpt lat="47.86504197134437" lon="1.0739854964273148"><ele>121.39999999999999</ele><time>2026-04-25T12:15:08Z</time></trkpt><trkpt lat="47.865016423202746" lon="1.0737911427059927"><ele>122.0</ele><time>2026-04-25T12:15:10Z</time></trkpt><trkpt lat="47.8650215969833" lon="1.0736172502457633"><ele>122.0</ele><time>2026-04-25T12:15:11Z</time></trkpt><trkpt lat="47.86503500985349" lon="1.0734048961925462"><ele>122.0</ele><time>2026-04-25T12:15:12Z</time></trkpt><trkpt lat="47.86504162666183" lon="1.0731821266577382"><ele>122.0</ele><time>2026-04-25T12:15:13Z</time></trkpt><trkpt lat="47.86504867980291" lon="1.072932556594638"><ele>123.0</ele><time>2026-04-25T12:15:14Z</time></trkpt><trkpt lat="47.865055221577244" lon="1.0726825908579705"><ele>124.0</ele><time>2026-04-25T12:15:15Z</time></trkpt><trkpt lat="47.865068758717186" lon="1.0724385903645528"><ele>125.0</ele><time>2026-04-25T12:15:16Z</time></trkpt><trkpt lat="47.865080065330766" lon="1.0722148151637478"><ele>125.25</ele><time>2026-04-25T12:15:17Z</time></trkpt><trkpt lat="47.865085929020296" lon="1.0720281137560648"><ele>125.5</ele><time>2026-04-25T12:15:18Z</time></trkpt><trkpt lat="47.86508736138766" lon="1.0718349651290464"><ele>125.75</ele><time>2026-04-25T12:15:19Z</time></trkpt><trkpt lat="47.865096935424006" lon="1.0716013692588042"><ele>126.0</ele><time>2026-04-25T12:15:20Z</time></trkpt><trkpt lat="47.86510265468065" lon="1.071340314832423"><ele>126.4</ele><time>2026-04-25T12:15:21Z</time></trkpt><trkpt lat="47.86511031086278" lon="1.0711124934601084"><ele>126.8</ele><time>2026-04-25T12:15:22Z</time></trkpt><trkpt lat="47.86511882994998" lon="1.0709459003234805"><ele>127.20000000000002</ele><time>2026-04-25T12:15:23Z</time></trkpt><trkpt lat="47.86512361257101" lon="1.0708447649107875"><ele>127.60000000000001</ele><time>2026-04-25T12:15:24Z</time></trkpt><trkpt lat="47.865039003201396" lon="1.070865029442183"><ele>128.0</ele><time>2026-04-25T12:15:39Z</time></trkpt><trkpt lat="47.864941168216745" lon="1.0708585057634479"><ele>128.5</ele><time>2026-04-25T12:15:40Z</time></trkpt><trkpt lat="47.86482552370082" lon="1.0708332448754974"><ele>129.0</ele><time>2026-04-25T12:15:41Z</time></trkpt><trkpt lat="47.864693318284544" lon="1.070806476528092"><ele>129.5</ele><time>2026-04-25T12:15:42Z</time></trkpt><trkpt lat="47.864536607082975" lon="1.0707740135326154"><ele>130.0</ele><time>2026-04-25T12:15:43Z</time></trkpt><trkpt lat="47.86437450826084" lon="1.0707409384188868"><ele>132.5</ele><time>2026-04-25T12:15:44Z</time></trkpt><trkpt lat="47.864243018601414" lon="1.070709534319922"><ele>135.0</ele><time>2026-04-25T12:15:45Z</time></trkpt><trkpt lat="47.86413180757039" lon="1.0706917041285127"><ele>137.5</ele><time>2026-04-25T12:15:46Z</time></trkpt><trkpt lat="47.86402772947936" lon="1.0707042713359982"><ele>140.0</ele><time>2026-04-25T12:15:47Z</time></trkpt><trkpt lat="47.863931474256574" lon="1.0707502690061348"><ele>138.8</ele><time>2026-04-25T12:15:48Z</time></trkpt><trkpt lat="47.863839061631" lon="1.0708043055945404"><ele>137.6</ele><time>2026-04-25T12:15:49Z</time></trkpt><trkpt lat="47.863748776232036" lon="1.0708530157531466"><ele>136.4</ele><time>2026-04-25T12:15:50Z</time></trkpt><trkpt lat="47.86365458281554" lon="1.0708940183266829"><ele>135.2</ele><time>2026-04-25T12:15:51Z</time></trkpt><trkpt lat="47.86356064786736" lon="1.0709366647086724"><ele>134.0</ele><time>2026-04-25T12:15:52Z</time></trkpt><trkpt lat="47.863450405460476" lon="1.070991270685734"><ele>134.8</ele><time>2026-04-25T12:15:53Z</time></trkpt><trkpt lat="47.86333194538034" lon="1.071019480199661"><ele>135.60000000000002</ele><time>2026-04-25T12:15:54Z</time></trkpt><trkpt lat="47.86323904637321" lon="1.0710226837174182"><ele>136.4</ele><time>2026-04-25T12:15:55Z</time></trkpt><trkpt lat="47.86313555079851" lon="1.0709804996197783"><ele>137.20000000000002</ele><time>2026-04-25T12:15:56Z</time></trkpt><trkpt lat="47.86301673155734" lon="1.0709057928883035"><ele>138.0</ele><time>2026-04-25T12:15:57Z</time></trkpt><trkpt lat="47.86286670368543" lon="1.0708081098735185"><ele>139.33333333333334</ele><time>2026-04-25T12:15:58Z</time></trkpt><trkpt lat="47.862695304230066" lon="1.070718772434236"><ele>140.66666666666669</ele><time>2026-04-25T12:15:59Z</time></trkpt><trkpt lat="47.86251917053222" lon="1.0706140647377784"><ele>142.0</ele><time>2026-04-25T12:16:00Z</time></trkpt><trkpt lat="47.86233620060977" lon="1.0704995264659278"><ele>142.0</ele><time>2026-04-25T12:16:01Z</time></trkpt><trkpt lat="47.86217238826092" lon="1.0703923636678718"><ele>142.0</ele><time>2026-04-25T12:16:02Z</time></trkpt><trkpt lat="47.862037869910054" lon="1.070287424186192"><ele>142.0</ele><time>2026-04-25T12:16:03Z</time></trkpt><trkpt lat="47.86190857424752" lon="1.0701876791927243"><ele>140.5</ele><time>2026-04-25T12:16:04Z</time></trkpt><trkpt lat="47.861781049253025" lon="1.0700863921157855"><ele>139.0</ele><time>2026-04-25T12:16:05Z</time></trkpt><trkpt lat="47.861656194682666" lon="1.0699937673627458"><ele>137.5</ele><time>2026-04-25T12:16:06Z</time></trkpt><trkpt lat="47.86155056679297" lon="1.0698958243458565"><ele>136.0</ele><time>2026-04-25T12:16:07Z</time></trkpt><trkpt lat="47.86146104127934" lon="1.06978241222807"><ele>136.0</ele><time>2026-04-25T12:16:08Z</time></trkpt><trkpt lat="47.86136291983029" lon="1.0696738873460803"><ele>136.0</ele><time>2026-04-25T12:16:09Z</time></trkpt><trkpt lat="47.861282094483116" lon="1.0695999927310447"><ele>136.0</ele><time>2026-04-25T12:16:10Z</time></trkpt><trkpt lat="47.86122392580089" lon="1.0695544901720306"><ele>136.0</ele><time>2026-04-25T12:16:11Z</time></trkpt><trkpt lat="47.861142611452195" lon="1.0695770325995804"><ele>136.0</ele><time>2026-04-25T12:16:14Z</time></trkpt><trkpt lat="47.861112202089664" lon="1.0696757258871012"><ele>136.0</ele><time>2026-04-25T12:16:16Z</time></trkpt><trkpt lat="47.86106716847023" lon="1.069820192219923"><ele>135.99999999999997</ele><time>2026-04-25T12:16:18Z</time></trkpt><trkpt lat="47.86104105597155" lon="1.0699127233729282"><ele>136.0</ele><time>2026-04-25T12:16:19Z</time></trkpt><trkpt lat="47.8610027056812" lon="1.0700022586164402"><ele>136.0</ele><time>2026-04-25T12:16:20Z</time></trkpt><trkpt lat="47.86097136799648" lon="1.0700937890113018"><ele>136.0</ele><time>2026-04-25T12:16:21Z</time></trkpt><trkpt lat="47.86093492527694" lon="1.0701732267378625"><ele>136.0</ele><time>2026-04-25T12:16:22Z</time></trkpt><trkpt lat="47.86089027351135" lon="1.0702689463926984"><ele>135.99999999999997</ele><time>2026-04-25T12:16:23Z</time></trkpt><trkpt lat="47.860848777419314" lon="1.0703592237977995"><ele>136.0</ele><time>2026-04-25T12:16:24Z</time></trkpt><trkpt lat="47.86079030978833" lon="1.0705305633013904"><ele>135.83333333333334</ele><time>2026-04-25T12:16:26Z</time></trkpt><trkpt lat="47.86075306941732" lon="1.0706396598867876"><ele>135.66666666666669</ele><time>2026-04-25T12:16:27Z</time></trkpt><trkpt lat="47.86069864879763" lon="1.0707652888233687"><ele>135.5</ele><time>2026-04-25T12:16:28Z</time></trkpt><trkpt lat="47.860670994656424" lon="1.0708822617885627"><ele>135.33333333333334</ele><time>2026-04-25T12:16:29Z</time></trkpt><trkpt lat="47.860625365952295" lon="1.0709868260573183"><ele>135.16666666666666</ele><time>2026-04-25T12:16:30Z</time></trkpt><trkpt lat="47.86057347438981" lon="1.0710970878991808"><ele>135.0</ele><time>2026-04-25T12:16:32.001Z</time></trkpt><trkpt lat="47.86050446677262" lon="1.0710838424220324"><ele>134.0</ele><time>2026-04-25T12:16:34.001Z</time></trkpt><trkpt lat="47.86040735828759" lon="1.0710193351112394"><ele>134.0</ele><time>2026-04-25T12:16:36.001Z</time></trkpt><trkpt lat="47.86034238505719" lon="1.0709692263597763"><ele>134.0</ele><time>2026-04-25T12:16:40.001Z</time></trkpt><trkpt lat="47.86025976877016" lon="1.0709847665128567"><ele>134.0</ele><time>2026-04-25T12:16:44.001Z</time></trkpt><trkpt lat="47.860202056217204" lon="1.0710755846182278"><ele>134.0</ele><time>2026-04-25T12:16:47.001Z</time></trkpt></trkseg><trkseg><trkpt lat="47.860219240799786" lon="1.0709826245043306"><ele>134.0</ele><time>2026-04-25T12:49:02Z</time></trkpt><trkpt lat="47.860280679069284" lon="1.0709495471919286"><ele>134.0</ele><time>2026-04-25T12:49:17Z</time></trkpt><trkpt lat="47.8603572230342" lon="1.070981086446447"><ele>134.0</ele><time>2026-04-25T12:49:29Z</time></trkpt><trkpt lat="47.86043603919669" lon="1.0710400617738365"><ele>134.0</ele><time>2026-04-25T12:49:31Z</time></trkpt><trkpt lat="47.860525430751245" lon="1.071068730862242"><ele>134.0</ele><time>2026-04-25T12:49:33Z</time></trkpt><trkpt lat="47.86059583704403" lon="1.0710288016796377"><ele>134.0</ele><time>2026-04-25T12:49:35Z</time></trkpt><trkpt lat="47.860636422147984" lon="1.0709325493058353"><ele>134.0</ele><time>2026-04-25T12:49:37Z</time></trkpt><trkpt lat="47.86066525995611" lon="1.070835271159183"><ele>134.0</ele><time>2026-04-25T12:49:39Z</time></trkpt><trkpt lat="47.86071387448834" lon="1.0707237273905719"><ele>134.0</ele><time>2026-04-25T12:49:41Z</time></trkpt><trkpt lat="47.860745999058004" lon="1.0706359503333385"><ele>134.0</ele><time>2026-04-25T12:49:42Z</time></trkpt><trkpt lat="47.86079443604409" lon="1.0705324898318707"><ele>134.0</ele><time>2026-04-25T12:49:43Z</time></trkpt><trkpt lat="47.86083683235127" lon="1.0704040851248924"><ele>134.0</ele><time>2026-04-25T12:49:44Z</time></trkpt><trkpt lat="47.8608916236576" lon="1.070260640641868"><ele>134.0</ele><time>2026-04-25T12:49:45Z</time></trkpt><trkpt lat="47.860949592829954" lon="1.070117402741492"><ele>134.0</ele><time>2026-04-25T12:49:46Z</time></trkpt><trkpt lat="47.8610062220431" lon="1.0699642146910318"><ele>134.0</ele><time>2026-04-25T12:49:47Z</time></trkpt><trkpt lat="47.86105507629049" lon="1.0698516387417258"><ele>134.0</ele><time>2026-04-25T12:49:48Z</time></trkpt><trkpt lat="47.86109303977774" lon="1.0697525654298219"><ele>134.0</ele><time>2026-04-25T12:49:49Z</time></trkpt><trkpt lat="47.861126261843715" lon="1.0696710968263192"><ele>134.4</ele><time>2026-04-25T12:49:50Z</time></trkpt><trkpt lat="47.86118149249466" lon="1.0695546866440282"><ele>134.8</ele><time>2026-04-25T12:49:52Z</time></trkpt><trkpt lat="47.86124558279502" lon="1.0695313189549587"><ele>135.2</ele><time>2026-04-25T12:49:54Z</time></trkpt><trkpt lat="47.861322591721" lon="1.0696088181548962"><ele>135.6</ele><time>2026-04-25T12:49:56Z</time></trkpt><trkpt lat="47.86144024986487" lon="1.069755311212894"><ele>136.0</ele><time>2026-04-25T12:49:58Z</time></trkpt><trkpt lat="47.86152740672772" lon="1.06985001682785"><ele>135.33333333333334</ele><time>2026-04-25T12:49:59Z</time></trkpt><trkpt lat="47.86163628007132" lon="1.0699617991937598"><ele>134.66666666666666</ele><time>2026-04-25T12:50:00Z</time></trkpt><trkpt lat="47.861769358821796" lon="1.0700848721477376"><ele>134.0</ele><time>2026-04-25T12:50:01Z</time></trkpt><trkpt lat="47.861920812885714" lon="1.0702011168634007"><ele>136.66666666666666</ele><time>2026-04-25T12:50:02Z</time></trkpt><trkpt lat="47.86208539527915" lon="1.0703156805980292"><ele>139.33333333333334</ele><time>2026-04-25T12:50:03Z</time></trkpt><trkpt lat="47.86223050155125" lon="1.0704176894365245"><ele>142.0</ele><time>2026-04-25T12:50:04Z</time></trkpt><trkpt lat="47.86234781548981" lon="1.0704968100095524"><ele>142.0</ele><time>2026-04-25T12:50:05Z</time></trkpt><trkpt lat="47.86244578816848" lon="1.0705502607548911"><ele>142.0</ele><time>2026-04-25T12:50:06Z</time></trkpt><trkpt lat="47.86254230575186" lon="1.070607887692018"><ele>142.0</ele><time>2026-04-25T12:50:07Z</time></trkpt><trkpt lat="47.86262661713804" lon="1.0706590364175534"><ele>142.0</ele><time>2026-04-25T12:50:08Z</time></trkpt><trkpt lat="47.86271095056925" lon="1.0707090209411627"><ele>142.0</ele><time>2026-04-25T12:50:09Z</time></trkpt><trkpt lat="47.862801781007285" lon="1.0707635713047605"><ele>141.0</ele><time>2026-04-25T12:50:10Z</time></trkpt><trkpt lat="47.862916294710324" lon="1.0708301941914053"><ele>140.0</ele><time>2026-04-25T12:50:11Z</time></trkpt><trkpt lat="47.86304468832681" lon="1.070902919406121"><ele>139.0</ele><time>2026-04-25T12:50:12Z</time></trkpt><trkpt lat="47.863154914042305" lon="1.0709602475977613"><ele>138.0</ele><time>2026-04-25T12:50:13Z</time></trkpt><trkpt lat="47.863246510334974" lon="1.0710033702129411"><ele>138.0</ele><time>2026-04-25T12:50:14Z</time></trkpt><trkpt lat="47.863345875933014" lon="1.0710263783093463"><ele>138.0</ele><time>2026-04-25T12:50:15Z</time></trkpt><trkpt lat="47.863458166835066" lon="1.0710124528932334"><ele>138.0</ele><time>2026-04-25T12:50:16Z</time></trkpt><trkpt lat="47.863540968057784" lon="1.0709626051612446"><ele>138.0</ele><time>2026-04-25T12:50:17Z</time></trkpt><trkpt lat="47.863610174523686" lon="1.0709470280614881"><ele>138.0</ele><time>2026-04-25T12:50:18Z</time></trkpt><trkpt lat="47.863713348358715" lon="1.070894902968503"><ele>138.5</ele><time>2026-04-25T12:50:19Z</time></trkpt><trkpt lat="47.86383929782105" lon="1.070830685457865"><ele>139.0</ele><time>2026-04-25T12:50:20Z</time></trkpt><trkpt lat="47.86398288425788" lon="1.0707623118611573"><ele>139.5</ele><time>2026-04-25T12:50:21Z</time></trkpt><trkpt lat="47.8641071176816" lon="1.0707141962036804"><ele>140.0</ele><time>2026-04-25T12:50:22Z</time></trkpt><trkpt lat="47.86421155131092" lon="1.0706971520671065"><ele>138.0</ele><time>2026-04-25T12:50:23Z</time></trkpt><trkpt lat="47.8643213362414" lon="1.0707052455656074"><ele>136.0</ele><time>2026-04-25T12:50:24Z</time></trkpt><trkpt lat="47.86441952809377" lon="1.0707434255713517"><ele>134.0</ele><time>2026-04-25T12:50:25Z</time></trkpt><trkpt lat="47.86451783265087" lon="1.070770181798562"><ele>132.0</ele><time>2026-04-25T12:50:26Z</time></trkpt><trkpt lat="47.864612309978284" lon="1.070796795385918"><ele>130.0</ele><time>2026-04-25T12:50:27Z</time></trkpt><trkpt lat="47.86470447986109" lon="1.0708153261082793"><ele>130.0</ele><time>2026-04-25T12:50:28Z</time></trkpt><trkpt lat="47.864798285365225" lon="1.070835053220417"><ele>130.0</ele><time>2026-04-25T12:50:29Z</time></trkpt><trkpt lat="47.86489774987097" lon="1.0708506714133454"><ele>130.0</ele><time>2026-04-25T12:50:30Z</time></trkpt><trkpt lat="47.86497997431676" lon="1.07086065778795"><ele>130.0</ele><time>2026-04-25T12:50:31Z</time></trkpt><trkpt lat="47.86504998314616" lon="1.070865832749575"><ele>130.0</ele><time>2026-04-25T12:50:32Z</time></trkpt><trkpt lat="47.86512217046904" lon="1.0709131836844992"><ele>130.0</ele><time>2026-04-25T12:50:34Z</time></trkpt><trkpt lat="47.86514103323945" lon="1.0710536254721066"><ele>130.0</ele><time>2026-04-25T12:50:36Z</time></trkpt><trkpt lat="47.86513188805512" lon="1.0711576717529154"><ele>130.0</ele><time>2026-04-25T12:50:37Z</time></trkpt><trkpt lat="47.8651176960101" lon="1.0712939307504423"><ele>130.0</ele><time>2026-04-25T12:50:38Z</time></trkpt><trkpt lat="47.86510075910425" lon="1.0714918624100418"><ele>130.0</ele><time>2026-04-25T12:50:39Z</time></trkpt><trkpt lat="47.86509735414343" lon="1.0717070114254528"><ele>130.0</ele><time>2026-04-25T12:50:40Z</time></trkpt><trkpt lat="47.86508596048526" lon="1.0719124426736504"><ele>128.66666666666669</ele><time>2026-04-25T12:50:41Z</time></trkpt><trkpt lat="47.86508983455784" lon="1.072135580002196"><ele>127.33333333333334</ele><time>2026-04-25T12:50:42Z</time></trkpt><trkpt lat="47.865080175473814" lon="1.0723539414103"><ele>126.0</ele><time>2026-04-25T12:50:43Z</time></trkpt><trkpt lat="47.86506955417905" lon="1.0726258764655336"><ele>125.66666666666666</ele><time>2026-04-25T12:50:44Z</time></trkpt><trkpt lat="47.86506102868117" lon="1.0729134193488972"><ele>125.33333333333333</ele><time>2026-04-25T12:50:45Z</time></trkpt><trkpt lat="47.86505267554689" lon="1.07315419175107"><ele>125.0</ele><time>2026-04-25T12:50:46Z</time></trkpt><trkpt lat="47.865046765094185" lon="1.0733628281025"><ele>124.4</ele><time>2026-04-25T12:50:47Z</time></trkpt><trkpt lat="47.86504132989374" lon="1.0735451952213164"><ele>123.8</ele><time>2026-04-25T12:50:48Z</time></trkpt><trkpt lat="47.86503748212364" lon="1.073702198600549"><ele>123.19999999999999</ele><time>2026-04-25T12:50:49Z</time></trkpt><trkpt lat="47.86503384856283" lon="1.0738359287230737"><ele>122.6</ele><time>2026-04-25T12:50:50Z</time></trkpt><trkpt lat="47.86503316859764" lon="1.0739308258562081"><ele>122.0</ele><time>2026-04-25T12:50:51Z</time></trkpt><trkpt lat="47.86502197468847" lon="1.0740506753898775"><ele>121.39999999999999</ele><time>2026-04-25T12:50:53Z</time></trkpt><trkpt lat="47.864942135079154" lon="1.0741142981366731"><ele>120.79999999999998</ele><time>2026-04-25T12:50:55Z</time></trkpt><trkpt lat="47.86487091682287" lon="1.0741452762959542"><ele>120.2</ele><time>2026-04-25T12:50:56Z</time></trkpt><trkpt lat="47.86476968156416" lon="1.0741849180692544"><ele>119.6</ele><time>2026-04-25T12:50:57Z</time></trkpt><trkpt lat="47.864638338265536" lon="1.0742567667518226"><ele>119.0</ele><time>2026-04-25T12:50:58Z</time></trkpt><trkpt lat="47.86449240146115" lon="1.0743407603060886"><ele>119.0</ele><time>2026-04-25T12:50:59Z</time></trkpt><trkpt lat="47.86433407610528" lon="1.0744491101633238"><ele>119.0</ele><time>2026-04-25T12:51:00Z</time></trkpt><trkpt lat="47.864169614865425" lon="1.074575670252814"><ele>119.0</ele><time>2026-04-25T12:51:01Z</time></trkpt><trkpt lat="47.864039958298434" lon="1.0746681648384606"><ele>119.16666666666666</ele><time>2026-04-25T12:51:02Z</time></trkpt><trkpt lat="47.863938040792824" lon="1.074737931691518"><ele>119.33333333333333</ele><time>2026-04-25T12:51:03Z</time></trkpt><trkpt lat="47.86385038674424" lon="1.0747994030896726"><ele>119.5</ele><time>2026-04-25T12:51:04Z</time></trkpt><trkpt lat="47.8637815965389" lon="1.074842790368648"><ele>119.66666666666666</ele><time>2026-04-25T12:51:05Z</time></trkpt><trkpt lat="47.86369564268444" lon="1.0749058763310544"><ele>119.83333333333333</ele><time>2026-04-25T12:51:07Z</time></trkpt><trkpt lat="47.863730773578325" lon="1.07499369259181"><ele>120.0</ele><time>2026-04-25T12:51:14Z</time></trkpt><trkpt lat="47.86376641901798" lon="1.0750824525492906"><ele>120.16666666666667</ele><time>2026-04-25T12:51:17Z</time></trkpt><trkpt lat="47.86376740590365" lon="1.0751805303974673"><ele>120.33333333333334</ele><time>2026-04-25T12:51:19Z</time></trkpt><trkpt lat="47.86379161101149" lon="1.0753175856064987"><ele>120.5</ele><time>2026-04-25T12:51:22Z</time></trkpt><trkpt lat="47.86383256091112" lon="1.075448664458727"><ele>120.66666666666667</ele><time>2026-04-25T12:51:53Z</time></trkpt><trkpt lat="47.86384309240721" lon="1.075597343519528"><ele>120.83333333333334</ele><time>2026-04-25T12:51:57Z</time></trkpt><trkpt lat="47.863851916167874" lon="1.0757320593272477"><ele>121.0</ele><time>2026-04-25T12:51:58Z</time></trkpt><trkpt lat="47.863867009971564" lon="1.0758588447049178"><ele>122.0</ele><time>2026-04-25T12:51:59Z</time></trkpt><trkpt lat="47.86387015188883" lon="1.0759889021333284"><ele>123.0</ele><time>2026-04-25T12:52:00Z</time></trkpt><trkpt lat="47.86389951765728" lon="1.0761318995708997"><ele>124.0</ele><time>2026-04-25T12:52:01Z</time></trkpt><trkpt lat="47.86391000744713" lon="1.0763101224208005"><ele>125.0</ele><time>2026-04-25T12:52:02Z</time></trkpt><trkpt lat="47.863924127148046" lon="1.0764693247265071"><ele>126.0</ele><time>2026-04-25T12:52:03Z</time></trkpt><trkpt lat="47.86394318297444" lon="1.0765813116071279"><ele>126.6</ele><time>2026-04-25T12:52:04Z</time></trkpt><trkpt lat="47.86397705976241" lon="1.0767603563117643"><ele>127.19999999999999</ele><time>2026-04-25T12:52:05Z</time></trkpt><trkpt lat="47.86400387971252" lon="1.0769082507908538"><ele>127.80000000000001</ele><time>2026-04-25T12:52:06Z</time></trkpt><trkpt lat="47.86403920456795" lon="1.0770095549651173"><ele>128.4</ele><time>2026-04-25T12:52:07Z</time></trkpt><trkpt lat="47.86407322966367" lon="1.0771272013813025"><ele>129.0</ele><time>2026-04-25T12:52:08Z</time></trkpt><trkpt lat="47.86409869295017" lon="1.0772244931186714"><ele>129.0</ele><time>2026-04-25T12:52:09Z</time></trkpt><trkpt lat="47.86412185974369" lon="1.0773345830315502"><ele>129.0</ele><time>2026-04-25T12:52:10Z</time></trkpt><trkpt lat="47.86414432468279" lon="1.0774552321104645"><ele>129.0</ele><time>2026-04-25T12:52:11Z</time></trkpt><trkpt lat="47.86415958610681" lon="1.0775639814205402"><ele>129.0</ele><time>2026-04-25T12:52:12Z</time></trkpt><trkpt lat="47.86417587236706" lon="1.0776908622996775"><ele>129.0</ele><time>2026-04-25T12:52:13Z</time></trkpt><trkpt lat="47.86419092394664" lon="1.077814553241874"><ele>129.0</ele><time>2026-04-25T12:52:14Z</time></trkpt><trkpt lat="47.86420861214702" lon="1.0779275556444858"><ele>129.8</ele><time>2026-04-25T12:52:15Z</time></trkpt><trkpt lat="47.86422245648545" lon="1.078029357295948"><ele>130.60000000000002</ele><time>2026-04-25T12:52:16Z</time></trkpt><trkpt lat="47.86423231527004" lon="1.0781701918418605"><ele>131.4</ele><time>2026-04-25T12:52:18Z</time></trkpt><trkpt lat="47.864290042426084" lon="1.078277358313757"><ele>132.20000000000002</ele><time>2026-04-25T12:52:20Z</time></trkpt><trkpt lat="47.86433012344816" lon="1.078458967752076"><ele>133.0</ele><time>2026-04-25T12:52:22Z</time></trkpt><trkpt lat="47.86436310084662" lon="1.078556332344039"><ele>134.4</ele><time>2026-04-25T12:52:23Z</time></trkpt><trkpt lat="47.864380162125286" lon="1.0786514909819551"><ele>135.8</ele><time>2026-04-25T12:52:24Z</time></trkpt><trkpt lat="47.864433758055846" lon="1.0788658287471444"><ele>137.2</ele><time>2026-04-25T12:52:26Z</time></trkpt><trkpt lat="47.86445195606439" lon="1.0789782716965546"><ele>138.6</ele><time>2026-04-25T12:52:27Z</time></trkpt><trkpt lat="47.86447311388811" lon="1.0790897760462468"><ele>140.0</ele><time>2026-04-25T12:52:28Z</time></trkpt><trkpt lat="47.86450050249263" lon="1.079208771352906"><ele>140.0</ele><time>2026-04-25T12:52:29.001Z</time></trkpt><trkpt lat="47.864526133110026" lon="1.079328120613357"><ele>140.0</ele><time>2026-04-25T12:52:30Z</time></trkpt><trkpt lat="47.86453857092371" lon="1.079438281995928"><ele>140.0</ele><time>2026-04-25T12:52:31Z</time></trkpt><trkpt lat="47.86456223081711" lon="1.0796196212345979"><ele>140.0</ele><time>2026-04-25T12:52:33Z</time></trkpt><trkpt lat="47.86458709269407" lon="1.0798159265189082"><ele>140.0</ele><time>2026-04-25T12:52:35Z</time></trkpt><trkpt lat="47.86461799992908" lon="1.0799537308308866"><ele>139.5</ele><time>2026-04-25T12:52:36Z</time></trkpt><trkpt lat="47.864664853626735" lon="1.0801816160135742"><ele>139.0</ele><time>2026-04-25T12:52:37Z</time></trkpt><trkpt lat="47.864698657256696" lon="1.0803715794674769"><ele>138.5</ele><time>2026-04-25T12:52:38Z</time></trkpt><trkpt lat="47.86472383050034" lon="1.0805140195556775"><ele>138.0</ele><time>2026-04-25T12:52:39Z</time></trkpt><trkpt lat="47.864745795083785" lon="1.0806322039874723"><ele>138.0</ele><time>2026-04-25T12:52:40Z</time></trkpt><trkpt lat="47.86476642417391" lon="1.080742853034967"><ele>138.0</ele><time>2026-04-25T12:52:41Z</time></trkpt><trkpt lat="47.86479196365289" lon="1.0808381594519223"><ele>138.0</ele><time>2026-04-25T12:52:42Z</time></trkpt><trkpt lat="47.86481559658887" lon="1.080986137555298"><ele>138.0</ele><time>2026-04-25T12:52:44Z</time></trkpt><trkpt lat="47.86483178300956" lon="1.0810817655248235"><ele>138.0</ele><time>2026-04-25T12:52:46Z</time></trkpt><trkpt lat="47.86484247153828" lon="1.0811875019661787"><ele>138.0</ele><time>2026-04-25T12:53:25Z</time></trkpt><trkpt lat="47.86487604473078" lon="1.0813025345493907"><ele>137.75</ele><time>2026-04-25T12:53:26Z</time></trkpt><trkpt lat="47.86492834932009" lon="1.081451226329131"><ele>137.5</ele><time>2026-04-25T12:53:27Z</time></trkpt><trkpt lat="47.8649774858047" lon="1.0816263865626516"><ele>137.25</ele><time>2026-04-25T12:53:28Z</time></trkpt><trkpt lat="47.86504018089969" lon="1.0818583334799128"><ele>137.0</ele><time>2026-04-25T12:53:29Z</time></trkpt><trkpt lat="47.865094621109954" lon="1.0821160536136427"><ele>135.5</ele><time>2026-04-25T12:53:30Z</time></trkpt><trkpt lat="47.86512768023659" lon="1.0823640502042708"><ele>134.0</ele><time>2026-04-25T12:53:31Z</time></trkpt><trkpt lat="47.86515536015711" lon="1.0825708403458394"><ele>132.5</ele><time>2026-04-25T12:53:32Z</time></trkpt><trkpt lat="47.865183193186844" lon="1.082758881865669"><ele>131.0</ele><time>2026-04-25T12:53:33Z</time></trkpt><trkpt lat="47.86520208297984" lon="1.0829370928541147"><ele>130.8</ele><time>2026-04-25T12:53:34Z</time></trkpt><trkpt lat="47.86522766595921" lon="1.0831021231185496"><ele>130.6</ele><time>2026-04-25T12:53:35Z</time></trkpt><trkpt lat="47.86525878151538" lon="1.083255882459749"><ele>130.4</ele><time>2026-04-25T12:53:36Z</time></trkpt><trkpt lat="47.86529003610651" lon="1.0834046369975388"><ele>130.2</ele><time>2026-04-25T12:53:37Z</time></trkpt><trkpt lat="47.86532073469034" lon="1.083557045444562"><ele>130.0</ele><time>2026-04-25T12:53:38Z</time></trkpt><trkpt lat="47.86535779486781" lon="1.0836987122565505"><ele>130.66666666666669</ele><time>2026-04-25T12:53:39Z</time></trkpt><trkpt lat="47.865386243140435" lon="1.083848727291091"><ele>131.33333333333334</ele><time>2026-04-25T12:53:40Z</time></trkpt><trkpt lat="47.865410874835625" lon="1.0839737351160352"><ele>132.0</ele><time>2026-04-25T12:53:41Z</time></trkpt><trkpt lat="47.865421553524385" lon="1.0840690498237222"><ele>132.66666666666666</ele><time>2026-04-25T12:53:42Z</time></trkpt><trkpt lat="47.86543072348296" lon="1.084173982531829"><ele>133.33333333333331</ele><time>2026-04-25T12:53:43Z</time></trkpt><trkpt lat="47.86545523699712" lon="1.084309310724178"><ele>134.0</ele><time>2026-04-25T12:53:44Z</time></trkpt><trkpt lat="47.86548833713202" lon="1.084444368010433"><ele>134.6</ele><time>2026-04-25T12:53:45Z</time></trkpt><trkpt lat="47.86550062557371" lon="1.0845831183889796"><ele>135.2</ele><time>2026-04-25T12:53:46Z</time></trkpt><trkpt lat="47.86551797050013" lon="1.0847066125015683"><ele>135.79999999999998</ele><time>2026-04-25T12:53:47Z</time></trkpt><trkpt lat="47.86553890805353" lon="1.084839446255972"><ele>136.4</ele><time>2026-04-25T12:53:48Z</time></trkpt><trkpt lat="47.86556187120103" lon="1.0849906326067806"><ele>137.0</ele><time>2026-04-25T12:53:49Z</time></trkpt><trkpt lat="47.86558889158807" lon="1.085137767301326"><ele>137.5</ele><time>2026-04-25T12:53:50Z</time></trkpt><trkpt lat="47.86561196625595" lon="1.0852670827481399"><ele>138.0</ele><time>2026-04-25T12:53:51Z</time></trkpt><trkpt lat="47.86564179506882" lon="1.0854232367793206"><ele>138.5</ele><time>2026-04-25T12:53:52Z</time></trkpt><trkpt lat="47.8656810324932" lon="1.0856110140740332"><ele>139.0</ele><time>2026-04-25T12:53:53Z</time></trkpt><trkpt lat="47.865723415155195" lon="1.0858292854020544"><ele>139.6</ele><time>2026-04-25T12:53:54Z</time></trkpt><trkpt lat="47.865753125839056" lon="1.0860042286297134"><ele>140.2</ele><time>2026-04-25T12:53:55Z</time></trkpt><trkpt lat="47.86577799025855" lon="1.0861488102167403"><ele>140.79999999999998</ele><time>2026-04-25T12:53:56Z</time></trkpt><trkpt lat="47.86581250020422" lon="1.08627852722085"><ele>141.4</ele><time>2026-04-25T12:53:57Z</time></trkpt><trkpt lat="47.86584161198281" lon="1.086384231211623"><ele>142.0</ele><time>2026-04-25T12:53:58Z</time></trkpt><trkpt lat="47.86587169745027" lon="1.0864778765079335"><ele>142.0</ele><time>2026-04-25T12:53:59Z</time></trkpt><trkpt lat="47.865906567213365" lon="1.0865837474787776"><ele>142.0</ele><time>2026-04-25T12:54:00Z</time></trkpt><trkpt lat="47.865932024981895" lon="1.0866958532143318"><ele>142.0</ele><time>2026-04-25T12:54:01Z</time></trkpt><trkpt lat="47.86594226498224" lon="1.086800248732022"><ele>142.0</ele><time>2026-04-25T12:54:02Z</time></trkpt><trkpt lat="47.86594588387372" lon="1.0869242254637732"><ele>142.0</ele><time>2026-04-25T12:54:04Z</time></trkpt><trkpt lat="47.8658705682054" lon="1.0869834366423266"><ele>142.0</ele><time>2026-04-25T12:54:07Z</time></trkpt><trkpt lat="47.86580782942686" lon="1.0869634030215052"><ele>141.79999999999998</ele><time>2026-04-25T12:54:09Z</time></trkpt><trkpt lat="47.865895252835685" lon="1.086981913551547"><ele>141.6</ele><time>2026-04-25T12:54:20Z</time></trkpt><trkpt lat="47.86596150803629" lon="1.0870501275320232"><ele>141.39999999999998</ele><time>2026-04-25T12:54:22Z</time></trkpt><trkpt lat="47.86598693926815" lon="1.0871465948940076"><ele>141.2</ele><time>2026-04-25T12:54:24Z</time></trkpt><trkpt lat="47.86602615111553" lon="1.0872915465733377"><ele>141.0</ele><time>2026-04-25T12:54:26Z</time></trkpt><trkpt lat="47.86607284908066" lon="1.0874503108105535"><ele>141.0</ele><time>2026-04-25T12:54:27Z</time></trkpt><trkpt lat="47.86612078158366" lon="1.0876522487783893"><ele>141.0</ele><time>2026-04-25T12:54:28Z</time></trkpt><trkpt lat="47.86615885498491" lon="1.0878331797955507"><ele>141.0</ele><time>2026-04-25T12:54:29Z</time></trkpt><trkpt lat="47.86618623798074" lon="1.0879723101965317"><ele>141.0</ele><time>2026-04-25T12:54:30Z</time></trkpt><trkpt lat="47.866205645511336" lon="1.0880881508571327"><ele>141.0</ele><time>2026-04-25T12:54:31Z</time></trkpt><trkpt lat="47.86622525109625" lon="1.0881884704293747"><ele>141.2</ele><time>2026-04-25T12:54:32Z</time></trkpt><trkpt lat="47.8662447525546" lon="1.0882926001299542"><ele>141.39999999999998</ele><time>2026-04-25T12:54:33Z</time></trkpt><trkpt lat="47.86627650928592" lon="1.0883856132196226"><ele>141.6</ele><time>2026-04-25T12:54:34.001Z</time></trkpt><trkpt lat="47.86630874941436" lon="1.0885566692392095"><ele>141.79999999999998</ele><time>2026-04-25T12:54:36.001Z</time></trkpt><trkpt lat="47.8663493185612" lon="1.0887103692518716"><ele>142.0</ele><time>2026-04-25T12:54:38.001Z</time></trkpt><trkpt lat="47.86638928484041" lon="1.0888729259659562"><ele>142.0</ele><time>2026-04-25T12:54:40.001Z</time></trkpt><trkpt lat="47.86641536654094" lon="1.0889668372779093"><ele>142.0</ele><time>2026-04-25T12:54:42.001Z</time></trkpt><trkpt lat="47.866492298584575" lon="1.0892350007144878"><ele>142.0</ele><time>2026-04-25T12:54:49.001Z</time></trkpt><trkpt lat="47.86651475403882" lon="1.0894328412637473"><ele>142.0</ele><time>2026-04-25T12:54:50.001Z</time></trkpt><trkpt lat="47.866542407843916" lon="1.0896288387515116"><ele>141.4</ele><time>2026-04-25T12:54:51.001Z</time></trkpt><trkpt lat="47.866571770509225" lon="1.0897710890418157"><ele>140.79999999999998</ele><time>2026-04-25T12:54:52.001Z</time></trkpt><trkpt lat="47.866610187745884" lon="1.0899090471537312"><ele>140.2</ele><time>2026-04-25T12:54:53Z</time></trkpt><trkpt lat="47.86663126513261" lon="1.090047740091794"><ele>139.6</ele><time>2026-04-25T12:54:54Z</time></trkpt><trkpt lat="47.866683196901086" lon="1.0901627648373835"><ele>139.0</ele><time>2026-04-25T12:54:55Z</time></trkpt><trkpt lat="47.86671839159393" lon="1.090274842331489"><ele>138.4</ele><time>2026-04-25T12:54:56Z</time></trkpt><trkpt lat="47.86676489897463" lon="1.0903740276044873"><ele>137.8</ele><time>2026-04-25T12:54:57Z</time></trkpt><trkpt lat="47.86682655042245" lon="1.0904874097196267"><ele>137.2</ele><time>2026-04-25T12:54:59Z</time></trkpt><trkpt lat="47.86682240952757" lon="1.0905942483750843"><ele>136.6</ele><time>2026-04-25T12:55:05Z</time></trkpt><trkpt lat="47.866794657896136" lon="1.0906952424969871"><ele>136.0</ele><time>2026-04-25T12:55:09Z</time></trkpt><trkpt lat="47.86676879394851" lon="1.090898940072439"><ele>135.0</ele><time>2026-04-25T12:55:32Z</time></trkpt><trkpt lat="47.866744657487295" lon="1.0910798644982906"><ele>134.0</ele><time>2026-04-25T12:55:33Z</time></trkpt><trkpt lat="47.866722824578396" lon="1.091276172752688"><ele>133.0</ele><time>2026-04-25T12:55:34Z</time></trkpt><trkpt lat="47.86669603982471" lon="1.0914685866387706"><ele>132.0</ele><time>2026-04-25T12:55:35Z</time></trkpt><trkpt lat="47.86665073289396" lon="1.0916528378969421"><ele>131.25</ele><time>2026-04-25T12:55:36Z</time></trkpt><trkpt lat="47.8666032177217" lon="1.091889384516903"><ele>130.5</ele><time>2026-04-25T12:55:37Z</time></trkpt><trkpt lat="47.86656888486165" lon="1.0920876555152323"><ele>129.75</ele><time>2026-04-25T12:55:38Z</time></trkpt><trkpt lat="47.866540594596906" lon="1.0922681393669567"><ele>129.0</ele><time>2026-04-25T12:55:39Z</time></trkpt><trkpt lat="47.86651071863534" lon="1.0924215580379117"><ele>128.4</ele><time>2026-04-25T12:55:40Z</time></trkpt><trkpt lat="47.86647755095697" lon="1.092552266850006"><ele>127.80000000000001</ele><time>2026-04-25T12:55:41Z</time></trkpt><trkpt lat="47.866453419829945" lon="1.0926782385860614"><ele>127.19999999999999</ele><time>2026-04-25T12:55:42Z</time></trkpt><trkpt lat="47.866438261419624" lon="1.092813003353725"><ele>126.6</ele><time>2026-04-25T12:55:43Z</time></trkpt><trkpt lat="47.866423325695536" lon="1.092969269528413"><ele>126.0</ele><time>2026-04-25T12:55:44Z</time></trkpt><trkpt lat="47.86639647829516" lon="1.0931138349326177"><ele>125.0</ele><time>2026-04-25T12:55:45Z</time></trkpt><trkpt lat="47.866375902664046" lon="1.09329495983583"><ele>124.0</ele><time>2026-04-25T12:55:46Z</time></trkpt><trkpt lat="47.86634957341079" lon="1.0934799648117204"><ele>123.0</ele><time>2026-04-25T12:55:47Z</time></trkpt><trkpt lat="47.86632793746377" lon="1.0936113772832274"><ele>122.0</ele><time>2026-04-25T12:55:48Z</time></trkpt><trkpt lat="47.866313785099415" lon="1.093759885340165"><ele>121.0</ele><time>2026-04-25T12:55:49Z</time></trkpt><trkpt lat="47.866278619472304" lon="1.0939522534734338"><ele>121.0</ele><time>2026-04-25T12:55:50Z</time></trkpt><trkpt lat="47.86623636608525" lon="1.0941685729054005"><ele>121.0</ele><time>2026-04-25T12:55:51Z</time></trkpt><trkpt lat="47.866192984912075" lon="1.0944159646966711"><ele>121.0</ele><time>2026-04-25T12:55:52Z</time></trkpt><trkpt lat="47.86616060823945" lon="1.094654515601101"><ele>121.0</ele><time>2026-04-25T12:55:53Z</time></trkpt><trkpt lat="47.86612549756992" lon="1.0948596299109983"><ele>121.0</ele><time>2026-04-25T12:55:54Z</time></trkpt><trkpt lat="47.86609204155595" lon="1.0950363586960157"><ele>121.0</ele><time>2026-04-25T12:55:55Z</time></trkpt><trkpt lat="47.866071590399706" lon="1.0951991593810937"><ele>121.0</ele><time>2026-04-25T12:55:56Z</time></trkpt><trkpt lat="47.86604185101072" lon="1.0953760970729425"><ele>121.6</ele><time>2026-04-25T12:55:57Z</time></trkpt><trkpt lat="47.86602113746375" lon="1.09552644672457"><ele>122.19999999999999</ele><time>2026-04-25T12:55:58Z</time></trkpt><trkpt lat="47.86599016028781" lon="1.095675673550155"><ele>122.80000000000001</ele><time>2026-04-25T12:55:59Z</time></trkpt><trkpt lat="47.86596900623646" lon="1.0958315445886115"><ele>123.4</ele><time>2026-04-25T12:56:00Z</time></trkpt><trkpt lat="47.86594855219429" lon="1.0959831881452342"><ele>124.0</ele><time>2026-04-25T12:56:01Z</time></trkpt><trkpt lat="47.865926787006394" lon="1.0961214585087584"><ele>127.0</ele><time>2026-04-25T12:56:02Z</time></trkpt><trkpt lat="47.8659037014717" lon="1.0962599501534853"><ele>130.0</ele><time>2026-04-25T12:56:03Z</time></trkpt><trkpt lat="47.86587458374581" lon="1.096430813465793"><ele>133.0</ele><time>2026-04-25T12:56:04Z</time></trkpt><trkpt lat="47.865839659607374" lon="1.0966485211568173"><ele>136.0</ele><time>2026-04-25T12:56:05Z</time></trkpt><trkpt lat="47.86579900376539" lon="1.096859541273853"><ele>136.33333333333334</ele><time>2026-04-25T12:56:06Z</time></trkpt><trkpt lat="47.865757195062834" lon="1.0970688505387975"><ele>136.66666666666666</ele><time>2026-04-25T12:56:07Z</time></trkpt><trkpt lat="47.86571042928932" lon="1.0973301853673625"><ele>137.0</ele><time>2026-04-25T12:56:08Z</time></trkpt><trkpt lat="47.86565812012562" lon="1.0976125131117576"><ele>137.0</ele><time>2026-04-25T12:56:09Z</time></trkpt><trkpt lat="47.86560410510886" lon="1.0978742155683514"><ele>137.0</ele><time>2026-04-25T12:56:10Z</time></trkpt><trkpt lat="47.86557180099382" lon="1.0980880233923151"><ele>137.0</ele><time>2026-04-25T12:56:11Z</time></trkpt><trkpt lat="47.86553551058667" lon="1.0982840697822438"><ele>136.79999999999998</ele><time>2026-04-25T12:56:12Z</time></trkpt><trkpt lat="47.86550420836806" lon="1.09846859470775"><ele>136.6</ele><time>2026-04-25T12:56:13Z</time></trkpt><trkpt lat="47.865474681421894" lon="1.0986275153595404"><ele>136.39999999999998</ele><time>2026-04-25T12:56:14Z</time></trkpt><trkpt lat="47.86545104245648" lon="1.0987791271450256"><ele>136.2</ele><time>2026-04-25T12:56:15Z</time></trkpt><trkpt lat="47.86542959002846" lon="1.098912325484228"><ele>136.0</ele><time>2026-04-25T12:56:16Z</time></trkpt><trkpt lat="47.865410767649266" lon="1.099040347999186"><ele>136.66666666666669</ele><time>2026-04-25T12:56:17Z</time></trkpt><trkpt lat="47.865395951919794" lon="1.0991453510630182"><ele>137.33333333333334</ele><time>2026-04-25T12:56:18Z</time></trkpt><trkpt lat="47.86537767891214" lon="1.0992679699542285"><ele>138.0</ele><time>2026-04-25T12:56:19Z</time></trkpt><trkpt lat="47.86536035450859" lon="1.099389735730872"><ele>138.66666666666666</ele><time>2026-04-25T12:56:20Z</time></trkpt><trkpt lat="47.865337906388156" lon="1.099506308419936"><ele>139.33333333333331</ele><time>2026-04-25T12:56:21Z</time></trkpt><trkpt lat="47.86532075552335" lon="1.0996229055977873"><ele>140.0</ele><time>2026-04-25T12:56:22Z</time></trkpt><trkpt lat="47.8652989767539" lon="1.0997583525824617"><ele>140.0</ele><time>2026-04-25T12:56:23Z</time></trkpt><trkpt lat="47.86528049964439" lon="1.099875944803422"><ele>140.0</ele><time>2026-04-25T12:56:24Z</time></trkpt><trkpt lat="47.86525972377687" lon="1.0999913165293596"><ele>140.0</ele><time>2026-04-25T12:56:25Z</time></trkpt><trkpt lat="47.86523438988072" lon="1.1001183128612757"><ele>140.0</ele><time>2026-04-25T12:56:26Z</time></trkpt><trkpt lat="47.86521654943999" lon="1.1002677249156667"><ele>140.0</ele><time>2026-04-25T12:56:27Z</time></trkpt><trkpt lat="47.86519236339717" lon="1.1004020212437107"><ele>140.0</ele><time>2026-04-25T12:56:28Z</time></trkpt><trkpt lat="47.865168233390925" lon="1.1005400286130214"><ele>140.6</ele><time>2026-04-25T12:56:29Z</time></trkpt><trkpt lat="47.86514860743061" lon="1.100684446976932"><ele>141.2</ele><time>2026-04-25T12:56:30Z</time></trkpt><trkpt lat="47.86513143103047" lon="1.1008170145262013"><ele>141.8</ele><time>2026-04-25T12:56:31Z</time></trkpt><trkpt lat="47.86510857690883" lon="1.1009579409091115"><ele>142.4</ele><time>2026-04-25T12:56:32Z</time></trkpt><trkpt lat="47.865084142771416" lon="1.101097417084628"><ele>143.0</ele><time>2026-04-25T12:56:33Z</time></trkpt><trkpt lat="47.86505502373323" lon="1.1012176247693712"><ele>143.0</ele><time>2026-04-25T12:56:34Z</time></trkpt><trkpt lat="47.865029163143454" lon="1.1013428728921704"><ele>143.0</ele><time>2026-04-25T12:56:35Z</time></trkpt><trkpt lat="47.865020777144814" lon="1.1014595835916023"><ele>143.0</ele><time>2026-04-25T12:56:36Z</time></trkpt><trkpt lat="47.86500478180977" lon="1.1015720941491407"><ele>143.0</ele><time>2026-04-25T12:56:38Z</time></trkpt><trkpt lat="47.865011745012424" lon="1.1014170419279237"><ele>143.0</ele><time>2026-04-25T12:56:52Z</time></trkpt><trkpt lat="47.86502432711159" lon="1.1012032206596778"><ele>143.0</ele><time>2026-04-25T12:56:54Z</time></trkpt><trkpt lat="47.86504228295137" lon="1.101103476609994"><ele>143.0</ele><time>2026-04-25T12:56:55Z</time></trkpt><trkpt lat="47.86504039484084" lon="1.100939687192403"><ele>143.0</ele><time>2026-04-25T12:56:57Z</time></trkpt><trkpt lat="47.86506320350224" lon="1.100792640171226"><ele>143.0</ele><time>2026-04-25T12:56:58Z</time></trkpt><trkpt lat="47.86508725931664" lon="1.100643358273591"><ele>143.0</ele><time>2026-04-25T12:56:59Z</time></trkpt><trkpt lat="47.86511859232815" lon="1.1004508158085162"><ele>143.0</ele><time>2026-04-25T12:57:00Z</time></trkpt><trkpt lat="47.86516065014947" lon="1.1002030890374639"><ele>143.0</ele><time>2026-04-25T12:57:01Z</time></trkpt><trkpt lat="47.86520046788939" lon="1.0999741526505933"><ele>143.0</ele><time>2026-04-25T12:57:02Z</time></trkpt><trkpt lat="47.86523056881473" lon="1.0997966275526854"><ele>142.4</ele><time>2026-04-25T12:57:03Z</time></trkpt><trkpt lat="47.865261216248065" lon="1.0996361612522"><ele>141.8</ele><time>2026-04-25T12:57:04Z</time></trkpt><trkpt lat="47.86528863840513" lon="1.0995008517397118"><ele>141.2</ele><time>2026-04-25T12:57:05Z</time></trkpt><trkpt lat="47.865319433234255" lon="1.0993731401706912"><ele>140.6</ele><time>2026-04-25T12:57:06Z</time></trkpt><trkpt lat="47.865346154962815" lon="1.099230810227754"><ele>140.0</ele><time>2026-04-25T12:57:07Z</time></trkpt><trkpt lat="47.86535999269851" lon="1.0990987792113738"><ele>139.33333333333331</ele><time>2026-04-25T12:57:08Z</time></trkpt><trkpt lat="47.86537357510429" lon="1.098971865228238"><ele>138.66666666666666</ele><time>2026-04-25T12:57:09Z</time></trkpt><trkpt lat="47.86540657226362" lon="1.0988541331255934"><ele>138.0</ele><time>2026-04-25T12:57:10Z</time></trkpt><trkpt lat="47.86541589925431" lon="1.098722994869279"><ele>137.33333333333334</ele><time>2026-04-25T12:57:11Z</time></trkpt><trkpt lat="47.86544328008994" lon="1.0985950092472263"><ele>136.66666666666669</ele><time>2026-04-25T12:57:12Z</time></trkpt><trkpt lat="47.86546573546255" lon="1.098480479380966"><ele>136.0</ele><time>2026-04-25T12:57:13Z</time></trkpt><trkpt lat="47.865482066768195" lon="1.0983755560464397"><ele>135.99999999999997</ele><time>2026-04-25T12:57:14Z</time></trkpt><trkpt lat="47.86550584506114" lon="1.098261627768062"><ele>136.0</ele><time>2026-04-25T12:57:15Z</time></trkpt><trkpt lat="47.86553204258238" lon="1.0981389030395796"><ele>136.0</ele><time>2026-04-25T12:57:16Z</time></trkpt><trkpt lat="47.865541005328645" lon="1.0980267231507752"><ele>136.0</ele><time>2026-04-25T12:57:17Z</time></trkpt><trkpt lat="47.86555756886889" lon="1.0979223588945606"><ele>136.0</ele><time>2026-04-25T12:57:18Z</time></trkpt><trkpt lat="47.86558400431663" lon="1.0978264479425905"><ele>135.99999999999997</ele><time>2026-04-25T12:57:19Z</time></trkpt><trkpt lat="47.86559673752326" lon="1.0977335169710585"><ele>136.0</ele><time>2026-04-25T12:57:20Z</time></trkpt><trkpt lat="47.86558335407011" lon="1.097597876037387"><ele>136.25</ele><time>2026-04-25T12:57:22Z</time></trkpt><trkpt lat="47.865530802271735" lon="1.0974751775299767"><ele>136.5</ele><time>2026-04-25T12:57:23Z</time></trkpt><trkpt lat="47.865447624035916" lon="1.0973302532188391"><ele>136.75</ele><time>2026-04-25T12:57:24Z</time></trkpt><trkpt lat="47.86535761129756" lon="1.0972046982808705"><ele>137.0</ele><time>2026-04-25T12:57:25Z</time></trkpt><trkpt lat="47.86525641596299" lon="1.097092576135968"><ele>137.0</ele><time>2026-04-25T12:57:26Z</time></trkpt><trkpt lat="47.86516635980156" lon="1.0969798300991884"><ele>137.0</ele><time>2026-04-25T12:57:27Z</time></trkpt><trkpt lat="47.86511697741305" lon="1.096896192525801"><ele>137.0</ele><time>2026-04-25T12:57:28Z</time></trkpt><trkpt lat="47.86506912401581" lon="1.0968226990959447"><ele>137.0</ele><time>2026-04-25T12:57:29Z</time></trkpt><trkpt lat="47.865008393495984" lon="1.0967403747977948"><ele>137.0</ele><time>2026-04-25T12:57:30Z</time></trkpt><trkpt lat="47.86495571384511" lon="1.096640256736027"><ele>137.0</ele><time>2026-04-25T12:57:31Z</time></trkpt><trkpt lat="47.86488427155007" lon="1.0965433063306007"><ele>136.6</ele><time>2026-04-25T12:57:32Z</time></trkpt><trkpt lat="47.864817342367765" lon="1.0964503278234359"><ele>136.2</ele><time>2026-04-25T12:57:33Z</time></trkpt><trkpt lat="47.86476927563158" lon="1.096386309445141"><ele>135.8</ele><time>2026-04-25T12:57:34Z</time></trkpt><trkpt lat="47.86475109200945" lon="1.0962262489955183"><ele>135.4</ele><time>2026-04-25T12:57:36Z</time></trkpt><trkpt lat="47.86474039421253" lon="1.0961175883691718"><ele>135.0</ele><time>2026-04-25T12:57:37Z</time></trkpt><trkpt lat="47.86473508226767" lon="1.0959495105846353"><ele>135.0</ele><time>2026-04-25T12:57:39Z</time></trkpt><trkpt lat="47.86472118568405" lon="1.0958514538323925"><ele>135.0</ele><time>2026-04-25T12:57:40Z</time></trkpt><trkpt lat="47.86470120081635" lon="1.0957096071529446"><ele>135.0</ele><time>2026-04-25T12:57:42Z</time></trkpt><trkpt lat="47.8646663792272" lon="1.0955411709752723"><ele>135.0</ele><time>2026-04-25T12:57:44Z</time></trkpt><trkpt lat="47.86464321149022" lon="1.0954429433521666"><ele>135.0</ele><time>2026-04-25T12:57:45Z</time></trkpt><trkpt lat="47.86459169810564" lon="1.0952917254157757"><ele>134.33333333333334</ele><time>2026-04-25T12:57:47Z</time></trkpt><trkpt lat="47.8644870630908" lon="1.0952014323905683"><ele>133.66666666666666</ele><time>2026-04-25T12:57:50Z</time></trkpt><trkpt lat="47.864417602861494" lon="1.0951840081855968"><ele>133.0</ele><time>2026-04-25T12:57:52Z</time></trkpt><trkpt lat="47.864357507255356" lon="1.0951222901151967"><ele>132.33333333333331</ele><time>2026-04-25T12:58:04Z</time></trkpt><trkpt lat="47.864295066661356" lon="1.095065086486778"><ele>131.66666666666666</ele><time>2026-04-25T12:58:05Z</time></trkpt><trkpt lat="47.86421825764532" lon="1.0949861509218948"><ele>131.0</ele><time>2026-04-25T12:58:06Z</time></trkpt><trkpt lat="47.86413362724142" lon="1.094905328271369"><ele>129.42857142857144</ele><time>2026-04-25T12:58:07Z</time></trkpt><trkpt lat="47.86405926233351" lon="1.0948452369146724"><ele>127.85714285714286</ele><time>2026-04-25T12:58:08Z</time></trkpt><trkpt lat="47.86400311719078" lon="1.0947974605545319"><ele>126.28571428571429</ele><time>2026-04-25T12:58:09Z</time></trkpt><trkpt lat="47.86394973802027" lon="1.0947429227943974"><ele>124.71428571428572</ele><time>2026-04-25T12:58:10Z</time></trkpt><trkpt lat="47.86388252024761" lon="1.0946881158809234"><ele>123.14285714285714</ele><time>2026-04-25T12:58:11Z</time></trkpt><trkpt lat="47.86381885549251" lon="1.094650430321327"><ele>121.57142857142858</ele><time>2026-04-25T12:58:12Z</time></trkpt><trkpt lat="47.86374988619475" lon="1.0946255836132075"><ele>120.0</ele><time>2026-04-25T12:58:13Z</time></trkpt><trkpt lat="47.863631084896944" lon="1.0946088519186026"><ele>120.0</ele><time>2026-04-25T12:58:15Z</time></trkpt><trkpt lat="47.86354723088791" lon="1.094579091334062"><ele>120.0</ele><time>2026-04-25T12:58:17Z</time></trkpt><trkpt lat="47.863503743837335" lon="1.0944801884183515"><ele>120.0</ele><time>2026-04-25T12:58:21Z</time></trkpt><trkpt lat="47.86354537410265" lon="1.0943979212019952"><ele>120.0</ele><time>2026-04-25T12:58:28Z</time></trkpt><trkpt lat="47.86362077398862" lon="1.0943062378042783"><ele>120.0</ele><time>2026-04-25T12:58:30Z</time></trkpt><trkpt lat="47.86384605434033" lon="1.0940414762055926"><ele>120.2</ele><time>2026-04-25T12:58:32Z</time></trkpt><trkpt lat="47.863979414481676" lon="1.0939023332978166"><ele>120.4</ele><time>2026-04-25T12:58:33Z</time></trkpt><trkpt lat="47.864047298209975" lon="1.0938318311188004"><ele>120.6</ele><time>2026-04-25T12:58:34Z</time></trkpt><trkpt lat="47.86411976633757" lon="1.09367442547476"><ele>120.8</ele><time>2026-04-25T12:58:36Z</time></trkpt><trkpt lat="47.86416931554668" lon="1.093744529992089"><ele>121.0</ele><time>2026-04-25T12:58:37Z</time></trkpt><trkpt lat="47.864316050933375" lon="1.093700728472145"><ele>121.0</ele><time>2026-04-25T12:58:38Z</time></trkpt><trkpt lat="47.86446420683996" lon="1.0936535944279917"><ele>121.0</ele><time>2026-04-25T12:58:39Z</time></trkpt><trkpt lat="47.86460320963122" lon="1.093608156024219"><ele>121.0</ele><time>2026-04-25T12:58:40Z</time></trkpt><trkpt lat="47.864758145507736" lon="1.09356870617548"><ele>121.0</ele><time>2026-04-25T12:58:41Z</time></trkpt><trkpt lat="47.86490283533929" lon="1.0935322106635008"><ele>121.0</ele><time>2026-04-25T12:58:42Z</time></trkpt><trkpt lat="47.8650646334249" lon="1.0935063242335537"><ele>121.0</ele><time>2026-04-25T12:58:43Z</time></trkpt><trkpt lat="47.8652091853786" lon="1.0934966058410251"><ele>121.0</ele><time>2026-04-25T12:58:44Z</time></trkpt><trkpt lat="47.865357283331214" lon="1.0934896976318305"><ele>121.0</ele><time>2026-04-25T12:58:45.001Z</time></trkpt><trkpt lat="47.86550715650152" lon="1.0934684650584445"><ele>121.0</ele><time>2026-04-25T12:58:46.001Z</time></trkpt><trkpt lat="47.865662968535965" lon="1.0934448843631532"><ele>121.0</ele><time>2026-04-25T12:58:47.001Z</time></trkpt><trkpt lat="47.865821808945164" lon="1.0934088345027058"><ele>121.0</ele><time>2026-04-25T12:58:48.001Z</time></trkpt><trkpt lat="47.86593127846538" lon="1.0933644498771131"><ele>121.0</ele><time>2026-04-25T12:58:49.001Z</time></trkpt><trkpt lat="47.86603107251765" lon="1.093329756619052"><ele>121.0</ele><time>2026-04-25T12:58:50.001Z</time></trkpt><trkpt lat="47.86610800339126" lon="1.093306029066941"><ele>121.83333333333334</ele><time>2026-04-25T12:58:51.001Z</time></trkpt><trkpt lat="47.8662103617901" lon="1.0932475441766971"><ele>122.66666666666667</ele><time>2026-04-25T12:58:53.001Z</time></trkpt><trkpt lat="47.866273696389875" lon="1.0931898636481252"><ele>123.5</ele><time>2026-04-25T12:58:54.001Z</time></trkpt><trkpt lat="47.86633383499428" lon="1.0931250396526084"><ele>124.33333333333334</ele><time>2026-04-25T12:58:55.001Z</time></trkpt><trkpt lat="47.86635228115752" lon="1.0929625667743443"><ele>125.16666666666667</ele><time>2026-04-25T12:58:57.001Z</time></trkpt><trkpt lat="47.8663005442408" lon="1.0930249694757725"><ele>126.0</ele><time>2026-04-25T13:09:25.999Z</time></trkpt><trkpt lat="47.86625999796123" lon="1.093127836716003"><ele>126.0</ele><time>2026-04-25T13:09:29Z</time></trkpt><trkpt lat="47.86618421139311" lon="1.0932228977535146"><ele>126.0</ele><time>2026-04-25T13:09:31Z</time></trkpt><trkpt lat="47.86609861065288" lon="1.093316378399618"><ele>126.0</ele><time>2026-04-25T13:09:34Z</time></trkpt><trkpt lat="47.866007767153185" lon="1.0933877951504898"><ele>126.0</ele><time>2026-04-25T13:09:36Z</time></trkpt><trkpt lat="47.86588938899317" lon="1.093391078489644"><ele>126.0</ele><time>2026-04-25T13:09:38Z</time></trkpt><trkpt lat="47.86581352058281" lon="1.0934058259908022"><ele>125.16666666666667</ele><time>2026-04-25T13:09:39Z</time></trkpt><trkpt lat="47.86574090982527" lon="1.0934503436065868"><ele>124.33333333333334</ele><time>2026-04-25T13:09:40Z</time></trkpt><trkpt lat="47.865656889288026" lon="1.0934887662222765"><ele>123.5</ele><time>2026-04-25T13:09:41Z</time></trkpt><trkpt lat="47.865575379122106" lon="1.0935087356241622"><ele>122.66666666666667</ele><time>2026-04-25T13:09:42Z</time></trkpt><trkpt lat="47.86548970924724" lon="1.0935336150031723"><ele>121.83333333333334</ele><time>2026-04-25T13:09:43Z</time></trkpt><trkpt lat="47.86541735901845" lon="1.0935482422457032"><ele>121.0</ele><time>2026-04-25T13:09:44Z</time></trkpt><trkpt lat="47.86533741654585" lon="1.093570223870542"><ele>121.00000000000001</ele><time>2026-04-25T13:09:45Z</time></trkpt><trkpt lat="47.86526784668288" lon="1.0935696638670225"><ele>121.0</ele><time>2026-04-25T13:09:46Z</time></trkpt><trkpt lat="47.86519539441042" lon="1.0935866281048734"><ele>121.0</ele><time>2026-04-25T13:09:47Z</time></trkpt><trkpt lat="47.8651241701708" lon="1.0935937891170087"><ele>121.0</ele><time>2026-04-25T13:09:48Z</time></trkpt><trkpt lat="47.86503914431617" lon="1.0936000481371426"><ele>121.00000000000001</ele><time>2026-04-25T13:09:49Z</time></trkpt><trkpt lat="47.86492580462703" lon="1.0936042542863178"><ele>121.0</ele><time>2026-04-25T13:09:51Z</time></trkpt><trkpt lat="47.86484190010863" lon="1.093657823987315"><ele>121.00000000000001</ele><time>2026-04-25T13:09:53Z</time></trkpt><trkpt lat="47.86476674894823" lon="1.0936687756719086"><ele>121.0</ele><time>2026-04-25T13:09:55Z</time></trkpt><trkpt lat="47.86470316018217" lon="1.093665301122908"><ele>121.0</ele><time>2026-04-25T13:09:57Z</time></trkpt><trkpt lat="47.86458220323975" lon="1.0936784410400158"><ele>121.0</ele><time>2026-04-25T13:09:59Z</time></trkpt><trkpt lat="47.86449391722657" lon="1.0937107600329967"><ele>121.00000000000001</ele><time>2026-04-25T13:10:00Z</time></trkpt><trkpt lat="47.864423729206884" lon="1.0937449217300337"><ele>121.0</ele><time>2026-04-25T13:10:01Z</time></trkpt><trkpt lat="47.86435520460449" lon="1.093775076388303"><ele>121.19999999999999</ele><time>2026-04-25T13:10:02Z</time></trkpt><trkpt lat="47.86427477449909" lon="1.0937924769348706"><ele>121.39999999999999</ele><time>2026-04-25T13:10:03Z</time></trkpt><trkpt lat="47.864186297773145" lon="1.0938116343894675"><ele>121.6</ele><time>2026-04-25T13:10:04Z</time></trkpt><trkpt lat="47.8640843520793" lon="1.0938729024380418"><ele>121.8</ele><time>2026-04-25T13:10:05Z</time></trkpt><trkpt lat="47.86398792270561" lon="1.0939601364267375"><ele>122.0</ele><time>2026-04-25T13:10:06Z</time></trkpt><trkpt lat="47.86390366735871" lon="1.0940588909738984"><ele>121.66666666666666</ele><time>2026-04-25T13:10:07Z</time></trkpt><trkpt lat="47.8638267382426" lon="1.0941485486668179"><ele>121.33333333333333</ele><time>2026-04-25T13:10:08Z</time></trkpt><trkpt lat="47.863736518726874" lon="1.094230794961728"><ele>121.0</ele><time>2026-04-25T13:10:09Z</time></trkpt><trkpt lat="47.863652418642694" lon="1.0942879605620537"><ele>120.66666666666666</ele><time>2026-04-25T13:10:10Z</time></trkpt><trkpt lat="47.86359130456107" lon="1.0943509977482806"><ele>120.33333333333333</ele><time>2026-04-25T13:10:11Z</time></trkpt><trkpt lat="47.86352757706563" lon="1.0944174507904243"><ele>120.0</ele><time>2026-04-25T13:10:12Z</time></trkpt><trkpt lat="47.863473169686145" lon="1.0945314166498457"><ele>119.16666666666667</ele><time>2026-04-25T13:10:14Z</time></trkpt><trkpt lat="47.86339111791624" lon="1.0945784336016928"><ele>118.33333333333334</ele><time>2026-04-25T13:10:23Z</time></trkpt><trkpt lat="47.86331610582438" lon="1.0945846110935213"><ele>117.5</ele><time>2026-04-25T13:10:25Z</time></trkpt><trkpt lat="47.86322028369585" lon="1.0946182467738987"><ele>116.66666666666667</ele><time>2026-04-25T13:10:27Z</time></trkpt><trkpt lat="47.863150081472234" lon="1.0946608970537297"><ele>115.83333333333334</ele><time>2026-04-25T13:10:28Z</time></trkpt><trkpt lat="47.86306736009793" lon="1.0946981118153811"><ele>115.0</ele><time>2026-04-25T13:10:29Z</time></trkpt><trkpt lat="47.86299959851475" lon="1.0947478730083928"><ele>115.0</ele><time>2026-04-25T13:10:30Z</time></trkpt><trkpt lat="47.86290589749252" lon="1.0948674095920243"><ele>115.0</ele><time>2026-04-25T13:10:32Z</time></trkpt><trkpt lat="47.86281333453829" lon="1.0949805718943093"><ele>115.0</ele><time>2026-04-25T13:10:34Z</time></trkpt><trkpt lat="47.862768043961964" lon="1.0950921071199973"><ele>115.0</ele><time>2026-04-25T13:10:36Z</time></trkpt><trkpt lat="47.86271879186564" lon="1.0952136220666313"><ele>115.0</ele><time>2026-04-25T13:10:38Z</time></trkpt><trkpt lat="47.86267046372841" lon="1.0953209472398961"><ele>115.50000000000001</ele><time>2026-04-25T13:10:41Z</time></trkpt><trkpt lat="47.8626209888709" lon="1.095395712706567"><ele>116.0</ele><time>2026-04-25T13:10:44Z</time></trkpt><trkpt lat="47.86254404438269" lon="1.0955096640796025"><ele>116.5</ele><time>2026-04-25T13:10:46Z</time></trkpt><trkpt lat="47.86249048841921" lon="1.095566274017028"><ele>117.0</ele><time>2026-04-25T13:10:47Z</time></trkpt><trkpt lat="47.86243449325317" lon="1.095677079434813"><ele>117.50000000000001</ele><time>2026-04-25T13:10:48Z</time></trkpt><trkpt lat="47.862377177084596" lon="1.0957906410351943"><ele>118.0</ele><time>2026-04-25T13:10:49Z</time></trkpt><trkpt lat="47.86231350665206" lon="1.0958840886044559"><ele>118.00000000000001</ele><time>2026-04-25T13:10:50Z</time></trkpt><trkpt lat="47.86225901998118" lon="1.0959663332315739"><ele>118.0</ele><time>2026-04-25T13:10:51Z</time></trkpt><trkpt lat="47.86219185237831" lon="1.0960658692498295"><ele>118.0</ele><time>2026-04-25T13:10:52Z</time></trkpt><trkpt lat="47.862128745172555" lon="1.0961402904523752"><ele>118.0</ele><time>2026-04-25T13:10:53Z</time></trkpt><trkpt lat="47.86207199431155" lon="1.096223381731231"><ele>118.00000000000001</ele><time>2026-04-25T13:10:54Z</time></trkpt><trkpt lat="47.86202670991859" lon="1.0963204390359615"><ele>118.0</ele><time>2026-04-25T13:10:55Z</time></trkpt><trkpt lat="47.86196178060684" lon="1.0964677840481114"><ele>118.0</ele><time>2026-04-25T13:10:57Z</time></trkpt><trkpt lat="47.86190033232405" lon="1.0965585155537614"><ele>118.00000000000001</ele><time>2026-04-25T13:10:59Z</time></trkpt><trkpt lat="47.861826501500886" lon="1.0966268915281008"><ele>118.00000000000001</ele><time>2026-04-25T13:11:01Z</time></trkpt><trkpt lat="47.86173620234226" lon="1.0967080160436482"><ele>118.0</ele><time>2026-04-25T13:11:03Z</time></trkpt><trkpt lat="47.861641463373736" lon="1.0967901194721896"><ele>118.0</ele><time>2026-04-25T13:11:05Z</time></trkpt><trkpt lat="47.861599594053025" lon="1.0968634223323264"><ele>117.71428571428571</ele><time>2026-04-25T13:11:06Z</time></trkpt><trkpt lat="47.861552771168284" lon="1.096929077980097"><ele>117.42857142857144</ele><time>2026-04-25T13:11:07Z</time></trkpt><trkpt lat="47.86150424816567" lon="1.0970071333584657"><ele>117.14285714285715</ele><time>2026-04-25T13:11:08Z</time></trkpt><trkpt lat="47.86145156133467" lon="1.0970894359536687"><ele>116.85714285714286</ele><time>2026-04-25T13:11:09Z</time></trkpt><trkpt lat="47.861394202666" lon="1.0971456345674993"><ele>116.57142857142858</ele><time>2026-04-25T13:11:10Z</time></trkpt><trkpt lat="47.86132725514717" lon="1.0971932006277783"><ele>116.2857142857143</ele><time>2026-04-25T13:11:11Z</time></trkpt><trkpt lat="47.861251077170415" lon="1.0972412975737407"><ele>116.00000000000001</ele><time>2026-04-25T13:11:12Z</time></trkpt><trkpt lat="47.861162663269646" lon="1.0973125506500732"><ele>116.0</ele><time>2026-04-25T13:11:13Z</time></trkpt><trkpt lat="47.86106096180179" lon="1.0973869141800803"><ele>116.0</ele><time>2026-04-25T13:11:14Z</time></trkpt><trkpt lat="47.8609630618443" lon="1.09746985492468"><ele>116.0</ele><time>2026-04-25T13:11:15Z</time></trkpt><trkpt lat="47.86089461406019" lon="1.0975404273076612"><ele>116.0</ele><time>2026-04-25T13:11:16Z</time></trkpt><trkpt lat="47.86082550698618" lon="1.0975705417783561"><ele>116.0</ele><time>2026-04-25T13:11:17Z</time></trkpt><trkpt lat="47.86075615953698" lon="1.097610002518427"><ele>115.83333333333333</ele><time>2026-04-25T13:11:18Z</time></trkpt><trkpt lat="47.86068349088475" lon="1.0976445654910831"><ele>115.66666666666666</ele><time>2026-04-25T13:11:19Z</time></trkpt><trkpt lat="47.86062044310416" lon="1.097675942821999"><ele>115.5</ele><time>2026-04-25T13:11:20Z</time></trkpt><trkpt lat="47.86056617873516" lon="1.0977471908776866"><ele>115.33333333333334</ele><time>2026-04-25T13:11:21Z</time></trkpt><trkpt lat="47.8605182571423" lon="1.097809520922287"><ele>115.16666666666667</ele><time>2026-04-25T13:11:22Z</time></trkpt><trkpt lat="47.860448163674654" lon="1.0978805092846313"><ele>115.0</ele><time>2026-04-25T13:11:23Z</time></trkpt><trkpt lat="47.86037061178227" lon="1.0979551654328719"><ele>115.0</ele><time>2026-04-25T13:11:24Z</time></trkpt><trkpt lat="47.86026642520026" lon="1.0980180861082354"><ele>115.0</ele><time>2026-04-25T13:11:25Z</time></trkpt><trkpt lat="47.86014493564604" lon="1.0980968755573246"><ele>115.0</ele><time>2026-04-25T13:11:26Z</time></trkpt><trkpt lat="47.860040009548904" lon="1.0981595813990923"><ele>115.0</ele><time>2026-04-25T13:11:27Z</time></trkpt><trkpt lat="47.85995159009871" lon="1.098205570405665"><ele>114.66666666666667</ele><time>2026-04-25T13:11:28Z</time></trkpt><trkpt lat="47.85986676870113" lon="1.0982494747062825"><ele>114.33333333333334</ele><time>2026-04-25T13:11:29Z</time></trkpt><trkpt lat="47.85978853804057" lon="1.09829881895607"><ele>114.0</ele><time>2026-04-25T13:11:30Z</time></trkpt><trkpt lat="47.85972591156831" lon="1.09832827263895"><ele>113.66666666666666</ele><time>2026-04-25T13:11:31Z</time></trkpt><trkpt lat="47.859621674296214" lon="1.0983786920395384"><ele>113.33333333333333</ele><time>2026-04-25T13:11:33Z</time></trkpt><trkpt lat="47.859533235590455" lon="1.0984227700413143"><ele>113.0</ele><time>2026-04-25T13:11:35Z</time></trkpt><trkpt lat="47.85944904457601" lon="1.098429649697244"><ele>112.99999999999999</ele><time>2026-04-25T13:11:37Z</time></trkpt><trkpt lat="47.859350415436545" lon="1.0985087739135826"><ele>113.0</ele><time>2026-04-25T13:11:39Z</time></trkpt><trkpt lat="47.859267287458785" lon="1.098573507526861"><ele>113.0</ele><time>2026-04-25T13:11:41Z</time></trkpt><trkpt lat="47.85921388330938" lon="1.0986358298020173"><ele>113.0</ele><time>2026-04-25T13:11:44Z</time></trkpt><trkpt lat="47.85914952258569" lon="1.0987458782123551"><ele>112.99999999999999</ele><time>2026-04-25T13:11:53Z</time></trkpt><trkpt lat="47.859099320567566" lon="1.09882078511421"><ele>113.0</ele><time>2026-04-25T13:11:54Z</time></trkpt><trkpt lat="47.85903096470652" lon="1.0989114028811233"><ele>112.66666666666666</ele><time>2026-04-25T13:11:55Z</time></trkpt><trkpt lat="47.85898601522767" lon="1.0989967030476981"><ele>112.33333333333333</ele><time>2026-04-25T13:11:56Z</time></trkpt><trkpt lat="47.858938483767446" lon="1.099121560035661"><ele>112.0</ele><time>2026-04-25T13:11:58Z</time></trkpt><trkpt lat="47.858872415478785" lon="1.0990665093781187"><ele>111.66666666666666</ele><time>2026-04-25T13:12:04Z</time></trkpt><trkpt lat="47.8588820170151" lon="1.098964470349205"><ele>111.33333333333333</ele><time>2026-04-25T13:12:06Z</time></trkpt><trkpt lat="47.85883869428421" lon="1.098816211921455"><ele>111.0</ele><time>2026-04-25T13:12:08Z</time></trkpt><trkpt lat="47.85883932182518" lon="1.0987042728655034"><ele>111.0</ele><time>2026-04-25T13:12:09Z</time></trkpt><trkpt lat="47.85881459591409" lon="1.0985870451132007"><ele>111.0</ele><time>2026-04-25T13:12:11Z</time></trkpt><trkpt lat="47.85879512410481" lon="1.0984942806443156"><ele>111.0</ele><time>2026-04-25T13:12:15Z</time></trkpt><trkpt lat="47.85877932783825" lon="1.0983020633996516"><ele>111.0</ele><time>2026-04-25T13:12:30Z</time></trkpt><trkpt lat="47.858764746669266" lon="1.0981687777269846"><ele>111.0</ele><time>2026-04-25T13:12:31Z</time></trkpt><trkpt lat="47.85875890323666" lon="1.0980533645485868"><ele>111.0</ele><time>2026-04-25T13:12:32Z</time></trkpt><trkpt lat="47.85872840627623" lon="1.0979634721094775"><ele>111.5</ele><time>2026-04-25T13:12:33Z</time></trkpt><trkpt lat="47.85867836100517" lon="1.0978751067965986"><ele>112.0</ele><time>2026-04-25T13:12:34Z</time></trkpt><trkpt lat="47.85861802736752" lon="1.097794207959988"><ele>112.5</ele><time>2026-04-25T13:12:35Z</time></trkpt><trkpt lat="47.858554967214346" lon="1.097702723134763"><ele>113.0</ele><time>2026-04-25T13:12:36Z</time></trkpt><trkpt lat="47.85848439055921" lon="1.0976223028822933"><ele>113.5</ele><time>2026-04-25T13:12:37Z</time></trkpt><trkpt lat="47.858411888254835" lon="1.0975650330162703"><ele>114.0</ele><time>2026-04-25T13:12:38Z</time></trkpt><trkpt lat="47.85831596145663" lon="1.0975232064985274"><ele>114.83333333333333</ele><time>2026-04-25T13:12:39Z</time></trkpt><trkpt lat="47.858203898310855" lon="1.0974716674417282"><ele>115.66666666666666</ele><time>2026-04-25T13:12:40Z</time></trkpt><trkpt lat="47.858103113679185" lon="1.0974288542976707"><ele>116.5</ele><time>2026-04-25T13:12:41Z</time></trkpt><trkpt lat="47.85802615156394" lon="1.0973887935124522"><ele>117.33333333333333</ele><time>2026-04-25T13:12:42Z</time></trkpt><trkpt lat="47.85796250260212" lon="1.0973424447839557"><ele>118.16666666666666</ele><time>2026-04-25T13:12:43Z</time></trkpt><trkpt lat="47.85791043828207" lon="1.0972875212035158"><ele>119.0</ele><time>2026-04-25T13:12:44Z</time></trkpt><trkpt lat="47.8578207684347" lon="1.097310620008106"><ele>119.0</ele><time>2026-04-25T13:12:46Z</time></trkpt><trkpt lat="47.85776311643145" lon="1.0973861008092198"><ele>119.0</ele><time>2026-04-25T13:12:47Z</time></trkpt><trkpt lat="47.85768645389355" lon="1.0974941912350036"><ele>119.0</ele><time>2026-04-25T13:12:49Z</time></trkpt><trkpt lat="47.85762499160901" lon="1.0975751506960525"><ele>119.0</ele><time>2026-04-25T13:12:50Z</time></trkpt><trkpt lat="47.85755811996353" lon="1.097645376539864"><ele>119.0</ele><time>2026-04-25T13:12:51Z</time></trkpt><trkpt lat="47.85747778136132" lon="1.0977713310910482"><ele>118.80000000000001</ele><time>2026-04-25T13:12:53Z</time></trkpt><trkpt lat="47.85741703588304" lon="1.0978981919523827"><ele>118.60000000000001</ele><time>2026-04-25T13:12:55Z</time></trkpt><trkpt lat="47.85738545522081" lon="1.098079051908913"><ele>118.4</ele><time>2026-04-25T13:12:57Z</time></trkpt><trkpt lat="47.857376082115394" lon="1.0981893745888487"><ele>118.2</ele><time>2026-04-25T13:12:58Z</time></trkpt><trkpt lat="47.85736838912132" lon="1.0982841378994526"><ele>118.0</ele><time>2026-04-25T13:12:59Z</time></trkpt><trkpt lat="47.857362847341484" lon="1.0984581008822896"><ele>118.00000000000001</ele><time>2026-04-25T13:13:01Z</time></trkpt><trkpt lat="47.857348579645105" lon="1.0986441729260519"><ele>118.0</ele><time>2026-04-25T13:13:03Z</time></trkpt><trkpt lat="47.85733314050438" lon="1.0987374394880098"><ele>118.0</ele><time>2026-04-25T13:13:04Z</time></trkpt><trkpt lat="47.85730752398197" lon="1.0988391103757182"><ele>118.0</ele><time>2026-04-25T13:13:05Z</time></trkpt><trkpt lat="47.85728525601042" lon="1.098939193146555"><ele>118.00000000000001</ele><time>2026-04-25T13:13:06Z</time></trkpt><trkpt lat="47.85725532588124" lon="1.0990647176747221"><ele>118.0</ele><time>2026-04-25T13:13:07Z</time></trkpt><trkpt lat="47.85720331930076" lon="1.099246593199563"><ele>118.25</ele><time>2026-04-25T13:13:08Z</time></trkpt><trkpt lat="47.857135638020374" lon="1.0994468040107443"><ele>118.5</ele><time>2026-04-25T13:13:09Z</time></trkpt><trkpt lat="47.85704469565965" lon="1.0996031924051528"><ele>118.75</ele><time>2026-04-25T13:13:10.001Z</time></trkpt><trkpt lat="47.85694281297976" lon="1.0997354244071902"><ele>119.0</ele><time>2026-04-25T13:13:11.001Z</time></trkpt><trkpt lat="47.85684741975064" lon="1.099845195213417"><ele>117.80000000000001</ele><time>2026-04-25T13:13:12.001Z</time></trkpt><trkpt lat="47.856761990412906" lon="1.0999367234831021"><ele>116.60000000000001</ele><time>2026-04-25T13:13:13.001Z</time></trkpt><trkpt lat="47.85667678128294" lon="1.1000106257457944"><ele>115.4</ele><time>2026-04-25T13:13:14.001Z</time></trkpt><trkpt lat="47.85659812414387" lon="1.1000811786804776"><ele>114.2</ele><time>2026-04-25T13:13:15.001Z</time></trkpt><trkpt lat="47.856518071117954" lon="1.1001475822179216"><ele>113.0</ele><time>2026-04-25T13:13:16.001Z</time></trkpt><trkpt lat="47.85644157874717" lon="1.100227533419024"><ele>112.99999999999999</ele><time>2026-04-25T13:13:17.001Z</time></trkpt><trkpt lat="47.85636797742599" lon="1.1003103038804802"><ele>113.0</ele><time>2026-04-25T13:13:18.001Z</time></trkpt><trkpt lat="47.85630826601051" lon="1.1003923054020126"><ele>113.0</ele><time>2026-04-25T13:13:19.001Z</time></trkpt><trkpt lat="47.8562496441228" lon="1.1004649714790529"><ele>113.0</ele><time>2026-04-25T13:13:20.001Z</time></trkpt><trkpt lat="47.85619523935146" lon="1.1005396827777307"><ele>112.99999999999999</ele><time>2026-04-25T13:13:21.001Z</time></trkpt><trkpt lat="47.8561456304496" lon="1.1006171298775946"><ele>113.0</ele><time>2026-04-25T13:13:22.001Z</time></trkpt><trkpt lat="47.856097923698826" lon="1.1007028993080001"><ele>113.33333333333333</ele><time>2026-04-25T13:13:23.001Z</time></trkpt><trkpt lat="47.85605311679888" lon="1.1007798375479314"><ele>113.66666666666666</ele><time>2026-04-25T13:13:24.001Z</time></trkpt><trkpt lat="47.856026354247625" lon="1.1008687589504405"><ele>114.0</ele><time>2026-04-25T13:13:25.001Z</time></trkpt><trkpt lat="47.85599726924759" lon="1.1010551851288735"><ele>114.33333333333334</ele><time>2026-04-25T13:13:27Z</time></trkpt><trkpt lat="47.855995205586176" lon="1.1011495949790542"><ele>114.66666666666667</ele><time>2026-04-25T13:13:28Z</time></trkpt><trkpt lat="47.85599493350277" lon="1.1012481906393627"><ele>115.0</ele><time>2026-04-25T13:13:29Z</time></trkpt><trkpt lat="47.85602018836575" lon="1.101430967921876"><ele>115.00000000000001</ele><time>2026-04-25T13:13:31Z</time></trkpt><trkpt lat="47.8560363450967" lon="1.101534892547615"><ele>115.0</ele><time>2026-04-25T13:13:32Z</time></trkpt><trkpt lat="47.856063528320725" lon="1.1016334144194833"><ele>115.0</ele><time>2026-04-25T13:13:33Z</time></trkpt><trkpt lat="47.85609398382374" lon="1.1017384618723545"><ele>115.0</ele><time>2026-04-25T13:13:34Z</time></trkpt><trkpt lat="47.85611500716895" lon="1.1018469264911912"><ele>115.00000000000001</ele><time>2026-04-25T13:13:35Z</time></trkpt><trkpt lat="47.85609345301136" lon="1.1020181036762438"><ele>115.0</ele><time>2026-04-25T13:13:37Z</time></trkpt><trkpt lat="47.85603906570536" lon="1.1020929660007874"><ele>114.75</ele><time>2026-04-25T13:13:38Z</time></trkpt><trkpt lat="47.8559554931466" lon="1.1021959053971535"><ele>114.5</ele><time>2026-04-25T13:13:39Z</time></trkpt><trkpt lat="47.85583787515012" lon="1.1023676534064413"><ele>114.25</ele><time>2026-04-25T13:13:40Z</time></trkpt><trkpt lat="47.855712558419334" lon="1.1025363986157366"><ele>114.0</ele><time>2026-04-25T13:13:41Z</time></trkpt><trkpt lat="47.85556518136213" lon="1.1027209320834896"><ele>113.66666666666666</ele><time>2026-04-25T13:13:42Z</time></trkpt><trkpt lat="47.85542896080582" lon="1.1028868691005063"><ele>113.33333333333333</ele><time>2026-04-25T13:13:43Z</time></trkpt><trkpt lat="47.85530359606458" lon="1.103044500741985"><ele>113.0</ele><time>2026-04-25T13:13:44Z</time></trkpt><trkpt lat="47.85519999193871" lon="1.103196478627349"><ele>111.33333333333333</ele><time>2026-04-25T13:13:45Z</time></trkpt><trkpt lat="47.85507039918399" lon="1.1033796539557603"><ele>109.66666666666666</ele><time>2026-04-25T13:13:46Z</time></trkpt><trkpt lat="47.854933154663236" lon="1.1035751845055106"><ele>108.0</ele><time>2026-04-25T13:13:47Z</time></trkpt><trkpt lat="47.85481608424748" lon="1.1037542640185285"><ele>108.0</ele><time>2026-04-25T13:13:48Z</time></trkpt><trkpt lat="47.85471751118048" lon="1.1039096462343787"><ele>108.0</ele><time>2026-04-25T13:13:49Z</time></trkpt><trkpt lat="47.854631532709455" lon="1.1040553719131465"><ele>108.0</ele><time>2026-04-25T13:13:50Z</time></trkpt><trkpt lat="47.854549943130195" lon="1.1042015824624085"><ele>108.0</ele><time>2026-04-25T13:13:51Z</time></trkpt><trkpt lat="47.8544660830398" lon="1.1043632491788882"><ele>108.33333333333334</ele><time>2026-04-25T13:13:52Z</time></trkpt><trkpt lat="47.85438041554688" lon="1.1045581889384708"><ele>108.66666666666667</ele><time>2026-04-25T13:13:53Z</time></trkpt><trkpt lat="47.854300179350865" lon="1.1047691540814257"><ele>109.0</ele><time>2026-04-25T13:13:54Z</time></trkpt><trkpt lat="47.85423487576268" lon="1.10495139384419"><ele>109.0</ele><time>2026-04-25T13:13:55Z</time></trkpt><trkpt lat="47.85415356132682" lon="1.1051746258991115"><ele>109.0</ele><time>2026-04-25T13:13:56Z</time></trkpt><trkpt lat="47.85406321851193" lon="1.1054189964627519"><ele>109.0</ele><time>2026-04-25T13:13:57Z</time></trkpt><trkpt lat="47.854009213046844" lon="1.1056234953435646"><ele>108.4</ele><time>2026-04-25T13:13:58Z</time></trkpt><trkpt lat="47.85397538213467" lon="1.1057763620623666"><ele>107.80000000000001</ele><time>2026-04-25T13:13:59Z</time></trkpt><trkpt lat="47.85396784701045" lon="1.105916709153459"><ele>107.19999999999999</ele><time>2026-04-25T13:14:00Z</time></trkpt><trkpt lat="47.854006595868945" lon="1.1060390678930059"><ele>106.6</ele><time>2026-04-25T13:14:01Z</time></trkpt><trkpt lat="47.85404761615476" lon="1.1062025344155968"><ele>106.0</ele><time>2026-04-25T13:14:02Z</time></trkpt><trkpt lat="47.8541305171356" lon="1.106419416045333"><ele>105.5</ele><time>2026-04-25T13:14:03Z</time></trkpt><trkpt lat="47.854206801838615" lon="1.1066717436968778"><ele>105.0</ele><time>2026-04-25T13:14:04Z</time></trkpt><trkpt lat="47.85426461656979" lon="1.1068801467013645"><ele>104.5</ele><time>2026-04-25T13:14:05Z</time></trkpt><trkpt lat="47.85430458322167" lon="1.1070178813340674"><ele>104.0</ele><time>2026-04-25T13:14:06Z</time></trkpt><trkpt lat="47.85435509870687" lon="1.1071401412530766"><ele>104.0</ele><time>2026-04-25T13:14:07Z</time></trkpt><trkpt lat="47.85441943703798" lon="1.1072418385077158"><ele>104.0</ele><time>2026-04-25T13:14:08Z</time></trkpt><trkpt lat="47.85450694933337" lon="1.107316125530843"><ele>104.0</ele><time>2026-04-25T13:14:09Z</time></trkpt><trkpt lat="47.854605495743435" lon="1.107378502592785"><ele>104.0</ele><time>2026-04-25T13:14:10Z</time></trkpt><trkpt lat="47.854694874702204" lon="1.1074438824796318"><ele>104.0</ele><time>2026-04-25T13:14:11Z</time></trkpt><trkpt lat="47.8547843865589" lon="1.107509871353271"><ele>103.33333333333333</ele><time>2026-04-25T13:14:12Z</time></trkpt><trkpt lat="47.85486524539796" lon="1.1075713770670013"><ele>102.66666666666666</ele><time>2026-04-25T13:14:13Z</time></trkpt><trkpt lat="47.85494782342624" lon="1.1076254547187316"><ele>102.0</ele><time>2026-04-25T13:14:14Z</time></trkpt><trkpt lat="47.8550291824024" lon="1.1076825474087357"><ele>101.33333333333334</ele><time>2026-04-25T13:14:15Z</time></trkpt><trkpt lat="47.855105821609854" lon="1.1077482550675006"><ele>100.66666666666667</ele><time>2026-04-25T13:14:16Z</time></trkpt><trkpt lat="47.855176358861335" lon="1.1078108483788096"><ele>100.0</ele><time>2026-04-25T13:14:17Z</time></trkpt><trkpt lat="47.85525255232895" lon="1.1078742638087333"><ele>100.0</ele><time>2026-04-25T13:14:18Z</time></trkpt><trkpt lat="47.85533221836467" lon="1.1079230179033637"><ele>100.0</ele><time>2026-04-25T13:14:19Z</time></trkpt><trkpt lat="47.85541679520812" lon="1.107972479957589"><ele>100.0</ele><time>2026-04-25T13:14:20Z</time></trkpt><trkpt lat="47.855502508378" lon="1.108018529719112"><ele>100.0</ele><time>2026-04-25T13:14:21Z</time></trkpt><trkpt lat="47.855590524566495" lon="1.108061832185376"><ele>100.0</ele><time>2026-04-25T13:14:22.001Z</time></trkpt><trkpt lat="47.85568415156665" lon="1.1081063598687144"><ele>100.0</ele><time>2026-04-25T13:14:23.001Z</time></trkpt><trkpt lat="47.855805727363595" lon="1.1081647293532226"><ele>100.0</ele><time>2026-04-25T13:14:24.001Z</time></trkpt><trkpt lat="47.85592512639093" lon="1.1082186497309456"><ele>100.0</ele><time>2026-04-25T13:14:25.001Z</time></trkpt><trkpt lat="47.85602606189431" lon="1.1082630085815064"><ele>100.0</ele><time>2026-04-25T13:14:26.001Z</time></trkpt><trkpt lat="47.85610750375752" lon="1.1083026864094996"><ele>100.0</ele><time>2026-04-25T13:14:27.001Z</time></trkpt><trkpt lat="47.85617742552839" lon="1.1083555882400133"><ele>99.66666666666667</ele><time>2026-04-25T13:14:28.001Z</time></trkpt><trkpt lat="47.856254491098014" lon="1.1084800359839124"><ele>99.33333333333334</ele><time>2026-04-25T13:14:30.001Z</time></trkpt><trkpt lat="47.85628361815953" lon="1.1085635957410165"><ele>99.0</ele><time>2026-04-25T13:14:32.001Z</time></trkpt><trkpt lat="47.85622711025946" lon="1.1086192931227965"><ele>98.66666666666666</ele><time>2026-04-25T13:14:51.001Z</time></trkpt><trkpt lat="47.856150639093784" lon="1.1086788836796262"><ele>98.33333333333333</ele><time>2026-04-25T13:14:53.001Z</time></trkpt><trkpt lat="47.856039771633384" lon="1.1087128902601058"><ele>98.0</ele><time>2026-04-25T13:14:55.001Z</time></trkpt><trkpt lat="47.85597660984644" lon="1.1087400363509947"><ele>97.2</ele><time>2026-04-25T13:14:56.001Z</time></trkpt><trkpt lat="47.85588187582492" lon="1.1087624041171495"><ele>96.4</ele><time>2026-04-25T13:14:57.001Z</time></trkpt><trkpt lat="47.85578840474163" lon="1.1087903272764077"><ele>95.60000000000001</ele><time>2026-04-25T13:14:58.001Z</time></trkpt><trkpt lat="47.85571414655288" lon="1.108819664137895"><ele>94.80000000000001</ele><time>2026-04-25T13:14:59.001Z</time></trkpt><trkpt lat="47.85562109624482" lon="1.1088861584954914"><ele>94.0</ele><time>2026-04-25T13:15:01.001Z</time></trkpt><trkpt lat="47.85562981159651" lon="1.1091288346449255"><ele>93.83333333333333</ele><time>2026-04-25T13:15:04.001Z</time></trkpt><trkpt lat="47.85567419012825" lon="1.1092108300051007"><ele>93.66666666666666</ele><time>2026-04-25T13:15:05.001Z</time></trkpt><trkpt lat="47.85572107676548" lon="1.1093064822208647"><ele>93.5</ele><time>2026-04-25T13:15:06.001Z</time></trkpt><trkpt lat="47.855754863343066" lon="1.1093957814712954"><ele>93.33333333333333</ele><time>2026-04-25T13:15:07.001Z</time></trkpt><trkpt lat="47.85576023390098" lon="1.1095328415094892"><ele>93.16666666666667</ele><time>2026-04-25T13:15:09.001Z</time></trkpt><trkpt lat="47.85573468348815" lon="1.1096352282206843"><ele>93.0</ele><time>2026-04-25T13:15:11.001Z</time></trkpt><trkpt lat="47.85573527563711" lon="1.1097532599215967"><ele>93.0</ele><time>2026-04-25T13:15:14.001Z</time></trkpt><trkpt lat="47.85579151452764" lon="1.1097960615095037"><ele>93.0</ele><time>2026-04-25T13:15:16.001Z</time></trkpt><trkpt lat="47.85584459334008" lon="1.1098702974151282"><ele>93.0</ele><time>2026-04-25T13:15:20.001Z</time></trkpt><trkpt lat="47.85591228045072" lon="1.1099199293635285"><ele>93.0</ele><time>2026-04-25T13:15:22.001Z</time></trkpt><trkpt lat="47.85599605555457" lon="1.1099679855749924"><ele>93.0</ele><time>2026-04-25T13:15:23.001Z</time></trkpt><trkpt lat="47.856087789619586" lon="1.1100341634630635"><ele>93.0</ele><time>2026-04-25T13:15:24.001Z</time></trkpt><trkpt lat="47.856166331110465" lon="1.1101112128199477"><ele>94.2</ele><time>2026-04-25T13:15:25.001Z</time></trkpt><trkpt lat="47.85625304184307" lon="1.1101958204860154"><ele>95.4</ele><time>2026-04-25T13:15:27.001Z</time></trkpt><trkpt lat="47.856329877809664" lon="1.1103391471450514"><ele>96.60000000000001</ele><time>2026-04-25T13:15:29.001Z</time></trkpt><trkpt lat="47.8563579573447" lon="1.1104532180298856"><ele>97.80000000000001</ele><time>2026-04-25T13:15:30.001Z</time></trkpt><trkpt lat="47.85639820075291" lon="1.110591516851782"><ele>99.0</ele><time>2026-04-25T13:15:31.001Z</time></trkpt><trkpt lat="47.856444704252766" lon="1.1107402825400563"><ele>99.2</ele><time>2026-04-25T13:15:32.001Z</time></trkpt><trkpt lat="47.856475085610306" lon="1.1108415780814604"><ele>99.4</ele><time>2026-04-25T13:15:33.001Z</time></trkpt><trkpt lat="47.85650150895941" lon="1.1109334711745658"><ele>99.6</ele><time>2026-04-25T13:15:34.001Z</time></trkpt><trkpt lat="47.856532594296425" lon="1.1110278520265564"><ele>99.8</ele><time>2026-04-25T13:15:35.001Z</time></trkpt><trkpt lat="47.856546197896996" lon="1.1112090503773837"><ele>100.0</ele><time>2026-04-25T13:15:37.001Z</time></trkpt><trkpt lat="47.856558439588575" lon="1.1113879766368722"><ele>100.00000000000001</ele><time>2026-04-25T13:15:39.001Z</time></trkpt><trkpt lat="47.85656700426807" lon="1.1114899564909024"><ele>100.0</ele><time>2026-04-25T13:15:40.001Z</time></trkpt><trkpt lat="47.85657924065909" lon="1.1115986516684369"><ele>100.0</ele><time>2026-04-25T13:15:41.001Z</time></trkpt><trkpt lat="47.856601306405196" lon="1.111716106173844"><ele>100.0</ele><time>2026-04-25T13:15:42.001Z</time></trkpt><trkpt lat="47.85663799287534" lon="1.1118227317184206"><ele>100.00000000000001</ele><time>2026-04-25T13:15:43.001Z</time></trkpt><trkpt lat="47.85669086086645" lon="1.1119201468402882"><ele>100.0</ele><time>2026-04-25T13:15:44.001Z</time></trkpt><trkpt lat="47.85674291366096" lon="1.1120234681015349"><ele>100.33333333333334</ele><time>2026-04-25T13:15:45.001Z</time></trkpt><trkpt lat="47.85678177457168" lon="1.112104370951846"><ele>100.66666666666667</ele><time>2026-04-25T13:15:46.001Z</time></trkpt><trkpt lat="47.8568447225465" lon="1.1121939293440155"><ele>101.0</ele><time>2026-04-25T13:15:47.001Z</time></trkpt><trkpt lat="47.85689709799034" lon="1.1122929634062324"><ele>101.33333333333334</ele><time>2026-04-25T13:15:48.001Z</time></trkpt><trkpt lat="47.856960474613146" lon="1.1124024916637694"><ele>101.66666666666667</ele><time>2026-04-25T13:15:49.001Z</time></trkpt><trkpt lat="47.857019694113234" lon="1.112488791333496"><ele>102.0</ele><time>2026-04-25T13:15:50.001Z</time></trkpt><trkpt lat="47.857071831250174" lon="1.1125491855401666"><ele>103.19999999999999</ele><time>2026-04-25T13:15:51.001Z</time></trkpt><trkpt lat="47.85716391800778" lon="1.1126985814968653"><ele>104.4</ele><time>2026-04-25T13:15:53.001Z</time></trkpt><trkpt lat="47.85721464415402" lon="1.1127818248483798"><ele>105.60000000000001</ele><time>2026-04-25T13:15:54.001Z</time></trkpt><trkpt lat="47.85729515456854" lon="1.1129488027590124"><ele>106.80000000000001</ele><time>2026-04-25T13:15:56.001Z</time></trkpt><trkpt lat="47.85732350677012" lon="1.113038344362319"><ele>108.0</ele><time>2026-04-25T13:15:57.001Z</time></trkpt><trkpt lat="47.857354540813695" lon="1.1131226039013824"><ele>108.0</ele><time>2026-04-25T13:15:58.001Z</time></trkpt><trkpt lat="47.857394985676414" lon="1.113224930878376"><ele>108.0</ele><time>2026-04-25T13:15:59.001Z</time></trkpt><trkpt lat="47.85743127493712" lon="1.113328751426625"><ele>108.0</ele><time>2026-04-25T13:16:00.001Z</time></trkpt><trkpt lat="47.857475113338346" lon="1.1134277159235213"><ele>108.0</ele><time>2026-04-25T13:16:01.001Z</time></trkpt><trkpt lat="47.857518542869464" lon="1.11353071441656"><ele>108.0</ele><time>2026-04-25T13:16:02.001Z</time></trkpt><trkpt lat="47.857566698226485" lon="1.1136273778351957"><ele>108.0</ele><time>2026-04-25T13:16:03.001Z</time></trkpt><trkpt lat="47.85764679111285" lon="1.1137532022014243"><ele>109.2</ele><time>2026-04-25T13:16:05.001Z</time></trkpt><trkpt lat="47.85771543821591" lon="1.1138627061264341"><ele>110.4</ele><time>2026-04-25T13:16:07.001Z</time></trkpt><trkpt lat="47.85778509391089" lon="1.1139710647347199"><ele>111.60000000000001</ele><time>2026-04-25T13:16:09.001Z</time></trkpt><trkpt lat="47.85785584526468" lon="1.1140092247213926"><ele>112.80000000000001</ele><time>2026-04-25T13:16:19.001Z</time></trkpt><trkpt lat="47.85793134797691" lon="1.1140395178109646"><ele>114.0</ele><time>2026-04-25T13:16:21.001Z</time></trkpt><trkpt lat="47.85806401517821" lon="1.1141267322120916"><ele>114.66666666666667</ele><time>2026-04-25T13:16:23.001Z</time></trkpt><trkpt lat="47.85816810019507" lon="1.1141832082165244"><ele>115.33333333333334</ele><time>2026-04-25T13:16:24.001Z</time></trkpt><trkpt lat="47.85826289649775" lon="1.1142232270312011"><ele>116.0</ele><time>2026-04-25T13:16:25.001Z</time></trkpt><trkpt lat="47.858347744967936" lon="1.114248728439528"><ele>116.66666666666667</ele><time>2026-04-25T13:16:26.001Z</time></trkpt><trkpt lat="47.85841866272006" lon="1.1142756501609516"><ele>117.33333333333334</ele><time>2026-04-25T13:16:27.001Z</time></trkpt><trkpt lat="47.858484285838394" lon="1.114308472061557"><ele>118.0</ele><time>2026-04-25T13:16:28.001Z</time></trkpt><trkpt lat="47.85860142626263" lon="1.114389291175693"><ele>116.28571428571428</ele><time>2026-04-25T13:16:30.001Z</time></trkpt><trkpt lat="47.85866542705934" lon="1.114431144477691"><ele>114.57142857142858</ele><time>2026-04-25T13:16:31.001Z</time></trkpt><trkpt lat="47.85872426037896" lon="1.1144765490513349"><ele>112.85714285714286</ele><time>2026-04-25T13:16:32.001Z</time></trkpt><trkpt lat="47.85878393516857" lon="1.1145314176756183"><ele>111.14285714285714</ele><time>2026-04-25T13:16:33.001Z</time></trkpt><trkpt lat="47.85888004559245" lon="1.1146105453342081"><ele>109.42857142857142</ele><time>2026-04-25T13:16:35.001Z</time></trkpt><trkpt lat="47.85893599069472" lon="1.1146635272187568"><ele>107.71428571428572</ele><time>2026-04-25T13:16:36.001Z</time></trkpt><trkpt lat="47.858990641037494" lon="1.1147134094177487"><ele>106.0</ele><time>2026-04-25T13:16:37.001Z</time></trkpt><trkpt lat="47.85907678674995" lon="1.1147811927717597"><ele>106.0</ele><time>2026-04-25T13:16:39.001Z</time></trkpt><trkpt lat="47.859160282376" lon="1.11482665757894"><ele>106.0</ele><time>2026-04-25T13:16:41.001Z</time></trkpt><trkpt lat="47.85921991903792" lon="1.114876708926731"><ele>106.0</ele><time>2026-04-25T13:16:47.001Z</time></trkpt><trkpt lat="47.85930795974699" lon="1.1149197129455723"><ele>106.0</ele><time>2026-04-25T13:16:49.001Z</time></trkpt><trkpt lat="47.85940521725381" lon="1.1149593528819635"><ele>106.0</ele><time>2026-04-25T13:16:51.001Z</time></trkpt><trkpt lat="47.85950756706149" lon="1.1149805162947526"><ele>106.00000000000001</ele><time>2026-04-25T13:16:53.001Z</time></trkpt><trkpt lat="47.859567733401136" lon="1.1150082760630609"><ele>106.0</ele><time>2026-04-25T13:16:54.001Z</time></trkpt><trkpt lat="47.85967005823543" lon="1.1150194085490575"><ele>106.0</ele><time>2026-04-25T13:16:56.001Z</time></trkpt><trkpt lat="47.85976539696921" lon="1.1149995958628633"><ele>106.0</ele><time>2026-04-25T13:16:58.001Z</time></trkpt><trkpt lat="47.859840308203644" lon="1.1149537820258308"><ele>106.00000000000001</ele><time>2026-04-25T13:17:00.001Z</time></trkpt><trkpt lat="47.859912181308204" lon="1.1149234102200731"><ele>106.0</ele><time>2026-04-25T13:17:02.001Z</time></trkpt><trkpt lat="47.859983103282495" lon="1.1148956961707055"><ele>106.19999999999999</ele><time>2026-04-25T13:17:04.001Z</time></trkpt><trkpt lat="47.860059141102866" lon="1.1148644845707156"><ele>106.39999999999999</ele><time>2026-04-25T13:17:06.065Z</time></trkpt><trkpt lat="47.86012699183314" lon="1.1147757790870303"><ele>106.6</ele><time>2026-04-25T13:17:08.001Z</time></trkpt><trkpt lat="47.86018852494875" lon="1.1148201827080664"><ele>106.8</ele><time>2026-04-25T13:17:10.001Z</time></trkpt><trkpt lat="47.86024482493115" lon="1.1149101119264495"><ele>107.0</ele><time>2026-04-25T13:17:12.001Z</time></trkpt><trkpt lat="47.860338123285494" lon="1.1151049910294029"><ele>108.25</ele><time>2026-04-25T13:17:14.001Z</time></trkpt><trkpt lat="47.86041872008325" lon="1.115246358776605"><ele>109.5</ele><time>2026-04-25T13:17:15.001Z</time></trkpt><trkpt lat="47.86051254524247" lon="1.1154018915766752"><ele>110.75</ele><time>2026-04-25T13:17:16.001Z</time></trkpt><trkpt lat="47.86061003840986" lon="1.1155869129739158"><ele>112.0</ele><time>2026-04-25T13:17:17.001Z</time></trkpt><trkpt lat="47.86071418545333" lon="1.1157951327825568"><ele>112.0</ele><time>2026-04-25T13:17:18.001Z</time></trkpt><trkpt lat="47.860834478472356" lon="1.1160196693545938"><ele>112.0</ele><time>2026-04-25T13:17:19.001Z</time></trkpt><trkpt lat="47.86095486583584" lon="1.1162571017235021"><ele>112.0</ele><time>2026-04-25T13:17:20.001Z</time></trkpt><trkpt lat="47.86105935740597" lon="1.116461949922896"><ele>114.0</ele><time>2026-04-25T13:17:21.001Z</time></trkpt><trkpt lat="47.86097748968751" lon="1.1168115099932217"><ele>116.0</ele><time>2026-04-25T13:17:22.001Z</time></trkpt><trkpt lat="47.86106222078661" lon="1.1169724678776756"><ele>118.0</ele><time>2026-04-25T13:17:23.001Z</time></trkpt><trkpt lat="47.86114709876949" lon="1.1171337047793515"><ele>118.0</ele><time>2026-04-25T13:17:24.001Z</time></trkpt><trkpt lat="47.86122879453708" lon="1.117288896668574"><ele>118.0</ele><time>2026-04-25T13:17:25.001Z</time></trkpt><trkpt lat="47.86133632836775" lon="1.1174931713326308"><ele>118.0</ele><time>2026-04-25T13:17:26.001Z</time></trkpt><trkpt lat="47.86145281663372" lon="1.1177119789975234"><ele>119.0</ele><time>2026-04-25T13:17:27.001Z</time></trkpt><trkpt lat="47.861576942496015" lon="1.1179485939446678"><ele>120.0</ele><time>2026-04-25T13:17:28.001Z</time></trkpt><trkpt lat="47.86169212628355" lon="1.118168163063561"><ele>121.0</ele><time>2026-04-25T13:17:29.001Z</time></trkpt><trkpt lat="47.861778649228945" lon="1.1183328989159136"><ele>122.19999999999999</ele><time>2026-04-25T13:17:30.001Z</time></trkpt><trkpt lat="47.861851232569485" lon="1.1184703780765277"><ele>123.39999999999999</ele><time>2026-04-25T13:17:31.001Z</time></trkpt><trkpt lat="47.86191017596982" lon="1.1185820220098088"><ele>124.6</ele><time>2026-04-25T13:17:32.001Z</time></trkpt><trkpt lat="47.86195932664425" lon="1.1186751176750382"><ele>125.8</ele><time>2026-04-25T13:17:33.001Z</time></trkpt><trkpt lat="47.862002171416805" lon="1.1187562694061073"><ele>127.0</ele><time>2026-04-25T13:17:34.001Z</time></trkpt><trkpt lat="47.8620678303749" lon="1.1188806331901042"><ele>127.0</ele><time>2026-04-25T13:17:36.001Z</time></trkpt><trkpt lat="47.862122884033845" lon="1.1189606580619542"><ele>127.0</ele><time>2026-04-25T13:17:38.001Z</time></trkpt><trkpt lat="47.8625368487498" lon="1.1185827099762384"><ele>127.19999999999999</ele><time>2026-04-25T13:17:39.001Z</time></trkpt><trkpt lat="47.86265416496491" lon="1.1185753080655385"><ele>127.39999999999999</ele><time>2026-04-25T13:17:40.001Z</time></trkpt><trkpt lat="47.86274188610732" lon="1.1185752465488308"><ele>127.60000000000001</ele><time>2026-04-25T13:17:41.001Z</time></trkpt><trkpt lat="47.86283472355111" lon="1.1185909871950002"><ele>127.80000000000001</ele><time>2026-04-25T13:17:42.001Z</time></trkpt><trkpt lat="47.862931160749916" lon="1.1186017686611955"><ele>128.0</ele><time>2026-04-25T13:17:43.001Z</time></trkpt><trkpt lat="47.86304325460234" lon="1.1186087655555887"><ele>127.99999999999999</ele><time>2026-04-25T13:17:44.001Z</time></trkpt><trkpt lat="47.863136400681874" lon="1.1186193155454467"><ele>128.0</ele><time>2026-04-25T13:17:45.001Z</time></trkpt><trkpt lat="47.86321669093065" lon="1.1186253077717454"><ele>128.0</ele><time>2026-04-25T13:17:46.001Z</time></trkpt><trkpt lat="47.86330083266566" lon="1.1186231318690503"><ele>128.0</ele><time>2026-04-25T13:17:47.001Z</time></trkpt><trkpt lat="47.86338867966069" lon="1.1186205604479933"><ele>127.99999999999999</ele><time>2026-04-25T13:17:48.001Z</time></trkpt><trkpt lat="47.86347897298383" lon="1.11862223862405"><ele>128.0</ele><time>2026-04-25T13:17:49.001Z</time></trkpt><trkpt lat="47.86356645396979" lon="1.118618283985182"><ele>128.16666666666666</ele><time>2026-04-25T13:17:50.001Z</time></trkpt><trkpt lat="47.863652921594365" lon="1.1186085688994067"><ele>128.33333333333331</ele><time>2026-04-25T13:17:51.001Z</time></trkpt><trkpt lat="47.863737023515505" lon="1.118578652737993"><ele>128.5</ele><time>2026-04-25T13:17:52.001Z</time></trkpt><trkpt lat="47.863820883701216" lon="1.1185459402709836"><ele>128.66666666666666</ele><time>2026-04-25T13:17:53.001Z</time></trkpt><trkpt lat="47.86389928519829" lon="1.11851975144687"><ele>128.83333333333334</ele><time>2026-04-25T13:17:54.001Z</time></trkpt><trkpt lat="47.86397281330362" lon="1.118491773098612"><ele>129.0</ele><time>2026-04-25T13:17:55.001Z</time></trkpt><trkpt lat="47.86403695976998" lon="1.1184639192422348"><ele>129.0</ele><time>2026-04-25T13:17:56.001Z</time></trkpt><trkpt lat="47.86410033749538" lon="1.1184379793950963"><ele>129.0</ele><time>2026-04-25T13:17:57.001Z</time></trkpt><trkpt lat="47.86421194605524" lon="1.1184200260797261"><ele>129.0</ele><time>2026-04-25T13:17:59.001Z</time></trkpt><trkpt lat="47.8642968829314" lon="1.118522334726601"><ele>129.0</ele><time>2026-04-25T13:18:01.001Z</time></trkpt><trkpt lat="47.864318804355946" lon="1.1187165135977788"><ele>129.0</ele><time>2026-04-25T13:18:03.001Z</time></trkpt><trkpt lat="47.86434891886504" lon="1.1188985993686555"><ele>128.83333333333334</ele><time>2026-04-25T13:18:05.001Z</time></trkpt><trkpt lat="47.86437335917752" lon="1.1189988212751882"><ele>128.66666666666666</ele><time>2026-04-25T13:18:06.001Z</time></trkpt><trkpt lat="47.86439448310301" lon="1.1191073929860598"><ele>128.5</ele><time>2026-04-25T13:18:07.001Z</time></trkpt><trkpt lat="47.86441865146977" lon="1.119239812335663"><ele>128.33333333333331</ele><time>2026-04-25T13:18:08.001Z</time></trkpt><trkpt lat="47.86444790801519" lon="1.1193785937277752"><ele>128.16666666666666</ele><time>2026-04-25T13:18:09.001Z</time></trkpt><trkpt lat="47.86447426101158" lon="1.1194975255014399"><ele>128.0</ele><time>2026-04-25T13:18:10.001Z</time></trkpt><trkpt lat="47.864494331851745" lon="1.1195958595367665"><ele>127.80000000000001</ele><time>2026-04-25T13:18:11.001Z</time></trkpt><trkpt lat="47.86452058425928" lon="1.119722863817521"><ele>127.60000000000001</ele><time>2026-04-25T13:18:12.001Z</time></trkpt><trkpt lat="47.86455145002804" lon="1.1198461090595155"><ele>127.39999999999999</ele><time>2026-04-25T13:18:13.001Z</time></trkpt><trkpt lat="47.864573549220964" lon="1.1199772825170373"><ele>127.19999999999999</ele><time>2026-04-25T13:18:14.001Z</time></trkpt><trkpt lat="47.86460576739094" lon="1.1201237102122938"><ele>127.0</ele><time>2026-04-25T13:18:15.001Z</time></trkpt><trkpt lat="47.86463535192615" lon="1.120266857021659"><ele>127.5</ele><time>2026-04-25T13:18:16.001Z</time></trkpt><trkpt lat="47.864678837950265" lon="1.1204607438048078"><ele>128.0</ele><time>2026-04-25T13:18:17.001Z</time></trkpt><trkpt lat="47.86472341740694" lon="1.1206463571426215"><ele>128.5</ele><time>2026-04-25T13:18:18.001Z</time></trkpt><trkpt lat="47.86475730545317" lon="1.1207994567824757"><ele>129.0</ele><time>2026-04-25T13:18:19.001Z</time></trkpt><trkpt lat="47.86478640166597" lon="1.1209258374634652"><ele>129.0</ele><time>2026-04-25T13:18:20.001Z</time></trkpt><trkpt lat="47.86481269048558" lon="1.1210477643367023"><ele>129.0</ele><time>2026-04-25T13:18:21.001Z</time></trkpt><trkpt lat="47.86483692447024" lon="1.12115594285621"><ele>129.0</ele><time>2026-04-25T13:18:22.001Z</time></trkpt><trkpt lat="47.86486140372911" lon="1.1212640036140291"><ele>129.0</ele><time>2026-04-25T13:18:23.001Z</time></trkpt><trkpt lat="47.86490153945088" lon="1.1214498772593455"><ele>129.0</ele><time>2026-04-25T13:18:25.001Z</time></trkpt><trkpt lat="47.86492974725004" lon="1.1215546583439593"><ele>129.0</ele><time>2026-04-25T13:18:26.001Z</time></trkpt><trkpt lat="47.86494690427645" lon="1.121650917703026"><ele>128.83333333333334</ele><time>2026-04-25T13:18:27.001Z</time></trkpt><trkpt lat="47.86496933237125" lon="1.1217448673653454"><ele>128.66666666666666</ele><time>2026-04-25T13:18:28.001Z</time></trkpt><trkpt lat="47.86498170251708" lon="1.1219330303383404"><ele>128.5</ele><time>2026-04-25T13:18:30.001Z</time></trkpt><trkpt lat="47.86498231281982" lon="1.1220387949241082"><ele>128.33333333333331</ele><time>2026-04-25T13:18:31.001Z</time></trkpt><trkpt lat="47.86497127891329" lon="1.122141570114352"><ele>128.16666666666666</ele><time>2026-04-25T13:18:32.001Z</time></trkpt><trkpt lat="47.864961448373485" lon="1.122250097892296"><ele>128.0</ele><time>2026-04-25T13:18:33.001Z</time></trkpt><trkpt lat="47.86495230346593" lon="1.1223635326214978"><ele>127.66666666666666</ele><time>2026-04-25T13:18:34.001Z</time></trkpt><trkpt lat="47.86494296481189" lon="1.1224726008622194"><ele>127.33333333333333</ele><time>2026-04-25T13:18:35.001Z</time></trkpt><trkpt lat="47.8649345869859" lon="1.1225862977946446"><ele>127.0</ele><time>2026-04-25T13:18:36.001Z</time></trkpt><trkpt lat="47.86492523466926" lon="1.1227030307728871"><ele>126.66666666666666</ele><time>2026-04-25T13:18:37.001Z</time></trkpt><trkpt lat="47.86492196666785" lon="1.1228189571913507"><ele>126.33333333333333</ele><time>2026-04-25T13:18:38.001Z</time></trkpt><trkpt lat="47.8649224873041" lon="1.1229398919743425"><ele>126.0</ele><time>2026-04-25T13:18:39.001Z</time></trkpt><trkpt lat="47.864938893596914" lon="1.1230619687360828"><ele>126.0</ele><time>2026-04-25T13:18:40.001Z</time></trkpt><trkpt lat="47.86496885437274" lon="1.1231884076245355"><ele>126.0</ele><time>2026-04-25T13:18:41.001Z</time></trkpt><trkpt lat="47.86500596370748" lon="1.1233136671528332"><ele>126.0</ele><time>2026-04-25T13:18:42.001Z</time></trkpt><trkpt lat="47.86504466853604" lon="1.1234437946825766"><ele>126.0</ele><time>2026-04-25T13:18:43.001Z</time></trkpt><trkpt lat="47.865092666966554" lon="1.123615327044781"><ele>126.0</ele><time>2026-04-25T13:18:44.001Z</time></trkpt><trkpt lat="47.86516540577057" lon="1.1238164398157722"><ele>125.5</ele><time>2026-04-25T13:18:45.001Z</time></trkpt><trkpt lat="47.8652530476289" lon="1.1239731808629774"><ele>125.0</ele><time>2026-04-25T13:18:46.001Z</time></trkpt><trkpt lat="47.86532717002703" lon="1.1241194226847853"><ele>124.5</ele><time>2026-04-25T13:18:47.001Z</time></trkpt><trkpt lat="47.86540411052455" lon="1.1242310323946885"><ele>124.0</ele><time>2026-04-25T13:18:48.001Z</time></trkpt><trkpt lat="47.865479689969" lon="1.1243187288158707"><ele>123.4</ele><time>2026-04-25T13:18:49.001Z</time></trkpt><trkpt lat="47.865530342857234" lon="1.1244085412663518"><ele>122.80000000000001</ele><time>2026-04-25T13:18:50.001Z</time></trkpt><trkpt lat="47.86556527855049" lon="1.1244964398578035"><ele>122.19999999999999</ele><time>2026-04-25T13:18:51.001Z</time></trkpt><trkpt lat="47.86558747918774" lon="1.1246410652642804"><ele>121.6</ele><time>2026-04-25T13:18:53.001Z</time></trkpt><trkpt lat="47.86549242370572" lon="1.1247360377024203"><ele>121.0</ele><time>2026-04-25T13:18:56.001Z</time></trkpt><trkpt lat="47.86539731619498" lon="1.1247159833551676"><ele>121.0</ele><time>2026-04-25T13:18:58.001Z</time></trkpt><trkpt lat="47.86529634261384" lon="1.124657397756976"><ele>121.0</ele><time>2026-04-25T13:19:00.001Z</time></trkpt><trkpt lat="47.86521381743034" lon="1.1246278056498273"><ele>121.0</ele><time>2026-04-25T13:19:01.001Z</time></trkpt><trkpt lat="47.86512227773397" lon="1.124592092953217"><ele>121.0</ele><time>2026-04-25T13:19:02.001Z</time></trkpt><trkpt lat="47.86499353666058" lon="1.1245260839825908"><ele>121.0</ele><time>2026-04-25T13:19:04.001Z</time></trkpt><trkpt lat="47.864930489891094" lon="1.1245440551129289"><ele>120.4</ele><time>2026-04-25T13:19:05.001Z</time></trkpt><trkpt lat="47.86486349404051" lon="1.124516624513508"><ele>119.8</ele><time>2026-04-25T13:19:06.001Z</time></trkpt><trkpt lat="47.86475098633321" lon="1.124468996608097"><ele>119.20000000000002</ele><time>2026-04-25T13:19:08.001Z</time></trkpt><trkpt lat="47.864689351183685" lon="1.1244460481720246"><ele>118.60000000000001</ele><time>2026-04-25T13:19:09.001Z</time></trkpt><trkpt lat="47.86456445747985" lon="1.1243815927249232"><ele>118.0</ele><time>2026-04-25T13:19:11.001Z</time></trkpt><trkpt lat="47.86449070907468" lon="1.1243433993194785"><ele>118.0</ele><time>2026-04-25T13:19:12.001Z</time></trkpt><trkpt lat="47.864397056033226" lon="1.1242911388567056"><ele>118.00000000000001</ele><time>2026-04-25T13:19:13.001Z</time></trkpt><trkpt lat="47.864295140244344" lon="1.1242439802369144"><ele>118.00000000000001</ele><time>2026-04-25T13:19:14.001Z</time></trkpt><trkpt lat="47.864220694378524" lon="1.1241989838581268"><ele>118.0</ele><time>2026-04-25T13:19:15.001Z</time></trkpt><trkpt lat="47.864121622923015" lon="1.1241281193378252"><ele>118.0</ele><time>2026-04-25T13:19:17.001Z</time></trkpt><trkpt lat="47.86403874941155" lon="1.124072046353661"><ele>117.80000000000001</ele><time>2026-04-25T13:19:19.001Z</time></trkpt><trkpt lat="47.86393207370564" lon="1.1239612659719629"><ele>117.60000000000001</ele><time>2026-04-25T13:19:21.001Z</time></trkpt><trkpt lat="47.86387301210844" lon="1.1238864139777558"><ele>117.39999999999999</ele><time>2026-04-25T13:19:22.001Z</time></trkpt><trkpt lat="47.86381024278822" lon="1.1238079050446785"><ele>117.19999999999999</ele><time>2026-04-25T13:19:23.001Z</time></trkpt><trkpt lat="47.8637447896153" lon="1.1237282006646887"><ele>117.0</ele><time>2026-04-25T13:19:24.001Z</time></trkpt><trkpt lat="47.86367580953487" lon="1.1236520971007378"><ele>117.0</ele><time>2026-04-25T13:19:25.001Z</time></trkpt><trkpt lat="47.86359952349261" lon="1.1235581089309947"><ele>116.99999999999999</ele><time>2026-04-25T13:19:26.001Z</time></trkpt><trkpt lat="47.86350526482331" lon="1.1234928724422852"><ele>116.99999999999999</ele><time>2026-04-25T13:19:27.001Z</time></trkpt><trkpt lat="47.86341139348228" lon="1.1234416067590915"><ele>117.0</ele><time>2026-04-25T13:19:28.001Z</time></trkpt><trkpt lat="47.86331606734628" lon="1.123404228755282"><ele>117.0</ele><time>2026-04-25T13:19:29.001Z</time></trkpt><trkpt lat="47.86322204344463" lon="1.1233796906270654"><ele>116.8</ele><time>2026-04-25T13:19:30.001Z</time></trkpt><trkpt lat="47.86311856143068" lon="1.12335602417034"><ele>116.6</ele><time>2026-04-25T13:19:31.001Z</time></trkpt><trkpt lat="47.86301601895632" lon="1.1233360568876305"><ele>116.39999999999999</ele><time>2026-04-25T13:19:32.001Z</time></trkpt><trkpt lat="47.86290573867568" lon="1.123315440247066"><ele>116.19999999999999</ele><time>2026-04-25T13:19:33.001Z</time></trkpt><trkpt lat="47.862799977546494" lon="1.1232956684542685"><ele>116.0</ele><time>2026-04-25T13:19:34.001Z</time></trkpt><trkpt lat="47.86268908931878" lon="1.1233061870704566"><ele>115.19999999999999</ele><time>2026-04-25T13:19:35.001Z</time></trkpt><trkpt lat="47.86257757113597" lon="1.123305717054508"><ele>114.39999999999999</ele><time>2026-04-25T13:19:36.001Z</time></trkpt><trkpt lat="47.862474903664484" lon="1.1233177219333337"><ele>113.6</ele><time>2026-04-25T13:19:37.001Z</time></trkpt><trkpt lat="47.86237447289485" lon="1.12334187902409"><ele>112.8</ele><time>2026-04-25T13:19:38.001Z</time></trkpt><trkpt lat="47.86227923851254" lon="1.1233645370948866"><ele>112.0</ele><time>2026-04-25T13:19:39.001Z</time></trkpt><trkpt lat="47.862179762284825" lon="1.1233877511843129"><ele>112.0</ele><time>2026-04-25T13:19:40.001Z</time></trkpt><trkpt lat="47.86208003275475" lon="1.1234056224105198"><ele>111.99999999999999</ele><time>2026-04-25T13:19:41.001Z</time></trkpt><trkpt lat="47.86196605725211" lon="1.1234080421607742"><ele>111.99999999999999</ele><time>2026-04-25T13:19:42.001Z</time></trkpt><trkpt lat="47.86184941189771" lon="1.123407433763826"><ele>112.0</ele><time>2026-04-25T13:19:43.001Z</time></trkpt><trkpt lat="47.8617533780071" lon="1.1234620085950882"><ele>112.0</ele><time>2026-04-25T13:19:44.001Z</time></trkpt><trkpt lat="47.861663300205834" lon="1.123516263527883"><ele>111.0</ele><time>2026-04-25T13:19:45.001Z</time></trkpt><trkpt lat="47.86154851307885" lon="1.1235862049660301"><ele>110.0</ele><time>2026-04-25T13:19:46.001Z</time></trkpt><trkpt lat="47.86142266085112" lon="1.1237147037753916"><ele>109.0</ele><time>2026-04-25T13:19:47.001Z</time></trkpt><trkpt lat="47.861300429782276" lon="1.1238344056859557"><ele>108.0</ele><time>2026-04-25T13:19:48.001Z</time></trkpt><trkpt lat="47.86117944467976" lon="1.1239104797654274"><ele>108.0</ele><time>2026-04-25T13:19:49.001Z</time></trkpt><trkpt lat="47.86107095594811" lon="1.123996188695043"><ele>108.0</ele><time>2026-04-25T13:19:50.001Z</time></trkpt><trkpt lat="47.86096581908328" lon="1.1240757058206277"><ele>108.0</ele><time>2026-04-25T13:19:51.001Z</time></trkpt><trkpt lat="47.86087404725258" lon="1.1241707631674391"><ele>108.0</ele><time>2026-04-25T13:19:52.001Z</time></trkpt><trkpt lat="47.86077712482001" lon="1.1242337881188045"><ele>107.0</ele><time>2026-04-25T13:19:53.001Z</time></trkpt><trkpt lat="47.86068202152116" lon="1.1242601804748107"><ele>106.00000000000001</ele><time>2026-04-25T13:19:54.001Z</time></trkpt><trkpt lat="47.86058756058405" lon="1.1243046228981322"><ele>105.0</ele><time>2026-04-25T13:19:55.001Z</time></trkpt><trkpt lat="47.860495577522634" lon="1.124354414313675"><ele>104.0</ele><time>2026-04-25T13:19:56.001Z</time></trkpt><trkpt lat="47.86040562651539" lon="1.1244031057306325"><ele>103.0</ele><time>2026-04-25T13:19:57.001Z</time></trkpt><trkpt lat="47.86031797969741" lon="1.124452000631043"><ele>103.0</ele><time>2026-04-25T13:19:58.001Z</time></trkpt><trkpt lat="47.860230850980265" lon="1.1245010530404937"><ele>103.0</ele><time>2026-04-25T13:19:59.001Z</time></trkpt><trkpt lat="47.86013175663172" lon="1.1245568419208867"><ele>103.0</ele><time>2026-04-25T13:20:00.001Z</time></trkpt><trkpt lat="47.86004075456111" lon="1.1246096371929044"><ele>103.0</ele><time>2026-04-25T13:20:01.001Z</time></trkpt><trkpt lat="47.8599547465322" lon="1.1246598536208232"><ele>103.0</ele><time>2026-04-25T13:20:02.001Z</time></trkpt><trkpt lat="47.85987458337889" lon="1.1247321190754578"><ele>102.50000000000001</ele><time>2026-04-25T13:20:03.001Z</time></trkpt><trkpt lat="47.85979547961093" lon="1.124777719622878"><ele>102.0</ele><time>2026-04-25T13:20:04.001Z</time></trkpt><trkpt lat="47.859719721865616" lon="1.1248291664107588"><ele>101.5</ele><time>2026-04-25T13:20:05.001Z</time></trkpt><trkpt lat="47.85965146235864" lon="1.1248933631338318"><ele>101.0</ele><time>2026-04-25T13:20:06.001Z</time></trkpt><trkpt lat="47.85960532782694" lon="1.1249863173995147"><ele>100.50000000000001</ele><time>2026-04-25T13:20:07.001Z</time></trkpt><trkpt lat="47.85955392353013" lon="1.1250875936376363"><ele>100.0</ele><time>2026-04-25T13:20:08.001Z</time></trkpt><trkpt lat="47.85948519175296" lon="1.1251632695289835"><ele>98.8</ele><time>2026-04-25T13:20:09.001Z</time></trkpt><trkpt lat="47.85941851341904" lon="1.1252258486507383"><ele>97.6</ele><time>2026-04-25T13:20:10.001Z</time></trkpt><trkpt lat="47.85935363453165" lon="1.125259620617077"><ele>96.4</ele><time>2026-04-25T13:20:11.001Z</time></trkpt><trkpt lat="47.8592602603788" lon="1.1253411785547982"><ele>95.2</ele><time>2026-04-25T13:20:13.001Z</time></trkpt><trkpt lat="47.85916967918077" lon="1.1254050457838702"><ele>94.0</ele><time>2026-04-25T13:20:15.001Z</time></trkpt><trkpt lat="47.859074845677384" lon="1.1254730043684926"><ele>93.66666666666666</ele><time>2026-04-25T13:20:17.001Z</time></trkpt><trkpt lat="47.85900162427222" lon="1.1255387025915016"><ele>93.33333333333333</ele><time>2026-04-25T13:20:19.001Z</time></trkpt><trkpt lat="47.85894420524575" lon="1.1255905970399909"><ele>93.0</ele><time>2026-04-25T13:20:23.001Z</time></trkpt><trkpt lat="47.85886092417456" lon="1.1256502898198704"><ele>92.66666666666667</ele><time>2026-04-25T13:20:25.001Z</time></trkpt><trkpt lat="47.858799695117185" lon="1.1256731546253587"><ele>92.33333333333334</ele><time>2026-04-25T13:20:26.001Z</time></trkpt><trkpt lat="47.858738439917005" lon="1.1257575188674886"><ele>92.0</ele><time>2026-04-25T13:20:27.001Z</time></trkpt><trkpt lat="47.85867289661874" lon="1.125850399382035"><ele>91.8</ele><time>2026-04-25T13:20:28.001Z</time></trkpt><trkpt lat="47.85860099003643" lon="1.1259368392825686"><ele>91.6</ele><time>2026-04-25T13:20:29.001Z</time></trkpt><trkpt lat="47.858522359155224" lon="1.1260229687437697"><ele>91.39999999999999</ele><time>2026-04-25T13:20:30.001Z</time></trkpt><trkpt lat="47.858449735304326" lon="1.1261006901276664"><ele>91.19999999999999</ele><time>2026-04-25T13:20:31.001Z</time></trkpt><trkpt lat="47.8583724468342" lon="1.1261840649959483"><ele>91.0</ele><time>2026-04-25T13:20:32.001Z</time></trkpt><trkpt lat="47.8582980707142" lon="1.126274789408034"><ele>90.66666666666666</ele><time>2026-04-25T13:20:33.001Z</time></trkpt><trkpt lat="47.85822567985323" lon="1.1263579748408474"><ele>90.33333333333333</ele><time>2026-04-25T13:20:34.001Z</time></trkpt><trkpt lat="47.85814783194707" lon="1.126441800326929"><ele>90.0</ele><time>2026-04-25T13:20:35.001Z</time></trkpt><trkpt lat="47.85807669321337" lon="1.126514711727446"><ele>89.66666666666667</ele><time>2026-04-25T13:20:36.001Z</time></trkpt><trkpt lat="47.85800660341774" lon="1.1265703840445516"><ele>89.33333333333334</ele><time>2026-04-25T13:20:37.001Z</time></trkpt><trkpt lat="47.857935601465144" lon="1.1266373280848514"><ele>89.0</ele><time>2026-04-25T13:20:38.001Z</time></trkpt><trkpt lat="47.857860528115374" lon="1.1267131680651248"><ele>88.83333333333334</ele><time>2026-04-25T13:20:39.001Z</time></trkpt><trkpt lat="47.85779011055817" lon="1.1267835583423242"><ele>88.66666666666667</ele><time>2026-04-25T13:20:40.001Z</time></trkpt><trkpt lat="47.857731691557" lon="1.126838085862267"><ele>88.5</ele><time>2026-04-25T13:20:41.001Z</time></trkpt><trkpt lat="47.85767666484499" lon="1.1268850613053936"><ele>88.33333333333333</ele><time>2026-04-25T13:20:42.001Z</time></trkpt><trkpt lat="47.85758251435355" lon="1.1269789923075748"><ele>88.16666666666666</ele><time>2026-04-25T13:20:44.001Z</time></trkpt><trkpt lat="47.85750059898916" lon="1.1270547734889171"><ele>88.0</ele><time>2026-04-25T13:20:46.001Z</time></trkpt><trkpt lat="47.857439690652406" lon="1.1271194583301023"><ele>87.66666666666666</ele><time>2026-04-25T13:20:48.001Z</time></trkpt><trkpt lat="47.85743439781123" lon="1.1272434540572946"><ele>87.33333333333333</ele><time>2026-04-25T13:20:50.001Z</time></trkpt><trkpt lat="47.857455323038266" lon="1.127338052079346"><ele>87.0</ele><time>2026-04-25T13:20:51.001Z</time></trkpt><trkpt lat="47.85747137053681" lon="1.1274332286624695"><ele>86.66666666666667</ele><time>2026-04-25T13:20:52.001Z</time></trkpt><trkpt lat="47.85748942494521" lon="1.1275344903745739"><ele>86.33333333333334</ele><time>2026-04-25T13:20:53.001Z</time></trkpt><trkpt lat="47.85751274442894" lon="1.1276653070698943"><ele>86.0</ele><time>2026-04-25T13:20:54.001Z</time></trkpt><trkpt lat="47.85753392076483" lon="1.1277899645974"><ele>86.0</ele><time>2026-04-25T13:20:55.001Z</time></trkpt><trkpt lat="47.85756373856444" lon="1.1279439533362268"><ele>86.0</ele><time>2026-04-25T13:20:56.001Z</time></trkpt><trkpt lat="47.85758966524189" lon="1.1281363733822278"><ele>86.0</ele><time>2026-04-25T13:20:57.001Z</time></trkpt><trkpt lat="47.85762548883971" lon="1.128369241918952"><ele>86.0</ele><time>2026-04-25T13:20:58.001Z</time></trkpt><trkpt lat="47.857659353745966" lon="1.1286079713936021"><ele>85.33333333333334</ele><time>2026-04-25T13:20:59.001Z</time></trkpt><trkpt lat="47.857705167053886" lon="1.1288279249670803"><ele>84.66666666666667</ele><time>2026-04-25T13:21:00.001Z</time></trkpt><trkpt lat="47.857746145022574" lon="1.1290403699992582"><ele>84.0</ele><time>2026-04-25T13:21:01.001Z</time></trkpt><trkpt lat="47.8578153500247" lon="1.129274930750331"><ele>84.0</ele><time>2026-04-25T13:21:02.001Z</time></trkpt><trkpt lat="47.857935779570425" lon="1.129545090452812"><ele>84.0</ele><time>2026-04-25T13:21:03.001Z</time></trkpt><trkpt lat="47.85803065804166" lon="1.1297647496258005"><ele>84.0</ele><time>2026-04-25T13:21:04.001Z</time></trkpt><trkpt lat="47.858100243885104" lon="1.1299330744066844"><ele>84.25</ele><time>2026-04-25T13:21:05.001Z</time></trkpt><trkpt lat="47.85816118660926" lon="1.1300856282150888"><ele>84.5</ele><time>2026-04-25T13:21:06.001Z</time></trkpt><trkpt lat="47.858213807573996" lon="1.1302306305152041"><ele>84.75</ele><time>2026-04-25T13:21:07.001Z</time></trkpt><trkpt lat="47.85829233186982" lon="1.1303736439957528"><ele>85.0</ele><time>2026-04-25T13:21:08.001Z</time></trkpt><trkpt lat="47.85841180769969" lon="1.130532724805691"><ele>84.66666666666666</ele><time>2026-04-25T13:21:09.001Z</time></trkpt><trkpt lat="47.858570174025346" lon="1.1307233639515586"><ele>84.33333333333333</ele><time>2026-04-25T13:21:10.001Z</time></trkpt><trkpt lat="47.85875037452595" lon="1.1309332742379485"><ele>84.0</ele><time>2026-04-25T13:21:11.001Z</time></trkpt><trkpt lat="47.85889069975053" lon="1.1311309737659756"><ele>84.0</ele><time>2026-04-25T13:21:12.001Z</time></trkpt><trkpt lat="47.859007150024546" lon="1.1312954618756526"><ele>84.0</ele><time>2026-04-25T13:21:13.001Z</time></trkpt><trkpt lat="47.8591215095318" lon="1.1314446731589507"><ele>84.0</ele><time>2026-04-25T13:21:14.001Z</time></trkpt><trkpt lat="47.85922608124642" lon="1.1315830634641"><ele>84.0</ele><time>2026-04-25T13:21:15.001Z</time></trkpt><trkpt lat="47.85931784881429" lon="1.1317189695695538"><ele>84.0</ele><time>2026-04-25T13:21:16.001Z</time></trkpt><trkpt lat="47.85939226904191" lon="1.1318535793619406"><ele>84.0</ele><time>2026-04-25T13:21:17.001Z</time></trkpt><trkpt lat="47.85945507189032" lon="1.1319941372351927"><ele>84.0</ele><time>2026-04-25T13:21:18.001Z</time></trkpt><trkpt lat="47.8595040895184" lon="1.1321216171438269"><ele>84.0</ele><time>2026-04-25T13:21:19.001Z</time></trkpt><trkpt lat="47.859560071315165" lon="1.1322685465921989"><ele>84.0</ele><time>2026-04-25T13:21:20.001Z</time></trkpt><trkpt lat="47.85961532612669" lon="1.132420699400696"><ele>84.0</ele><time>2026-04-25T13:21:21.001Z</time></trkpt><trkpt lat="47.85966103311503" lon="1.1325319223673014"><ele>84.0</ele><time>2026-04-25T13:21:22.001Z</time></trkpt><trkpt lat="47.85971240906057" lon="1.1326188995732884"><ele>84.0</ele><time>2026-04-25T13:21:23.001Z</time></trkpt><trkpt lat="47.85976480220664" lon="1.132727739089858"><ele>84.0</ele><time>2026-04-25T13:21:24.001Z</time></trkpt><trkpt lat="47.85983043452532" lon="1.1328795600553108"><ele>84.0</ele><time>2026-04-25T13:21:25.001Z</time></trkpt><trkpt lat="47.85988496294175" lon="1.1330175502557864"><ele>84.0</ele><time>2026-04-25T13:21:26.001Z</time></trkpt><trkpt lat="47.859930655524046" lon="1.1331238054405566"><ele>84.0</ele><time>2026-04-25T13:21:27.001Z</time></trkpt><trkpt lat="47.859982808465084" lon="1.1332433279599505"><ele>84.0</ele><time>2026-04-25T13:21:28.001Z</time></trkpt><trkpt lat="47.86003310788772" lon="1.1333467418191956"><ele>84.0</ele><time>2026-04-25T13:21:29.001Z</time></trkpt><trkpt lat="47.860067506954465" lon="1.1334391476698955"><ele>84.0</ele><time>2026-04-25T13:21:30.001Z</time></trkpt><trkpt lat="47.860118169242554" lon="1.1335603259779308"><ele>84.0</ele><time>2026-04-25T13:21:31.001Z</time></trkpt><trkpt lat="47.860170846575" lon="1.1336744700367885"><ele>84.0</ele><time>2026-04-25T13:21:32.001Z</time></trkpt><trkpt lat="47.86020613767303" lon="1.1337696123675178"><ele>84.0</ele><time>2026-04-25T13:21:33.001Z</time></trkpt><trkpt lat="47.86024692488776" lon="1.133874799492653"><ele>84.0</ele><time>2026-04-25T13:21:34.001Z</time></trkpt><trkpt lat="47.86030033351263" lon="1.133993206876512"><ele>84.0</ele><time>2026-04-25T13:21:35.001Z</time></trkpt><trkpt lat="47.86035453959509" lon="1.1341107824204566"><ele>84.0</ele><time>2026-04-25T13:21:36.001Z</time></trkpt><trkpt lat="47.86041330008949" lon="1.1342650969664505"><ele>84.0</ele><time>2026-04-25T13:21:37.001Z</time></trkpt><trkpt lat="47.86048810722357" lon="1.1344264316681747"><ele>84.0</ele><time>2026-04-25T13:21:38.001Z</time></trkpt><trkpt lat="47.86054873575038" lon="1.1345666194612798"><ele>84.0</ele><time>2026-04-25T13:21:39.001Z</time></trkpt><trkpt lat="47.860599755919644" lon="1.1346927423019089"><ele>84.0</ele><time>2026-04-25T13:21:40.001Z</time></trkpt><trkpt lat="47.86064287430169" lon="1.1347994481749513"><ele>84.0</ele><time>2026-04-25T13:21:41.001Z</time></trkpt><trkpt lat="47.86068589281321" lon="1.1348997679646475"><ele>84.0</ele><time>2026-04-25T13:21:42.001Z</time></trkpt><trkpt lat="47.8607408722007" lon="1.1350156159197735"><ele>84.0</ele><time>2026-04-25T13:21:43.001Z</time></trkpt><trkpt lat="47.86081086153031" lon="1.1351669422359827"><ele>84.0</ele><time>2026-04-25T13:21:44.001Z</time></trkpt><trkpt lat="47.86088812907986" lon="1.1353343673243703"><ele>84.0</ele><time>2026-04-25T13:21:45.001Z</time></trkpt><trkpt lat="47.860922825865195" lon="1.1354358304228669"><ele>84.0</ele><time>2026-04-25T13:21:47.001Z</time></trkpt><trkpt lat="47.860962203504826" lon="1.1355333254123234"><ele>84.0</ele><time>2026-04-25T13:21:48.001Z</time></trkpt><trkpt lat="47.86099424786348" lon="1.1356355200316552"><ele>84.0</ele><time>2026-04-25T13:21:49.001Z</time></trkpt><trkpt lat="47.861035868107365" lon="1.13572180166334"><ele>84.0</ele><time>2026-04-25T13:21:50.001Z</time></trkpt><trkpt lat="47.86107593458487" lon="1.1358053392548568"><ele>84.0</ele><time>2026-04-25T13:21:51.001Z</time></trkpt><trkpt lat="47.8611162248802" lon="1.1358915804257308"><ele>84.0</ele><time>2026-04-25T13:21:52.001Z</time></trkpt><trkpt lat="47.861151883083316" lon="1.1359750247254223"><ele>84.0</ele><time>2026-04-25T13:21:53.001Z</time></trkpt><trkpt lat="47.86119110408605" lon="1.1360595769528772"><ele>84.0</ele><time>2026-04-25T13:21:54.001Z</time></trkpt><trkpt lat="47.861231052229314" lon="1.1361405007900043"><ele>84.0</ele><time>2026-04-25T13:21:55.001Z</time></trkpt><trkpt lat="47.86126813313351" lon="1.1362252120177414"><ele>84.0</ele><time>2026-04-25T13:21:56.001Z</time></trkpt><trkpt lat="47.86130853735695" lon="1.136315794754237"><ele>84.0</ele><time>2026-04-25T13:21:57.001Z</time></trkpt><trkpt lat="47.861351748362104" lon="1.1364056381967944"><ele>84.0</ele><time>2026-04-25T13:21:58.001Z</time></trkpt><trkpt lat="47.86139544800015" lon="1.1365003831813683"><ele>84.0</ele><time>2026-04-25T13:21:59.001Z</time></trkpt><trkpt lat="47.86143774263891" lon="1.1366037529531337"><ele>84.0</ele><time>2026-04-25T13:22:00.001Z</time></trkpt><trkpt lat="47.86147944490796" lon="1.1366951019510079"><ele>84.0</ele><time>2026-04-25T13:22:01.001Z</time></trkpt><trkpt lat="47.86151556069179" lon="1.1367796624135733"><ele>84.0</ele><time>2026-04-25T13:22:02.001Z</time></trkpt><trkpt lat="47.86154851836628" lon="1.136868958527727"><ele>84.0</ele><time>2026-04-25T13:22:03.001Z</time></trkpt><trkpt lat="47.861581250886054" lon="1.1369532696311242"><ele>84.0</ele><time>2026-04-25T13:22:04.001Z</time></trkpt><trkpt lat="47.86161656321951" lon="1.1370402526335586"><ele>84.16666666666667</ele><time>2026-04-25T13:22:05.001Z</time></trkpt><trkpt lat="47.86165388262185" lon="1.1371231827216473"><ele>84.33333333333333</ele><time>2026-04-25T13:22:06.001Z</time></trkpt><trkpt lat="47.86169043159961" lon="1.1372056643259567"><ele>84.5</ele><time>2026-04-25T13:22:07.001Z</time></trkpt><trkpt lat="47.86172433694249" lon="1.1372866825740595"><ele>84.66666666666666</ele><time>2026-04-25T13:22:08.001Z</time></trkpt><trkpt lat="47.86176383074945" lon="1.1373647497830903"><ele>84.83333333333333</ele><time>2026-04-25T13:22:09.001Z</time></trkpt><trkpt lat="47.8617994439429" lon="1.137445436559963"><ele>85.0</ele><time>2026-04-25T13:22:10.001Z</time></trkpt><trkpt lat="47.86188002907931" lon="1.1375882813247933"><ele>85.16666666666666</ele><time>2026-04-25T13:22:12.001Z</time></trkpt><trkpt lat="47.86192194581093" lon="1.1376674999143608"><ele>85.33333333333333</ele><time>2026-04-25T13:22:13.001Z</time></trkpt><trkpt lat="47.861959987207044" lon="1.1377448464864703"><ele>85.5</ele><time>2026-04-25T13:22:14.001Z</time></trkpt><trkpt lat="47.8620247563487" lon="1.137897526424726"><ele>85.66666666666667</ele><time>2026-04-25T13:22:16.001Z</time></trkpt><trkpt lat="47.862057966697044" lon="1.1379796826331008"><ele>85.83333333333334</ele><time>2026-04-25T13:22:17.001Z</time></trkpt><trkpt lat="47.862094711573384" lon="1.1380635755117408"><ele>86.0</ele><time>2026-04-25T13:22:18.001Z</time></trkpt><trkpt lat="47.8621273363023" lon="1.1381480652438538"><ele>86.00000000000001</ele><time>2026-04-25T13:22:19.001Z</time></trkpt><trkpt lat="47.86216304480683" lon="1.1382376072380913"><ele>86.0</ele><time>2026-04-25T13:22:20.001Z</time></trkpt><trkpt lat="47.862199807678394" lon="1.1383273398920084"><ele>86.0</ele><time>2026-04-25T13:22:21.001Z</time></trkpt><trkpt lat="47.862234818137836" lon="1.1384124214291798"><ele>86.0</ele><time>2026-04-25T13:22:22.001Z</time></trkpt><trkpt lat="47.86227233289557" lon="1.1384990810347073"><ele>86.0</ele><time>2026-04-25T13:22:23.001Z</time></trkpt><trkpt lat="47.86230935684269" lon="1.138588630584549"><ele>86.00000000000001</ele><time>2026-04-25T13:22:24.001Z</time></trkpt><trkpt lat="47.862344187992775" lon="1.1386794710850228"><ele>86.0</ele><time>2026-04-25T13:22:25.001Z</time></trkpt><trkpt lat="47.86237754183369" lon="1.138764006495719"><ele>86.0</ele><time>2026-04-25T13:22:26.001Z</time></trkpt><trkpt lat="47.86244011968749" lon="1.1389025164542572"><ele>86.0</ele><time>2026-04-25T13:22:28.001Z</time></trkpt><trkpt lat="47.86249622036788" lon="1.1390206343828613"><ele>86.0</ele><time>2026-04-25T13:22:30.001Z</time></trkpt><trkpt lat="47.862550913121076" lon="1.139171720256927"><ele>86.0</ele><time>2026-04-25T13:22:32.001Z</time></trkpt><trkpt lat="47.86260084761244" lon="1.139323623451182"><ele>86.0</ele><time>2026-04-25T13:22:34.001Z</time></trkpt><trkpt lat="47.86267250895977" lon="1.1394792095861903"><ele>86.42857142857143</ele><time>2026-04-25T13:22:36.001Z</time></trkpt><trkpt lat="47.86270480938987" lon="1.1395622638880945"><ele>86.85714285714286</ele><time>2026-04-25T13:22:37.001Z</time></trkpt><trkpt lat="47.86274178063725" lon="1.1396452865916464"><ele>87.28571428571428</ele><time>2026-04-25T13:22:38.001Z</time></trkpt><trkpt lat="47.86277974162231" lon="1.13973889342617"><ele>87.71428571428572</ele><time>2026-04-25T13:22:39.001Z</time></trkpt><trkpt lat="47.862817566740794" lon="1.139830721992249"><ele>88.14285714285714</ele><time>2026-04-25T13:22:40.001Z</time></trkpt><trkpt lat="47.862856667803314" lon="1.1399323309574019"><ele>88.57142857142857</ele><time>2026-04-25T13:22:41.001Z</time></trkpt><trkpt lat="47.862898665075704" lon="1.140031892872835"><ele>89.0</ele><time>2026-04-25T13:22:42.001Z</time></trkpt><trkpt lat="47.862941873446" lon="1.140135480471869"><ele>89.0</ele><time>2026-04-25T13:22:43.001Z</time></trkpt><trkpt lat="47.86298785900934" lon="1.1402458949228471"><ele>89.0</ele><time>2026-04-25T13:22:44.001Z</time></trkpt><trkpt lat="47.86304628182305" lon="1.1403706728211984"><ele>89.0</ele><time>2026-04-25T13:22:45.001Z</time></trkpt><trkpt lat="47.86310371108915" lon="1.1405032034071212"><ele>89.0</ele><time>2026-04-25T13:22:46.001Z</time></trkpt><trkpt lat="47.86314718356186" lon="1.1406228709683632"><ele>89.0</ele><time>2026-04-25T13:22:47.001Z</time></trkpt><trkpt lat="47.86318627030463" lon="1.1407320961523353"><ele>88.4</ele><time>2026-04-25T13:22:48.001Z</time></trkpt><trkpt lat="47.86322449522039" lon="1.1408366798350185"><ele>87.80000000000001</ele><time>2026-04-25T13:22:49.001Z</time></trkpt><trkpt lat="47.86325773191241" lon="1.1409446371987673"><ele>87.19999999999999</ele><time>2026-04-25T13:22:50.001Z</time></trkpt><trkpt lat="47.863293568509626" lon="1.1410828544883156"><ele>86.6</ele><time>2026-04-25T13:22:51.001Z</time></trkpt><trkpt lat="47.863328824722004" lon="1.1412346481679325"><ele>86.0</ele><time>2026-04-25T13:22:52.001Z</time></trkpt><trkpt lat="47.86336676061463" lon="1.1413611867318283"><ele>86.0</ele><time>2026-04-25T13:22:53.001Z</time></trkpt><trkpt lat="47.86341712138064" lon="1.1414746292545772"><ele>86.0</ele><time>2026-04-25T13:22:54.001Z</time></trkpt><trkpt lat="47.863478201491674" lon="1.1415599857752141"><ele>86.0</ele><time>2026-04-25T13:22:55.001Z</time></trkpt><trkpt lat="47.86353736650712" lon="1.141631381539446"><ele>86.0</ele><time>2026-04-25T13:22:56.001Z</time></trkpt><trkpt lat="47.863595752084365" lon="1.141702145661102"><ele>86.0</ele><time>2026-04-25T13:22:57.001Z</time></trkpt><trkpt lat="47.8636510387788" lon="1.1417819751732032"><ele>86.0</ele><time>2026-04-25T13:22:58.001Z</time></trkpt><trkpt lat="47.8637122717184" lon="1.1418786576849553"><ele>85.8</ele><time>2026-04-25T13:22:59.001Z</time></trkpt><trkpt lat="47.86377136925292" lon="1.1419699760209279"><ele>85.6</ele><time>2026-04-25T13:23:00.001Z</time></trkpt><trkpt lat="47.863835954877466" lon="1.142066411617239"><ele>85.4</ele><time>2026-04-25T13:23:01.001Z</time></trkpt><trkpt lat="47.86390191613313" lon="1.1421685510301878"><ele>85.2</ele><time>2026-04-25T13:23:02.001Z</time></trkpt><trkpt lat="47.86396779933328" lon="1.142280079971924"><ele>85.0</ele><time>2026-04-25T13:23:03.001Z</time></trkpt><trkpt lat="47.864034914699296" lon="1.1423904807393155"><ele>85.0</ele><time>2026-04-25T13:23:04.001Z</time></trkpt><trkpt lat="47.86408971110849" lon="1.1424813090372405"><ele>85.0</ele><time>2026-04-25T13:23:05.001Z</time></trkpt><trkpt lat="47.86414923860766" lon="1.1425642509973732"><ele>85.0</ele><time>2026-04-25T13:23:06.001Z</time></trkpt><trkpt lat="47.86420723916289" lon="1.1426417156815958"><ele>85.0</ele><time>2026-04-25T13:23:07.001Z</time></trkpt><trkpt lat="47.864255823249756" lon="1.142714461924603"><ele>85.0</ele><time>2026-04-25T13:23:08.001Z</time></trkpt><trkpt lat="47.86434747790895" lon="1.1428126461858144"><ele>85.0</ele><time>2026-04-25T13:23:10.001Z</time></trkpt><trkpt lat="47.86435378263875" lon="1.1429620452505036"><ele>85.0</ele><time>2026-04-25T13:23:14.001Z</time></trkpt><trkpt lat="47.86426489175513" lon="1.1430815938098373"><ele>85.0</ele><time>2026-04-25T13:23:16.001Z</time></trkpt><trkpt lat="47.8642034913508" lon="1.143172045416304"><ele>85.0</ele><time>2026-04-25T13:23:17.001Z</time></trkpt><trkpt lat="47.86412352459654" lon="1.1432967011777158"><ele>85.0</ele><time>2026-04-25T13:23:18.001Z</time></trkpt><trkpt lat="47.864052085564886" lon="1.143419583826908"><ele>85.0</ele><time>2026-04-25T13:23:19.001Z</time></trkpt><trkpt lat="47.863962434035166" lon="1.1435491024575768"><ele>85.0</ele><time>2026-04-25T13:23:20.001Z</time></trkpt><trkpt lat="47.863851323637896" lon="1.1437250430713557"><ele>85.0</ele><time>2026-04-25T13:23:21.001Z</time></trkpt><trkpt lat="47.863726623927285" lon="1.1439211063813397"><ele>85.0</ele><time>2026-04-25T13:23:22.001Z</time></trkpt><trkpt lat="47.86358714220026" lon="1.144140170019105"><ele>85.0</ele><time>2026-04-25T13:23:23.001Z</time></trkpt><trkpt lat="47.86346936583143" lon="1.1443253883988487"><ele>85.0</ele><time>2026-04-25T13:23:24.001Z</time></trkpt><trkpt lat="47.863368225279594" lon="1.1444945475729824"><ele>85.0</ele><time>2026-04-25T13:23:25.001Z</time></trkpt><trkpt lat="47.86328733140367" lon="1.1446340008705231"><ele>85.0</ele><time>2026-04-25T13:23:26.001Z</time></trkpt><trkpt lat="47.86322187793505" lon="1.1447504740011354"><ele>85.0</ele><time>2026-04-25T13:23:27.001Z</time></trkpt><trkpt lat="47.863168220772934" lon="1.144847644745423"><ele>85.0</ele><time>2026-04-25T13:23:28.001Z</time></trkpt><trkpt lat="47.86310517853993" lon="1.1449741907840563"><ele>85.0</ele><time>2026-04-25T13:23:30.001Z</time></trkpt><trkpt lat="47.86301529770512" lon="1.1450460152397852"><ele>85.0</ele><time>2026-04-25T13:23:32.001Z</time></trkpt><trkpt lat="47.86293906431723" lon="1.1449704057630563"><ele>85.0</ele><time>2026-04-25T13:23:34.001Z</time></trkpt><trkpt lat="47.862874443453286" lon="1.1448941317814976"><ele>85.2</ele><time>2026-04-25T13:23:36.001Z</time></trkpt><trkpt lat="47.862801665562" lon="1.1448078072263081"><ele>85.4</ele><time>2026-04-25T13:23:38.001Z</time></trkpt><trkpt lat="47.862711276764074" lon="1.144701723209058"><ele>85.6</ele><time>2026-04-25T13:23:40.001Z</time></trkpt><trkpt lat="47.86265865778612" lon="1.144641173734322"><ele>85.8</ele><time>2026-04-25T13:23:41.001Z</time></trkpt><trkpt lat="47.86258689869049" lon="1.1445639837628099"><ele>86.0</ele><time>2026-04-25T13:23:42.001Z</time></trkpt><trkpt lat="47.86249275382367" lon="1.1444644316529706"><ele>86.0</ele><time>2026-04-25T13:23:43.001Z</time></trkpt><trkpt lat="47.86236935628004" lon="1.1443328386051796"><ele>86.0</ele><time>2026-04-25T13:23:44.001Z</time></trkpt><trkpt lat="47.86223370767424" lon="1.144172556857342"><ele>86.0</ele><time>2026-04-25T13:23:45.001Z</time></trkpt><trkpt lat="47.86208584564255" lon="1.1439852839783688"><ele>86.0</ele><time>2026-04-25T13:23:46.001Z</time></trkpt><trkpt lat="47.86194774582512" lon="1.1438125187011254"><ele>86.0</ele><time>2026-04-25T13:23:47.001Z</time></trkpt><trkpt lat="47.86183293918188" lon="1.1436688936046617"><ele>86.0</ele><time>2026-04-25T13:23:48.001Z</time></trkpt><trkpt lat="47.86173281526734" lon="1.143544718633107"><ele>86.8</ele><time>2026-04-25T13:23:49.001Z</time></trkpt><trkpt lat="47.86164104691886" lon="1.1434423562584757"><ele>87.6</ele><time>2026-04-25T13:23:50.001Z</time></trkpt><trkpt lat="47.861541234984365" lon="1.1433721968602477"><ele>88.4</ele><time>2026-04-25T13:23:51.001Z</time></trkpt><trkpt lat="47.86144794563481" lon="1.1433093656547741"><ele>89.2</ele><time>2026-04-25T13:23:52.001Z</time></trkpt><trkpt lat="47.86136193582249" lon="1.1432520103704895"><ele>90.0</ele><time>2026-04-25T13:23:53.001Z</time></trkpt><trkpt lat="47.86132104816858" lon="1.1431261161054382"><ele>90.25</ele><time>2026-04-25T13:23:54.001Z</time></trkpt><trkpt lat="47.86126743360243" lon="1.1430066615589496"><ele>90.5</ele><time>2026-04-25T13:23:55.001Z</time></trkpt><trkpt lat="47.861197785034115" lon="1.1428404194846797"><ele>90.75</ele><time>2026-04-25T13:23:56.001Z</time></trkpt><trkpt lat="47.861118780352065" lon="1.1426409153895107"><ele>91.0</ele><time>2026-04-25T13:23:57.001Z</time></trkpt><trkpt lat="47.86102276799119" lon="1.1424012225919906"><ele>89.33333333333333</ele><time>2026-04-25T13:23:58.001Z</time></trkpt><trkpt lat="47.860913260194586" lon="1.142135237493359"><ele>87.66666666666667</ele><time>2026-04-25T13:23:59.001Z</time></trkpt><trkpt lat="47.86079675942536" lon="1.141855111652059"><ele>86.0</ele><time>2026-04-25T13:24:00.001Z</time></trkpt><trkpt lat="47.8606698407912" lon="1.1415492098348596"><ele>87.0</ele><time>2026-04-25T13:24:01.001Z</time></trkpt><trkpt lat="47.8605451249661" lon="1.1412401301153379"><ele>88.0</ele><time>2026-04-25T13:24:02.001Z</time></trkpt><trkpt lat="47.86041768447686" lon="1.1409179458263468"><ele>88.0</ele><time>2026-04-25T13:24:03.001Z</time></trkpt><trkpt lat="47.860292945358154" lon="1.1406011284636015"><ele>88.0</ele><time>2026-04-25T13:24:04.001Z</time></trkpt><trkpt lat="47.86017056623492" lon="1.1402886601568192"><ele>87.5</ele><time>2026-04-25T13:24:05.001Z</time></trkpt><trkpt lat="47.86004805295543" lon="1.1399758492244338"><ele>87.0</ele><time>2026-04-25T13:24:06.001Z</time></trkpt><trkpt lat="47.85992173822007" lon="1.1396647177280594"><ele>87.0</ele><time>2026-04-25T13:24:07.001Z</time></trkpt><trkpt lat="47.859794279375016" lon="1.1393528424585795"><ele>87.0</ele><time>2026-04-25T13:24:08.001Z</time></trkpt><trkpt lat="47.859679742674146" lon="1.1390611376724793"><ele>87.0</ele><time>2026-04-25T13:24:09.001Z</time></trkpt><trkpt lat="47.85956503883731" lon="1.1387687109885507"><ele>87.0</ele><time>2026-04-25T13:24:10.001Z</time></trkpt><trkpt lat="47.85944818711836" lon="1.138478145954218"><ele>87.66666666666667</ele><time>2026-04-25T13:24:11.001Z</time></trkpt><trkpt lat="47.85933944139987" lon="1.1382045900326645"><ele>88.33333333333334</ele><time>2026-04-25T13:24:12.001Z</time></trkpt><trkpt lat="47.85925380928745" lon="1.137979577471642"><ele>89.0</ele><time>2026-04-25T13:24:13.001Z</time></trkpt><trkpt lat="47.859189269737044" lon="1.1377874659685137"><ele>89.0</ele><time>2026-04-25T13:24:14.001Z</time></trkpt><trkpt lat="47.859133027838475" lon="1.1376069631183865"><ele>89.0</ele><time>2026-04-25T13:24:15.001Z</time></trkpt><trkpt lat="47.85908479196508" lon="1.137440785317585"><ele>89.0</ele><time>2026-04-25T13:24:16.001Z</time></trkpt><trkpt lat="47.85904950903633" lon="1.1373100895415016"><ele>89.0</ele><time>2026-04-25T13:24:17.001Z</time></trkpt><trkpt lat="47.85902593664164" lon="1.1372138621999115"><ele>89.0</ele><time>2026-04-25T13:24:18.001Z</time></trkpt><trkpt lat="47.85899902906936" lon="1.1370750902387106"><ele>89.0</ele><time>2026-04-25T13:24:20.001Z</time></trkpt><trkpt lat="47.85881448110465" lon="1.1370839708408875"><ele>89.0</ele><time>2026-04-25T13:24:24.001Z</time></trkpt><trkpt lat="47.858710260647506" lon="1.1371776588104971"><ele>89.0</ele><time>2026-04-25T13:24:25.001Z</time></trkpt><trkpt lat="47.85860563200915" lon="1.1372763044100824"><ele>89.0</ele><time>2026-04-25T13:24:26.001Z</time></trkpt><trkpt lat="47.8584788456571" lon="1.1374095387214322"><ele>88.0</ele><time>2026-04-25T13:24:27.001Z</time></trkpt><trkpt lat="47.85833862949401" lon="1.137573920145918"><ele>87.0</ele><time>2026-04-25T13:24:28.001Z</time></trkpt><trkpt lat="47.85819358992927" lon="1.1377773810154284"><ele>86.0</ele><time>2026-04-25T13:24:29.001Z</time></trkpt><trkpt lat="47.85805048777633" lon="1.137967405439513"><ele>86.0</ele><time>2026-04-25T13:24:30.001Z</time></trkpt><trkpt lat="47.85791428993159" lon="1.1381135495104093"><ele>86.0</ele><time>2026-04-25T13:24:31.001Z</time></trkpt><trkpt lat="47.857818692649225" lon="1.1382287286040607"><ele>86.0</ele><time>2026-04-25T13:24:32.001Z</time></trkpt><trkpt lat="47.857750903296534" lon="1.1383069052478745"><ele>86.0</ele><time>2026-04-25T13:24:33.001Z</time></trkpt><trkpt lat="47.8576923863881" lon="1.1383726269133434"><ele>86.0</ele><time>2026-04-25T13:24:34.001Z</time></trkpt><trkpt lat="47.857618582675414" lon="1.138441356099101"><ele>86.0</ele><time>2026-04-25T13:24:36.001Z</time></trkpt><trkpt lat="47.85769267555531" lon="1.1383727956854461"><ele>86.0</ele><time>2026-04-25T13:24:40.001Z</time></trkpt><trkpt lat="47.85773502065838" lon="1.138240967719434"><ele>86.0</ele><time>2026-04-25T13:24:41.001Z</time></trkpt><trkpt lat="47.857836940565626" lon="1.1381308534337768"><ele>86.0</ele><time>2026-04-25T13:24:42.001Z</time></trkpt><trkpt lat="47.857957115423865" lon="1.138010117302157"><ele>86.0</ele><time>2026-04-25T13:24:43.001Z</time></trkpt><trkpt lat="47.858084250200626" lon="1.1378811142398206"><ele>86.0</ele><time>2026-04-25T13:24:44.001Z</time></trkpt><trkpt lat="47.8582333872799" lon="1.1377118490592455"><ele>86.0</ele><time>2026-04-25T13:24:45.001Z</time></trkpt><trkpt lat="47.8583890069507" lon="1.1375050775849564"><ele>86.33333333333334</ele><time>2026-04-25T13:24:46.001Z</time></trkpt><trkpt lat="47.85853115560775" lon="1.13732475921974"><ele>86.66666666666667</ele><time>2026-04-25T13:24:47.001Z</time></trkpt><trkpt lat="47.858654340900806" lon="1.1372003485303666"><ele>87.0</ele><time>2026-04-25T13:24:48.001Z</time></trkpt><trkpt lat="47.858760596088715" lon="1.137111810344345"><ele>87.0</ele><time>2026-04-25T13:24:49.001Z</time></trkpt><trkpt lat="47.858844747156674" lon="1.1370478987466544"><ele>87.0</ele><time>2026-04-25T13:24:50.001Z</time></trkpt><trkpt lat="47.8589059948149" lon="1.1370041633937693"><ele>87.0</ele><time>2026-04-25T13:24:51.001Z</time></trkpt><trkpt lat="47.85896612972108" lon="1.136914207335432"><ele>87.0</ele><time>2026-04-25T13:24:54.001Z</time></trkpt><trkpt lat="47.858992882948726" lon="1.136799963546059"><ele>87.0</ele><time>2026-04-25T13:24:56.001Z</time></trkpt><trkpt lat="47.85905583464274" lon="1.1367805109952698"><ele>87.0</ele><time>2026-04-25T13:25:00.001Z</time></trkpt><trkpt lat="47.85904606286351" lon="1.1368756876706383"><ele>87.0</ele><time>2026-04-25T13:27:26.001Z</time></trkpt><trkpt lat="47.85900657719538" lon="1.136797317031161"><ele>87.0</ele><time>2026-04-25T13:28:39Z</time></trkpt><trkpt lat="47.85906148447704" lon="1.1368620364731434"><ele>87.0</ele><time>2026-04-25T13:34:18Z</time></trkpt><trkpt lat="47.85902028038112" lon="1.1369381121521616"><ele>87.0</ele><time>2026-04-25T13:35:27Z</time></trkpt><trkpt lat="47.85896633093715" lon="1.1369883817194577"><ele>87.0</ele><time>2026-04-25T13:35:32Z</time></trkpt><trkpt lat="47.85898291414002" lon="1.1371182469854078"><ele>87.0</ele><time>2026-04-25T13:35:36Z</time></trkpt><trkpt lat="47.858996485891744" lon="1.1372238063013869"><ele>87.0</ele><time>2026-04-25T13:35:38Z</time></trkpt><trkpt lat="47.85901628410689" lon="1.1373230168527226"><ele>87.39999999999999</ele><time>2026-04-25T13:35:40Z</time></trkpt><trkpt lat="47.85905229728935" lon="1.1374306395095928"><ele>87.8</ele><time>2026-04-25T13:35:42Z</time></trkpt><trkpt lat="47.85909224373667" lon="1.1375628318979218"><ele>88.2</ele><time>2026-04-25T13:35:44Z</time></trkpt><trkpt lat="47.85913712724473" lon="1.1377098609844938"><ele>88.6</ele><time>2026-04-25T13:35:46Z</time></trkpt><trkpt lat="47.85918915232215" lon="1.1378551475760248"><ele>89.0</ele><time>2026-04-25T13:35:48Z</time></trkpt><trkpt lat="47.859239148456936" lon="1.1380061517079085"><ele>88.6</ele><time>2026-04-25T13:35:50Z</time></trkpt><trkpt lat="47.85930178871433" lon="1.138171510606523"><ele>88.2</ele><time>2026-04-25T13:35:52Z</time></trkpt><trkpt lat="47.85936102820562" lon="1.1383361955578304"><ele>87.8</ele><time>2026-04-25T13:35:54Z</time></trkpt><trkpt lat="47.85939855435509" lon="1.1384169370244894"><ele>87.39999999999999</ele><time>2026-04-25T13:35:55Z</time></trkpt><trkpt lat="47.85943497168347" lon="1.1385060998180845"><ele>87.0</ele><time>2026-04-25T13:35:56Z</time></trkpt><trkpt lat="47.85947241955737" lon="1.1385979072882189"><ele>87.0</ele><time>2026-04-25T13:35:57Z</time></trkpt><trkpt lat="47.85951013066645" lon="1.1386877210545414"><ele>87.0</ele><time>2026-04-25T13:35:58Z</time></trkpt><trkpt lat="47.8595465957151" lon="1.138774725646017"><ele>87.0</ele><time>2026-04-25T13:35:59Z</time></trkpt><trkpt lat="47.85957996963952" lon="1.1388547530199287"><ele>87.0</ele><time>2026-04-25T13:36:00Z</time></trkpt><trkpt lat="47.85962372222086" lon="1.1390159037504872"><ele>87.0</ele><time>2026-04-25T13:36:02Z</time></trkpt><trkpt lat="47.8596847008596" lon="1.1391727381615238"><ele>87.0</ele><time>2026-04-25T13:36:04Z</time></trkpt><trkpt lat="47.85971688118379" lon="1.1392582417250718"><ele>87.0</ele><time>2026-04-25T13:36:05Z</time></trkpt><trkpt lat="47.85975034810169" lon="1.139341031457255"><ele>87.0</ele><time>2026-04-25T13:36:06Z</time></trkpt><trkpt lat="47.85978383362198" lon="1.1394232465032146"><ele>87.0</ele><time>2026-04-25T13:36:07Z</time></trkpt><trkpt lat="47.85981807142892" lon="1.1395093475816245"><ele>87.0</ele><time>2026-04-25T13:36:08Z</time></trkpt><trkpt lat="47.85988784978876" lon="1.1396700567004547"><ele>87.0</ele><time>2026-04-25T13:36:10Z</time></trkpt><trkpt lat="47.8599246721656" lon="1.1397528000856352"><ele>87.0</ele><time>2026-04-25T13:36:11Z</time></trkpt><trkpt lat="47.859960081185406" lon="1.139836408188371"><ele>86.85714285714286</ele><time>2026-04-25T13:36:12Z</time></trkpt><trkpt lat="47.85999319775132" lon="1.1399212927770106"><ele>86.71428571428572</ele><time>2026-04-25T13:36:13Z</time></trkpt><trkpt lat="47.860027281379104" lon="1.1400036761189514"><ele>86.57142857142858</ele><time>2026-04-25T13:36:14Z</time></trkpt><trkpt lat="47.8600582333436" lon="1.1400868833127886"><ele>86.42857142857143</ele><time>2026-04-25T13:36:15Z</time></trkpt><trkpt lat="47.86009154097651" lon="1.1401708594289457"><ele>86.28571428571429</ele><time>2026-04-25T13:36:16Z</time></trkpt><trkpt lat="47.86012436415845" lon="1.1402553175155345"><ele>86.14285714285715</ele><time>2026-04-25T13:36:17Z</time></trkpt><trkpt lat="47.86015653160299" lon="1.1403392172829576"><ele>86.0</ele><time>2026-04-25T13:36:18Z</time></trkpt><trkpt lat="47.86019016949553" lon="1.140422661294615"><ele>86.33333333333334</ele><time>2026-04-25T13:36:19Z</time></trkpt><trkpt lat="47.86022359102093" lon="1.1405079066305566"><ele>86.66666666666667</ele><time>2026-04-25T13:36:20Z</time></trkpt><trkpt lat="47.86025585068964" lon="1.140591393849584"><ele>87.0</ele><time>2026-04-25T13:36:21Z</time></trkpt><trkpt lat="47.86029025047702" lon="1.140671383023158"><ele>87.33333333333333</ele><time>2026-04-25T13:36:22Z</time></trkpt><trkpt lat="47.86035559056306" lon="1.1408341740631276"><ele>87.66666666666666</ele><time>2026-04-25T13:36:24Z</time></trkpt><trkpt lat="47.86038839607282" lon="1.1409194010489023"><ele>88.0</ele><time>2026-04-25T13:36:25Z</time></trkpt><trkpt lat="47.86042121430609" lon="1.1410045478245046"><ele>88.0</ele><time>2026-04-25T13:36:26Z</time></trkpt><trkpt lat="47.86045376214" lon="1.1410876492055877"><ele>88.0</ele><time>2026-04-25T13:36:27Z</time></trkpt><trkpt lat="47.86048650801888" lon="1.1411718510855804"><ele>88.0</ele><time>2026-04-25T13:36:28Z</time></trkpt><trkpt lat="47.86051693748131" lon="1.1412563720053914"><ele>88.0</ele><time>2026-04-25T13:36:29Z</time></trkpt><trkpt lat="47.860548444068016" lon="1.1413426112026306"><ele>88.0</ele><time>2026-04-25T13:36:30Z</time></trkpt><trkpt lat="47.86058287934938" lon="1.1414261713308027"><ele>88.0</ele><time>2026-04-25T13:36:31Z</time></trkpt><trkpt lat="47.86061880404373" lon="1.1415117215911674"><ele>88.0</ele><time>2026-04-25T13:36:32Z</time></trkpt><trkpt lat="47.860653067806425" lon="1.141596394576888"><ele>87.71428571428572</ele><time>2026-04-25T13:36:33Z</time></trkpt><trkpt lat="47.860689368236905" lon="1.1416827124049498"><ele>87.42857142857143</ele><time>2026-04-25T13:36:34Z</time></trkpt><trkpt lat="47.8607273762314" lon="1.141768624368245"><ele>87.14285714285714</ele><time>2026-04-25T13:36:35Z</time></trkpt><trkpt lat="47.860762724322676" lon="1.1418547610048133"><ele>86.85714285714286</ele><time>2026-04-25T13:36:36Z</time></trkpt><trkpt lat="47.86079859065274" lon="1.141943356002219"><ele>86.57142857142857</ele><time>2026-04-25T13:36:37Z</time></trkpt><trkpt lat="47.86083437110162" lon="1.1420319085577566"><ele>86.28571428571429</ele><time>2026-04-25T13:36:38Z</time></trkpt><trkpt lat="47.86087084599767" lon="1.1421224354339217"><ele>86.0</ele><time>2026-04-25T13:36:39Z</time></trkpt><trkpt lat="47.86090595543711" lon="1.1422109196361416"><ele>86.00000000000001</ele><time>2026-04-25T13:36:40Z</time></trkpt><trkpt lat="47.86094276503534" lon="1.1423037081135814"><ele>86.0</ele><time>2026-04-25T13:36:41Z</time></trkpt><trkpt lat="47.86097466038918" lon="1.1423958704106993"><ele>86.0</ele><time>2026-04-25T13:36:42Z</time></trkpt><trkpt lat="47.86101157617837" lon="1.142489199849295"><ele>86.0</ele><time>2026-04-25T13:36:43Z</time></trkpt><trkpt lat="47.86104923221499" lon="1.1425808799660464"><ele>86.0</ele><time>2026-04-25T13:36:44Z</time></trkpt><trkpt lat="47.86108788458554" lon="1.1426705323889188"><ele>86.00000000000001</ele><time>2026-04-25T13:36:45Z</time></trkpt><trkpt lat="47.861128087073986" lon="1.1427597473631073"><ele>86.0</ele><time>2026-04-25T13:36:46Z</time></trkpt><trkpt lat="47.86116552902389" lon="1.1428487206825275"><ele>86.66666666666667</ele><time>2026-04-25T13:36:47Z</time></trkpt><trkpt lat="47.86120331320508" lon="1.1429358006545072"><ele>87.33333333333334</ele><time>2026-04-25T13:36:48Z</time></trkpt><trkpt lat="47.861237537822625" lon="1.1430168197573196"><ele>88.0</ele><time>2026-04-25T13:36:49Z</time></trkpt><trkpt lat="47.86130039576526" lon="1.1431491082574692"><ele>88.66666666666667</ele><time>2026-04-25T13:36:51Z</time></trkpt><trkpt lat="47.86135001088846" lon="1.1432436031580284"><ele>89.33333333333333</ele><time>2026-04-25T13:36:53Z</time></trkpt><trkpt lat="47.86141264940316" lon="1.1433452228440062"><ele>90.0</ele><time>2026-04-25T13:36:55Z</time></trkpt><trkpt lat="47.8615163634089" lon="1.1434048118387274"><ele>90.0</ele><time>2026-04-25T13:36:57Z</time></trkpt><trkpt lat="47.86157543835143" lon="1.1434547314330248"><ele>90.0</ele><time>2026-04-25T13:36:58Z</time></trkpt><trkpt lat="47.86163957665813" lon="1.1435133902819332"><ele>90.0</ele><time>2026-04-25T13:36:59Z</time></trkpt><trkpt lat="47.86170487788668" lon="1.1435715560323054"><ele>90.0</ele><time>2026-04-25T13:37:00Z</time></trkpt><trkpt lat="47.86177099012582" lon="1.143643789030811"><ele>90.0</ele><time>2026-04-25T13:37:01Z</time></trkpt><trkpt lat="47.86183971377469" lon="1.143726625271843"><ele>90.0</ele><time>2026-04-25T13:37:02Z</time></trkpt><trkpt lat="47.86190685248178" lon="1.1438137057042461"><ele>89.2</ele><time>2026-04-25T13:37:03Z</time></trkpt><trkpt lat="47.861976385342416" lon="1.1439009782152159"><ele>88.4</ele><time>2026-04-25T13:37:04Z</time></trkpt><trkpt lat="47.86204756643281" lon="1.1439890293334574"><ele>87.6</ele><time>2026-04-25T13:37:05Z</time></trkpt><trkpt lat="47.86211965685077" lon="1.144076854203833"><ele>86.8</ele><time>2026-04-25T13:37:06Z</time></trkpt><trkpt lat="47.86219301648716" lon="1.1441675316116418"><ele>86.0</ele><time>2026-04-25T13:37:07Z</time></trkpt><trkpt lat="47.86226406787918" lon="1.144259241135544"><ele>86.0</ele><time>2026-04-25T13:37:08Z</time></trkpt><trkpt lat="47.862336469317796" lon="1.1443544332088156"><ele>86.0</ele><time>2026-04-25T13:37:09Z</time></trkpt><trkpt lat="47.862411144188826" lon="1.1444425047299391"><ele>86.0</ele><time>2026-04-25T13:37:10Z</time></trkpt><trkpt lat="47.86248650592673" lon="1.1445304505295593"><ele>86.0</ele><time>2026-04-25T13:37:11Z</time></trkpt><trkpt lat="47.86256503584384" lon="1.1446230644911595"><ele>86.0</ele><time>2026-04-25T13:37:12Z</time></trkpt><trkpt lat="47.862638542465554" lon="1.1447068940083767"><ele>86.0</ele><time>2026-04-25T13:37:13Z</time></trkpt><trkpt lat="47.8627092823842" lon="1.1447853912328758"><ele>86.0</ele><time>2026-04-25T13:37:14Z</time></trkpt><trkpt lat="47.86277625327422" lon="1.144856041486166"><ele>86.0</ele><time>2026-04-25T13:37:15Z</time></trkpt><trkpt lat="47.86284166554446" lon="1.1449245964049048"><ele>86.0</ele><time>2026-04-25T13:37:16Z</time></trkpt><trkpt lat="47.862901216022486" lon="1.1449879497381197"><ele>86.0</ele><time>2026-04-25T13:37:17Z</time></trkpt><trkpt lat="47.862954213236165" lon="1.1450474512979372"><ele>86.0</ele><time>2026-04-25T13:37:18Z</time></trkpt><trkpt lat="47.86300588085619" lon="1.1451091350489828"><ele>86.0</ele><time>2026-04-25T13:37:20Z</time></trkpt><trkpt lat="47.86310903740211" lon="1.14506820257247"><ele>86.0</ele><time>2026-04-25T13:37:29Z</time></trkpt><trkpt lat="47.863163850523826" lon="1.14492080662021"><ele>86.0</ele><time>2026-04-25T13:37:31Z</time></trkpt><trkpt lat="47.86320925699972" lon="1.144832832727408"><ele>86.0</ele><time>2026-04-25T13:37:32Z</time></trkpt><trkpt lat="47.86326081851463" lon="1.1447290859157813"><ele>86.0</ele><time>2026-04-25T13:37:33Z</time></trkpt><trkpt lat="47.86332719497741" lon="1.144617180460551"><ele>86.0</ele><time>2026-04-25T13:37:34Z</time></trkpt><trkpt lat="47.86339029380318" lon="1.1445122793951303"><ele>86.0</ele><time>2026-04-25T13:37:35Z</time></trkpt><trkpt lat="47.863458112805894" lon="1.1444039694822998"><ele>86.0</ele><time>2026-04-25T13:37:36Z</time></trkpt><trkpt lat="47.863533214116664" lon="1.1442853609830297"><ele>86.0</ele><time>2026-04-25T13:37:37Z</time></trkpt><trkpt lat="47.86361115838622" lon="1.1441632626629434"><ele>86.0</ele><time>2026-04-25T13:37:38Z</time></trkpt><trkpt lat="47.863689125153314" lon="1.1440400211710178"><ele>85.75</ele><time>2026-04-25T13:37:39Z</time></trkpt><trkpt lat="47.86376723995" lon="1.1439165847562451"><ele>85.5</ele><time>2026-04-25T13:37:40Z</time></trkpt><trkpt lat="47.86384495781804" lon="1.1437904488017214"><ele>85.25</ele><time>2026-04-25T13:37:41Z</time></trkpt><trkpt lat="47.86392118957818" lon="1.143667583082158"><ele>85.0</ele><time>2026-04-25T13:37:42Z</time></trkpt><trkpt lat="47.86399681983186" lon="1.1435503858669804"><ele>85.0</ele><time>2026-04-25T13:37:43Z</time></trkpt><trkpt lat="47.86408267880497" lon="1.1434402025935335"><ele>85.0</ele><time>2026-04-25T13:37:44Z</time></trkpt><trkpt lat="47.864157184683755" lon="1.1433218444636224"><ele>85.0</ele><time>2026-04-25T13:37:45Z</time></trkpt><trkpt lat="47.864233018155105" lon="1.1432021531375602"><ele>85.0</ele><time>2026-04-25T13:37:46Z</time></trkpt><trkpt lat="47.864309235515954" lon="1.1430827048181569"><ele>85.0</ele><time>2026-04-25T13:37:47Z</time></trkpt><trkpt lat="47.86438117933688" lon="1.1429611126805823"><ele>85.2</ele><time>2026-04-25T13:37:48Z</time></trkpt><trkpt lat="47.86444121413833" lon="1.1428359851876924"><ele>85.4</ele><time>2026-04-25T13:37:49Z</time></trkpt><trkpt lat="47.86451531004904" lon="1.1427304238547367"><ele>85.6</ele><time>2026-04-25T13:37:50Z</time></trkpt><trkpt lat="47.864584140499225" lon="1.1426239382320862"><ele>85.8</ele><time>2026-04-25T13:37:51Z</time></trkpt><trkpt lat="47.864656308543445" lon="1.1425167011073274"><ele>86.0</ele><time>2026-04-25T13:37:52Z</time></trkpt><trkpt lat="47.86475211073642" lon="1.1424402600144092"><ele>86.4</ele><time>2026-04-25T13:37:53Z</time></trkpt><trkpt lat="47.86482848139921" lon="1.1423410193207888"><ele>86.8</ele><time>2026-04-25T13:37:54Z</time></trkpt><trkpt lat="47.86491571472257" lon="1.1422578879221663"><ele>87.2</ele><time>2026-04-25T13:37:55Z</time></trkpt><trkpt lat="47.864995774473456" lon="1.1421816749727398"><ele>87.60000000000001</ele><time>2026-04-25T13:37:56Z</time></trkpt><trkpt lat="47.865073205973125" lon="1.1421067149466841"><ele>88.0</ele><time>2026-04-25T13:37:57Z</time></trkpt><trkpt lat="47.86515371189946" lon="1.1420610169348304"><ele>88.28571428571429</ele><time>2026-04-25T13:37:58Z</time></trkpt><trkpt lat="47.865222996787175" lon="1.1419972961766915"><ele>88.57142857142857</ele><time>2026-04-25T13:37:59Z</time></trkpt><trkpt lat="47.86528908760041" lon="1.1419359754352116"><ele>88.85714285714286</ele><time>2026-04-25T13:38:00Z</time></trkpt><trkpt lat="47.86535311716707" lon="1.1418763019479226"><ele>89.14285714285714</ele><time>2026-04-25T13:38:01Z</time></trkpt><trkpt lat="47.86541706018239" lon="1.141818376126072"><ele>89.42857142857143</ele><time>2026-04-25T13:38:02Z</time></trkpt><trkpt lat="47.865471856935905" lon="1.1417699035841002"><ele>89.71428571428571</ele><time>2026-04-25T13:38:03Z</time></trkpt><trkpt lat="47.8655252419334" lon="1.1417048046854756"><ele>90.0</ele><time>2026-04-25T13:38:04Z</time></trkpt><trkpt lat="47.865623336381944" lon="1.1416248644008309"><ele>90.0</ele><time>2026-04-25T13:38:06Z</time></trkpt><trkpt lat="47.86571613291712" lon="1.1415524849463263"><ele>90.0</ele><time>2026-04-25T13:38:08Z</time></trkpt><trkpt lat="47.865794536282834" lon="1.141487191483667"><ele>90.0</ele><time>2026-04-25T13:38:10Z</time></trkpt><trkpt lat="47.86586429300044" lon="1.1414197732406794"><ele>90.0</ele><time>2026-04-25T13:38:16.001Z</time></trkpt><trkpt lat="47.86578483349256" lon="1.1412465804639826"><ele>90.0</ele><time>2026-04-25T13:38:18.001Z</time></trkpt><trkpt lat="47.86574908684359" lon="1.1411539664231953"><ele>90.0</ele><time>2026-04-25T13:38:20.001Z</time></trkpt><trkpt lat="47.86571996828477" lon="1.1410512001422257"><ele>90.0</ele><time>2026-04-25T13:38:24.001Z</time></trkpt><trkpt lat="47.86566693059247" lon="1.140907971777722"><ele>90.0</ele><time>2026-04-25T13:38:26.001Z</time></trkpt><trkpt lat="47.8656344357605" lon="1.1408194538321628"><ele>90.0</ele><time>2026-04-25T13:38:27.001Z</time></trkpt><trkpt lat="47.86559506977541" lon="1.140710798521812"><ele>90.0</ele><time>2026-04-25T13:38:28.001Z</time></trkpt><trkpt lat="47.86554124796446" lon="1.1406077394055076"><ele>90.0</ele><time>2026-04-25T13:38:29.001Z</time></trkpt><trkpt lat="47.865504106295575" lon="1.1404941620012634"><ele>90.0</ele><time>2026-04-25T13:38:30.001Z</time></trkpt><trkpt lat="47.86545875401977" lon="1.140366852973492"><ele>90.0</ele><time>2026-04-25T13:38:31.001Z</time></trkpt><trkpt lat="47.8654099821022" lon="1.1402247778968466"><ele>90.0</ele><time>2026-04-25T13:38:32.001Z</time></trkpt><trkpt lat="47.86536006746669" lon="1.1400670169694247"><ele>90.0</ele><time>2026-04-25T13:38:33.001Z</time></trkpt><trkpt lat="47.86530458624092" lon="1.139912756939362"><ele>90.0</ele><time>2026-04-25T13:38:34.001Z</time></trkpt><trkpt lat="47.86524752589165" lon="1.13976253048266"><ele>89.75</ele><time>2026-04-25T13:38:35.001Z</time></trkpt><trkpt lat="47.86518429367385" lon="1.1396055435010495"><ele>89.5</ele><time>2026-04-25T13:38:36.001Z</time></trkpt><trkpt lat="47.86511658055025" lon="1.1394417902458356"><ele>89.25</ele><time>2026-04-25T13:38:37Z</time></trkpt><trkpt lat="47.86504741217548" lon="1.139271973851246"><ele>89.0</ele><time>2026-04-25T13:38:38Z</time></trkpt><trkpt lat="47.8649760897774" lon="1.1390970453706455"><ele>89.25</ele><time>2026-04-25T13:38:39Z</time></trkpt><trkpt lat="47.86490176582724" lon="1.1389197927112271"><ele>89.5</ele><time>2026-04-25T13:38:40Z</time></trkpt><trkpt lat="47.86482586413805" lon="1.1387389212078267"><ele>89.75</ele><time>2026-04-25T13:38:41Z</time></trkpt><trkpt lat="47.864748474136725" lon="1.1385536571597297"><ele>90.0</ele><time>2026-04-25T13:38:42Z</time></trkpt><trkpt lat="47.86467215196486" lon="1.1383607693040565"><ele>89.66666666666667</ele><time>2026-04-25T13:38:43Z</time></trkpt><trkpt lat="47.86459197933538" lon="1.1381680178060334"><ele>89.33333333333334</ele><time>2026-04-25T13:38:44Z</time></trkpt><trkpt lat="47.86451391965649" lon="1.1379788610254022"><ele>89.0</ele><time>2026-04-25T13:38:45Z</time></trkpt><trkpt lat="47.86443520364758" lon="1.137790672990332"><ele>89.0</ele><time>2026-04-25T13:38:46Z</time></trkpt><trkpt lat="47.86435385895786" lon="1.137599511865039"><ele>89.0</ele><time>2026-04-25T13:38:47Z</time></trkpt><trkpt lat="47.864271965705896" lon="1.1374052700165471"><ele>89.0</ele><time>2026-04-25T13:38:48Z</time></trkpt><trkpt lat="47.86418841768" lon="1.1372098986459769"><ele>88.66666666666667</ele><time>2026-04-25T13:38:49Z</time></trkpt><trkpt lat="47.864103395911926" lon="1.137012064362438"><ele>88.33333333333333</ele><time>2026-04-25T13:38:50Z</time></trkpt><trkpt lat="47.86401781100772" lon="1.1368118805871323"><ele>88.0</ele><time>2026-04-25T13:38:51Z</time></trkpt><trkpt lat="47.86393149730852" lon="1.1366110196679704"><ele>88.33333333333333</ele><time>2026-04-25T13:38:52Z</time></trkpt><trkpt lat="47.86384456625615" lon="1.136409125514665"><ele>88.66666666666667</ele><time>2026-04-25T13:38:53Z</time></trkpt><trkpt lat="47.863757274147986" lon="1.1362058334426073"><ele>89.0</ele><time>2026-04-25T13:38:54Z</time></trkpt><trkpt lat="47.86367062868448" lon="1.1360014957986821"><ele>89.0</ele><time>2026-04-25T13:38:55Z</time></trkpt><trkpt lat="47.8635829406335" lon="1.1357956496208121"><ele>89.0</ele><time>2026-04-25T13:38:56Z</time></trkpt><trkpt lat="47.863495240257116" lon="1.1355872182650668"><ele>89.0</ele><time>2026-04-25T13:38:57Z</time></trkpt><trkpt lat="47.863407623714785" lon="1.135378534472784"><ele>88.33333333333334</ele><time>2026-04-25T13:38:58Z</time></trkpt><trkpt lat="47.86331627091545" lon="1.1351645372172958"><ele>87.66666666666667</ele><time>2026-04-25T13:38:59Z</time></trkpt><trkpt lat="47.86322206928332" lon="1.1349442602817856"><ele>87.0</ele><time>2026-04-25T13:39:00Z</time></trkpt><trkpt lat="47.863126185023816" lon="1.1347170366648553"><ele>87.0</ele><time>2026-04-25T13:39:01Z</time></trkpt><trkpt lat="47.86302968317616" lon="1.134485853570773"><ele>87.0</ele><time>2026-04-25T13:39:02Z</time></trkpt><trkpt lat="47.86293603838399" lon="1.1342587811809368"><ele>87.0</ele><time>2026-04-25T13:39:03Z</time></trkpt><trkpt lat="47.862841790873134" lon="1.1340345401640468"><ele>87.0</ele><time>2026-04-25T13:39:04Z</time></trkpt><trkpt lat="47.862741658622" lon="1.1338038958746388"><ele>87.0</ele><time>2026-04-25T13:39:05Z</time></trkpt><trkpt lat="47.86264078858983" lon="1.1335651379845533"><ele>87.0</ele><time>2026-04-25T13:39:06Z</time></trkpt><trkpt lat="47.86253763805153" lon="1.1333218347635166"><ele>86.33333333333333</ele><time>2026-04-25T13:39:07Z</time></trkpt><trkpt lat="47.862431769528285" lon="1.1330762613767427"><ele>85.66666666666666</ele><time>2026-04-25T13:39:08Z</time></trkpt><trkpt lat="47.86232819384557" lon="1.1328338072498962"><ele>85.0</ele><time>2026-04-25T13:39:09Z</time></trkpt><trkpt lat="47.86222770787719" lon="1.1325949247993685"><ele>85.0</ele><time>2026-04-25T13:39:10Z</time></trkpt><trkpt lat="47.86212542295848" lon="1.1323546036048042"><ele>85.0</ele><time>2026-04-25T13:39:11Z</time></trkpt><trkpt lat="47.86202260843857" lon="1.1321107399699912"><ele>85.0</ele><time>2026-04-25T13:39:12Z</time></trkpt><trkpt lat="47.861919051875056" lon="1.1318657553115372"><ele>85.0</ele><time>2026-04-25T13:39:13Z</time></trkpt><trkpt lat="47.861814413605615" lon="1.1316205693495136"><ele>85.0</ele><time>2026-04-25T13:39:14Z</time></trkpt><trkpt lat="47.86171006637353" lon="1.1313760093710241"><ele>85.0</ele><time>2026-04-25T13:39:15Z</time></trkpt><trkpt lat="47.86160565394489" lon="1.1311319506165378"><ele>85.0</ele><time>2026-04-25T13:39:16Z</time></trkpt><trkpt lat="47.861501621528376" lon="1.130889543246015"><ele>85.0</ele><time>2026-04-25T13:39:17Z</time></trkpt><trkpt lat="47.86139710412346" lon="1.130647861870793"><ele>85.0</ele><time>2026-04-25T13:39:18Z</time></trkpt><trkpt lat="47.86130660217834" lon="1.1303930997934293"><ele>85.66666666666666</ele><time>2026-04-25T13:39:19Z</time></trkpt><trkpt lat="47.861203078600866" lon="1.1301509523285245"><ele>86.33333333333333</ele><time>2026-04-25T13:39:20Z</time></trkpt><trkpt lat="47.86109992616708" lon="1.1299095988915129"><ele>87.0</ele><time>2026-04-25T13:39:21Z</time></trkpt><trkpt lat="47.86099679119794" lon="1.129668286313689"><ele>87.0</ele><time>2026-04-25T13:39:22Z</time></trkpt><trkpt lat="47.86089409526771" lon="1.1294280009927855"><ele>87.0</ele><time>2026-04-25T13:39:23Z</time></trkpt><trkpt lat="47.860791992596084" lon="1.1291891037624802"><ele>87.0</ele><time>2026-04-25T13:39:24Z</time></trkpt><trkpt lat="47.86069028823444" lon="1.1289514291052087"><ele>87.33333333333333</ele><time>2026-04-25T13:39:25Z</time></trkpt><trkpt lat="47.860588809561435" lon="1.1287149120978854"><ele>87.66666666666666</ele><time>2026-04-25T13:39:26Z</time></trkpt><trkpt lat="47.860487243931374" lon="1.128478192415697"><ele>88.0</ele><time>2026-04-25T13:39:27Z</time></trkpt><trkpt lat="47.86038603837445" lon="1.1282423120065408"><ele>88.33333333333333</ele><time>2026-04-25T13:39:28Z</time></trkpt><trkpt lat="47.86028506064213" lon="1.1280069625096756"><ele>88.66666666666667</ele><time>2026-04-25T13:39:29Z</time></trkpt><trkpt lat="47.86017090298281" lon="1.1277860257975256"><ele>89.0</ele><time>2026-04-25T13:39:30Z</time></trkpt><trkpt lat="47.86007320444731" lon="1.1275564268720684"><ele>89.66666666666667</ele><time>2026-04-25T13:39:31Z</time></trkpt><trkpt lat="47.85999087372407" lon="1.1273212991259796"><ele>90.33333333333333</ele><time>2026-04-25T13:39:32Z</time></trkpt><trkpt lat="47.85989620873908" lon="1.1271048372039902"><ele>91.0</ele><time>2026-04-25T13:39:33Z</time></trkpt><trkpt lat="47.8598029152131" lon="1.1268946329288716"><ele>91.0</ele><time>2026-04-25T13:39:34Z</time></trkpt><trkpt lat="47.859707798688476" lon="1.1266920150116393"><ele>91.0</ele><time>2026-04-25T13:39:35Z</time></trkpt><trkpt lat="47.85960067185806" lon="1.1265019910174152"><ele>91.0</ele><time>2026-04-25T13:39:36Z</time></trkpt><trkpt lat="47.85948815537381" lon="1.1263222537242266"><ele>91.0</ele><time>2026-04-25T13:39:37Z</time></trkpt><trkpt lat="47.85935448671044" lon="1.1261729375899303"><ele>91.0</ele><time>2026-04-25T13:39:38Z</time></trkpt><trkpt lat="47.85922952688759" lon="1.126010215947773"><ele>91.0</ele><time>2026-04-25T13:39:39Z</time></trkpt><trkpt lat="47.85911069930187" lon="1.1258303385577486"><ele>91.33333333333333</ele><time>2026-04-25T13:39:40Z</time></trkpt><trkpt lat="47.85896942018834" lon="1.1256829507066586"><ele>91.66666666666667</ele><time>2026-04-25T13:39:41Z</time></trkpt><trkpt lat="47.85883707940837" lon="1.125516925822326"><ele>92.0</ele><time>2026-04-25T13:39:42Z</time></trkpt><trkpt lat="47.85870239869853" lon="1.1253518874989625"><ele>92.0</ele><time>2026-04-25T13:39:43Z</time></trkpt><trkpt lat="47.85856735135314" lon="1.1251851287835453"><ele>92.0</ele><time>2026-04-25T13:39:44Z</time></trkpt><trkpt lat="47.858431251046355" lon="1.1250138011348771"><ele>92.0</ele><time>2026-04-25T13:39:45Z</time></trkpt><trkpt lat="47.85829197904442" lon="1.1248412303958075"><ele>92.0</ele><time>2026-04-25T13:39:46Z</time></trkpt><trkpt lat="47.85814898565327" lon="1.1246665117665757"><ele>92.0</ele><time>2026-04-25T13:39:47Z</time></trkpt><trkpt lat="47.858004912791955" lon="1.1244886643287741"><ele>92.0</ele><time>2026-04-25T13:39:48Z</time></trkpt><trkpt lat="47.857860111183996" lon="1.124310302791009"><ele>92.0</ele><time>2026-04-25T13:39:49Z</time></trkpt><trkpt lat="47.85771484854201" lon="1.124131361756494"><ele>92.0</ele><time>2026-04-25T13:39:50Z</time></trkpt><trkpt lat="47.85756962436244" lon="1.123952385583358"><ele>92.0</ele><time>2026-04-25T13:39:51Z</time></trkpt><trkpt lat="47.85742427297711" lon="1.123772075963641"><ele>92.0</ele><time>2026-04-25T13:39:52Z</time></trkpt><trkpt lat="47.85727876442001" lon="1.1235921741381747"><ele>92.0</ele><time>2026-04-25T13:39:53Z</time></trkpt><trkpt lat="47.85713318535504" lon="1.1234140774575787"><ele>92.0</ele><time>2026-04-25T13:39:54Z</time></trkpt><trkpt lat="47.85698816577496" lon="1.1232372175581498"><ele>91.33333333333334</ele><time>2026-04-25T13:39:55Z</time></trkpt><trkpt lat="47.85684331473684" lon="1.1230612376760356"><ele>90.66666666666667</ele><time>2026-04-25T13:39:56Z</time></trkpt><trkpt lat="47.85669962340236" lon="1.1228820897336038"><ele>90.0</ele><time>2026-04-25T13:39:57Z</time></trkpt><trkpt lat="47.85655640654806" lon="1.1227015702598961"><ele>90.0</ele><time>2026-04-25T13:39:58Z</time></trkpt><trkpt lat="47.85641425509747" lon="1.1225225960425498"><ele>90.0</ele><time>2026-04-25T13:39:59Z</time></trkpt><trkpt lat="47.85627305912579" lon="1.1223429642606924"><ele>90.0</ele><time>2026-04-25T13:40:00Z</time></trkpt><trkpt lat="47.85613048710217" lon="1.1221671633832158"><ele>89.33333333333333</ele><time>2026-04-25T13:40:01Z</time></trkpt><trkpt lat="47.8559883489385" lon="1.1219927751950345"><ele>88.66666666666666</ele><time>2026-04-25T13:40:02Z</time></trkpt><trkpt lat="47.85584662649644" lon="1.1218190059307067"><ele>88.0</ele><time>2026-04-25T13:40:03Z</time></trkpt><trkpt lat="47.85570561603888" lon="1.121646832242168"><ele>90.66666666666666</ele><time>2026-04-25T13:40:04Z</time></trkpt><trkpt lat="47.85556552476511" lon="1.121474802764852"><ele>93.33333333333333</ele><time>2026-04-25T13:40:05Z</time></trkpt><trkpt lat="47.855426316025564" lon="1.1213029368980503"><ele>96.0</ele><time>2026-04-25T13:40:06Z</time></trkpt><trkpt lat="47.8552877927296" lon="1.1211319831363786"><ele>96.0</ele><time>2026-04-25T13:40:07Z</time></trkpt><trkpt lat="47.855150389848916" lon="1.1209604231858779"><ele>96.0</ele><time>2026-04-25T13:40:08Z</time></trkpt><trkpt lat="47.85501448647039" lon="1.1207883570413797"><ele>96.0</ele><time>2026-04-25T13:40:09Z</time></trkpt><trkpt lat="47.85487927492333" lon="1.1206149810352524"><ele>95.66666666666667</ele><time>2026-04-25T13:40:10Z</time></trkpt><trkpt lat="47.85474500405671" lon="1.120439426519434"><ele>95.33333333333334</ele><time>2026-04-25T13:40:11Z</time></trkpt><trkpt lat="47.85461272133072" lon="1.1202638268221319"><ele>95.0</ele><time>2026-04-25T13:40:12Z</time></trkpt><trkpt lat="47.854482663205125" lon="1.1200877887381704"><ele>95.0</ele><time>2026-04-25T13:40:13Z</time></trkpt><trkpt lat="47.85435531577146" lon="1.119913483514836"><ele>95.0</ele><time>2026-04-25T13:40:14Z</time></trkpt><trkpt lat="47.854232615872654" lon="1.1197445643492931"><ele>95.0</ele><time>2026-04-25T13:40:15Z</time></trkpt><trkpt lat="47.85411772889441" lon="1.1195832985069791"><ele>94.0</ele><time>2026-04-25T13:40:16Z</time></trkpt><trkpt lat="47.85401078157718" lon="1.1194366846796429"><ele>93.0</ele><time>2026-04-25T13:40:17Z</time></trkpt><trkpt lat="47.85391761046428" lon="1.1193051892191739"><ele>92.0</ele><time>2026-04-25T13:40:18Z</time></trkpt><trkpt lat="47.853839400797526" lon="1.1191921295363716"><ele>91.0</ele><time>2026-04-25T13:40:19Z</time></trkpt><trkpt lat="47.85377379706593" lon="1.1190966702974035"><ele>90.19999999999999</ele><time>2026-04-25T13:40:20Z</time></trkpt><trkpt lat="47.85372365658894" lon="1.119025211411815"><ele>89.39999999999999</ele><time>2026-04-25T13:40:21Z</time></trkpt><trkpt lat="47.85364975665604" lon="1.1189200407197433"><ele>88.6</ele><time>2026-04-25T13:40:23Z</time></trkpt><trkpt lat="47.85355740567303" lon="1.1187819368130196"><ele>87.8</ele><time>2026-04-25T13:40:25Z</time></trkpt><trkpt lat="47.85350361619732" lon="1.1186956979952263"><ele>87.0</ele><time>2026-04-25T13:40:26Z</time></trkpt><trkpt lat="47.85344286103507" lon="1.1185918237831984"><ele>87.0</ele><time>2026-04-25T13:40:27Z</time></trkpt><trkpt lat="47.85337657620593" lon="1.1184688530028322"><ele>87.0</ele><time>2026-04-25T13:40:28Z</time></trkpt><trkpt lat="47.85330483215709" lon="1.1183276564950877"><ele>87.0</ele><time>2026-04-25T13:40:29Z</time></trkpt><trkpt lat="47.853236974706384" lon="1.1181863275823438"><ele>87.0</ele><time>2026-04-25T13:40:30Z</time></trkpt><trkpt lat="47.8531699078029" lon="1.1180409505565987"><ele>88.75</ele><time>2026-04-25T13:40:31Z</time></trkpt><trkpt lat="47.85310139254011" lon="1.1178861750205564"><ele>90.5</ele><time>2026-04-25T13:40:32Z</time></trkpt><trkpt lat="47.853032233112" lon="1.1177216135250287"><ele>92.25</ele><time>2026-04-25T13:40:33Z</time></trkpt><trkpt lat="47.85296000058666" lon="1.11755176011742"><ele>94.0</ele><time>2026-04-25T13:40:34Z</time></trkpt><trkpt lat="47.852888923619716" lon="1.117379748214318"><ele>95.75</ele><time>2026-04-25T13:40:35Z</time></trkpt><trkpt lat="47.85281987688684" lon="1.1172077276390906"><ele>97.5</ele><time>2026-04-25T13:40:36Z</time></trkpt><trkpt lat="47.85275364146966" lon="1.1170372533461441"><ele>99.25</ele><time>2026-04-25T13:40:37Z</time></trkpt><trkpt lat="47.85269060717777" lon="1.1168682631950297"><ele>101.0</ele><time>2026-04-25T13:40:38Z</time></trkpt><trkpt lat="47.85263060281145" lon="1.1167043773101213"><ele>99.4</ele><time>2026-04-25T13:40:39Z</time></trkpt><trkpt lat="47.85257596659671" lon="1.1165553364728222"><ele>97.8</ele><time>2026-04-25T13:40:40Z</time></trkpt><trkpt lat="47.85252621050821" lon="1.116420965997675"><ele>96.2</ele><time>2026-04-25T13:40:41Z</time></trkpt><trkpt lat="47.85248010916198" lon="1.116298729023492"><ele>94.60000000000001</ele><time>2026-04-25T13:40:42Z</time></trkpt><trkpt lat="47.85243877808669" lon="1.11619003567656"><ele>93.0</ele><time>2026-04-25T13:40:43Z</time></trkpt><trkpt lat="47.85240194400485" lon="1.1160949550146346"><ele>93.0</ele><time>2026-04-25T13:40:44Z</time></trkpt><trkpt lat="47.8523669119951" lon="1.1160074962971829"><ele>93.0</ele><time>2026-04-25T13:40:45Z</time></trkpt><trkpt lat="47.85232568426141" lon="1.1159160504778793"><ele>93.0</ele><time>2026-04-25T13:40:46Z</time></trkpt><trkpt lat="47.8522769228604" lon="1.1158131159602178"><ele>93.0</ele><time>2026-04-25T13:40:47Z</time></trkpt><trkpt lat="47.85222305520019" lon="1.1157028489086436"><ele>93.0</ele><time>2026-04-25T13:40:48Z</time></trkpt><trkpt lat="47.85216408556159" lon="1.1155918793141846"><ele>93.0</ele><time>2026-04-25T13:40:49Z</time></trkpt><trkpt lat="47.852099979456156" lon="1.115476169949061"><ele>93.60000000000001</ele><time>2026-04-25T13:40:50Z</time></trkpt><trkpt lat="47.852031289671224" lon="1.1153556867164707"><ele>94.2</ele><time>2026-04-25T13:40:51Z</time></trkpt><trkpt lat="47.85195834495006" lon="1.1152359891173107"><ele>94.8</ele><time>2026-04-25T13:40:52Z</time></trkpt><trkpt lat="47.85188105544415" lon="1.1151164971651828"><ele>95.4</ele><time>2026-04-25T13:40:53Z</time></trkpt><trkpt lat="47.85180436250208" lon="1.1149962218602463"><ele>96.0</ele><time>2026-04-25T13:40:54Z</time></trkpt><trkpt lat="47.85173584260748" lon="1.114867090176119"><ele>94.8</ele><time>2026-04-25T13:40:55Z</time></trkpt><trkpt lat="47.85167157258752" lon="1.114733758699727"><ele>93.6</ele><time>2026-04-25T13:40:56Z</time></trkpt><trkpt lat="47.851600242746905" lon="1.1146125493969734"><ele>92.4</ele><time>2026-04-25T13:40:57Z</time></trkpt><trkpt lat="47.85152606536767" lon="1.114500548189203"><ele>91.2</ele><time>2026-04-25T13:40:58Z</time></trkpt><trkpt lat="47.85145472422425" lon="1.1143929544556543"><ele>90.0</ele><time>2026-04-25T13:40:59Z</time></trkpt><trkpt lat="47.85138618853143" lon="1.1142885081762561"><ele>90.0</ele><time>2026-04-25T13:41:00Z</time></trkpt><trkpt lat="47.851322734952824" lon="1.114179344464618"><ele>90.0</ele><time>2026-04-25T13:41:01Z</time></trkpt><trkpt lat="47.85126246083179" lon="1.1140617604444143"><ele>90.0</ele><time>2026-04-25T13:41:02Z</time></trkpt><trkpt lat="47.851202851689436" lon="1.1139409760212475"><ele>90.0</ele><time>2026-04-25T13:41:03Z</time></trkpt><trkpt lat="47.85113888625193" lon="1.1138247630470994"><ele>90.0</ele><time>2026-04-25T13:41:04Z</time></trkpt><trkpt lat="47.85107253013121" lon="1.1137129601264597"><ele>89.6</ele><time>2026-04-25T13:41:05Z</time></trkpt><trkpt lat="47.85100916663032" lon="1.1135968229390076"><ele>89.2</ele><time>2026-04-25T13:41:06Z</time></trkpt><trkpt lat="47.85094919065912" lon="1.1134789828020526"><ele>88.80000000000001</ele><time>2026-04-25T13:41:07Z</time></trkpt><trkpt lat="47.850893354307225" lon="1.1133639451970139"><ele>88.4</ele><time>2026-04-25T13:41:08Z</time></trkpt><trkpt lat="47.85084449638372" lon="1.1132591253016562"><ele>88.0</ele><time>2026-04-25T13:41:09Z</time></trkpt><trkpt lat="47.850805252355705" lon="1.113171861454044"><ele>88.0</ele><time>2026-04-25T13:41:10Z</time></trkpt><trkpt lat="47.85075115439942" lon="1.113045464737821"><ele>88.0</ele><time>2026-04-25T13:41:12Z</time></trkpt><trkpt lat="47.85069888387426" lon="1.1129079512151596"><ele>88.0</ele><time>2026-04-25T13:41:14Z</time></trkpt><trkpt lat="47.85066413147498" lon="1.1128144244951053"><ele>88.0</ele><time>2026-04-25T13:41:15Z</time></trkpt><trkpt lat="47.8506254965386" lon="1.1127015942435456"><ele>88.0</ele><time>2026-04-25T13:41:16Z</time></trkpt><trkpt lat="47.850582938084074" lon="1.1125728553332284"><ele>88.0</ele><time>2026-04-25T13:41:17Z</time></trkpt><trkpt lat="47.850535236849986" lon="1.112434468790791"><ele>88.0</ele><time>2026-04-25T13:41:18Z</time></trkpt><trkpt lat="47.8504908753382" lon="1.1122966468532782"><ele>88.0</ele><time>2026-04-25T13:41:19Z</time></trkpt><trkpt lat="47.85044253057584" lon="1.1121474723380866"><ele>88.0</ele><time>2026-04-25T13:41:20Z</time></trkpt><trkpt lat="47.85039105867022" lon="1.1119858610798719"><ele>88.0</ele><time>2026-04-25T13:41:21Z</time></trkpt><trkpt lat="47.85033489330482" lon="1.1118129361059808"><ele>87.75</ele><time>2026-04-25T13:41:22Z</time></trkpt><trkpt lat="47.850294527418306" lon="1.1116169354125625"><ele>87.5</ele><time>2026-04-25T13:41:23Z</time></trkpt><trkpt lat="47.850232959645766" lon="1.1114243886245"><ele>87.25</ele><time>2026-04-25T13:41:24Z</time></trkpt><trkpt lat="47.85015651804275" lon="1.1112339334284702"><ele>87.0</ele><time>2026-04-25T13:41:25Z</time></trkpt><trkpt lat="47.850093083602346" lon="1.111024317689095"><ele>88.0</ele><time>2026-04-25T13:41:26Z</time></trkpt><trkpt lat="47.85003020464672" lon="1.1108185963755532"><ele>89.0</ele><time>2026-04-25T13:41:27Z</time></trkpt><trkpt lat="47.849966675489384" lon="1.110613401727147"><ele>90.0</ele><time>2026-04-25T13:41:28Z</time></trkpt><trkpt lat="47.84989988767713" lon="1.1104016335094775"><ele>91.33333333333333</ele><time>2026-04-25T13:41:29Z</time></trkpt><trkpt lat="47.84982993677949" lon="1.1101785355243017"><ele>92.66666666666666</ele><time>2026-04-25T13:41:30Z</time></trkpt><trkpt lat="47.84975813068142" lon="1.1099479804431516"><ele>94.0</ele><time>2026-04-25T13:41:31Z</time></trkpt><trkpt lat="47.84968249540125" lon="1.1097116545672674"><ele>94.66666666666666</ele><time>2026-04-25T13:41:32Z</time></trkpt><trkpt lat="47.84960428534828" lon="1.1094674540333829"><ele>95.33333333333333</ele><time>2026-04-25T13:41:33Z</time></trkpt><trkpt lat="47.84952324186866" lon="1.1092145727477396"><ele>96.0</ele><time>2026-04-25T13:41:34Z</time></trkpt><trkpt lat="47.84945713568764" lon="1.1089417145741163"><ele>97.33333333333334</ele><time>2026-04-25T13:41:35Z</time></trkpt><trkpt lat="47.84937316750798" lon="1.108672773578141"><ele>98.66666666666667</ele><time>2026-04-25T13:41:36Z</time></trkpt><trkpt lat="47.84928671943846" lon="1.1083974401452692"><ele>100.0</ele><time>2026-04-25T13:41:37Z</time></trkpt><trkpt lat="47.849197885575904" lon="1.1081145079283294"><ele>100.66666666666667</ele><time>2026-04-25T13:41:38Z</time></trkpt><trkpt lat="47.84910704354515" lon="1.1078242712553314"><ele>101.33333333333334</ele><time>2026-04-25T13:41:39Z</time></trkpt><trkpt lat="47.849014505502126" lon="1.1075296538919546"><ele>102.0</ele><time>2026-04-25T13:41:40Z</time></trkpt><trkpt lat="47.84892334755966" lon="1.1072439870058302"><ele>102.0</ele><time>2026-04-25T13:41:41Z</time></trkpt><trkpt lat="47.84883458799277" lon="1.1069629349553713"><ele>102.0</ele><time>2026-04-25T13:41:42Z</time></trkpt><trkpt lat="47.848744131315335" lon="1.1066823789807656"><ele>102.0</ele><time>2026-04-25T13:41:43Z</time></trkpt><trkpt lat="47.84865557260494" lon="1.1063979239633777"><ele>101.66666666666666</ele><time>2026-04-25T13:41:44Z</time></trkpt><trkpt lat="47.84856536013374" lon="1.1061122137143504"><ele>101.33333333333333</ele><time>2026-04-25T13:41:45Z</time></trkpt><trkpt lat="47.84847442442406" lon="1.1058288867767432"><ele>101.0</ele><time>2026-04-25T13:41:46Z</time></trkpt><trkpt lat="47.848386515850144" lon="1.1055488810809917"><ele>101.66666666666666</ele><time>2026-04-25T13:41:47Z</time></trkpt><trkpt lat="47.84829935498609" lon="1.10527072688667"><ele>102.33333333333334</ele><time>2026-04-25T13:41:48Z</time></trkpt><trkpt lat="47.84821140881513" lon="1.1049927782103801"><ele>103.0</ele><time>2026-04-25T13:41:49Z</time></trkpt><trkpt lat="47.848124777987614" lon="1.104720266546906"><ele>103.0</ele><time>2026-04-25T13:41:50Z</time></trkpt><trkpt lat="47.84803872107857" lon="1.1044495602090465"><ele>103.0</ele><time>2026-04-25T13:41:51Z</time></trkpt><trkpt lat="47.847952154290084" lon="1.1041781969650604"><ele>103.0</ele><time>2026-04-25T13:41:52Z</time></trkpt><trkpt lat="47.84786623266996" lon="1.1039097621349572"><ele>103.0</ele><time>2026-04-25T13:41:53Z</time></trkpt><trkpt lat="47.84778276865299" lon="1.1036444772483025"><ele>103.0</ele><time>2026-04-25T13:41:54Z</time></trkpt><trkpt lat="47.84769897131057" lon="1.1033829348394233"><ele>103.0</ele><time>2026-04-25T13:41:55Z</time></trkpt><trkpt lat="47.847605421234626" lon="1.1031335648708276"><ele>102.33333333333334</ele><time>2026-04-25T13:41:56Z</time></trkpt><trkpt lat="47.84751012771106" lon="1.102891943183535"><ele>101.66666666666666</ele><time>2026-04-25T13:41:57Z</time></trkpt><trkpt lat="47.84740895936355" lon="1.1026643588885343"><ele>101.0</ele><time>2026-04-25T13:41:58Z</time></trkpt><trkpt lat="47.84730654252154" lon="1.1024495089293267"><ele>101.0</ele><time>2026-04-25T13:41:59Z</time></trkpt><trkpt lat="47.847200391629606" lon="1.1022463297223748"><ele>101.0</ele><time>2026-04-25T13:42:00Z</time></trkpt><trkpt lat="47.84708931310973" lon="1.1020528656592785"><ele>101.0</ele><time>2026-04-25T13:42:01Z</time></trkpt><trkpt lat="47.84697600901645" lon="1.101869164991375"><ele>101.0</ele><time>2026-04-25T13:42:02Z</time></trkpt><trkpt lat="47.84686035282663" lon="1.101692397209845"><ele>101.0</ele><time>2026-04-25T13:42:03Z</time></trkpt><trkpt lat="47.84674113636956" lon="1.101522885113459"><ele>101.0</ele><time>2026-04-25T13:42:04Z</time></trkpt><trkpt lat="47.8466259859203" lon="1.1013641949410897"><ele>100.25</ele><time>2026-04-25T13:42:05Z</time></trkpt><trkpt lat="47.84651224776156" lon="1.1012142075375333"><ele>99.5</ele><time>2026-04-25T13:42:06Z</time></trkpt><trkpt lat="47.84640177941" lon="1.1010748604022151"><ele>98.75</ele><time>2026-04-25T13:42:07Z</time></trkpt><trkpt lat="47.84628925613328" lon="1.100966363091508"><ele>98.0</ele><time>2026-04-25T13:42:08Z</time></trkpt><trkpt lat="47.84620117914501" lon="1.100850184635836"><ele>97.83333333333333</ele><time>2026-04-25T13:42:09Z</time></trkpt><trkpt lat="47.84612612484481" lon="1.1007450093412365"><ele>97.66666666666666</ele><time>2026-04-25T13:42:10Z</time></trkpt><trkpt lat="47.84606723421343" lon="1.1006483549230768"><ele>97.5</ele><time>2026-04-25T13:42:11Z</time></trkpt><trkpt lat="47.84602172640096" lon="1.1005547377066394"><ele>97.33333333333334</ele><time>2026-04-25T13:42:12Z</time></trkpt><trkpt lat="47.84598963465076" lon="1.1004511440490874"><ele>97.16666666666667</ele><time>2026-04-25T13:42:13Z</time></trkpt><trkpt lat="47.84600757342013" lon="1.1003195002223716"><ele>97.0</ele><time>2026-04-25T13:42:14Z</time></trkpt><trkpt lat="47.84598865596296" lon="1.100195895038699"><ele>97.0</ele><time>2026-04-25T13:42:15Z</time></trkpt><trkpt lat="47.8460199023159" lon="1.1000581380430599"><ele>97.0</ele><time>2026-04-25T13:42:16Z</time></trkpt><trkpt lat="47.84607220490777" lon="1.0999198684936242"><ele>97.0</ele><time>2026-04-25T13:42:17Z</time></trkpt><trkpt lat="47.846139911037056" lon="1.099778702691844"><ele>97.0</ele><time>2026-04-25T13:42:18Z</time></trkpt><trkpt lat="47.846215100434534" lon="1.0996281370130958"><ele>97.0</ele><time>2026-04-25T13:42:19Z</time></trkpt><trkpt lat="47.846311079852114" lon="1.0994813274411666"><ele>97.0</ele><time>2026-04-25T13:42:20Z</time></trkpt><trkpt lat="47.84639274921484" lon="1.0993205482490078"><ele>97.0</ele><time>2026-04-25T13:42:21Z</time></trkpt><trkpt lat="47.84647172842005" lon="1.0991623640298955"><ele>97.0</ele><time>2026-04-25T13:42:22Z</time></trkpt><trkpt lat="47.84655358520134" lon="1.0989995797107481"><ele>97.0</ele><time>2026-04-25T13:42:23Z</time></trkpt><trkpt lat="47.84662203564569" lon="1.0988228635070778"><ele>97.0</ele><time>2026-04-25T13:42:24Z</time></trkpt><trkpt lat="47.846707367972876" lon="1.0986821230601356"><ele>97.0</ele><time>2026-04-25T13:42:25Z</time></trkpt><trkpt lat="47.84677734581522" lon="1.0985436087235425"><ele>97.0</ele><time>2026-04-25T13:42:26Z</time></trkpt><trkpt lat="47.846845048213176" lon="1.0984124753897695"><ele>97.0</ele><time>2026-04-25T13:42:27Z</time></trkpt><trkpt lat="47.84691234884741" lon="1.0982961748897198"><ele>96.66666666666667</ele><time>2026-04-25T13:42:28Z</time></trkpt><trkpt lat="47.84697611645568" lon="1.098203820030474"><ele>96.33333333333334</ele><time>2026-04-25T13:42:29Z</time></trkpt><trkpt lat="47.847044868854844" lon="1.0981375406790705"><ele>96.0</ele><time>2026-04-25T13:42:30Z</time></trkpt><trkpt lat="47.84712306536593" lon="1.098100626309968"><ele>95.66666666666667</ele><time>2026-04-25T13:42:31Z</time></trkpt><trkpt lat="47.84720177047727" lon="1.0980666732758517"><ele>95.33333333333334</ele><time>2026-04-25T13:42:32Z</time></trkpt><trkpt lat="47.84726839584904" lon="1.0980064260084577"><ele>95.0</ele><time>2026-04-25T13:42:33Z</time></trkpt><trkpt lat="47.84733143916858" lon="1.0979513015810736"><ele>95.0</ele><time>2026-04-25T13:42:34Z</time></trkpt><trkpt lat="47.84732283191451" lon="1.0978162215387457"><ele>95.0</ele><time>2026-04-25T13:42:35Z</time></trkpt><trkpt lat="47.847310331800166" lon="1.097711169408376"><ele>95.0</ele><time>2026-04-25T13:42:36Z</time></trkpt><trkpt lat="47.847273188221855" lon="1.0976159768654152"><ele>95.0</ele><time>2026-04-25T13:42:37Z</time></trkpt><trkpt lat="47.847211812331906" lon="1.0975312224598237"><ele>95.0</ele><time>2026-04-25T13:42:38Z</time></trkpt><trkpt lat="47.847131170550256" lon="1.0975010437532065"><ele>95.0</ele><time>2026-04-25T13:42:39Z</time></trkpt><trkpt lat="47.84704591871871" lon="1.0975206113880385"><ele>95.0</ele><time>2026-04-25T13:42:40Z</time></trkpt><trkpt lat="47.84696948523281" lon="1.0975865964864457"><ele>95.0</ele><time>2026-04-25T13:42:41Z</time></trkpt><trkpt lat="47.84690512130782" lon="1.0976661202206919"><ele>95.0</ele><time>2026-04-25T13:42:42Z</time></trkpt><trkpt lat="47.84690110591977" lon="1.0977675380368745"><ele>95.0</ele><time>2026-04-25T13:42:43Z</time></trkpt><trkpt lat="47.84674501998258" lon="1.0977089176776065"><ele>95.0</ele><time>2026-04-25T13:42:44Z</time></trkpt><trkpt lat="47.846659596323114" lon="1.097661836605354"><ele>95.0</ele><time>2026-04-25T13:42:45Z</time></trkpt><trkpt lat="47.8465797218518" lon="1.0975786090177517"><ele>95.0</ele><time>2026-04-25T13:42:46Z</time></trkpt><trkpt lat="47.84648667951179" lon="1.0974894223794036"><ele>95.0</ele><time>2026-04-25T13:42:47Z</time></trkpt><trkpt lat="47.84637845714036" lon="1.097391005973256"><ele>95.0</ele><time>2026-04-25T13:42:48Z</time></trkpt><trkpt lat="47.84626130761674" lon="1.0972758378813015"><ele>96.0</ele><time>2026-04-25T13:42:49Z</time></trkpt><trkpt lat="47.84614924761185" lon="1.097148085732812"><ele>97.0</ele><time>2026-04-25T13:42:50Z</time></trkpt><trkpt lat="47.84604609898287" lon="1.0970120365016391"><ele>98.0</ele><time>2026-04-25T13:42:51Z</time></trkpt><trkpt lat="47.8459400222689" lon="1.0968587695974814"><ele>99.0</ele><time>2026-04-25T13:42:52Z</time></trkpt><trkpt lat="47.84583648242328" lon="1.0966903384204705"><ele>99.33333333333334</ele><time>2026-04-25T13:42:53Z</time></trkpt><trkpt lat="47.84573693903925" lon="1.0965044233098464"><ele>99.66666666666667</ele><time>2026-04-25T13:42:54Z</time></trkpt><trkpt lat="47.84564017292013" lon="1.0963000527054252"><ele>100.0</ele><time>2026-04-25T13:42:55Z</time></trkpt><trkpt lat="47.845544310064575" lon="1.0960817609752498"><ele>100.0</ele><time>2026-04-25T13:42:56Z</time></trkpt><trkpt lat="47.8454458431629" lon="1.095850644254015"><ele>100.0</ele><time>2026-04-25T13:42:57Z</time></trkpt><trkpt lat="47.845344395219236" lon="1.095606246692202"><ele>100.0</ele><time>2026-04-25T13:42:58Z</time></trkpt><trkpt lat="47.845236206200425" lon="1.0953551222753317"><ele>99.0</ele><time>2026-04-25T13:42:59Z</time></trkpt><trkpt lat="47.84511436051634" lon="1.0951020001323741"><ele>98.0</ele><time>2026-04-25T13:43:00Z</time></trkpt><trkpt lat="47.84498808321088" lon="1.0948595149228562"><ele>97.0</ele><time>2026-04-25T13:43:01Z</time></trkpt><trkpt lat="47.844859659896834" lon="1.0946250294382154"><ele>96.66666666666667</ele><time>2026-04-25T13:43:02Z</time></trkpt><trkpt lat="47.8447228565405" lon="1.094390887297265"><ele>96.33333333333334</ele><time>2026-04-25T13:43:03Z</time></trkpt><trkpt lat="47.8445798263693" lon="1.094155514457698"><ele>96.0</ele><time>2026-04-25T13:43:04Z</time></trkpt><trkpt lat="47.84442905192864" lon="1.0939228862608257"><ele>95.0</ele><time>2026-04-25T13:43:05Z</time></trkpt><trkpt lat="47.844271909594156" lon="1.093693312410269"><ele>94.0</ele><time>2026-04-25T13:43:06Z</time></trkpt><trkpt lat="47.84410794904326" lon="1.0934713882737357"><ele>93.0</ele><time>2026-04-25T13:43:07Z</time></trkpt><trkpt lat="47.84393927295329" lon="1.0932578960602297"><ele>93.33333333333333</ele><time>2026-04-25T13:43:08Z</time></trkpt><trkpt lat="47.84376519142527" lon="1.0930534206803064"><ele>93.66666666666666</ele><time>2026-04-25T13:43:09Z</time></trkpt><trkpt lat="47.843585471517954" lon="1.0928586050869329"><ele>94.0</ele><time>2026-04-25T13:43:10Z</time></trkpt><trkpt lat="47.843400357695714" lon="1.0926728595444697"><ele>94.33333333333333</ele><time>2026-04-25T13:43:11Z</time></trkpt><trkpt lat="47.84321117060958" lon="1.09249461097418"><ele>94.66666666666667</ele><time>2026-04-25T13:43:12Z</time></trkpt><trkpt lat="47.84301865590668" lon="1.0923200602511798"><ele>95.0</ele><time>2026-04-25T13:43:13Z</time></trkpt><trkpt lat="47.84282240763378" lon="1.0921525696145067"><ele>95.0</ele><time>2026-04-25T13:43:14Z</time></trkpt><trkpt lat="47.84262625934795" lon="1.0919830684201857"><ele>95.0</ele><time>2026-04-25T13:43:15Z</time></trkpt><trkpt lat="47.84242953501116" lon="1.0918138688268042"><ele>95.0</ele><time>2026-04-25T13:43:16Z</time></trkpt><trkpt lat="47.84223114020248" lon="1.091646536200795"><ele>95.0</ele><time>2026-04-25T13:43:17Z</time></trkpt><trkpt lat="47.84203221865466" lon="1.0914765070270285"><ele>94.5</ele><time>2026-04-25T13:43:18Z</time></trkpt><trkpt lat="47.841833601937815" lon="1.091305360019594"><ele>94.0</ele><time>2026-04-25T13:43:19Z</time></trkpt><trkpt lat="47.84163314211861" lon="1.091135916412394"><ele>93.5</ele><time>2026-04-25T13:43:20Z</time></trkpt><trkpt lat="47.841432144308875" lon="1.0909654041136783"><ele>93.0</ele><time>2026-04-25T13:43:21Z</time></trkpt><trkpt lat="47.84122858962745" lon="1.0907945303867317"><ele>93.0</ele><time>2026-04-25T13:43:22Z</time></trkpt><trkpt lat="47.84102511214474" lon="1.0906222009032382"><ele>93.0</ele><time>2026-04-25T13:43:23Z</time></trkpt><trkpt lat="47.840818971519695" lon="1.0904490175657418"><ele>93.0</ele><time>2026-04-25T13:43:24Z</time></trkpt><trkpt lat="47.840611434076614" lon="1.090271227599661"><ele>93.0</ele><time>2026-04-25T13:43:25Z</time></trkpt><trkpt lat="47.84040042034779" lon="1.0900909433621633"><ele>93.0</ele><time>2026-04-25T13:43:26Z</time></trkpt><trkpt lat="47.84018822430809" lon="1.0899066693805546"><ele>93.0</ele><time>2026-04-25T13:43:27Z</time></trkpt><trkpt lat="47.83997306135712" lon="1.0897228459551"><ele>93.0</ele><time>2026-04-25T13:43:28Z</time></trkpt><trkpt lat="47.83975621970661" lon="1.0895383909572942"><ele>93.0</ele><time>2026-04-25T13:43:29Z</time></trkpt><trkpt lat="47.839539716778674" lon="1.089352345832138"><ele>93.0</ele><time>2026-04-25T13:43:30Z</time></trkpt><trkpt lat="47.8393224105802" lon="1.089167129067672"><ele>93.0</ele><time>2026-04-25T13:43:31Z</time></trkpt><trkpt lat="47.83910441545039" lon="1.0889825787868093"><ele>93.0</ele><time>2026-04-25T13:43:32Z</time></trkpt><trkpt lat="47.83888557474727" lon="1.0887965932023356"><ele>93.0</ele><time>2026-04-25T13:43:33Z</time></trkpt><trkpt lat="47.838667258789805" lon="1.0886109791646752"><ele>93.0</ele><time>2026-04-25T13:43:34Z</time></trkpt><trkpt lat="47.838448705805384" lon="1.088426522964207"><ele>93.0</ele><time>2026-04-25T13:43:35Z</time></trkpt><trkpt lat="47.8382296091777" lon="1.0882422675141263"><ele>93.0</ele><time>2026-04-25T13:43:36Z</time></trkpt><trkpt lat="47.83801142561734" lon="1.0880560324025776"><ele>93.0</ele><time>2026-04-25T13:43:37Z</time></trkpt><trkpt lat="47.83779274199285" lon="1.0878698385841277"><ele>95.0</ele><time>2026-04-25T13:43:38Z</time></trkpt><trkpt lat="47.83757558763209" lon="1.0876842771105233"><ele>97.0</ele><time>2026-04-25T13:43:39Z</time></trkpt><trkpt lat="47.83735890168984" lon="1.0875003871085323"><ele>94.5</ele><time>2026-04-25T13:43:40Z</time></trkpt><trkpt lat="47.83714348440079" lon="1.0873185689376286"><ele>92.0</ele><time>2026-04-25T13:43:41Z</time></trkpt><trkpt lat="47.83692966873247" lon="1.0871371216218921"><ele>94.0</ele><time>2026-04-25T13:43:42Z</time></trkpt><trkpt lat="47.83671520805924" lon="1.0869564437913903"><ele>96.0</ele><time>2026-04-25T13:43:43Z</time></trkpt><trkpt lat="47.83650134898292" lon="1.0867752990359225"><ele>94.5</ele><time>2026-04-25T13:43:44Z</time></trkpt><trkpt lat="47.836287669070586" lon="1.0865941856202561"><ele>93.0</ele><time>2026-04-25T13:43:45Z</time></trkpt><trkpt lat="47.836073605898704" lon="1.0864151934308128"><ele>93.5</ele><time>2026-04-25T13:43:46Z</time></trkpt><trkpt lat="47.83585992601735" lon="1.0862358858205767"><ele>94.0</ele><time>2026-04-25T13:43:47Z</time></trkpt><trkpt lat="47.83564674655604" lon="1.0860552828166614"><ele>94.0</ele><time>2026-04-25T13:43:48Z</time></trkpt><trkpt lat="47.83543477939093" lon="1.0858739608768635"><ele>94.0</ele><time>2026-04-25T13:43:49Z</time></trkpt><trkpt lat="47.83522169418274" lon="1.0856921843902707"><ele>93.5</ele><time>2026-04-25T13:43:50Z</time></trkpt><trkpt lat="47.83500846352012" lon="1.0855090825469222"><ele>93.0</ele><time>2026-04-25T13:43:51Z</time></trkpt><trkpt lat="47.83479537888707" lon="1.0853264772399553"><ele>93.0</ele><time>2026-04-25T13:43:52Z</time></trkpt><trkpt lat="47.834582106077825" lon="1.0851440061823943"><ele>93.0</ele><time>2026-04-25T13:43:53Z</time></trkpt><trkpt lat="47.83436888420021" lon="1.0849623120227836"><ele>92.5</ele><time>2026-04-25T13:43:54Z</time></trkpt><trkpt lat="47.83415548183429" lon="1.084781526697659"><ele>92.0</ele><time>2026-04-25T13:43:55Z</time></trkpt><trkpt lat="47.8339421119862" lon="1.0846025833442177"><ele>92.0</ele><time>2026-04-25T13:43:56Z</time></trkpt><trkpt lat="47.83373000842535" lon="1.0844244612801373"><ele>92.0</ele><time>2026-04-25T13:43:57Z</time></trkpt><trkpt lat="47.833518016251226" lon="1.0842447271630595"><ele>90.5</ele><time>2026-04-25T13:43:58Z</time></trkpt><trkpt lat="47.83330524957612" lon="1.0840646035062642"><ele>89.0</ele><time>2026-04-25T13:43:59Z</time></trkpt><trkpt lat="47.83309188299282" lon="1.0838859807510297"><ele>89.0</ele><time>2026-04-25T13:44:00Z</time></trkpt><trkpt lat="47.83287922999911" lon="1.0837061578078855"><ele>89.0</ele><time>2026-04-25T13:44:01Z</time></trkpt><trkpt lat="47.8326679309344" lon="1.0835264951307109"><ele>88.5</ele><time>2026-04-25T13:44:02Z</time></trkpt><trkpt lat="47.83245785585336" lon="1.0833485584889528"><ele>88.0</ele><time>2026-04-25T13:44:03Z</time></trkpt><trkpt lat="47.832249619114464" lon="1.0831728729502599"><ele>87.5</ele><time>2026-04-25T13:44:04Z</time></trkpt><trkpt lat="47.83204352339574" lon="1.0829962078631508"><ele>87.0</ele><time>2026-04-25T13:44:05Z</time></trkpt><trkpt lat="47.83183917124413" lon="1.08282251250506"><ele>87.0</ele><time>2026-04-25T13:44:06Z</time></trkpt><trkpt lat="47.83163645284506" lon="1.082651125553867"><ele>87.0</ele><time>2026-04-25T13:44:07Z</time></trkpt><trkpt lat="47.83143664607799" lon="1.0824816884850148"><ele>88.0</ele><time>2026-04-25T13:44:08Z</time></trkpt><trkpt lat="47.83123793304575" lon="1.0823143271033502"><ele>89.0</ele><time>2026-04-25T13:44:09Z</time></trkpt><trkpt lat="47.831039474892385" lon="1.0821473582128036"><ele>90.5</ele><time>2026-04-25T13:44:10Z</time></trkpt><trkpt lat="47.8308420002091" lon="1.0819812119196943"><ele>92.0</ele><time>2026-04-25T13:44:11Z</time></trkpt><trkpt lat="47.83064667780417" lon="1.0818137391239226"><ele>92.0</ele><time>2026-04-25T13:44:12Z</time></trkpt><trkpt lat="47.83045137792862" lon="1.0816502516453614"><ele>92.0</ele><time>2026-04-25T13:44:13Z</time></trkpt><trkpt lat="47.830258958982995" lon="1.0814860605022636"><ele>92.0</ele><time>2026-04-25T13:44:14Z</time></trkpt><trkpt lat="47.830068327827234" lon="1.0813234687646762"><ele>92.33333333333334</ele><time>2026-04-25T13:44:15Z</time></trkpt><trkpt lat="47.82987879272432" lon="1.081162755411167"><ele>92.66666666666667</ele><time>2026-04-25T13:44:16Z</time></trkpt><trkpt lat="47.82968876877534" lon="1.0810026633008052"><ele>93.0</ele><time>2026-04-25T13:44:17Z</time></trkpt><trkpt lat="47.82949783159443" lon="1.0808398624963342"><ele>92.66666666666667</ele><time>2026-04-25T13:44:18Z</time></trkpt><trkpt lat="47.82930481935361" lon="1.0806764262473039"><ele>92.33333333333334</ele><time>2026-04-25T13:44:19Z</time></trkpt><trkpt lat="47.829109810743454" lon="1.080508063832349"><ele>92.0</ele><time>2026-04-25T13:44:20Z</time></trkpt><trkpt lat="47.82891181174486" lon="1.0803400207602458"><ele>92.0</ele><time>2026-04-25T13:44:21Z</time></trkpt><trkpt lat="47.82871219318083" lon="1.080170623263226"><ele>92.0</ele><time>2026-04-25T13:44:22Z</time></trkpt><trkpt lat="47.82851062869566" lon="1.0800000989928997"><ele>93.5</ele><time>2026-04-25T13:44:23Z</time></trkpt><trkpt lat="47.82830728795332" lon="1.0798283660510608"><ele>95.0</ele><time>2026-04-25T13:44:24Z</time></trkpt><trkpt lat="47.82810521811127" lon="1.0796558539960746"><ele>95.0</ele><time>2026-04-25T13:44:25Z</time></trkpt><trkpt lat="47.82790353750849" lon="1.0794846412788042"><ele>95.0</ele><time>2026-04-25T13:44:26Z</time></trkpt><trkpt lat="47.82770480213728" lon="1.0793160783685196"><ele>95.33333333333334</ele><time>2026-04-25T13:44:27Z</time></trkpt><trkpt lat="47.827508321813305" lon="1.07915075268094"><ele>95.66666666666667</ele><time>2026-04-25T13:44:28Z</time></trkpt><trkpt lat="47.82731568099806" lon="1.0789879667803137"><ele>96.0</ele><time>2026-04-25T13:44:29Z</time></trkpt><trkpt lat="47.8271250055277" lon="1.0788297977501007"><ele>98.66666666666666</ele><time>2026-04-25T13:44:30Z</time></trkpt><trkpt lat="47.82693867651367" lon="1.0786737378389362"><ele>101.33333333333333</ele><time>2026-04-25T13:44:31Z</time></trkpt><trkpt lat="47.82675460326108" lon="1.0785207828606445"><ele>104.0</ele><time>2026-04-25T13:44:32Z</time></trkpt><trkpt lat="47.826574418171866" lon="1.0783696575645185"><ele>107.0</ele><time>2026-04-25T13:44:33Z</time></trkpt><trkpt lat="47.82639963097028" lon="1.078221701121409"><ele>110.0</ele><time>2026-04-25T13:44:34Z</time></trkpt><trkpt lat="47.826232304194136" lon="1.078080376602909"><ele>113.0</ele><time>2026-04-25T13:44:35Z</time></trkpt><trkpt lat="47.82607235435292" lon="1.077945902963095"><ele>112.33333333333333</ele><time>2026-04-25T13:44:36Z</time></trkpt><trkpt lat="47.82592169717761" lon="1.0778189919198953"><ele>111.66666666666666</ele><time>2026-04-25T13:44:37Z</time></trkpt><trkpt lat="47.82578111431796" lon="1.0777003977927126"><ele>111.0</ele><time>2026-04-25T13:44:38Z</time></trkpt><trkpt lat="47.82564819686601" lon="1.0775886998383364"><ele>111.0</ele><time>2026-04-25T13:44:39Z</time></trkpt><trkpt lat="47.82552493041736" lon="1.0774823685187873"><ele>111.0</ele><time>2026-04-25T13:44:40Z</time></trkpt><trkpt lat="47.82541303985478" lon="1.077380802173633"><ele>111.0</ele><time>2026-04-25T13:44:41Z</time></trkpt><trkpt lat="47.82531478723346" lon="1.0772881078655012"><ele>111.0</ele><time>2026-04-25T13:44:42Z</time></trkpt><trkpt lat="47.825232158074385" lon="1.0772055025633385"><ele>111.6</ele><time>2026-04-25T13:44:43.001Z</time></trkpt><trkpt lat="47.82515630332005" lon="1.0771250267211285"><ele>112.19999999999999</ele><time>2026-04-25T13:44:44.001Z</time></trkpt><trkpt lat="47.82508594645435" lon="1.0770433529539483"><ele>112.80000000000001</ele><time>2026-04-25T13:44:45.001Z</time></trkpt><trkpt lat="47.82501814582563" lon="1.076954259138986"><ele>113.4</ele><time>2026-04-25T13:44:46.001Z</time></trkpt><trkpt lat="47.82496029751236" lon="1.0768488782916388"><ele>114.0</ele><time>2026-04-25T13:44:47.001Z</time></trkpt><trkpt lat="47.82490825286867" lon="1.076732263741915"><ele>114.0</ele><time>2026-04-25T13:44:48.001Z</time></trkpt><trkpt lat="47.824851450640104" lon="1.0766199851165656"><ele>114.0</ele><time>2026-04-25T13:44:49.001Z</time></trkpt><trkpt lat="47.824783464656754" lon="1.0765312300488616"><ele>114.0</ele><time>2026-04-25T13:44:50.001Z</time></trkpt><trkpt lat="47.824703061557855" lon="1.0764755215617747"><ele>114.0</ele><time>2026-04-25T13:44:51.001Z</time></trkpt><trkpt lat="47.82461553375255" lon="1.0764609963921081"><ele>114.0</ele><time>2026-04-25T13:44:52.001Z</time></trkpt><trkpt lat="47.82452582471982" lon="1.076486540563182"><ele>114.0</ele><time>2026-04-25T13:44:53Z</time></trkpt><trkpt lat="47.8244404161083" lon="1.076540879276379"><ele>114.0</ele><time>2026-04-25T13:44:54Z</time></trkpt><trkpt lat="47.824347414236506" lon="1.0765793862172193"><ele>114.0</ele><time>2026-04-25T13:44:55Z</time></trkpt><trkpt lat="47.82424677640035" lon="1.076575121107141"><ele>114.0</ele><time>2026-04-25T13:44:56Z</time></trkpt><trkpt lat="47.824139894222384" lon="1.0765319832464493"><ele>114.0</ele><time>2026-04-25T13:44:57Z</time></trkpt><trkpt lat="47.82403005611321" lon="1.0764723277874353"><ele>114.0</ele><time>2026-04-25T13:44:58Z</time></trkpt><trkpt lat="47.823904265476386" lon="1.0764220426914843"><ele>114.0</ele><time>2026-04-25T13:44:59Z</time></trkpt><trkpt lat="47.82376361365489" lon="1.0763742011880733"><ele>114.0</ele><time>2026-04-25T13:45:00Z</time></trkpt><trkpt lat="47.82361905557843" lon="1.0763359068252385"><ele>114.0</ele><time>2026-04-25T13:45:01Z</time></trkpt><trkpt lat="47.82347252211651" lon="1.0763099944021948"><ele>115.0</ele><time>2026-04-25T13:45:02Z</time></trkpt><trkpt lat="47.82331747679424" lon="1.0762900754319575"><ele>116.0</ele><time>2026-04-25T13:45:03Z</time></trkpt><trkpt lat="47.823156072748915" lon="1.0762707728725232"><ele>117.0</ele><time>2026-04-25T13:45:04Z</time></trkpt><trkpt lat="47.82298979381201" lon="1.0762532052022742"><ele>117.0</ele><time>2026-04-25T13:45:05Z</time></trkpt><trkpt lat="47.8228190927969" lon="1.0762359795193521"><ele>117.0</ele><time>2026-04-25T13:45:06Z</time></trkpt><trkpt lat="47.8226438237739" lon="1.0762200725435327"><ele>117.0</ele><time>2026-04-25T13:45:07Z</time></trkpt><trkpt lat="47.82246445956981" lon="1.076204581623712"><ele>118.33333333333334</ele><time>2026-04-25T13:45:08Z</time></trkpt><trkpt lat="47.82228171633068" lon="1.076188190370692"><ele>119.66666666666667</ele><time>2026-04-25T13:45:09Z</time></trkpt><trkpt lat="47.82209643633773" lon="1.076171052059515"><ele>121.0</ele><time>2026-04-25T13:45:10Z</time></trkpt><trkpt lat="47.82190832171496" lon="1.0761544400517127"><ele>120.66666666666667</ele><time>2026-04-25T13:45:11Z</time></trkpt><trkpt lat="47.821717792821524" lon="1.0761390379617244"><ele>120.33333333333334</ele><time>2026-04-25T13:45:12Z</time></trkpt><trkpt lat="47.821526387497386" lon="1.076125454396457"><ele>120.0</ele><time>2026-04-25T13:45:13Z</time></trkpt><trkpt lat="47.82133979204504" lon="1.0761127035901772"><ele>120.0</ele><time>2026-04-25T13:45:14Z</time></trkpt><trkpt lat="47.82115833146056" lon="1.0760992160055083"><ele>120.0</ele><time>2026-04-25T13:45:15Z</time></trkpt><trkpt lat="47.82097762386269" lon="1.0760841331164754"><ele>120.0</ele><time>2026-04-25T13:45:16Z</time></trkpt><trkpt lat="47.820799193201694" lon="1.0760692329495"><ele>120.33333333333334</ele><time>2026-04-25T13:45:17Z</time></trkpt><trkpt lat="47.820623266071266" lon="1.076054999031374"><ele>120.66666666666667</ele><time>2026-04-25T13:45:18Z</time></trkpt><trkpt lat="47.82044951385559" lon="1.0760425952355703"><ele>121.0</ele><time>2026-04-25T13:45:19Z</time></trkpt><trkpt lat="47.82027628677198" lon="1.076031346737495"><ele>120.66666666666667</ele><time>2026-04-25T13:45:20Z</time></trkpt><trkpt lat="47.820104324291" lon="1.076020118472222"><ele>120.33333333333334</ele><time>2026-04-25T13:45:21Z</time></trkpt><trkpt lat="47.81993514651804" lon="1.076008154624666"><ele>120.0</ele><time>2026-04-25T13:45:22Z</time></trkpt><trkpt lat="47.819768665573385" lon="1.0759957814259358"><ele>120.0</ele><time>2026-04-25T13:45:23Z</time></trkpt><trkpt lat="47.819605594101716" lon="1.0759838949452614"><ele>120.0</ele><time>2026-04-25T13:45:24Z</time></trkpt><trkpt lat="47.819446759043075" lon="1.0759726330780635"><ele>120.0</ele><time>2026-04-25T13:45:25Z</time></trkpt><trkpt lat="47.819294098683535" lon="1.0759624077134589"><ele>120.0</ele><time>2026-04-25T13:45:26Z</time></trkpt><trkpt lat="47.819151369255756" lon="1.0759532611811935"><ele>120.0</ele><time>2026-04-25T13:45:27Z</time></trkpt><trkpt lat="47.81901702092591" lon="1.0759452180956688"><ele>120.0</ele><time>2026-04-25T13:45:28Z</time></trkpt><trkpt lat="47.81889073756199" lon="1.0759369203761995"><ele>120.0</ele><time>2026-04-25T13:45:29Z</time></trkpt><trkpt lat="47.818776666219264" lon="1.0759289456358454"><ele>120.0</ele><time>2026-04-25T13:45:30Z</time></trkpt><trkpt lat="47.81867657350319" lon="1.0759214701447752"><ele>120.0</ele><time>2026-04-25T13:45:31Z</time></trkpt><trkpt lat="47.81858632664089" lon="1.0759120247212763"><ele>120.0</ele><time>2026-04-25T13:45:32Z</time></trkpt><trkpt lat="47.818502872101035" lon="1.075884079918021"><ele>120.0</ele><time>2026-04-25T13:45:33Z</time></trkpt><trkpt lat="47.81843282532594" lon="1.075831072002388"><ele>120.0</ele><time>2026-04-25T13:45:34Z</time></trkpt><trkpt lat="47.81837354159743" lon="1.0757479159393382"><ele>120.0</ele><time>2026-04-25T13:45:35Z</time></trkpt><trkpt lat="47.81831253319851" lon="1.0756738713243537"><ele>119.83333333333333</ele><time>2026-04-25T13:45:36Z</time></trkpt><trkpt lat="47.818239105464215" lon="1.0756346144090239"><ele>119.66666666666666</ele><time>2026-04-25T13:45:37Z</time></trkpt><trkpt lat="47.818160622225086" lon="1.0756401475609476"><ele>119.5</ele><time>2026-04-25T13:45:38Z</time></trkpt><trkpt lat="47.818084467898764" lon="1.0756905382326094"><ele>119.33333333333333</ele><time>2026-04-25T13:45:39Z</time></trkpt><trkpt lat="47.818015893017325" lon="1.0757709918206908"><ele>119.16666666666666</ele><time>2026-04-25T13:45:40Z</time></trkpt><trkpt lat="47.817931057761754" lon="1.0758279420542038"><ele>119.0</ele><time>2026-04-25T13:45:41Z</time></trkpt><trkpt lat="47.81783217655756" lon="1.0758509909191087"><ele>119.0</ele><time>2026-04-25T13:45:42Z</time></trkpt><trkpt lat="47.817723642826664" lon="1.075847269313151"><ele>119.0</ele><time>2026-04-25T13:45:43Z</time></trkpt><trkpt lat="47.8176040051387" lon="1.075836131410173"><ele>119.0</ele><time>2026-04-25T13:45:44Z</time></trkpt><trkpt lat="47.8174710588895" lon="1.0758273786740986"><ele>119.0</ele><time>2026-04-25T13:45:45Z</time></trkpt><trkpt lat="47.8173243241298" lon="1.0758175378264079"><ele>119.0</ele><time>2026-04-25T13:45:46Z</time></trkpt><trkpt lat="47.81716939493062" lon="1.0758044281378547"><ele>119.0</ele><time>2026-04-25T13:45:47Z</time></trkpt><trkpt lat="47.817010488925014" lon="1.0757914896200786"><ele>119.0</ele><time>2026-04-25T13:45:48Z</time></trkpt><trkpt lat="47.81685092046692" lon="1.0757802503074283"><ele>120.0</ele><time>2026-04-25T13:45:49Z</time></trkpt><trkpt lat="47.816683858015644" lon="1.075768706905282"><ele>121.0</ele><time>2026-04-25T13:45:50Z</time></trkpt><trkpt lat="47.81651184620035" lon="1.075756679903183"><ele>122.0</ele><time>2026-04-25T13:45:51Z</time></trkpt><trkpt lat="47.81633633036768" lon="1.075742829904798"><ele>122.0</ele><time>2026-04-25T13:45:52Z</time></trkpt><trkpt lat="47.816158211196544" lon="1.0757311584046845"><ele>122.0</ele><time>2026-04-25T13:45:53Z</time></trkpt><trkpt lat="47.81598103126137" lon="1.075718028599471"><ele>122.0</ele><time>2026-04-25T13:45:54Z</time></trkpt><trkpt lat="47.815806214735645" lon="1.075705768186241"><ele>121.33333333333333</ele><time>2026-04-25T13:45:55Z</time></trkpt><trkpt lat="47.81563468566555" lon="1.0756908597924677"><ele>120.66666666666666</ele><time>2026-04-25T13:45:56Z</time></trkpt><trkpt lat="47.815466821357596" lon="1.0756617911345105"><ele>120.0</ele><time>2026-04-25T13:45:57Z</time></trkpt><trkpt lat="47.815305058980655" lon="1.0756111406345408"><ele>119.66666666666666</ele><time>2026-04-25T13:45:58Z</time></trkpt><trkpt lat="47.81514897366647" lon="1.075548536222169"><ele>119.33333333333333</ele><time>2026-04-25T13:45:59Z</time></trkpt><trkpt lat="47.81499625063018" lon="1.0754811928135282"><ele>119.0</ele><time>2026-04-25T13:46:00Z</time></trkpt><trkpt lat="47.81484550243277" lon="1.0754179886874449"><ele>119.0</ele><time>2026-04-25T13:46:01Z</time></trkpt><trkpt lat="47.814696237926405" lon="1.0753547787559952"><ele>119.0</ele><time>2026-04-25T13:46:02Z</time></trkpt><trkpt lat="47.81454769271857" lon="1.0752915196645723"><ele>119.0</ele><time>2026-04-25T13:46:03Z</time></trkpt><trkpt lat="47.81439845169846" lon="1.0752284329646136"><ele>118.0</ele><time>2026-04-25T13:46:04Z</time></trkpt><trkpt lat="47.814249423273004" lon="1.0751636181549342"><ele>117.0</ele><time>2026-04-25T13:46:05Z</time></trkpt><trkpt lat="47.81410079811812" lon="1.0750999103463048"><ele>116.0</ele><time>2026-04-25T13:46:06Z</time></trkpt><trkpt lat="47.81395545837312" lon="1.0750386005751882"><ele>116.0</ele><time>2026-04-25T13:46:07Z</time></trkpt><trkpt lat="47.813815881758174" lon="1.0749804951613655"><ele>116.0</ele><time>2026-04-25T13:46:08Z</time></trkpt><trkpt lat="47.81367989946919" lon="1.0749241823112172"><ele>116.0</ele><time>2026-04-25T13:46:09Z</time></trkpt><trkpt lat="47.813546821473544" lon="1.0748690759392923"><ele>116.0</ele><time>2026-04-25T13:46:10Z</time></trkpt><trkpt lat="47.81341794248877" lon="1.074813028966958"><ele>114.0</ele><time>2026-04-25T13:46:11Z</time></trkpt><trkpt lat="47.81329100752507" lon="1.0747605212595546"><ele>112.0</ele><time>2026-04-25T13:46:12Z</time></trkpt><trkpt lat="47.813167353072195" lon="1.0747101033440505"><ele>110.0</ele><time>2026-04-25T13:46:13Z</time></trkpt><trkpt lat="47.81304427655696" lon="1.0746583486299905"><ele>108.0</ele><time>2026-04-25T13:46:14Z</time></trkpt><trkpt lat="47.81292049292795" lon="1.0746056338625811"><ele>108.0</ele><time>2026-04-25T13:46:15Z</time></trkpt><trkpt lat="47.812797154052205" lon="1.074554963717576"><ele>108.0</ele><time>2026-04-25T13:46:16Z</time></trkpt><trkpt lat="47.81267803145168" lon="1.0745073898036093"><ele>108.0</ele><time>2026-04-25T13:46:17Z</time></trkpt><trkpt lat="47.81256224460132" lon="1.0744602897221764"><ele>108.0</ele><time>2026-04-25T13:46:18Z</time></trkpt><trkpt lat="47.812445975030066" lon="1.074410859536043"><ele>106.75</ele><time>2026-04-25T13:46:19Z</time></trkpt><trkpt lat="47.81233009596794" lon="1.0743620317999105"><ele>105.5</ele><time>2026-04-25T13:46:20Z</time></trkpt><trkpt lat="47.81221697619124" lon="1.0743152772362075"><ele>104.25</ele><time>2026-04-25T13:46:21Z</time></trkpt><trkpt lat="47.81211036561922" lon="1.0742717660973562"><ele>103.0</ele><time>2026-04-25T13:46:22Z</time></trkpt><trkpt lat="47.812007455975944" lon="1.0742283683682665"><ele>103.00000000000001</ele><time>2026-04-25T13:46:23Z</time></trkpt><trkpt lat="47.8119095290417" lon="1.0741873939202993"><ele>103.0</ele><time>2026-04-25T13:46:24Z</time></trkpt><trkpt lat="47.811815492295" lon="1.074149217217558"><ele>103.0</ele><time>2026-04-25T13:46:25Z</time></trkpt><trkpt lat="47.81172677145859" lon="1.0741116183456425"><ele>103.0</ele><time>2026-04-25T13:46:26Z</time></trkpt><trkpt lat="47.81164902452773" lon="1.0740769952267684"><ele>103.00000000000001</ele><time>2026-04-25T13:46:27Z</time></trkpt><trkpt lat="47.811583234138155" lon="1.074049546853954"><ele>103.0</ele><time>2026-04-25T13:46:28Z</time></trkpt><trkpt lat="47.811495979106546" lon="1.074013604719212"><ele>102.33333333333334</ele><time>2026-04-25T13:46:30.001Z</time></trkpt><trkpt lat="47.811413496911264" lon="1.0739788270494666"><ele>101.66666666666667</ele><time>2026-04-25T13:46:34.001Z</time></trkpt><trkpt lat="47.81131206194524" lon="1.0739322914733778"><ele>101.0</ele><time>2026-04-25T13:46:36.001Z</time></trkpt><trkpt lat="47.811248469801704" lon="1.0739046051863153"><ele>100.33333333333334</ele><time>2026-04-25T13:46:37.001Z</time></trkpt><trkpt lat="47.81117320077865" lon="1.0738728347370816"><ele>99.66666666666667</ele><time>2026-04-25T13:46:38.001Z</time></trkpt><trkpt lat="47.81108451626267" lon="1.073835080805955"><ele>99.0</ele><time>2026-04-25T13:46:39.001Z</time></trkpt><trkpt lat="47.81098849291195" lon="1.0737935338556894"><ele>97.75</ele><time>2026-04-25T13:46:40.001Z</time></trkpt><trkpt lat="47.81088773275788" lon="1.073750590439905"><ele>96.5</ele><time>2026-04-25T13:46:41.001Z</time></trkpt><trkpt lat="47.81077439905747" lon="1.0737022139853527"><ele>95.25</ele><time>2026-04-25T13:46:42.001Z</time></trkpt><trkpt lat="47.81065364288794" lon="1.0736512550088084"><ele>94.0</ele><time>2026-04-25T13:46:43.001Z</time></trkpt><trkpt lat="47.81052390273112" lon="1.0735969118895"><ele>94.0</ele><time>2026-04-25T13:46:44.001Z</time></trkpt><trkpt lat="47.810392657294415" lon="1.0735429252577577"><ele>94.0</ele><time>2026-04-25T13:46:45.001Z</time></trkpt><trkpt lat="47.81025811446301" lon="1.0734870573488637"><ele>94.0</ele><time>2026-04-25T13:46:46.001Z</time></trkpt><trkpt lat="47.8101201683511" lon="1.0734287170555532"><ele>94.0</ele><time>2026-04-25T13:46:47.001Z</time></trkpt><trkpt lat="47.80997771414146" lon="1.0733697731718068"><ele>93.66666666666666</ele><time>2026-04-25T13:46:48.001Z</time></trkpt><trkpt lat="47.8098277566089" lon="1.0733073060349634"><ele>93.33333333333333</ele><time>2026-04-25T13:46:49.001Z</time></trkpt><trkpt lat="47.8096766933114" lon="1.073243934246435"><ele>93.0</ele><time>2026-04-25T13:46:50.001Z</time></trkpt><trkpt lat="47.809524498419044" lon="1.0731826142848107"><ele>92.66666666666667</ele><time>2026-04-25T13:46:51.001Z</time></trkpt><trkpt lat="47.809369823852585" lon="1.0731204034529283"><ele>92.33333333333334</ele><time>2026-04-25T13:46:52.001Z</time></trkpt><trkpt lat="47.80921233849555" lon="1.0730553297060597"><ele>92.0</ele><time>2026-04-25T13:46:53.001Z</time></trkpt><trkpt lat="47.80905318506354" lon="1.0729888424455505"><ele>91.66666666666667</ele><time>2026-04-25T13:46:54.001Z</time></trkpt><trkpt lat="47.8088912560973" lon="1.072922470851505"><ele>91.33333333333333</ele><time>2026-04-25T13:46:55.001Z</time></trkpt><trkpt lat="47.80872879524519" lon="1.0728555657198935"><ele>91.0</ele><time>2026-04-25T13:46:56.001Z</time></trkpt><trkpt lat="47.80856791937479" lon="1.072790273520133"><ele>90.0</ele><time>2026-04-25T13:46:57.001Z</time></trkpt><trkpt lat="47.80840846225754" lon="1.0727256028218852"><ele>89.0</ele><time>2026-04-25T13:46:58.001Z</time></trkpt><trkpt lat="47.80824847078707" lon="1.0726630132425021"><ele>88.0</ele><time>2026-04-25T13:46:59Z</time></trkpt><trkpt lat="47.80808684136619" lon="1.072604102541852"><ele>88.0</ele><time>2026-04-25T13:47:00Z</time></trkpt><trkpt lat="47.80792671735844" lon="1.072546388049713"><ele>88.0</ele><time>2026-04-25T13:47:01Z</time></trkpt><trkpt lat="47.80776764213063" lon="1.0724875048425"><ele>88.0</ele><time>2026-04-25T13:47:02Z</time></trkpt><trkpt lat="47.80761186339649" lon="1.0724265659550327"><ele>87.5</ele><time>2026-04-25T13:47:03Z</time></trkpt><trkpt lat="47.80745782398811" lon="1.0723645584188353"><ele>87.0</ele><time>2026-04-25T13:47:04Z</time></trkpt><trkpt lat="47.80730996552021" lon="1.072306093197814"><ele>86.5</ele><time>2026-04-25T13:47:05Z</time></trkpt><trkpt lat="47.80717952043235" lon="1.0722563367098827"><ele>86.0</ele><time>2026-04-25T13:47:06Z</time></trkpt><trkpt lat="47.80706602441732" lon="1.0722139100943555"><ele>86.0</ele><time>2026-04-25T13:47:07Z</time></trkpt><trkpt lat="47.80697177211032" lon="1.072177686282284"><ele>86.0</ele><time>2026-04-25T13:47:08Z</time></trkpt><trkpt lat="47.806896094891414" lon="1.0721476361614917"><ele>86.0</ele><time>2026-04-25T13:47:09Z</time></trkpt><trkpt lat="47.80679635357963" lon="1.0721079073128819"><ele>86.0</ele><time>2026-04-25T13:47:11Z</time></trkpt><trkpt lat="47.806736133654496" lon="1.0720781665485364"><ele>86.0</ele><time>2026-04-25T13:47:15Z</time></trkpt><trkpt lat="47.80665311449067" lon="1.0720462255756502"><ele>86.0</ele><time>2026-04-25T13:47:40Z</time></trkpt><trkpt lat="47.80653250137302" lon="1.0719981454378127"><ele>86.19999999999999</ele><time>2026-04-25T13:47:42Z</time></trkpt><trkpt lat="47.80645337533589" lon="1.0719651301685669"><ele>86.39999999999999</ele><time>2026-04-25T13:47:43Z</time></trkpt><trkpt lat="47.80635661489384" lon="1.0719261171222438"><ele>86.6</ele><time>2026-04-25T13:47:44Z</time></trkpt><trkpt lat="47.80624832033356" lon="1.0718803067850209"><ele>86.8</ele><time>2026-04-25T13:47:45Z</time></trkpt><trkpt lat="47.80614061926124" lon="1.071834855980051"><ele>87.0</ele><time>2026-04-25T13:47:46Z</time></trkpt><trkpt lat="47.80602198824187" lon="1.071784720589124"><ele>86.5</ele><time>2026-04-25T13:47:47Z</time></trkpt><trkpt lat="47.80589148380186" lon="1.0717284225622825"><ele>86.0</ele><time>2026-04-25T13:47:48Z</time></trkpt><trkpt lat="47.80575142915362" lon="1.0716677584490557"><ele>85.5</ele><time>2026-04-25T13:47:49Z</time></trkpt><trkpt lat="47.805609512172815" lon="1.0716088287020389"><ele>85.0</ele><time>2026-04-25T13:47:50Z</time></trkpt><trkpt lat="47.80547069340682" lon="1.0715528894622723"><ele>84.75</ele><time>2026-04-25T13:47:51Z</time></trkpt><trkpt lat="47.80533513664255" lon="1.0714981415798164"><ele>84.5</ele><time>2026-04-25T13:47:52Z</time></trkpt><trkpt lat="47.805203935263535" lon="1.0714454080038631"><ele>84.25</ele><time>2026-04-25T13:47:53Z</time></trkpt><trkpt lat="47.80507713405635" lon="1.0713993570510043"><ele>84.0</ele><time>2026-04-25T13:47:54Z</time></trkpt><trkpt lat="47.80495414586188" lon="1.0713673274051327"><ele>84.0</ele><time>2026-04-25T13:47:55Z</time></trkpt><trkpt lat="47.80483949614219" lon="1.071342453977721"><ele>84.0</ele><time>2026-04-25T13:47:56Z</time></trkpt><trkpt lat="47.80473350822049" lon="1.0713143895608663"><ele>84.0</ele><time>2026-04-25T13:47:57Z</time></trkpt><trkpt lat="47.80463794390299" lon="1.071289667471621"><ele>84.0</ele><time>2026-04-25T13:47:58Z</time></trkpt><trkpt lat="47.804556552649295" lon="1.0712711279633398"><ele>84.0</ele><time>2026-04-25T13:47:59Z</time></trkpt><trkpt lat="47.804492613426426" lon="1.071258768648027"><ele>84.0</ele><time>2026-04-25T13:48:00Z</time></trkpt><trkpt lat="47.804404520092646" lon="1.0712438482336346"><ele>84.0</ele><time>2026-04-25T13:48:02Z</time></trkpt><trkpt lat="47.80433809817073" lon="1.0712926652466244"><ele>84.0</ele><time>2026-04-25T13:48:07Z</time></trkpt><trkpt lat="47.804269006538036" lon="1.0713569134412697"><ele>84.0</ele><time>2026-04-25T13:48:09Z</time></trkpt><trkpt lat="47.80422414927678" lon="1.0714713754926972"><ele>84.0</ele><time>2026-04-25T13:48:11Z</time></trkpt><trkpt lat="47.80420758709792" lon="1.0716798169941357"><ele>84.0</ele><time>2026-04-25T13:48:13Z</time></trkpt><trkpt lat="47.804197989297755" lon="1.0718112428716868"><ele>84.0</ele><time>2026-04-25T13:48:14Z</time></trkpt><trkpt lat="47.80418059025926" lon="1.0719538737552485"><ele>84.0</ele><time>2026-04-25T13:48:15Z</time></trkpt><trkpt lat="47.804143679114844" lon="1.072103904570805"><ele>84.0</ele><time>2026-04-25T13:48:16Z</time></trkpt><trkpt lat="47.8041368831574" lon="1.072276245521862"><ele>84.0</ele><time>2026-04-25T13:48:17Z</time></trkpt><trkpt lat="47.80411268573495" lon="1.072449338857454"><ele>84.0</ele><time>2026-04-25T13:48:18.001Z</time></trkpt><trkpt lat="47.80408996674368" lon="1.0726155326775442"><ele>84.0</ele><time>2026-04-25T13:48:19.001Z</time></trkpt><trkpt lat="47.804067361733885" lon="1.0727740508077004"><ele>84.0</ele><time>2026-04-25T13:48:20.001Z</time></trkpt><trkpt lat="47.80404679796848" lon="1.072923068375216"><ele>84.0</ele><time>2026-04-25T13:48:21.001Z</time></trkpt><trkpt lat="47.80401183062275" lon="1.0730415614226734"><ele>84.0</ele><time>2026-04-25T13:48:22.001Z</time></trkpt><trkpt lat="47.80399375088164" lon="1.0731502049277462"><ele>84.0</ele><time>2026-04-25T13:48:23.001Z</time></trkpt><trkpt lat="47.803977001338055" lon="1.0732957795316238"><ele>84.0</ele><time>2026-04-25T13:48:25.001Z</time></trkpt><trkpt lat="47.80407658185061" lon="1.0733758009880663"><ele>84.0</ele><time>2026-04-25T13:48:28.001Z</time></trkpt><trkpt lat="47.80419571210814" lon="1.0734176352284295"><ele>84.0</ele><time>2026-04-25T13:48:30.001Z</time></trkpt><trkpt lat="47.80430940046946" lon="1.0734575584660668"><ele>84.2</ele><time>2026-04-25T13:48:32.001Z</time></trkpt><trkpt lat="47.80440573728437" lon="1.0734691206744642"><ele>84.4</ele><time>2026-04-25T13:48:34.001Z</time></trkpt><trkpt lat="47.80447383876254" lon="1.0733221279716547"><ele>84.6</ele><time>2026-04-25T13:48:36.001Z</time></trkpt><trkpt lat="47.80451544356986" lon="1.0731762988342097"><ele>84.8</ele><time>2026-04-25T13:48:38.001Z</time></trkpt><trkpt lat="47.8045269569886" lon="1.0730527571717885"><ele>85.0</ele><time>2026-04-25T13:48:40.001Z</time></trkpt><trkpt lat="47.80466783587477" lon="1.0730697701788416"><ele>84.6</ele><time>2026-04-25T13:48:42.001Z</time></trkpt><trkpt lat="47.80476983843637" lon="1.0731149253213723"><ele>84.2</ele><time>2026-04-25T13:48:44.001Z</time></trkpt><trkpt lat="47.804868614737316" lon="1.0731442551962804"><ele>83.80000000000001</ele><time>2026-04-25T13:48:46.001Z</time></trkpt><trkpt lat="47.804952008687835" lon="1.0731041552143397"><ele>83.4</ele><time>2026-04-25T13:48:48.001Z</time></trkpt><trkpt lat="47.80498272578534" lon="1.0729623658596186"><ele>83.0</ele><time>2026-04-25T13:48:50.001Z</time></trkpt><trkpt lat="47.80499982590489" lon="1.0728098956672096"><ele>83.0</ele><time>2026-04-25T13:48:52.001Z</time></trkpt><trkpt lat="47.805012518987986" lon="1.0726766721323069"><ele>83.0</ele><time>2026-04-25T13:48:54.001Z</time></trkpt><trkpt lat="47.80503885918504" lon="1.072535984258909"><ele>83.0</ele><time>2026-04-25T13:48:56.001Z</time></trkpt><trkpt lat="47.80506447444279" lon="1.0724071118089116"><ele>83.0</ele><time>2026-04-25T13:48:58.001Z</time></trkpt><trkpt lat="47.805090004241734" lon="1.0722986853028982"><ele>83.0</ele><time>2026-04-25T13:49:00.001Z</time></trkpt><trkpt lat="47.80515945101265" lon="1.0723255007731898"><ele>83.0</ele><time>2026-04-25T13:49:04.001Z</time></trkpt><trkpt lat="47.805246698645675" lon="1.072327479739998"><ele>83.4</ele><time>2026-04-25T13:49:06Z</time></trkpt><trkpt lat="47.80533769516612" lon="1.0723545124239011"><ele>83.80000000000001</ele><time>2026-04-25T13:49:08Z</time></trkpt><trkpt lat="47.80540791683566" lon="1.072397898265973"><ele>84.2</ele><time>2026-04-25T13:49:10Z</time></trkpt><trkpt lat="47.80551252174516" lon="1.0721971060695954"><ele>84.6</ele><time>2026-04-25T13:49:12Z</time></trkpt><trkpt lat="47.80553274736953" lon="1.0720507982291483"><ele>85.0</ele><time>2026-04-25T13:49:14Z</time></trkpt><trkpt lat="47.805537032887806" lon="1.071916168247284"><ele>85.0</ele><time>2026-04-25T13:49:16Z</time></trkpt><trkpt lat="47.80556572532727" lon="1.0718285469864588"><ele>85.0</ele><time>2026-04-25T13:49:20Z</time></trkpt><trkpt lat="47.805636201735005" lon="1.0717922748148565"><ele>85.0</ele><time>2026-04-25T13:49:22Z</time></trkpt><trkpt lat="47.80573805889853" lon="1.0718329348213986"><ele>85.0</ele><time>2026-04-25T13:49:24Z</time></trkpt><trkpt lat="47.805873941230224" lon="1.071891666603498"><ele>85.0</ele><time>2026-04-25T13:49:26Z</time></trkpt><trkpt lat="47.80595796379692" lon="1.0719280990411704"><ele>85.33333333333333</ele><time>2026-04-25T13:49:27Z</time></trkpt><trkpt lat="47.806040365626394" lon="1.071963743457926"><ele>85.66666666666666</ele><time>2026-04-25T13:49:28Z</time></trkpt><trkpt lat="47.806117756306385" lon="1.0719985158466825"><ele>86.0</ele><time>2026-04-25T13:49:29Z</time></trkpt><trkpt lat="47.80619345573425" lon="1.0720157123882237"><ele>86.33333333333333</ele><time>2026-04-25T13:49:30Z</time></trkpt><trkpt lat="47.80624869496625" lon="1.0720946334255337"><ele>86.66666666666667</ele><time>2026-04-25T13:49:31Z</time></trkpt><trkpt lat="47.806304939710266" lon="1.0721440092958172"><ele>87.0</ele><time>2026-04-25T13:49:32Z</time></trkpt><trkpt lat="47.80641175897486" lon="1.0721949043568284"><ele>87.0</ele><time>2026-04-25T13:49:34Z</time></trkpt><trkpt lat="47.80647724785759" lon="1.0721453381043158"><ele>87.0</ele><time>2026-04-25T13:50:08Z</time></trkpt><trkpt lat="47.80653072623189" lon="1.072057428873698"><ele>87.0</ele><time>2026-04-25T13:50:11.001Z</time></trkpt><trkpt lat="47.80654989759885" lon="1.0719475667897207"><ele>87.0</ele><time>2026-04-25T13:50:12.001Z</time></trkpt><trkpt lat="47.80641136431252" lon="1.0719101179334327"><ele>87.0</ele><time>2026-04-25T13:50:13.001Z</time></trkpt><trkpt lat="47.80633481641677" lon="1.0718777506097612"><ele>87.0</ele><time>2026-04-25T13:50:15.001Z</time></trkpt><trkpt lat="47.80625246726919" lon="1.071840472251583"><ele>87.0</ele><time>2026-04-25T13:50:40.001Z</time></trkpt><trkpt lat="47.8061331889617" lon="1.071790949191058"><ele>87.0</ele><time>2026-04-25T13:50:42.001Z</time></trkpt><trkpt lat="47.80605346328655" lon="1.0717567468312839"><ele>87.0</ele><time>2026-04-25T13:50:43.001Z</time></trkpt><trkpt lat="47.80596313277415" lon="1.07171860077704"><ele>87.0</ele><time>2026-04-25T13:50:44.001Z</time></trkpt><trkpt lat="47.80587443475677" lon="1.0716802301243205"><ele>86.6</ele><time>2026-04-25T13:50:45.001Z</time></trkpt><trkpt lat="47.805788316710284" lon="1.0716417431198206"><ele>86.19999999999999</ele><time>2026-04-25T13:50:46.001Z</time></trkpt><trkpt lat="47.80569693382274" lon="1.0716013546048824"><ele>85.8</ele><time>2026-04-25T13:50:47.001Z</time></trkpt><trkpt lat="47.80560129604415" lon="1.0715606636099457"><ele>85.4</ele><time>2026-04-25T13:50:48.001Z</time></trkpt><trkpt lat="47.80550441867387" lon="1.0715199209075175"><ele>85.0</ele><time>2026-04-25T13:50:49.001Z</time></trkpt><trkpt lat="47.80540801523491" lon="1.071479255101563"><ele>84.8</ele><time>2026-04-25T13:50:50.001Z</time></trkpt><trkpt lat="47.8053122812995" lon="1.0714392594638544"><ele>84.6</ele><time>2026-04-25T13:50:51.001Z</time></trkpt><trkpt lat="47.80521776897715" lon="1.0714005337552461"><ele>84.4</ele><time>2026-04-25T13:50:52.001Z</time></trkpt><trkpt lat="47.805124995150926" lon="1.0713636722988036"><ele>84.2</ele><time>2026-04-25T13:50:53.001Z</time></trkpt><trkpt lat="47.805035080378296" lon="1.071329922175641"><ele>84.0</ele><time>2026-04-25T13:50:54.001Z</time></trkpt><trkpt lat="47.804948082697315" lon="1.0712976818450248"><ele>84.0</ele><time>2026-04-25T13:50:55.001Z</time></trkpt><trkpt lat="47.80486421036676" lon="1.071267149293848"><ele>84.0</ele><time>2026-04-25T13:50:56.001Z</time></trkpt><trkpt lat="47.80478566305205" lon="1.0712398422169926"><ele>84.0</ele><time>2026-04-25T13:50:57.001Z</time></trkpt><trkpt lat="47.804712017425054" lon="1.0712159776950239"><ele>84.0</ele><time>2026-04-25T13:50:58.001Z</time></trkpt><trkpt lat="47.804643906305735" lon="1.0711970548998537"><ele>84.0</ele><time>2026-04-25T13:50:59.001Z</time></trkpt><trkpt lat="47.804541413820594" lon="1.0711732692601807"><ele>84.0</ele><time>2026-04-25T13:51:01.001Z</time></trkpt><trkpt lat="47.804477946718634" lon="1.0711587907005156"><ele>84.0</ele><time>2026-04-25T13:51:24Z</time></trkpt><trkpt lat="47.80440223543914" lon="1.0711509274009503"><ele>84.0</ele><time>2026-04-25T13:51:26Z</time></trkpt><trkpt lat="47.80427995642776" lon="1.0711373756609288"><ele>84.0</ele><time>2026-04-25T13:51:28Z</time></trkpt><trkpt lat="47.804198705335416" lon="1.0711356018293172"><ele>84.0</ele><time>2026-04-25T13:51:29Z</time></trkpt><trkpt lat="47.80409929962812" lon="1.0711368477036254"><ele>84.0</ele><time>2026-04-25T13:51:30Z</time></trkpt><trkpt lat="47.803983448799215" lon="1.0711401306283626"><ele>83.75</ele><time>2026-04-25T13:51:31Z</time></trkpt><trkpt lat="47.80386088880292" lon="1.0711475887192579"><ele>83.5</ele><time>2026-04-25T13:51:32Z</time></trkpt><trkpt lat="47.80373446705714" lon="1.071162272025106"><ele>83.25</ele><time>2026-04-25T13:51:33Z</time></trkpt><trkpt lat="47.803595523919945" lon="1.0711893336997529"><ele>83.0</ele><time>2026-04-25T13:51:34Z</time></trkpt><trkpt lat="47.80344548087939" lon="1.071228079860195"><ele>82.66666666666667</ele><time>2026-04-25T13:51:35Z</time></trkpt><trkpt lat="47.80328715995647" lon="1.0712785541816625"><ele>82.33333333333333</ele><time>2026-04-25T13:51:36Z</time></trkpt><trkpt lat="47.803128137631575" lon="1.0713408986570832"><ele>82.0</ele><time>2026-04-25T13:51:37Z</time></trkpt><trkpt lat="47.80296969055438" lon="1.071410266513217"><ele>82.0</ele><time>2026-04-25T13:51:38Z</time></trkpt><trkpt lat="47.802806014473454" lon="1.0714829845171214"><ele>82.0</ele><time>2026-04-25T13:51:39Z</time></trkpt><trkpt lat="47.80263865746559" lon="1.0715574459100505"><ele>82.0</ele><time>2026-04-25T13:51:40Z</time></trkpt><trkpt lat="47.802469710996775" lon="1.0716319675774144"><ele>82.33333333333333</ele><time>2026-04-25T13:51:41Z</time></trkpt><trkpt lat="47.802304295701674" lon="1.0717042413201707"><ele>82.66666666666667</ele><time>2026-04-25T13:51:42Z</time></trkpt><trkpt lat="47.80214159919878" lon="1.071775524784772"><ele>83.0</ele><time>2026-04-25T13:51:43Z</time></trkpt><trkpt lat="47.80198079648989" lon="1.0718470418195556"><ele>82.66666666666667</ele><time>2026-04-25T13:51:44Z</time></trkpt><trkpt lat="47.80182057478809" lon="1.0719176918639153"><ele>82.33333333333333</ele><time>2026-04-25T13:51:45Z</time></trkpt><trkpt lat="47.80165926661179" lon="1.0719891768671599"><ele>82.0</ele><time>2026-04-25T13:51:46Z</time></trkpt><trkpt lat="47.801497641119575" lon="1.0720597713102245"><ele>82.0</ele><time>2026-04-25T13:51:47Z</time></trkpt><trkpt lat="47.80133506372157" lon="1.0721310718594181"><ele>82.0</ele><time>2026-04-25T13:51:48Z</time></trkpt><trkpt lat="47.80117490520536" lon="1.0722025010165444"><ele>82.0</ele><time>2026-04-25T13:51:49Z</time></trkpt><trkpt lat="47.80101621997535" lon="1.0722735856782504"><ele>82.0</ele><time>2026-04-25T13:51:50Z</time></trkpt><trkpt lat="47.80085864283171" lon="1.072343199561043"><ele>82.0</ele><time>2026-04-25T13:51:51Z</time></trkpt><trkpt lat="47.80070186794528" lon="1.0724091492102086"><ele>82.0</ele><time>2026-04-25T13:51:52Z</time></trkpt><trkpt lat="47.800547796410015" lon="1.0724760824891357"><ele>81.66666666666666</ele><time>2026-04-25T13:51:53Z</time></trkpt><trkpt lat="47.800394545265604" lon="1.0725428518334261"><ele>81.33333333333333</ele><time>2026-04-25T13:51:54Z</time></trkpt><trkpt lat="47.8002440037826" lon="1.0726092865659582"><ele>81.0</ele><time>2026-04-25T13:51:55Z</time></trkpt><trkpt lat="47.80009769718779" lon="1.072674040327696"><ele>80.75</ele><time>2026-04-25T13:51:56Z</time></trkpt><trkpt lat="47.799956316664485" lon="1.0727371868550242"><ele>80.5</ele><time>2026-04-25T13:51:57Z</time></trkpt><trkpt lat="47.79981715429419" lon="1.072798603050595"><ele>80.25</ele><time>2026-04-25T13:51:58Z</time></trkpt><trkpt lat="47.79967783893219" lon="1.0728590262344813"><ele>80.0</ele><time>2026-04-25T13:51:59Z</time></trkpt><trkpt lat="47.79953987679477" lon="1.0729190527482848"><ele>80.0</ele><time>2026-04-25T13:52:00Z</time></trkpt><trkpt lat="47.799409156602515" lon="1.072977599088646"><ele>80.0</ele><time>2026-04-25T13:52:01Z</time></trkpt><trkpt lat="47.7992843558317" lon="1.0730333415427908"><ele>80.0</ele><time>2026-04-25T13:52:02Z</time></trkpt><trkpt lat="47.799165960261924" lon="1.0730864308302819"><ele>80.0</ele><time>2026-04-25T13:52:03Z</time></trkpt><trkpt lat="47.79905498434243" lon="1.0731301985211656"><ele>79.8</ele><time>2026-04-25T13:52:04.001Z</time></trkpt><trkpt lat="47.79894932316526" lon="1.0731574145159002"><ele>79.6</ele><time>2026-04-25T13:52:05.001Z</time></trkpt><trkpt lat="47.79885171812713" lon="1.0731664297117505"><ele>79.4</ele><time>2026-04-25T13:52:06.001Z</time></trkpt><trkpt lat="47.79876205990198" lon="1.073151186417911"><ele>79.2</ele><time>2026-04-25T13:52:07.001Z</time></trkpt><trkpt lat="47.79868225283628" lon="1.0731148540805968"><ele>79.0</ele><time>2026-04-25T13:52:08.001Z</time></trkpt><trkpt lat="47.79861235846676" lon="1.0730443010623343"><ele>79.0</ele><time>2026-04-25T13:52:09.001Z</time></trkpt><trkpt lat="47.79855441363958" lon="1.0729374879656342"><ele>79.0</ele><time>2026-04-25T13:52:10.001Z</time></trkpt><trkpt lat="47.7985181922276" lon="1.0728043307076232"><ele>79.0</ele><time>2026-04-25T13:52:11.001Z</time></trkpt><trkpt lat="47.79850762473137" lon="1.0726566361049372"><ele>79.0</ele><time>2026-04-25T13:52:12.001Z</time></trkpt><trkpt lat="47.79851659454292" lon="1.0725001976442534"><ele>79.0</ele><time>2026-04-25T13:52:13.001Z</time></trkpt><trkpt lat="47.79852628536075" lon="1.0723339931116558"><ele>79.0</ele><time>2026-04-25T13:52:14.001Z</time></trkpt><trkpt lat="47.7985326483981" lon="1.0721550326147105"><ele>79.0</ele><time>2026-04-25T13:52:15.001Z</time></trkpt><trkpt lat="47.798538801529446" lon="1.0719795878832477"><ele>79.0</ele><time>2026-04-25T13:52:16.001Z</time></trkpt><trkpt lat="47.79854473467541" lon="1.0718009075143973"><ele>79.0</ele><time>2026-04-25T13:52:17.001Z</time></trkpt><trkpt lat="47.79855104655914" lon="1.0716193042350373"><ele>79.25</ele><time>2026-04-25T13:52:18.001Z</time></trkpt><trkpt lat="47.79855638981932" lon="1.0714372400139063"><ele>79.5</ele><time>2026-04-25T13:52:19.001Z</time></trkpt><trkpt lat="47.79856041213423" lon="1.0712592044932319"><ele>79.75</ele><time>2026-04-25T13:52:20.001Z</time></trkpt><trkpt lat="47.79856027483453" lon="1.0710843647212058"><ele>80.0</ele><time>2026-04-25T13:52:21.001Z</time></trkpt><trkpt lat="47.79855517036913" lon="1.0709141410276584"><ele>80.0</ele><time>2026-04-25T13:52:22.001Z</time></trkpt><trkpt lat="47.79854878314081" lon="1.0707510741343336"><ele>80.0</ele><time>2026-04-25T13:52:23.001Z</time></trkpt><trkpt lat="47.798553069590966" lon="1.0705878445085373"><ele>80.0</ele><time>2026-04-25T13:52:24.001Z</time></trkpt><trkpt lat="47.79854288978755" lon="1.070427685220447"><ele>80.0</ele><time>2026-04-25T13:52:25.001Z</time></trkpt><trkpt lat="47.79853369408818" lon="1.0702723538569305"><ele>80.0</ele><time>2026-04-25T13:52:26.001Z</time></trkpt><trkpt lat="47.798526946436965" lon="1.0701311693596"><ele>80.0</ele><time>2026-04-25T13:52:27.001Z</time></trkpt><trkpt lat="47.798523822788276" lon="1.0700055757206974"><ele>80.0</ele><time>2026-04-25T13:52:28.001Z</time></trkpt><trkpt lat="47.79852269726199" lon="1.069902308261956"><ele>80.0</ele><time>2026-04-25T13:52:29.001Z</time></trkpt><trkpt lat="47.79852766382414" lon="1.0697267569403401"><ele>80.0</ele><time>2026-04-25T13:52:31.001Z</time></trkpt><trkpt lat="47.798538023321576" lon="1.0695611896010013"><ele>80.0</ele><time>2026-04-25T13:52:33.001Z</time></trkpt><trkpt lat="47.79855175762553" lon="1.0693750668739825"><ele>80.2</ele><time>2026-04-25T13:52:35.001Z</time></trkpt><trkpt lat="47.79856703786025" lon="1.0691962407545785"><ele>80.4</ele><time>2026-04-25T13:52:37.001Z</time></trkpt><trkpt lat="47.79858106983279" lon="1.0690270623006826"><ele>80.6</ele><time>2026-04-25T13:52:39.001Z</time></trkpt><trkpt lat="47.798588368699384" lon="1.0688822269384153"><ele>80.8</ele><time>2026-04-25T13:52:41.001Z</time></trkpt><trkpt lat="47.79858823163083" lon="1.0687835647212907"><ele>81.0</ele><time>2026-04-25T13:52:43.001Z</time></trkpt><trkpt lat="47.79858753331795" lon="1.0686446278323376"><ele>81.14285714285714</ele><time>2026-04-25T13:52:45.001Z</time></trkpt><trkpt lat="47.798587249072064" lon="1.068549952311265"><ele>81.28571428571428</ele><time>2026-04-25T13:52:46.001Z</time></trkpt><trkpt lat="47.79858570919721" lon="1.0684471303221788"><ele>81.42857142857142</ele><time>2026-04-25T13:52:47.001Z</time></trkpt><trkpt lat="47.79858291227562" lon="1.0683423977110336"><ele>81.57142857142857</ele><time>2026-04-25T13:52:48.001Z</time></trkpt><trkpt lat="47.79858124665259" lon="1.0682311445112431"><ele>81.71428571428571</ele><time>2026-04-25T13:52:49.001Z</time></trkpt><trkpt lat="47.79858077089699" lon="1.0681200254769196"><ele>81.85714285714285</ele><time>2026-04-25T13:52:50.001Z</time></trkpt><trkpt lat="47.79858164675153" lon="1.068007008345137"><ele>82.0</ele><time>2026-04-25T13:52:51.001Z</time></trkpt><trkpt lat="47.79858359572567" lon="1.0678934508542666"><ele>82.14285714285714</ele><time>2026-04-25T13:52:52.001Z</time></trkpt><trkpt lat="47.798586087366914" lon="1.0677788544267373"><ele>82.28571428571428</ele><time>2026-04-25T13:52:53.001Z</time></trkpt><trkpt lat="47.79859147632676" lon="1.0676633055501428"><ele>82.42857142857142</ele><time>2026-04-25T13:52:54.001Z</time></trkpt><trkpt lat="47.79859716624969" lon="1.0675512901147124"><ele>82.57142857142857</ele><time>2026-04-25T13:52:55.001Z</time></trkpt><trkpt lat="47.79860163576719" lon="1.0674418524065"><ele>82.71428571428572</ele><time>2026-04-25T13:52:56.001Z</time></trkpt><trkpt lat="47.798605290848975" lon="1.0673404717374333"><ele>82.85714285714285</ele><time>2026-04-25T13:52:57.001Z</time></trkpt><trkpt lat="47.79860723572877" lon="1.067245976120808"><ele>83.0</ele><time>2026-04-25T13:52:58.001Z</time></trkpt><trkpt lat="47.79860986676745" lon="1.0670938203526958"><ele>82.66666666666667</ele><time>2026-04-25T13:53:00.001Z</time></trkpt><trkpt lat="47.798608889946706" lon="1.0669825366614216"><ele>82.33333333333334</ele><time>2026-04-25T13:53:03.001Z</time></trkpt><trkpt lat="47.798609882982134" lon="1.0668672873692708"><ele>82.0</ele><time>2026-04-25T13:53:11.001Z</time></trkpt><trkpt lat="47.798609589353326" lon="1.0667332385699098"><ele>81.66666666666667</ele><time>2026-04-25T13:53:13.001Z</time></trkpt><trkpt lat="47.79860824337093" lon="1.066599902677564"><ele>81.33333333333333</ele><time>2026-04-25T13:53:15.001Z</time></trkpt><trkpt lat="47.79860531784239" lon="1.0664564450972902"><ele>81.0</ele><time>2026-04-25T13:53:17Z</time></trkpt><trkpt lat="47.7985988442723" lon="1.066300434388092"><ele>81.0</ele><time>2026-04-25T13:53:19Z</time></trkpt><trkpt lat="47.798592972057705" lon="1.066127503412996"><ele>81.0</ele><time>2026-04-25T13:53:21Z</time></trkpt><trkpt lat="47.79858993295711" lon="1.066029581954198"><ele>81.0</ele><time>2026-04-25T13:53:22Z</time></trkpt><trkpt lat="47.798588037794616" lon="1.0659212707432901"><ele>81.0</ele><time>2026-04-25T13:53:23Z</time></trkpt><trkpt lat="47.79858491373778" lon="1.065815617201739"><ele>81.0</ele><time>2026-04-25T13:53:24Z</time></trkpt><trkpt lat="47.79858132626336" lon="1.0657029991905496"><ele>81.0</ele><time>2026-04-25T13:53:25Z</time></trkpt><trkpt lat="47.79857751257291" lon="1.0655829842040734"><ele>81.16666666666667</ele><time>2026-04-25T13:53:26Z</time></trkpt><trkpt lat="47.79857069825742" lon="1.065457532519513"><ele>81.33333333333333</ele><time>2026-04-25T13:53:27Z</time></trkpt><trkpt lat="47.79856703647718" lon="1.0653361988017456"><ele>81.5</ele><time>2026-04-25T13:53:28Z</time></trkpt><trkpt lat="47.79856043683181" lon="1.0652158507772833"><ele>81.66666666666666</ele><time>2026-04-25T13:53:29Z</time></trkpt><trkpt lat="47.79855365110568" lon="1.0650921385249317"><ele>81.83333333333333</ele><time>2026-04-25T13:53:30Z</time></trkpt><trkpt lat="47.79854742016197" lon="1.0649549328525245"><ele>82.0</ele><time>2026-04-25T13:53:31Z</time></trkpt><trkpt lat="47.79854035471928" lon="1.064809818649573"><ele>82.0</ele><time>2026-04-25T13:53:32Z</time></trkpt><trkpt lat="47.79853122747777" lon="1.0646784786202823"><ele>82.0</ele><time>2026-04-25T13:53:33Z</time></trkpt><trkpt lat="47.798524106229706" lon="1.0645733444519936"><ele>82.0</ele><time>2026-04-25T13:53:34Z</time></trkpt><trkpt lat="47.798523003584414" lon="1.0644497340959107"><ele>82.0</ele><time>2026-04-25T13:53:36Z</time></trkpt><trkpt lat="47.7985138162257" lon="1.0643290158075809"><ele>82.0</ele><time>2026-04-25T13:53:54Z</time></trkpt><trkpt lat="47.79850248972574" lon="1.064198288118404"><ele>82.0</ele><time>2026-04-25T13:53:56Z</time></trkpt><trkpt lat="47.79849399930712" lon="1.0640642994860445"><ele>81.6</ele><time>2026-04-25T13:53:58Z</time></trkpt><trkpt lat="47.79848297478558" lon="1.0639492498166683"><ele>81.19999999999999</ele><time>2026-04-25T13:54:00Z</time></trkpt><trkpt lat="47.7984716538398" lon="1.0638168177055023"><ele>80.8</ele><time>2026-04-25T13:54:03Z</time></trkpt><trkpt lat="47.7984602755678" lon="1.0637103799996348"><ele>80.4</ele><time>2026-04-25T13:54:05Z</time></trkpt><trkpt lat="47.79844652156065" lon="1.0635694648980571"><ele>80.0</ele><time>2026-04-25T13:54:07.001Z</time></trkpt><trkpt lat="47.798426286509915" lon="1.063395269623384"><ele>80.0</ele><time>2026-04-25T13:54:09.001Z</time></trkpt><trkpt lat="47.79841468585599" lon="1.0632933350573834"><ele>80.0</ele><time>2026-04-25T13:54:10.001Z</time></trkpt><trkpt lat="47.79840214995895" lon="1.063185890229296"><ele>80.0</ele><time>2026-04-25T13:54:11.001Z</time></trkpt><trkpt lat="47.79838987658428" lon="1.0630801510162655"><ele>80.0</ele><time>2026-04-25T13:54:12.001Z</time></trkpt><trkpt lat="47.79837593855254" lon="1.062976066961383"><ele>80.0</ele><time>2026-04-25T13:54:13.001Z</time></trkpt><trkpt lat="47.798361930667895" lon="1.0628686702895362"><ele>80.0</ele><time>2026-04-25T13:54:14.001Z</time></trkpt><trkpt lat="47.79834766043299" lon="1.0627596596927331"><ele>80.0</ele><time>2026-04-25T13:54:15.001Z</time></trkpt><trkpt lat="47.798332275664386" lon="1.062645909606963"><ele>79.83333333333334</ele><time>2026-04-25T13:54:16.001Z</time></trkpt><trkpt lat="47.7983175649223" lon="1.0625283028051218"><ele>79.66666666666667</ele><time>2026-04-25T13:54:17.001Z</time></trkpt><trkpt lat="47.79830420052703" lon="1.0624067387595848"><ele>79.5</ele><time>2026-04-25T13:54:18.001Z</time></trkpt><trkpt lat="47.798289861218365" lon="1.062282903692283"><ele>79.33333333333333</ele><time>2026-04-25T13:54:19.001Z</time></trkpt><trkpt lat="47.7982720726827" lon="1.0621582211395553"><ele>79.16666666666666</ele><time>2026-04-25T13:54:20.001Z</time></trkpt><trkpt lat="47.79825364519251" lon="1.0620327416905533"><ele>79.0</ele><time>2026-04-25T13:54:21.001Z</time></trkpt><trkpt lat="47.79823618695025" lon="1.061910587446568"><ele>79.0</ele><time>2026-04-25T13:54:22.001Z</time></trkpt><trkpt lat="47.79821699575471" lon="1.06179172068266"><ele>79.0</ele><time>2026-04-25T13:54:23.001Z</time></trkpt><trkpt lat="47.79819885518895" lon="1.0616770771690744"><ele>79.0</ele><time>2026-04-25T13:54:24.001Z</time></trkpt><trkpt lat="47.7981810025212" lon="1.0615659001597715"><ele>79.0</ele><time>2026-04-25T13:54:25.001Z</time></trkpt><trkpt lat="47.798163213889175" lon="1.0614505604221953"><ele>79.0</ele><time>2026-04-25T13:54:26.001Z</time></trkpt><trkpt lat="47.79814215448781" lon="1.0613319229286673"><ele>79.0</ele><time>2026-04-25T13:54:27.001Z</time></trkpt><trkpt lat="47.79812093429015" lon="1.061211296347133"><ele>79.0</ele><time>2026-04-25T13:54:28.001Z</time></trkpt><trkpt lat="47.798099022977354" lon="1.0610925692909665"><ele>79.0</ele><time>2026-04-25T13:54:29.001Z</time></trkpt><trkpt lat="47.79807976145976" lon="1.0609764325654734"><ele>79.0</ele><time>2026-04-25T13:54:30.001Z</time></trkpt><trkpt lat="47.79806085202123" lon="1.0608646852939474"><ele>79.0</ele><time>2026-04-25T13:54:31.001Z</time></trkpt><trkpt lat="47.798041841646146" lon="1.0607554151046032"><ele>79.0</ele><time>2026-04-25T13:54:32.001Z</time></trkpt><trkpt lat="47.798024397181194" lon="1.060649508609199"><ele>79.0</ele><time>2026-04-25T13:54:33.001Z</time></trkpt><trkpt lat="47.79800713740591" lon="1.0605469973979238"><ele>79.0</ele><time>2026-04-25T13:54:34.001Z</time></trkpt><trkpt lat="47.797990090618775" lon="1.0604500911883756"><ele>79.0</ele><time>2026-04-25T13:54:35.001Z</time></trkpt><trkpt lat="47.79797481774206" lon="1.0603570396481552"><ele>79.0</ele><time>2026-04-25T13:54:36.001Z</time></trkpt><trkpt lat="47.79796037269678" lon="1.0602650640920768"><ele>79.0</ele><time>2026-04-25T13:54:37.001Z</time></trkpt><trkpt lat="47.797930943676604" lon="1.0600972010823744"><ele>79.0</ele><time>2026-04-25T13:54:39.001Z</time></trkpt><trkpt lat="47.79791441553816" lon="1.059979256383269"><ele>79.0</ele><time>2026-04-25T13:55:01.001Z</time></trkpt><trkpt lat="47.797895831280606" lon="1.0598734540781067"><ele>79.2</ele><time>2026-04-25T13:55:03.001Z</time></trkpt><trkpt lat="47.79787258649868" lon="1.0597411188191295"><ele>79.4</ele><time>2026-04-25T13:55:05.001Z</time></trkpt><trkpt lat="47.79785787472402" lon="1.0595968244280805"><ele>79.6</ele><time>2026-04-25T13:55:07.001Z</time></trkpt><trkpt lat="47.797829504323616" lon="1.0594897732032775"><ele>79.8</ele><time>2026-04-25T13:55:09.001Z</time></trkpt><trkpt lat="47.79775173517972" lon="1.0595580579656967"><ele>80.0</ele><time>2026-04-25T13:55:10.001Z</time></trkpt><trkpt lat="47.797683042946396" lon="1.0596993834691744"><ele>79.83333333333334</ele><time>2026-04-25T13:55:12.001Z</time></trkpt><trkpt lat="47.79761320424577" lon="1.059761054383568"><ele>79.66666666666667</ele><time>2026-04-25T13:55:13.001Z</time></trkpt><trkpt lat="47.79754175067671" lon="1.0598259139205033"><ele>79.5</ele><time>2026-04-25T13:55:14.001Z</time></trkpt><trkpt lat="47.79747707765163" lon="1.059888612610003"><ele>79.33333333333333</ele><time>2026-04-25T13:55:15.001Z</time></trkpt><trkpt lat="47.79741321671258" lon="1.0599517165719208"><ele>79.16666666666666</ele><time>2026-04-25T13:55:16.001Z</time></trkpt><trkpt lat="47.79735927625271" lon="1.0600037789549819"><ele>79.0</ele><time>2026-04-25T13:55:17.001Z</time></trkpt><trkpt lat="47.79727872995843" lon="1.0600138181086638"><ele>78.83333333333333</ele><time>2026-04-25T13:55:19.001Z</time></trkpt><trkpt lat="47.79724585848868" lon="1.059873610516418"><ele>78.66666666666666</ele><time>2026-04-25T13:55:22Z</time></trkpt><trkpt lat="47.797206840515464" lon="1.0597988696684655"><ele>78.5</ele><time>2026-04-25T13:55:24Z</time></trkpt><trkpt lat="47.79718733369925" lon="1.059692459767402"><ele>78.33333333333333</ele><time>2026-04-25T13:55:31Z</time></trkpt><trkpt lat="47.79722915303224" lon="1.0597833897382953"><ele>78.16666666666667</ele><time>2026-04-25T13:56:21.001Z</time></trkpt><trkpt lat="47.79719158751383" lon="1.0597077634172878"><ele>78.0</ele><time>2026-04-25T13:57:10.001Z</time></trkpt><trkpt lat="47.79728335369224" lon="1.0597428217375917"><ele>78.0</ele><time>2026-04-25T13:57:50Z</time></trkpt><trkpt lat="47.79721834219155" lon="1.0597603032457077"><ele>78.0</ele><time>2026-04-25T13:58:53.001Z</time></trkpt><trkpt lat="47.7972582087355" lon="1.0596633500124244"><ele>78.0</ele><time>2026-04-25T13:59:02.001Z</time></trkpt><trkpt lat="47.79730105128167" lon="1.0597458821285977"><ele>78.0</ele><time>2026-04-25T13:59:52Z</time></trkpt><trkpt lat="47.79731409900612" lon="1.0596529843587552"><ele>78.0</ele><time>2026-04-25T14:04:05Z</time></trkpt><trkpt lat="47.797264291531235" lon="1.0597426767595248"><ele>78.0</ele><time>2026-04-25T14:05:48.001Z</time></trkpt><trkpt lat="47.79734363642863" lon="1.0596832928524336"><ele>78.0</ele><time>2026-04-25T14:07:00Z</time></trkpt><trkpt lat="47.7972643091473" lon="1.059714813869814"><ele>78.0</ele><time>2026-04-25T14:11:15Z</time></trkpt><trkpt lat="47.79732102166873" lon="1.0596668228061323"><ele>78.0</ele><time>2026-04-25T14:12:20Z</time></trkpt><trkpt lat="47.79724784727644" lon="1.0596917314321759"><ele>78.0</ele><time>2026-04-25T14:13:13Z</time></trkpt><trkpt lat="47.79732633141268" lon="1.0596544779906107"><ele>78.0</ele><time>2026-04-25T14:13:31Z</time></trkpt><trkpt lat="47.797384034164" lon="1.0596023056708823"><ele>78.0</ele><time>2026-04-25T14:13:36Z</time></trkpt><trkpt lat="47.79736137903105" lon="1.0595062770343995"><ele>78.0</ele><time>2026-04-25T14:17:46Z</time></trkpt><trkpt lat="47.79734816581069" lon="1.0593946686273632"><ele>78.0</ele><time>2026-04-25T14:17:49Z</time></trkpt><trkpt lat="47.79739658834399" lon="1.0592926336127177"><ele>78.0</ele><time>2026-04-25T14:17:51Z</time></trkpt><trkpt lat="47.79743350959832" lon="1.0592010119994064"><ele>78.0</ele><time>2026-04-25T14:17:53Z</time></trkpt><trkpt lat="47.79749300457817" lon="1.0590998040738957"><ele>78.0</ele><time>2026-04-25T14:17:59Z</time></trkpt><trkpt lat="47.79756009079643" lon="1.059109344854639"><ele>78.0</ele><time>2026-04-25T14:18:01Z</time></trkpt><trkpt lat="47.79760381616956" lon="1.0591866752015704"><ele>78.0</ele><time>2026-04-25T14:18:03Z</time></trkpt><trkpt lat="47.7976172484132" lon="1.0593115976262504"><ele>78.0</ele><time>2026-04-25T14:18:06Z</time></trkpt><trkpt lat="47.797672491290015" lon="1.0593641319902505"><ele>78.0</ele><time>2026-04-25T14:18:08Z</time></trkpt><trkpt lat="47.797742195475266" lon="1.0593434707251037"><ele>78.2</ele><time>2026-04-25T14:18:17Z</time></trkpt><trkpt lat="47.79780618571853" lon="1.0594489895571466"><ele>78.4</ele><time>2026-04-25T14:18:27Z</time></trkpt><trkpt lat="47.797806897272444" lon="1.0596121385078658"><ele>78.60000000000001</ele><time>2026-04-25T14:18:29Z</time></trkpt><trkpt lat="47.79784492774275" lon="1.0597746408634294"><ele>78.8</ele><time>2026-04-25T14:18:31Z</time></trkpt><trkpt lat="47.79788400344021" lon="1.05993936921366"><ele>79.0</ele><time>2026-04-25T14:18:33Z</time></trkpt><trkpt lat="47.79791291982644" lon="1.0601054028564965"><ele>79.0</ele><time>2026-04-25T14:18:35Z</time></trkpt><trkpt lat="47.79792464744998" lon="1.0602761907175693"><ele>79.0</ele><time>2026-04-25T14:18:37Z</time></trkpt><trkpt lat="47.79796743955476" lon="1.0604684049597615"><ele>79.0</ele><time>2026-04-25T14:18:39Z</time></trkpt><trkpt lat="47.79798905449681" lon="1.0605820995309532"><ele>79.0</ele><time>2026-04-25T14:18:40Z</time></trkpt><trkpt lat="47.79801421863095" lon="1.0606791506526674"><ele>79.0</ele><time>2026-04-25T14:18:41Z</time></trkpt><trkpt lat="47.798038957859575" lon="1.0607961637267116"><ele>79.0</ele><time>2026-04-25T14:18:42Z</time></trkpt><trkpt lat="47.798058351539126" lon="1.0609384432185447"><ele>79.0</ele><time>2026-04-25T14:18:43Z</time></trkpt><trkpt lat="47.7980737575939" lon="1.06106407716958"><ele>79.0</ele><time>2026-04-25T14:18:44Z</time></trkpt><trkpt lat="47.798098786791925" lon="1.0611893201936369"><ele>79.0</ele><time>2026-04-25T14:18:45Z</time></trkpt><trkpt lat="47.798114963485006" lon="1.0613152346806822"><ele>79.0</ele><time>2026-04-25T14:18:46Z</time></trkpt><trkpt lat="47.79813462648817" lon="1.0614325523918995"><ele>79.0</ele><time>2026-04-25T14:18:47Z</time></trkpt><trkpt lat="47.79815102361832" lon="1.0615439049430835"><ele>79.0</ele><time>2026-04-25T14:18:48Z</time></trkpt><trkpt lat="47.79816747546873" lon="1.0616508824225181"><ele>79.0</ele><time>2026-04-25T14:18:49Z</time></trkpt><trkpt lat="47.79818359173147" lon="1.061757609395835"><ele>79.0</ele><time>2026-04-25T14:18:50Z</time></trkpt><trkpt lat="47.79819737453272" lon="1.0618615114646088"><ele>79.0</ele><time>2026-04-25T14:18:51Z</time></trkpt><trkpt lat="47.79821053324343" lon="1.0619689947923991"><ele>79.0</ele><time>2026-04-25T14:18:52Z</time></trkpt><trkpt lat="47.798227273223475" lon="1.06208483528856"><ele>79.0</ele><time>2026-04-25T14:18:53Z</time></trkpt><trkpt lat="47.798245230417606" lon="1.062205560273012"><ele>79.0</ele><time>2026-04-25T14:18:54Z</time></trkpt><trkpt lat="47.79826173806904" lon="1.0623305268906373"><ele>79.0</ele><time>2026-04-25T14:18:55Z</time></trkpt><trkpt lat="47.79828419864323" lon="1.0624612017898314"><ele>79.0</ele><time>2026-04-25T14:18:56Z</time></trkpt><trkpt lat="47.798302253113704" lon="1.0625952690309148"><ele>79.0</ele><time>2026-04-25T14:18:57Z</time></trkpt><trkpt lat="47.798326039511196" lon="1.062712582062045"><ele>79.0</ele><time>2026-04-25T14:18:58Z</time></trkpt><trkpt lat="47.79833195242715" lon="1.0628274668382065"><ele>79.0</ele><time>2026-04-25T14:18:59Z</time></trkpt><trkpt lat="47.7983477435095" lon="1.0629314685854712"><ele>79.0</ele><time>2026-04-25T14:19:00Z</time></trkpt><trkpt lat="47.79835766385952" lon="1.0630708935344475"><ele>79.0</ele><time>2026-04-25T14:19:02Z</time></trkpt><trkpt lat="47.798360088633146" lon="1.0632441301395652"><ele>79.0</ele><time>2026-04-25T14:19:26Z</time></trkpt><trkpt lat="47.79838424615824" lon="1.0634224572452025"><ele>79.0</ele><time>2026-04-25T14:19:28Z</time></trkpt><trkpt lat="47.798400487506896" lon="1.0635216903107585"><ele>79.0</ele><time>2026-04-25T14:19:29Z</time></trkpt><trkpt lat="47.79841530237129" lon="1.063643890528026"><ele>79.2</ele><time>2026-04-25T14:19:30Z</time></trkpt><trkpt lat="47.79843293493415" lon="1.063779754521236"><ele>79.4</ele><time>2026-04-25T14:19:31Z</time></trkpt><trkpt lat="47.798452208416606" lon="1.063911245409041"><ele>79.6</ele><time>2026-04-25T14:19:32Z</time></trkpt><trkpt lat="47.798466900742596" lon="1.0640494985003834"><ele>79.8</ele><time>2026-04-25T14:19:33Z</time></trkpt><trkpt lat="47.79847854799448" lon="1.0641910710545646"><ele>80.0</ele><time>2026-04-25T14:19:34Z</time></trkpt><trkpt lat="47.79848416192401" lon="1.0643353541425218"><ele>80.4</ele><time>2026-04-25T14:19:35Z</time></trkpt><trkpt lat="47.798501614779354" lon="1.0644796473890548"><ele>80.8</ele><time>2026-04-25T14:19:36Z</time></trkpt><trkpt lat="47.79851476776173" lon="1.0646257611463898"><ele>81.19999999999999</ele><time>2026-04-25T14:19:37Z</time></trkpt><trkpt lat="47.79852300494252" lon="1.0647786618183208"><ele>81.6</ele><time>2026-04-25T14:19:38Z</time></trkpt><trkpt lat="47.798531508029825" lon="1.064939971940993"><ele>82.0</ele><time>2026-04-25T14:19:39Z</time></trkpt><trkpt lat="47.79854110501003" lon="1.0650934228465097"><ele>82.0</ele><time>2026-04-25T14:19:40Z</time></trkpt><trkpt lat="47.79853358340782" lon="1.0652472878465178"><ele>82.0</ele><time>2026-04-25T14:19:41Z</time></trkpt><trkpt lat="47.79853999451512" lon="1.0653963785762117"><ele>82.0</ele><time>2026-04-25T14:19:42Z</time></trkpt><trkpt lat="47.79854513265229" lon="1.0655472856309578"><ele>82.0</ele><time>2026-04-25T14:19:43Z</time></trkpt><trkpt lat="47.79855000320457" lon="1.065693693441314"><ele>82.0</ele><time>2026-04-25T14:19:44Z</time></trkpt><trkpt lat="47.798555418924764" lon="1.065839658079276"><ele>81.83333333333333</ele><time>2026-04-25T14:19:45Z</time></trkpt><trkpt lat="47.798562014485746" lon="1.065981070087151"><ele>81.66666666666666</ele><time>2026-04-25T14:19:46Z</time></trkpt><trkpt lat="47.79856856928229" lon="1.0661056110648377"><ele>81.5</ele><time>2026-04-25T14:19:47Z</time></trkpt><trkpt lat="47.79857421879645" lon="1.0662129512766323"><ele>81.33333333333333</ele><time>2026-04-25T14:19:48Z</time></trkpt><trkpt lat="47.79859768843467" lon="1.0663567015600048"><ele>81.16666666666667</ele><time>2026-04-25T14:19:50Z</time></trkpt><trkpt lat="47.79857315230851" lon="1.0664701250898692"><ele>81.0</ele><time>2026-04-25T14:20:11Z</time></trkpt><trkpt lat="47.79857256888497" lon="1.0666114607166501"><ele>81.0</ele><time>2026-04-25T14:20:13Z</time></trkpt><trkpt lat="47.79858825438318" lon="1.0668001941286211"><ele>81.0</ele><time>2026-04-25T14:20:15Z</time></trkpt><trkpt lat="47.798570317276855" lon="1.0669226320001879"><ele>81.0</ele><time>2026-04-25T14:20:16Z</time></trkpt><trkpt lat="47.79856711079275" lon="1.0670707124508527"><ele>81.0</ele><time>2026-04-25T14:20:17Z</time></trkpt><trkpt lat="47.79856494218303" lon="1.0672211765280906"><ele>81.0</ele><time>2026-04-25T14:20:18Z</time></trkpt><trkpt lat="47.7985627568067" lon="1.0673728038189854"><ele>81.4</ele><time>2026-04-25T14:20:19Z</time></trkpt><trkpt lat="47.79857677430965" lon="1.067537117559731"><ele>81.8</ele><time>2026-04-25T14:20:20Z</time></trkpt><trkpt lat="47.79857164633387" lon="1.0677080210378849"><ele>82.2</ele><time>2026-04-25T14:20:21Z</time></trkpt><trkpt lat="47.798565256659494" lon="1.0678766200216308"><ele>82.60000000000001</ele><time>2026-04-25T14:20:22Z</time></trkpt><trkpt lat="47.79855992883432" lon="1.06802910677845"><ele>83.0</ele><time>2026-04-25T14:20:23Z</time></trkpt><trkpt lat="47.79855104136115" lon="1.0681779372441529"><ele>82.83333333333334</ele><time>2026-04-25T14:20:24Z</time></trkpt><trkpt lat="47.798545386827264" lon="1.0683164829326457"><ele>82.66666666666667</ele><time>2026-04-25T14:20:25Z</time></trkpt><trkpt lat="47.798541047089124" lon="1.0684399704985668"><ele>82.5</ele><time>2026-04-25T14:20:26Z</time></trkpt><trkpt lat="47.798535845572864" lon="1.0685393588968073"><ele>82.33333333333333</ele><time>2026-04-25T14:20:27Z</time></trkpt><trkpt lat="47.79853406943201" lon="1.0686400048305351"><ele>82.16666666666666</ele><time>2026-04-25T14:20:29Z</time></trkpt><trkpt lat="47.79855409704758" lon="1.0687514001389278"><ele>82.0</ele><time>2026-04-25T14:21:17Z</time></trkpt><trkpt lat="47.79851140266961" lon="1.0688637224034157"><ele>81.83333333333333</ele><time>2026-04-25T14:21:19Z</time></trkpt><trkpt lat="47.798409391320554" lon="1.0688721657841487"><ele>81.66666666666666</ele><time>2026-04-25T14:21:21Z</time></trkpt><trkpt lat="47.798362630572875" lon="1.0688021217012944"><ele>81.5</ele><time>2026-04-25T14:21:22Z</time></trkpt><trkpt lat="47.79829847667279" lon="1.068793637562124"><ele>81.33333333333333</ele><time>2026-04-25T14:21:23Z</time></trkpt><trkpt lat="47.79823890314529" lon="1.068763287727135"><ele>81.16666666666667</ele><time>2026-04-25T14:21:24Z</time></trkpt><trkpt lat="47.79816122688786" lon="1.0687344914822254"><ele>81.0</ele><time>2026-04-25T14:21:25Z</time></trkpt><trkpt lat="47.798088242605075" lon="1.0687112140960695"><ele>81.0</ele><time>2026-04-25T14:21:26Z</time></trkpt><trkpt lat="47.798010331229435" lon="1.0686827317173915"><ele>81.0</ele><time>2026-04-25T14:21:27Z</time></trkpt><trkpt lat="47.79793113387671" lon="1.0686524882655695"><ele>81.0</ele><time>2026-04-25T14:21:28Z</time></trkpt><trkpt lat="47.797855392382175" lon="1.0686235341598798"><ele>81.0</ele><time>2026-04-25T14:21:29Z</time></trkpt><trkpt lat="47.79778490125431" lon="1.0685960508304784"><ele>81.0</ele><time>2026-04-25T14:21:30Z</time></trkpt><trkpt lat="47.797713781461404" lon="1.0685680919977345"><ele>81.0</ele><time>2026-04-25T14:21:31Z</time></trkpt><trkpt lat="47.797642682228364" lon="1.068538975425567"><ele>81.28571428571429</ele><time>2026-04-25T14:21:32Z</time></trkpt><trkpt lat="47.797574048435415" lon="1.068510293839479"><ele>81.57142857142857</ele><time>2026-04-25T14:21:33Z</time></trkpt><trkpt lat="47.79750338392258" lon="1.0684825454821092"><ele>81.85714285714286</ele><time>2026-04-25T14:21:34Z</time></trkpt><trkpt lat="47.79743467967089" lon="1.0684535984386299"><ele>82.14285714285714</ele><time>2026-04-25T14:21:35Z</time></trkpt><trkpt lat="47.79736898567371" lon="1.0684304212565723"><ele>82.42857142857143</ele><time>2026-04-25T14:21:36Z</time></trkpt><trkpt lat="47.797303143645294" lon="1.0684074694829366"><ele>82.71428571428571</ele><time>2026-04-25T14:21:37Z</time></trkpt><trkpt lat="47.79723520575469" lon="1.0683844206086817"><ele>83.0</ele><time>2026-04-25T14:21:38Z</time></trkpt><trkpt lat="47.79716929748693" lon="1.0683660346183352"><ele>83.0</ele><time>2026-04-25T14:21:39Z</time></trkpt><trkpt lat="47.79710157051113" lon="1.0683496688581093"><ele>83.0</ele><time>2026-04-25T14:21:40Z</time></trkpt><trkpt lat="47.79703530901902" lon="1.0683344406999005"><ele>83.0</ele><time>2026-04-25T14:21:41Z</time></trkpt><trkpt lat="47.796968947327095" lon="1.0683226908726855"><ele>83.0</ele><time>2026-04-25T14:21:42Z</time></trkpt><trkpt lat="47.79690059008789" lon="1.0683091817367385"><ele>83.0</ele><time>2026-04-25T14:21:43Z</time></trkpt><trkpt lat="47.79682944803439" lon="1.0682954106572122"><ele>83.0</ele><time>2026-04-25T14:21:44Z</time></trkpt><trkpt lat="47.79675859456661" lon="1.0682841812088157"><ele>83.0</ele><time>2026-04-25T14:21:45Z</time></trkpt><trkpt lat="47.79668572222044" lon="1.068270763068936"><ele>82.83333333333334</ele><time>2026-04-25T14:21:46Z</time></trkpt><trkpt lat="47.79661801401881" lon="1.0682596556711403"><ele>82.66666666666667</ele><time>2026-04-25T14:21:47Z</time></trkpt><trkpt lat="47.79654957566694" lon="1.0682507889322885"><ele>82.5</ele><time>2026-04-25T14:21:48Z</time></trkpt><trkpt lat="47.79648573622263" lon="1.068241718434322"><ele>82.33333333333333</ele><time>2026-04-25T14:21:49Z</time></trkpt><trkpt lat="47.796423346408154" lon="1.0682288718833823"><ele>82.16666666666666</ele><time>2026-04-25T14:21:50Z</time></trkpt><trkpt lat="47.79632095300894" lon="1.0682106158959956"><ele>82.0</ele><time>2026-04-25T14:21:52Z</time></trkpt><trkpt lat="47.796252255745166" lon="1.0683595116002969"><ele>82.0</ele><time>2026-04-25T14:21:56Z</time></trkpt><trkpt lat="47.79624998824544" lon="1.0685109145209943"><ele>82.0</ele><time>2026-04-25T14:21:58Z</time></trkpt><trkpt lat="47.79624325399694" lon="1.0686226828031467"><ele>82.0</ele><time>2026-04-25T14:21:59Z</time></trkpt><trkpt lat="47.79623586975679" lon="1.068732019556882"><ele>82.0</ele><time>2026-04-25T14:22:00Z</time></trkpt><trkpt lat="47.79622987011949" lon="1.0688299475835645"><ele>82.0</ele><time>2026-04-25T14:22:01Z</time></trkpt><trkpt lat="47.796227749492296" lon="1.068977688808341"><ele>82.0</ele><time>2026-04-25T14:22:03Z</time></trkpt><trkpt lat="47.7961910327853" lon="1.0690776827341264"><ele>82.0</ele><time>2026-04-25T14:22:05Z</time></trkpt><trkpt lat="47.79613567752616" lon="1.068986856187862"><ele>82.0</ele><time>2026-04-25T14:22:07Z</time></trkpt><trkpt lat="47.796129405593675" lon="1.06918472158602"><ele>82.0</ele><time>2026-04-25T14:22:10Z</time></trkpt><trkpt lat="47.79613120207158" lon="1.069303410890562"><ele>82.0</ele><time>2026-04-25T14:22:12Z</time></trkpt><trkpt lat="47.7960647662408" lon="1.069320763331392"><ele>82.0</ele><time>2026-04-25T14:22:14Z</time></trkpt><trkpt lat="47.79600090386132" lon="1.0693556037446275"><ele>82.0</ele><time>2026-04-25T14:22:16Z</time></trkpt><trkpt lat="47.79596175722136" lon="1.0692291813454922"><ele>81.99999999999999</ele><time>2026-04-25T14:22:21Z</time></trkpt><trkpt lat="47.795987866445614" lon="1.0691232162043116"><ele>82.0</ele><time>2026-04-25T14:22:23Z</time></trkpt><trkpt lat="47.79599912958574" lon="1.069017824923887"><ele>82.0</ele><time>2026-04-25T14:22:25Z</time></trkpt><trkpt lat="47.79606016271574" lon="1.0689667357438086"><ele>82.0</ele><time>2026-04-25T14:25:54Z</time></trkpt><trkpt lat="47.79607754067818" lon="1.0688622981432105"><ele>82.0</ele><time>2026-04-25T14:26:00Z</time></trkpt><trkpt lat="47.79607717345007" lon="1.0687570380320726"><ele>81.99999999999999</ele><time>2026-04-25T14:26:06Z</time></trkpt><trkpt lat="47.796106895993894" lon="1.0686727856036038"><ele>82.0</ele><time>2026-04-25T14:26:13Z</time></trkpt><trkpt lat="47.796188413248736" lon="1.0687534631378333"><ele>82.0</ele><time>2026-04-25T14:27:24Z</time></trkpt><trkpt lat="47.796733392380375" lon="1.0690577433304291"><ele>82.0</ele><time>2026-04-25T14:27:27Z</time></trkpt><trkpt lat="47.79666761854214" lon="1.0690699080390649"><ele>82.0</ele><time>2026-04-25T14:27:30Z</time></trkpt><trkpt lat="47.79659875241411" lon="1.0690801084318977"><ele>82.0</ele><time>2026-04-25T14:27:32Z</time></trkpt><trkpt lat="47.79652220425751" lon="1.0690045151115808"><ele>82.0</ele><time>2026-04-25T14:27:34Z</time></trkpt><trkpt lat="47.79647327192945" lon="1.0688192918803376"><ele>82.0</ele><time>2026-04-25T14:27:36Z</time></trkpt><trkpt lat="47.79636020215028" lon="1.0688301429055933"><ele>82.0</ele><time>2026-04-25T14:27:39Z</time></trkpt><trkpt lat="47.79626358111503" lon="1.0687271079410947"><ele>82.0</ele><time>2026-04-25T14:27:42Z</time></trkpt><trkpt lat="47.79618839263428" lon="1.068770492326259"><ele>82.0</ele><time>2026-04-25T14:27:44Z</time></trkpt><trkpt lat="47.7961356876729" lon="1.0687002727890178"><ele>82.0</ele><time>2026-04-25T14:27:58Z</time></trkpt><trkpt lat="47.79607169744715" lon="1.0686247529411728"><ele>82.0</ele><time>2026-04-25T14:28:17Z</time></trkpt><trkpt lat="47.79616081895669" lon="1.0686401804954548"><ele>82.0</ele><time>2026-04-25T14:28:26Z</time></trkpt><trkpt lat="47.796168305409516" lon="1.0687360985379446"><ele>82.0</ele><time>2026-04-25T14:28:36Z</time></trkpt><trkpt lat="47.796107341576295" lon="1.068695900078032"><ele>82.0</ele><time>2026-04-25T14:29:43Z</time></trkpt><trkpt lat="47.79614089025206" lon="1.0687886317703037"><ele>82.0</ele><time>2026-04-25T14:30:02Z</time></trkpt><trkpt lat="47.79620665611194" lon="1.0687366912694634"><ele>82.0</ele><time>2026-04-25T14:30:54Z</time></trkpt><trkpt lat="47.79610321755423" lon="1.0687376491729772"><ele>82.0</ele><time>2026-04-25T14:31:03Z</time></trkpt><trkpt lat="47.79607534499069" lon="1.0688394214066557"><ele>82.0</ele><time>2026-04-25T14:31:08Z</time></trkpt><trkpt lat="47.79607376141808" lon="1.0689339677821386"><ele>81.99999999999999</ele><time>2026-04-25T14:31:12Z</time></trkpt><trkpt lat="47.79602563929726" lon="1.0689978750256326"><ele>82.0</ele><time>2026-04-25T14:31:18Z</time></trkpt><trkpt lat="47.79608744880586" lon="1.0689563726308555"><ele>82.0</ele><time>2026-04-25T14:31:59Z</time></trkpt><trkpt lat="47.79607617119165" lon="1.068852960026279"><ele>82.0</ele><time>2026-04-25T14:32:03Z</time></trkpt><trkpt lat="47.796095850486736" lon="1.0687454834090038"><ele>82.0</ele><time>2026-04-25T14:32:08Z</time></trkpt><trkpt lat="47.79609633125994" lon="1.068650924171761"><ele>81.99999999999999</ele><time>2026-04-25T14:32:14Z</time></trkpt><trkpt lat="47.796181813662095" lon="1.068641247002522"><ele>82.0</ele><time>2026-04-25T14:34:01Z</time></trkpt><trkpt lat="47.7961847293847" lon="1.0687475346049462"><ele>81.99999999999999</ele><time>2026-04-25T14:34:16Z</time></trkpt><trkpt lat="47.79612778411201" lon="1.068681805523964"><ele>82.0</ele><time>2026-04-25T14:34:32Z</time></trkpt><trkpt lat="47.796146313383275" lon="1.0687766387100752"><ele>82.0</ele><time>2026-04-25T14:35:09Z</time></trkpt><trkpt lat="47.79617476327943" lon="1.068663215753906"><ele>82.0</ele><time>2026-04-25T14:37:29Z</time></trkpt><trkpt lat="47.796099648465656" lon="1.0686659436159547"><ele>82.0</ele><time>2026-04-25T14:37:51Z</time></trkpt><trkpt lat="47.79607778913079" lon="1.068755508586874"><ele>81.99999999999999</ele><time>2026-04-25T14:37:54Z</time></trkpt><trkpt lat="47.7960732770008" lon="1.0688628793618524"><ele>82.0</ele><time>2026-04-25T14:37:59Z</time></trkpt><trkpt lat="47.7960762510878" lon="1.0689620555597952"><ele>82.0</ele><time>2026-04-25T14:38:03Z</time></trkpt><trkpt lat="47.79599507609732" lon="1.0689916737017306"><ele>82.0</ele><time>2026-04-25T14:38:17Z</time></trkpt><trkpt lat="47.79600954906848" lon="1.0688694224321533"><ele>82.0</ele><time>2026-04-25T14:39:11Z</time></trkpt><trkpt lat="47.796009990404805" lon="1.0687446939972338"><ele>82.0</ele><time>2026-04-25T14:39:14Z</time></trkpt><trkpt lat="47.79593073955375" lon="1.0686831397585241"><ele>82.0</ele><time>2026-04-25T14:39:17Z</time></trkpt><trkpt lat="47.79585357400622" lon="1.0687340109412236"><ele>82.0</ele><time>2026-04-25T14:39:19Z</time></trkpt><trkpt lat="47.79584091322645" lon="1.0688666442539354"><ele>82.0</ele><time>2026-04-25T14:39:21Z</time></trkpt><trkpt lat="47.79585409173535" lon="1.0689754827100415"><ele>82.0</ele><time>2026-04-25T14:39:23Z</time></trkpt><trkpt lat="47.795843853069925" lon="1.0691615248275688"><ele>82.0</ele><time>2026-04-25T14:39:25Z</time></trkpt><trkpt lat="47.79584387959182" lon="1.0693191520536958"><ele>82.0</ele><time>2026-04-25T14:39:27Z</time></trkpt><trkpt lat="47.79583759894945" lon="1.069428159856335"><ele>82.0</ele><time>2026-04-25T14:39:30Z</time></trkpt><trkpt lat="47.79576604720893" lon="1.0694882493449873"><ele>82.0</ele><time>2026-04-25T14:39:47Z</time></trkpt><trkpt lat="47.79565561700658" lon="1.0694414066020963"><ele>82.0</ele><time>2026-04-25T14:39:49Z</time></trkpt><trkpt lat="47.79554597107625" lon="1.069423395361221"><ele>82.0</ele><time>2026-04-25T14:39:51Z</time></trkpt><trkpt lat="47.795479791362126" lon="1.0694100304949576"><ele>82.0</ele><time>2026-04-25T14:39:52Z</time></trkpt><trkpt lat="47.79540985021883" lon="1.0694024479834876"><ele>82.0</ele><time>2026-04-25T14:39:53Z</time></trkpt><trkpt lat="47.79533261426656" lon="1.069400108129655"><ele>82.0</ele><time>2026-04-25T14:39:54Z</time></trkpt><trkpt lat="47.795254765389075" lon="1.0694057446261225"><ele>81.99999999999999</ele><time>2026-04-25T14:39:55Z</time></trkpt><trkpt lat="47.79518671905983" lon="1.0693775442614357"><ele>82.0</ele><time>2026-04-25T14:39:56Z</time></trkpt><trkpt lat="47.79512313789148" lon="1.0694387263913154"><ele>82.0</ele><time>2026-04-25T14:39:57Z</time></trkpt><trkpt lat="47.795050079425735" lon="1.0694656061830539"><ele>82.0</ele><time>2026-04-25T14:39:58Z</time></trkpt><trkpt lat="47.79497760000784" lon="1.0694648469883252"><ele>82.0</ele><time>2026-04-25T14:39:59Z</time></trkpt><trkpt lat="47.79490592525187" lon="1.0694716068474666"><ele>81.99999999999999</ele><time>2026-04-25T14:40:00Z</time></trkpt><trkpt lat="47.794837155438906" lon="1.0694727951828868"><ele>82.0</ele><time>2026-04-25T14:40:01Z</time></trkpt><trkpt lat="47.79477566789671" lon="1.069251890519674"><ele>82.19999999999999</ele><time>2026-04-25T14:40:02Z</time></trkpt><trkpt lat="47.79470882594108" lon="1.069247777506758"><ele>82.4</ele><time>2026-04-25T14:40:03Z</time></trkpt><trkpt lat="47.794641302575485" lon="1.06924362287772"><ele>82.6</ele><time>2026-04-25T14:40:04Z</time></trkpt><trkpt lat="47.79451716630289" lon="1.0692359844795356"><ele>82.80000000000001</ele><time>2026-04-25T14:40:06Z</time></trkpt><trkpt lat="47.79439860023646" lon="1.0692286885746245"><ele>83.0</ele><time>2026-04-25T14:40:08Z</time></trkpt><trkpt lat="47.79429691453578" lon="1.0693850290676505"><ele>82.66666666666667</ele><time>2026-04-25T14:40:10Z</time></trkpt><trkpt lat="47.794233899941915" lon="1.0693595072283169"><ele>82.33333333333334</ele><time>2026-04-25T14:40:13Z</time></trkpt><trkpt lat="47.79421540716752" lon="1.0692602989219824"><ele>82.0</ele><time>2026-04-25T14:40:16Z</time></trkpt><trkpt lat="47.79416939239846" lon="1.0691725229048636"><ele>81.66666666666667</ele><time>2026-04-25T14:40:31Z</time></trkpt><trkpt lat="47.794100966357135" lon="1.0691919056402075"><ele>81.33333333333333</ele><time>2026-04-25T14:40:33Z</time></trkpt><trkpt lat="47.79400880636934" lon="1.069310311413984"><ele>81.0</ele><time>2026-04-25T14:40:35Z</time></trkpt><trkpt lat="47.79393056942864" lon="1.069442863074666"><ele>81.0</ele><time>2026-04-25T14:40:37Z</time></trkpt><trkpt lat="47.79387513582765" lon="1.069504254135235"><ele>81.0</ele><time>2026-04-25T14:40:38Z</time></trkpt><trkpt lat="47.79377584259911" lon="1.0696385096896184"><ele>81.0</ele><time>2026-04-25T14:40:40Z</time></trkpt><trkpt lat="47.79372888619978" lon="1.0697241054850815"><ele>81.0</ele><time>2026-04-25T14:40:41Z</time></trkpt><trkpt lat="47.79369344003753" lon="1.069813745914242"><ele>81.0</ele><time>2026-04-25T14:40:42Z</time></trkpt><trkpt lat="47.79367660911279" lon="1.0699132070716688"><ele>81.0</ele><time>2026-04-25T14:40:43Z</time></trkpt><trkpt lat="47.79367034903333" lon="1.0700163884394245"><ele>81.0</ele><time>2026-04-25T14:40:44Z</time></trkpt><trkpt lat="47.793675830237746" lon="1.070110437141156"><ele>81.0</ele><time>2026-04-25T14:40:45Z</time></trkpt><trkpt lat="47.793711251062874" lon="1.0702857522107172"><ele>81.0</ele><time>2026-04-25T14:40:47Z</time></trkpt><trkpt lat="47.79373439999226" lon="1.0703754169838637"><ele>81.0</ele><time>2026-04-25T14:40:48Z</time></trkpt><trkpt lat="47.79376941101661" lon="1.0705459366727945"><ele>81.0</ele><time>2026-04-25T14:40:50Z</time></trkpt><trkpt lat="47.79376712138136" lon="1.0706756050021375"><ele>81.0</ele><time>2026-04-25T14:40:52Z</time></trkpt><trkpt lat="47.79378943592762" lon="1.0707673182758195"><ele>81.0</ele><time>2026-04-25T14:40:54Z</time></trkpt><trkpt lat="47.79386850443573" lon="1.0708565817156785"><ele>81.0</ele><time>2026-04-25T14:40:56Z</time></trkpt><trkpt lat="47.793909586493335" lon="1.0710234201523252"><ele>81.0</ele><time>2026-04-25T14:40:58Z</time></trkpt><trkpt lat="47.79395730084695" lon="1.0711771969375972"><ele>81.0</ele><time>2026-04-25T14:41:00Z</time></trkpt><trkpt lat="47.794014740716634" lon="1.0713275407041147"><ele>81.0</ele><time>2026-04-25T14:41:02Z</time></trkpt><trkpt lat="47.794050996237466" lon="1.0714119572355105"><ele>81.0</ele><time>2026-04-25T14:41:03Z</time></trkpt><trkpt lat="47.79408549500929" lon="1.071502190291099"><ele>81.0</ele><time>2026-04-25T14:41:04Z</time></trkpt><trkpt lat="47.79412107162697" lon="1.0715844449911758"><ele>81.0</ele><time>2026-04-25T14:41:05Z</time></trkpt><trkpt lat="47.79418118371761" lon="1.0717361220877133"><ele>81.0</ele><time>2026-04-25T14:41:07Z</time></trkpt><trkpt lat="47.79423135786161" lon="1.0718744011812729"><ele>81.0</ele><time>2026-04-25T14:41:09Z</time></trkpt><trkpt lat="47.79429526693332" lon="1.0719892298029137"><ele>80.83333333333333</ele><time>2026-04-25T14:41:11Z</time></trkpt><trkpt lat="47.79434102998141" lon="1.0721194243787129"><ele>80.66666666666667</ele><time>2026-04-25T14:41:13Z</time></trkpt><trkpt lat="47.794406528530054" lon="1.0722209448639122"><ele>80.5</ele><time>2026-04-25T14:41:15Z</time></trkpt><trkpt lat="47.79445011386249" lon="1.0723312490189487"><ele>80.33333333333334</ele><time>2026-04-25T14:41:17Z</time></trkpt><trkpt lat="47.79448791872139" lon="1.0724259630246655"><ele>80.16666666666667</ele><time>2026-04-25T14:41:19Z</time></trkpt><trkpt lat="47.79453322250938" lon="1.0725336643680266"><ele>80.0</ele><time>2026-04-25T14:41:21Z</time></trkpt><trkpt lat="47.79458935549569" lon="1.0726491960129614"><ele>80.0</ele><time>2026-04-25T14:41:23Z</time></trkpt><trkpt lat="47.794666745136006" lon="1.0727968445611626"><ele>80.0</ele><time>2026-04-25T14:41:25Z</time></trkpt><trkpt lat="47.79470595328659" lon="1.0728792258513138"><ele>80.0</ele><time>2026-04-25T14:41:26Z</time></trkpt><trkpt lat="47.79472650787824" lon="1.072973525422574"><ele>80.0</ele><time>2026-04-25T14:41:27Z</time></trkpt><trkpt lat="47.79476290962667" lon="1.073059936698879"><ele>80.0</ele><time>2026-04-25T14:41:28Z</time></trkpt><trkpt lat="47.79481233883449" lon="1.0731372204414633"><ele>80.0</ele><time>2026-04-25T14:41:29Z</time></trkpt><trkpt lat="47.7948474549318" lon="1.0732230206764166"><ele>80.0</ele><time>2026-04-25T14:41:30Z</time></trkpt><trkpt lat="47.794882056800205" lon="1.073303443557908"><ele>80.0</ele><time>2026-04-25T14:41:31Z</time></trkpt><trkpt lat="47.79494901815647" lon="1.0734553833528049"><ele>80.0</ele><time>2026-04-25T14:41:32.999Z</time></trkpt><trkpt lat="47.79498451831027" lon="1.07353364786489"><ele>80.0</ele><time>2026-04-25T14:41:33.999Z</time></trkpt><trkpt lat="47.79505104345775" lon="1.0736869263533815"><ele>80.0</ele><time>2026-04-25T14:41:35.999Z</time></trkpt><trkpt lat="47.79510417802397" lon="1.0738305727167314"><ele>80.0</ele><time>2026-04-25T14:41:37.999Z</time></trkpt><trkpt lat="47.795143876180916" lon="1.0739633152648151"><ele>80.0</ele><time>2026-04-25T14:41:39.999Z</time></trkpt><trkpt lat="47.795192202654206" lon="1.0740762190594844"><ele>80.0</ele><time>2026-04-25T14:41:41.999Z</time></trkpt><trkpt lat="47.7952392042141" lon="1.074177928768833"><ele>80.0</ele><time>2026-04-25T14:41:43.999Z</time></trkpt><trkpt lat="47.79527517497871" lon="1.0742599270274331"><ele>80.0</ele><time>2026-04-25T14:41:46.999Z</time></trkpt><trkpt lat="47.79530878047569" lon="1.0743663480432262"><ele>80.0</ele><time>2026-04-25T14:42:21Z</time></trkpt><trkpt lat="47.795357811884244" lon="1.074472415138581"><ele>80.0</ele><time>2026-04-25T14:42:25Z</time></trkpt><trkpt lat="47.79540048558367" lon="1.0745510467961243"><ele>80.0</ele><time>2026-04-25T14:42:27Z</time></trkpt><trkpt lat="47.79541471885202" lon="1.074688924177381"><ele>80.0</ele><time>2026-04-25T14:42:29Z</time></trkpt><trkpt lat="47.795342192223956" lon="1.0747923111869777"><ele>80.0</ele><time>2026-04-25T14:42:31Z</time></trkpt><trkpt lat="47.79520840604101" lon="1.0748208037159015"><ele>80.0</ele><time>2026-04-25T14:42:33Z</time></trkpt><trkpt lat="47.79511864549481" lon="1.0748694757579695"><ele>80.0</ele><time>2026-04-25T14:42:34Z</time></trkpt><trkpt lat="47.795025201610194" lon="1.074921809316849"><ele>80.0</ele><time>2026-04-25T14:42:35Z</time></trkpt><trkpt lat="47.79493050172024" lon="1.074977222783682"><ele>80.0</ele><time>2026-04-25T14:42:36Z</time></trkpt><trkpt lat="47.79482455484397" lon="1.0750433320412307"><ele>80.0</ele><time>2026-04-25T14:42:37Z</time></trkpt><trkpt lat="47.79470912535299" lon="1.0751188800867952"><ele>80.0</ele><time>2026-04-25T14:42:38Z</time></trkpt><trkpt lat="47.79458412162952" lon="1.0752084431503186"><ele>80.0</ele><time>2026-04-25T14:42:39Z</time></trkpt><trkpt lat="47.79446552549284" lon="1.0753168126192076"><ele>80.0</ele><time>2026-04-25T14:42:40Z</time></trkpt><trkpt lat="47.794355159342565" lon="1.0754236673994981"><ele>80.0</ele><time>2026-04-25T14:42:41Z</time></trkpt><trkpt lat="47.79424409037684" lon="1.075538678511628"><ele>80.0</ele><time>2026-04-25T14:42:42Z</time></trkpt><trkpt lat="47.79413094415807" lon="1.075654627713393"><ele>79.66666666666667</ele><time>2026-04-25T14:42:43Z</time></trkpt><trkpt lat="47.7940131972096" lon="1.07577400375585"><ele>79.33333333333333</ele><time>2026-04-25T14:42:44Z</time></trkpt><trkpt lat="47.79388990440167" lon="1.0759064413819064"><ele>79.0</ele><time>2026-04-25T14:42:45Z</time></trkpt><trkpt lat="47.79376244350644" lon="1.0760532569458894"><ele>79.0</ele><time>2026-04-25T14:42:46Z</time></trkpt><trkpt lat="47.79362997051509" lon="1.0762067514327631"><ele>79.0</ele><time>2026-04-25T14:42:47Z</time></trkpt><trkpt lat="47.79349918774156" lon="1.076365807216301"><ele>79.0</ele><time>2026-04-25T14:42:48Z</time></trkpt><trkpt lat="47.79337422941382" lon="1.0765241273838444"><ele>79.33333333333333</ele><time>2026-04-25T14:42:49Z</time></trkpt><trkpt lat="47.79325085570435" lon="1.0766871828172493"><ele>79.66666666666667</ele><time>2026-04-25T14:42:50Z</time></trkpt><trkpt lat="47.79312209854958" lon="1.076853049310392"><ele>80.0</ele><time>2026-04-25T14:42:51Z</time></trkpt><trkpt lat="47.792992270716994" lon="1.0770197707792588"><ele>80.0</ele><time>2026-04-25T14:42:52Z</time></trkpt><trkpt lat="47.79286301985403" lon="1.077186050575951"><ele>80.0</ele><time>2026-04-25T14:42:53Z</time></trkpt><trkpt lat="47.792728664067795" lon="1.0773637281586785"><ele>80.0</ele><time>2026-04-25T14:42:54Z</time></trkpt><trkpt lat="47.79258704116772" lon="1.077544364481918"><ele>80.0</ele><time>2026-04-25T14:42:55Z</time></trkpt><trkpt lat="47.79244491976569" lon="1.0777295894481735"><ele>80.0</ele><time>2026-04-25T14:42:56Z</time></trkpt><trkpt lat="47.79230586550468" lon="1.0779117900607609"><ele>80.0</ele><time>2026-04-25T14:42:57Z</time></trkpt><trkpt lat="47.792171902962615" lon="1.0780893209195404"><ele>80.0</ele><time>2026-04-25T14:42:58Z</time></trkpt><trkpt lat="47.79203632799399" lon="1.0782674379689086"><ele>80.0</ele><time>2026-04-25T14:42:59Z</time></trkpt><trkpt lat="47.79189889560561" lon="1.0784490108941114"><ele>80.0</ele><time>2026-04-25T14:43:00Z</time></trkpt><trkpt lat="47.791755480898054" lon="1.0786293022388063"><ele>80.66666666666667</ele><time>2026-04-25T14:43:01Z</time></trkpt><trkpt lat="47.7916126723263" lon="1.078816933375812"><ele>81.33333333333333</ele><time>2026-04-25T14:43:02Z</time></trkpt><trkpt lat="47.79146855461848" lon="1.0790006447004887"><ele>82.0</ele><time>2026-04-25T14:43:03Z</time></trkpt><trkpt lat="47.791325094919486" lon="1.0791894585233033"><ele>82.0</ele><time>2026-04-25T14:43:04Z</time></trkpt><trkpt lat="47.791183193697705" lon="1.079379652045909"><ele>82.0</ele><time>2026-04-25T14:43:05Z</time></trkpt><trkpt lat="47.791040203078566" lon="1.0795691657366955"><ele>82.0</ele><time>2026-04-25T14:43:06Z</time></trkpt><trkpt lat="47.790897818034566" lon="1.0797552227730982"><ele>82.66666666666666</ele><time>2026-04-25T14:43:07Z</time></trkpt><trkpt lat="47.790757429241545" lon="1.0799433854457177"><ele>83.33333333333333</ele><time>2026-04-25T14:43:08Z</time></trkpt><trkpt lat="47.790617910993966" lon="1.0801251735387731"><ele>84.0</ele><time>2026-04-25T14:43:09Z</time></trkpt><trkpt lat="47.79047980964976" lon="1.080307867371048"><ele>84.0</ele><time>2026-04-25T14:43:10Z</time></trkpt><trkpt lat="47.790334191879204" lon="1.0804951062027592"><ele>84.0</ele><time>2026-04-25T14:43:11Z</time></trkpt><trkpt lat="47.79019558603178" lon="1.0806857521431334"><ele>84.0</ele><time>2026-04-25T14:43:12Z</time></trkpt><trkpt lat="47.79005349169153" lon="1.0808685869345558"><ele>87.0</ele><time>2026-04-25T14:43:13Z</time></trkpt><trkpt lat="47.78990912096943" lon="1.0810505112203699"><ele>90.0</ele><time>2026-04-25T14:43:14Z</time></trkpt><trkpt lat="47.789761218042436" lon="1.0812219963514822"><ele>93.0</ele><time>2026-04-25T14:43:15Z</time></trkpt><trkpt lat="47.78960676972889" lon="1.0813827695822207"><ele>93.0</ele><time>2026-04-25T14:43:16Z</time></trkpt><trkpt lat="47.78945944130172" lon="1.0815327007298934"><ele>93.0</ele><time>2026-04-25T14:43:17Z</time></trkpt><trkpt lat="47.789291715508135" lon="1.0816840974750546"><ele>93.0</ele><time>2026-04-25T14:43:18Z</time></trkpt><trkpt lat="47.789124954583606" lon="1.0818111318662345"><ele>96.0</ele><time>2026-04-25T14:43:19Z</time></trkpt><trkpt lat="47.78895744198761" lon="1.0819255510623702"><ele>99.0</ele><time>2026-04-25T14:43:20Z</time></trkpt><trkpt lat="47.78878792480929" lon="1.0820356714518156"><ele>102.0</ele><time>2026-04-25T14:43:21Z</time></trkpt><trkpt lat="47.788614344255215" lon="1.082140313472257"><ele>103.66666666666666</ele><time>2026-04-25T14:43:22Z</time></trkpt><trkpt lat="47.788438073680126" lon="1.0822346009846924"><ele>105.33333333333333</ele><time>2026-04-25T14:43:23Z</time></trkpt><trkpt lat="47.78825558066968" lon="1.082313012812925"><ele>107.0</ele><time>2026-04-25T14:43:24Z</time></trkpt><trkpt lat="47.78807123271667" lon="1.082380774839502"><ele>107.66666666666666</ele><time>2026-04-25T14:43:25Z</time></trkpt><trkpt lat="47.78788216609579" lon="1.0824346267634457"><ele>108.33333333333334</ele><time>2026-04-25T14:43:26Z</time></trkpt><trkpt lat="47.78768907631608" lon="1.0824768282554225"><ele>109.0</ele><time>2026-04-25T14:43:27Z</time></trkpt><trkpt lat="47.7874970990885" lon="1.0825022462582157"><ele>109.66666666666667</ele><time>2026-04-25T14:43:28Z</time></trkpt><trkpt lat="47.7872945490302" lon="1.0825274546666441"><ele>110.33333333333334</ele><time>2026-04-25T14:43:29Z</time></trkpt><trkpt lat="47.787093575423626" lon="1.0825367198686218"><ele>111.0</ele><time>2026-04-25T14:43:30Z</time></trkpt><trkpt lat="47.78689260659302" lon="1.082531272962817"><ele>111.0</ele><time>2026-04-25T14:43:31Z</time></trkpt><trkpt lat="47.78668988875825" lon="1.0825127922531947"><ele>111.0</ele><time>2026-04-25T14:43:32Z</time></trkpt><trkpt lat="47.7864839328738" lon="1.0824765242259293"><ele>111.0</ele><time>2026-04-25T14:43:33Z</time></trkpt><trkpt lat="47.7862763235206" lon="1.0824249225278821"><ele>111.0</ele><time>2026-04-25T14:43:34Z</time></trkpt><trkpt lat="47.78606963006037" lon="1.0823613415612328"><ele>111.0</ele><time>2026-04-25T14:43:35Z</time></trkpt><trkpt lat="47.78586020228684" lon="1.0822850150165824"><ele>111.0</ele><time>2026-04-25T14:43:36Z</time></trkpt><trkpt lat="47.785655591759415" lon="1.0821914717875425"><ele>110.66666666666666</ele><time>2026-04-25T14:43:37Z</time></trkpt><trkpt lat="47.785458681221485" lon="1.0820888552911372"><ele>110.33333333333333</ele><time>2026-04-25T14:43:38Z</time></trkpt><trkpt lat="47.78526853690883" lon="1.0819726069230113"><ele>110.0</ele><time>2026-04-25T14:43:38.999Z</time></trkpt><trkpt lat="47.785082086553984" lon="1.0818464317764098"><ele>109.66666666666666</ele><time>2026-04-25T14:43:39.999Z</time></trkpt><trkpt lat="47.78489791939635" lon="1.0817106934119656"><ele>109.33333333333334</ele><time>2026-04-25T14:43:40.999Z</time></trkpt><trkpt lat="47.78472067012748" lon="1.081564930685572"><ele>109.0</ele><time>2026-04-25T14:43:41.999Z</time></trkpt><trkpt lat="47.78454791464286" lon="1.0814072868774645"><ele>108.66666666666667</ele><time>2026-04-25T14:43:42.999Z</time></trkpt><trkpt lat="47.78438165441912" lon="1.081237610779314"><ele>108.33333333333334</ele><time>2026-04-25T14:43:43.999Z</time></trkpt><trkpt lat="47.784222583367864" lon="1.0810542424121248"><ele>108.0</ele><time>2026-04-25T14:43:44.999Z</time></trkpt><trkpt lat="47.78407144106319" lon="1.0808601460658023"><ele>109.33333333333334</ele><time>2026-04-25T14:43:45.999Z</time></trkpt><trkpt lat="47.78392400377765" lon="1.0806573968958524"><ele>110.66666666666667</ele><time>2026-04-25T14:43:46.999Z</time></trkpt><trkpt lat="47.78378166574265" lon="1.0804446050227525"><ele>112.0</ele><time>2026-04-25T14:43:47.999Z</time></trkpt><trkpt lat="47.78364460436612" lon="1.0802223422506623"><ele>112.0</ele><time>2026-04-25T14:43:48.999Z</time></trkpt><trkpt lat="47.78351504081148" lon="1.0799900814064236"><ele>112.0</ele><time>2026-04-25T14:43:49.999Z</time></trkpt><trkpt lat="47.78339211424753" lon="1.0797463563349887"><ele>112.0</ele><time>2026-04-25T14:43:50.999Z</time></trkpt><trkpt lat="47.78327424393302" lon="1.0794967868886518"><ele>114.0</ele><time>2026-04-25T14:43:51.999Z</time></trkpt><trkpt lat="47.783164441790454" lon="1.0792401385252377"><ele>116.0</ele><time>2026-04-25T14:43:52.999Z</time></trkpt><trkpt lat="47.783058094599824" lon="1.0789806400172204"><ele>118.0</ele><time>2026-04-25T14:43:53.999Z</time></trkpt><trkpt lat="47.78295205864795" lon="1.0787214131742788"><ele>118.66666666666667</ele><time>2026-04-25T14:43:54.999Z</time></trkpt><trkpt lat="47.78285050323775" lon="1.0784615914524602"><ele>119.33333333333334</ele><time>2026-04-25T14:43:55.999Z</time></trkpt><trkpt lat="47.78274888946179" lon="1.0782039153740306"><ele>120.0</ele><time>2026-04-25T14:43:56.999Z</time></trkpt><trkpt lat="47.78264768634283" lon="1.0779467462469712"><ele>121.33333333333334</ele><time>2026-04-25T14:43:57.999Z</time></trkpt><trkpt lat="47.782549153100646" lon="1.077690932833242"><ele>122.66666666666667</ele><time>2026-04-25T14:43:58.999Z</time></trkpt><trkpt lat="47.78245089074466" lon="1.0774365736000733"><ele>124.0</ele><time>2026-04-25T14:43:59.999Z</time></trkpt><trkpt lat="47.78235142848959" lon="1.0771849737607704"><ele>124.66666666666667</ele><time>2026-04-25T14:44:00.999Z</time></trkpt><trkpt lat="47.782253447329" lon="1.076939388275754"><ele>125.33333333333334</ele><time>2026-04-25T14:44:01.999Z</time></trkpt><trkpt lat="47.78215681190785" lon="1.076697178988087"><ele>126.0</ele><time>2026-04-25T14:44:02.999Z</time></trkpt><trkpt lat="47.78206151995719" lon="1.0764550748413317"><ele>126.33333333333334</ele><time>2026-04-25T14:44:03.999Z</time></trkpt><trkpt lat="47.78196656831928" lon="1.0762139883153214"><ele>126.66666666666667</ele><time>2026-04-25T14:44:04.999Z</time></trkpt><trkpt lat="47.781869723303814" lon="1.0759687547273025"><ele>127.0</ele><time>2026-04-25T14:44:05.999Z</time></trkpt><trkpt lat="47.78177444865729" lon="1.0757229674990596"><ele>128.33333333333334</ele><time>2026-04-25T14:44:06.999Z</time></trkpt><trkpt lat="47.78167907622024" lon="1.075479723996069"><ele>129.66666666666666</ele><time>2026-04-25T14:44:07.999Z</time></trkpt><trkpt lat="47.78158502957076" lon="1.0752385178860084"><ele>131.0</ele><time>2026-04-25T14:44:08.999Z</time></trkpt><trkpt lat="47.781488832222536" lon="1.0749998649661203"><ele>131.66666666666666</ele><time>2026-04-25T14:44:09.999Z</time></trkpt><trkpt lat="47.78139473690278" lon="1.0747652950035582"><ele>132.33333333333334</ele><time>2026-04-25T14:44:10.999Z</time></trkpt><trkpt lat="47.78130108062422" lon="1.074530620019796"><ele>133.0</ele><time>2026-04-25T14:44:11.999Z</time></trkpt><trkpt lat="47.78120549890051" lon="1.0742900156890187"><ele>133.0</ele><time>2026-04-25T14:44:12.999Z</time></trkpt><trkpt lat="47.78110983608894" lon="1.0740459996082312"><ele>133.0</ele><time>2026-04-25T14:44:13.999Z</time></trkpt><trkpt lat="47.781012400201504" lon="1.0737980672272407"><ele>133.0</ele><time>2026-04-25T14:44:14.999Z</time></trkpt><trkpt lat="47.78091519008144" lon="1.0735529257342433"><ele>133.33333333333334</ele><time>2026-04-25T14:44:15.999Z</time></trkpt><trkpt lat="47.78081885592651" lon="1.0733074485114245"><ele>133.66666666666666</ele><time>2026-04-25T14:44:16.999Z</time></trkpt><trkpt lat="47.78072027053868" lon="1.0730632991696647"><ele>134.0</ele><time>2026-04-25T14:44:17.999Z</time></trkpt><trkpt lat="47.78062700966922" lon="1.072817411014644"><ele>134.33333333333331</ele><time>2026-04-25T14:44:18.999Z</time></trkpt><trkpt lat="47.78053050762288" lon="1.0725768775834856"><ele>134.66666666666666</ele><time>2026-04-25T14:44:19.999Z</time></trkpt><trkpt lat="47.780434547589714" lon="1.0723327063283081"><ele>135.0</ele><time>2026-04-25T14:44:20.999Z</time></trkpt><trkpt lat="47.78034296078079" lon="1.0720938956405002"><ele>135.0</ele><time>2026-04-25T14:44:21.999Z</time></trkpt><trkpt lat="47.780250285951304" lon="1.0718547748148894"><ele>135.0</ele><time>2026-04-25T14:44:22.999Z</time></trkpt><trkpt lat="47.780157015523294" lon="1.071614215991842"><ele>135.0</ele><time>2026-04-25T14:44:23.999Z</time></trkpt><trkpt lat="47.780064392288416" lon="1.0713754995549813"><ele>135.0</ele><time>2026-04-25T14:44:24.999Z</time></trkpt><trkpt lat="47.77997691486077" lon="1.0711433926289828"><ele>135.0</ele><time>2026-04-25T14:44:25.999Z</time></trkpt><trkpt lat="47.77988925752596" lon="1.0709211356209656"><ele>135.0</ele><time>2026-04-25T14:44:26.999Z</time></trkpt><trkpt lat="47.779798765767765" lon="1.070696616160922"><ele>134.66666666666666</ele><time>2026-04-25T14:44:27.999Z</time></trkpt><trkpt lat="47.779710308715565" lon="1.070473351100708"><ele>134.33333333333331</ele><time>2026-04-25T14:44:28.999Z</time></trkpt><trkpt lat="47.779622684554276" lon="1.0702517398889608"><ele>134.0</ele><time>2026-04-25T14:44:30Z</time></trkpt><trkpt lat="47.77953429478396" lon="1.0700317143334879"><ele>134.0</ele><time>2026-04-25T14:44:31Z</time></trkpt><trkpt lat="47.77944437480655" lon="1.069817808617764"><ele>134.0</ele><time>2026-04-25T14:44:32Z</time></trkpt><trkpt lat="47.77935556992447" lon="1.0696046829017218"><ele>134.0</ele><time>2026-04-25T14:44:33Z</time></trkpt><trkpt lat="47.779266497992445" lon="1.0693892036199724"><ele>134.0</ele><time>2026-04-25T14:44:34Z</time></trkpt><trkpt lat="47.77917450152196" lon="1.0691765933227277"><ele>134.0</ele><time>2026-04-25T14:44:35Z</time></trkpt><trkpt lat="47.779083183892006" lon="1.0689672197480622"><ele>134.0</ele><time>2026-04-25T14:44:36Z</time></trkpt><trkpt lat="47.77899296032284" lon="1.0687539830033046"><ele>132.0</ele><time>2026-04-25T14:44:37Z</time></trkpt></trkseg></trk></gpx>